<?xml version="1.0" encoding="UTF-8" standalone="no" ?>
<gpx xmlns="http://www.topografix.com/GPX/1/1" xmlns:xsi="http://www.w3.org/2001/XMLSchema-instance" xsi:schemaLocation="http://www.topografix.com/GPX/1/1 http://www.topografix.com/GPX/1/1/gpx.xsd" version="1.1" creator="VisuGPX - https://www.visugpx.com">
  <metadata>
    <name>LGT : Erquy</name>
    <desc><![CDATA[Une balade d\'environ 12 km au départ du port d\'Erquy. Après avoir suivi le GR 34 jusqu\'à la plage de Saint-Pabu, vous reviendrez par l\'intérieur des terres en passant par de jolis hameaux aux demeures de grès rose. Après avoir passé sous l\'ancien viaduc du petit train des Côtes du Nord, vous suivrez une jolie vallée avant de remonter sur les hauteurs d\'Erquy. Il ne vous restera plus qu\'à rejoindre le port par l\'une des nombreuses rues ou ruelles qui l\'y conduisent.]]></desc>
  </metadata>
  <trk>
    <name><![CDATA[LGT : Erquy_1]]></name>
    <trkseg>
      <trkpt lat="48.63633" lon="-2.47339">
        <ele>79</ele>
        <time>2015-03-30T11:32:05.1Z</time>
      </trkpt>
      <trkpt lat="48.63634" lon="-2.47332">
        <ele>79</ele>
        <time>2015-03-30T11:32:07.1Z</time>
      </trkpt>
      <trkpt lat="48.63635" lon="-2.47325">
        <ele>80</ele>
        <time>2015-03-30T11:32:10.1Z</time>
      </trkpt>
      <trkpt lat="48.63636" lon="-2.47322">
        <ele>80</ele>
        <time>2015-03-30T11:32:12.1Z</time>
      </trkpt>
      <trkpt lat="48.63637" lon="-2.47319">
        <ele>80</ele>
        <time>2015-03-30T11:32:15.1Z</time>
      </trkpt>
      <trkpt lat="48.63637" lon="-2.47314">
        <ele>80</ele>
        <time>2015-03-30T11:32:18.1Z</time>
      </trkpt>
      <trkpt lat="48.63638" lon="-2.47307">
        <ele>79</ele>
        <time>2015-03-30T11:32:21.1Z</time>
      </trkpt>
      <trkpt lat="48.63638" lon="-2.473">
        <ele>79</ele>
        <time>2015-03-30T11:32:24.1Z</time>
      </trkpt>
      <trkpt lat="48.63638" lon="-2.47296">
        <ele>79</ele>
        <time>2015-03-30T11:32:26.1Z</time>
      </trkpt>
      <trkpt lat="48.63637" lon="-2.4729">
        <ele>79</ele>
        <time>2015-03-30T11:32:29.1Z</time>
      </trkpt>
      <trkpt lat="48.63635" lon="-2.47284">
        <ele>79</ele>
        <time>2015-03-30T11:32:32.1Z</time>
      </trkpt>
      <trkpt lat="48.63633" lon="-2.47278">
        <ele>79</ele>
        <time>2015-03-30T11:32:35.1Z</time>
      </trkpt>
      <trkpt lat="48.6363" lon="-2.47272">
        <ele>78</ele>
        <time>2015-03-30T11:32:38.1Z</time>
      </trkpt>
      <trkpt lat="48.63629" lon="-2.47268">
        <ele>78</ele>
        <time>2015-03-30T11:32:40.1Z</time>
      </trkpt>
      <trkpt lat="48.63627" lon="-2.47262">
        <ele>78</ele>
        <time>2015-03-30T11:32:43.1Z</time>
      </trkpt>
      <trkpt lat="48.63626" lon="-2.47256">
        <ele>78</ele>
        <time>2015-03-30T11:32:46.1Z</time>
      </trkpt>
      <trkpt lat="48.63626" lon="-2.47256">
        <ele>78</ele>
        <time>2015-03-30T11:32:48.1Z</time>
      </trkpt>
      <trkpt lat="48.63626" lon="-2.47254">
        <ele>79</ele>
        <time>2015-03-30T11:32:51.1Z</time>
      </trkpt>
      <trkpt lat="48.63624" lon="-2.47248">
        <ele>78</ele>
        <time>2015-03-30T11:32:54.1Z</time>
      </trkpt>
      <trkpt lat="48.63623" lon="-2.47243">
        <ele>78</ele>
        <time>2015-03-30T11:32:57.1Z</time>
      </trkpt>
      <trkpt lat="48.63624" lon="-2.4724">
        <ele>78</ele>
        <time>2015-03-30T11:32:59.1Z</time>
      </trkpt>
      <trkpt lat="48.63624" lon="-2.47236">
        <ele>78</ele>
        <time>2015-03-30T11:33:01.1Z</time>
      </trkpt>
      <trkpt lat="48.63624" lon="-2.47233">
        <ele>78</ele>
        <time>2015-03-30T11:33:03.1Z</time>
      </trkpt>
      <trkpt lat="48.63624" lon="-2.47227">
        <ele>78</ele>
        <time>2015-03-30T11:33:06.1Z</time>
      </trkpt>
      <trkpt lat="48.63624" lon="-2.47223">
        <ele>78</ele>
        <time>2015-03-30T11:33:08.1Z</time>
      </trkpt>
      <trkpt lat="48.63623" lon="-2.47216">
        <ele>77</ele>
        <time>2015-03-30T11:33:11.1Z</time>
      </trkpt>
      <trkpt lat="48.63622" lon="-2.47213">
        <ele>78</ele>
        <time>2015-03-30T11:33:13.1Z</time>
      </trkpt>
      <trkpt lat="48.63622" lon="-2.47207">
        <ele>78</ele>
        <time>2015-03-30T11:33:16.1Z</time>
      </trkpt>
      <trkpt lat="48.63622" lon="-2.472">
        <ele>78</ele>
        <time>2015-03-30T11:33:19.1Z</time>
      </trkpt>
      <trkpt lat="48.6362" lon="-2.47196">
        <ele>78</ele>
        <time>2015-03-30T11:33:21.1Z</time>
      </trkpt>
      <trkpt lat="48.63619" lon="-2.4719">
        <ele>78</ele>
        <time>2015-03-30T11:33:24.1Z</time>
      </trkpt>
      <trkpt lat="48.63617" lon="-2.47184">
        <ele>78</ele>
        <time>2015-03-30T11:33:27.1Z</time>
      </trkpt>
      <trkpt lat="48.63617" lon="-2.47178">
        <ele>78</ele>
        <time>2015-03-30T11:33:30.1Z</time>
      </trkpt>
      <trkpt lat="48.63617" lon="-2.47171">
        <ele>78</ele>
        <time>2015-03-30T11:33:33.1Z</time>
      </trkpt>
      <trkpt lat="48.63616" lon="-2.47167">
        <ele>78</ele>
        <time>2015-03-30T11:33:35.1Z</time>
      </trkpt>
      <trkpt lat="48.63615" lon="-2.47162">
        <ele>78</ele>
        <time>2015-03-30T11:33:38.1Z</time>
      </trkpt>
      <trkpt lat="48.63615" lon="-2.47158">
        <ele>78</ele>
        <time>2015-03-30T11:33:40.1Z</time>
      </trkpt>
      <trkpt lat="48.63615" lon="-2.47155">
        <ele>78</ele>
        <time>2015-03-30T11:33:42.1Z</time>
      </trkpt>
      <trkpt lat="48.63615" lon="-2.47152">
        <ele>78</ele>
        <time>2015-03-30T11:33:44.1Z</time>
      </trkpt>
      <trkpt lat="48.63615" lon="-2.47146">
        <ele>78</ele>
        <time>2015-03-30T11:33:47.1Z</time>
      </trkpt>
      <trkpt lat="48.63614" lon="-2.4714">
        <ele>78</ele>
        <time>2015-03-30T11:33:50.1Z</time>
      </trkpt>
      <trkpt lat="48.63613" lon="-2.47137">
        <ele>78</ele>
        <time>2015-03-30T11:33:52.1Z</time>
      </trkpt>
      <trkpt lat="48.63612" lon="-2.47131">
        <ele>78</ele>
        <time>2015-03-30T11:33:55.1Z</time>
      </trkpt>
      <trkpt lat="48.63612" lon="-2.47127">
        <ele>78</ele>
        <time>2015-03-30T11:33:57.1Z</time>
      </trkpt>
      <trkpt lat="48.63611" lon="-2.47122">
        <ele>78</ele>
        <time>2015-03-30T11:34:00.1Z</time>
      </trkpt>
      <trkpt lat="48.63609" lon="-2.47116">
        <ele>78</ele>
        <time>2015-03-30T11:34:03.1Z</time>
      </trkpt>
      <trkpt lat="48.63609" lon="-2.47111">
        <ele>78</ele>
        <time>2015-03-30T11:34:06.1Z</time>
      </trkpt>
      <trkpt lat="48.63608" lon="-2.47109">
        <ele>78</ele>
        <time>2015-03-30T11:34:08.1Z</time>
      </trkpt>
      <trkpt lat="48.63608" lon="-2.47107">
        <ele>78</ele>
        <time>2015-03-30T11:34:10.1Z</time>
      </trkpt>
      <trkpt lat="48.63607" lon="-2.47102">
        <ele>78</ele>
        <time>2015-03-30T11:34:13.1Z</time>
      </trkpt>
      <trkpt lat="48.63607" lon="-2.47098">
        <ele>78</ele>
        <time>2015-03-30T11:34:15.1Z</time>
      </trkpt>
      <trkpt lat="48.63606" lon="-2.47093">
        <ele>78</ele>
        <time>2015-03-30T11:34:18.1Z</time>
      </trkpt>
      <trkpt lat="48.63606" lon="-2.47088">
        <ele>77</ele>
        <time>2015-03-30T11:34:21.1Z</time>
      </trkpt>
      <trkpt lat="48.63605" lon="-2.47085">
        <ele>77</ele>
        <time>2015-03-30T11:34:23.1Z</time>
      </trkpt>
      <trkpt lat="48.63604" lon="-2.47079">
        <ele>77</ele>
        <time>2015-03-30T11:34:26.1Z</time>
      </trkpt>
      <trkpt lat="48.63604" lon="-2.47076">
        <ele>77</ele>
        <time>2015-03-30T11:34:28.1Z</time>
      </trkpt>
      <trkpt lat="48.63604" lon="-2.4707">
        <ele>77</ele>
        <time>2015-03-30T11:34:31.1Z</time>
      </trkpt>
      <trkpt lat="48.63604" lon="-2.47065">
        <ele>77</ele>
        <time>2015-03-30T11:34:33.1Z</time>
      </trkpt>
      <trkpt lat="48.63603" lon="-2.4706">
        <ele>77</ele>
        <time>2015-03-30T11:34:36.1Z</time>
      </trkpt>
      <trkpt lat="48.63604" lon="-2.47054">
        <ele>77</ele>
        <time>2015-03-30T11:34:39.1Z</time>
      </trkpt>
      <trkpt lat="48.63603" lon="-2.4705">
        <ele>77</ele>
        <time>2015-03-30T11:34:41.1Z</time>
      </trkpt>
      <trkpt lat="48.63602" lon="-2.47044">
        <ele>77</ele>
        <time>2015-03-30T11:34:44.1Z</time>
      </trkpt>
      <trkpt lat="48.63602" lon="-2.47041">
        <ele>77</ele>
        <time>2015-03-30T11:34:46.1Z</time>
      </trkpt>
      <trkpt lat="48.63602" lon="-2.47036">
        <ele>77</ele>
        <time>2015-03-30T11:34:49.1Z</time>
      </trkpt>
      <trkpt lat="48.63601" lon="-2.47031">
        <ele>77</ele>
        <time>2015-03-30T11:34:52.1Z</time>
      </trkpt>
      <trkpt lat="48.63601" lon="-2.47027">
        <ele>77</ele>
        <time>2015-03-30T11:34:55.1Z</time>
      </trkpt>
      <trkpt lat="48.636" lon="-2.47023">
        <ele>77</ele>
        <time>2015-03-30T11:34:58.1Z</time>
      </trkpt>
      <trkpt lat="48.636" lon="-2.47019">
        <ele>77</ele>
        <time>2015-03-30T11:35:00.1Z</time>
      </trkpt>
      <trkpt lat="48.636" lon="-2.47017">
        <ele>77</ele>
        <time>2015-03-30T11:35:02.1Z</time>
      </trkpt>
      <trkpt lat="48.636" lon="-2.47012">
        <ele>77</ele>
        <time>2015-03-30T11:35:05.1Z</time>
      </trkpt>
      <trkpt lat="48.63601" lon="-2.47009">
        <ele>77</ele>
        <time>2015-03-30T11:35:08.1Z</time>
      </trkpt>
      <trkpt lat="48.63601" lon="-2.47006">
        <ele>77</ele>
        <time>2015-03-30T11:35:10.1Z</time>
      </trkpt>
      <trkpt lat="48.63601" lon="-2.47001">
        <ele>78</ele>
        <time>2015-03-30T11:35:13.1Z</time>
      </trkpt>
      <trkpt lat="48.63601" lon="-2.46997">
        <ele>78</ele>
        <time>2015-03-30T11:35:15.1Z</time>
      </trkpt>
      <trkpt lat="48.63601" lon="-2.46992">
        <ele>78</ele>
        <time>2015-03-30T11:35:18.1Z</time>
      </trkpt>
      <trkpt lat="48.63602" lon="-2.46989">
        <ele>78</ele>
        <time>2015-03-30T11:35:20.1Z</time>
      </trkpt>
      <trkpt lat="48.63604" lon="-2.46983">
        <ele>78</ele>
        <time>2015-03-30T11:35:23.1Z</time>
      </trkpt>
      <trkpt lat="48.63604" lon="-2.46977">
        <ele>78</ele>
        <time>2015-03-30T11:35:26.1Z</time>
      </trkpt>
      <trkpt lat="48.63605" lon="-2.46973">
        <ele>78</ele>
        <time>2015-03-30T11:35:28.1Z</time>
      </trkpt>
      <trkpt lat="48.63606" lon="-2.46968">
        <ele>78</ele>
        <time>2015-03-30T11:35:31.1Z</time>
      </trkpt>
      <trkpt lat="48.63608" lon="-2.46963">
        <ele>78</ele>
        <time>2015-03-30T11:35:34.1Z</time>
      </trkpt>
      <trkpt lat="48.63609" lon="-2.46959">
        <ele>78</ele>
        <time>2015-03-30T11:35:36.1Z</time>
      </trkpt>
      <trkpt lat="48.6361" lon="-2.46954">
        <ele>78</ele>
        <time>2015-03-30T11:35:39.1Z</time>
      </trkpt>
      <trkpt lat="48.63611" lon="-2.46952">
        <ele>78</ele>
        <time>2015-03-30T11:35:41.1Z</time>
      </trkpt>
      <trkpt lat="48.63613" lon="-2.46948">
        <ele>78</ele>
        <time>2015-03-30T11:35:44.1Z</time>
      </trkpt>
      <trkpt lat="48.63614" lon="-2.46942">
        <ele>78</ele>
        <time>2015-03-30T11:35:47.1Z</time>
      </trkpt>
      <trkpt lat="48.63615" lon="-2.46937">
        <ele>78</ele>
        <time>2015-03-30T11:35:50.1Z</time>
      </trkpt>
      <trkpt lat="48.63616" lon="-2.46933">
        <ele>78</ele>
        <time>2015-03-30T11:35:52.1Z</time>
      </trkpt>
      <trkpt lat="48.63616" lon="-2.4693">
        <ele>78</ele>
        <time>2015-03-30T11:35:54.1Z</time>
      </trkpt>
      <trkpt lat="48.63618" lon="-2.46924">
        <ele>78</ele>
        <time>2015-03-30T11:35:57.1Z</time>
      </trkpt>
      <trkpt lat="48.63619" lon="-2.46919">
        <ele>78</ele>
        <time>2015-03-30T11:36:00.1Z</time>
      </trkpt>
      <trkpt lat="48.63622" lon="-2.46914">
        <ele>78</ele>
        <time>2015-03-30T11:36:03.1Z</time>
      </trkpt>
      <trkpt lat="48.63623" lon="-2.46911">
        <ele>78</ele>
        <time>2015-03-30T11:36:05.1Z</time>
      </trkpt>
      <trkpt lat="48.63624" lon="-2.46907">
        <ele>78</ele>
        <time>2015-03-30T11:36:07.1Z</time>
      </trkpt>
      <trkpt lat="48.63625" lon="-2.46901">
        <ele>78</ele>
        <time>2015-03-30T11:36:10.1Z</time>
      </trkpt>
      <trkpt lat="48.63626" lon="-2.46898">
        <ele>78</ele>
        <time>2015-03-30T11:36:12.1Z</time>
      </trkpt>
      <trkpt lat="48.63627" lon="-2.46892">
        <ele>78</ele>
        <time>2015-03-30T11:36:15.1Z</time>
      </trkpt>
      <trkpt lat="48.63627" lon="-2.46888">
        <ele>78</ele>
        <time>2015-03-30T11:36:17.1Z</time>
      </trkpt>
      <trkpt lat="48.63628" lon="-2.46884">
        <ele>78</ele>
        <time>2015-03-30T11:36:19.1Z</time>
      </trkpt>
      <trkpt lat="48.63628" lon="-2.46879">
        <ele>78</ele>
        <time>2015-03-30T11:36:22.1Z</time>
      </trkpt>
      <trkpt lat="48.63628" lon="-2.46873">
        <ele>78</ele>
        <time>2015-03-30T11:36:25.1Z</time>
      </trkpt>
      <trkpt lat="48.63628" lon="-2.46869">
        <ele>78</ele>
        <time>2015-03-30T11:36:27.1Z</time>
      </trkpt>
      <trkpt lat="48.63627" lon="-2.46864">
        <ele>78</ele>
        <time>2015-03-30T11:36:30.1Z</time>
      </trkpt>
      <trkpt lat="48.63626" lon="-2.4686">
        <ele>78</ele>
        <time>2015-03-30T11:36:32.1Z</time>
      </trkpt>
      <trkpt lat="48.63625" lon="-2.46854">
        <ele>78</ele>
        <time>2015-03-30T11:36:35.1Z</time>
      </trkpt>
      <trkpt lat="48.63624" lon="-2.46851">
        <ele>78</ele>
        <time>2015-03-30T11:36:37.1Z</time>
      </trkpt>
      <trkpt lat="48.63623" lon="-2.46845">
        <ele>78</ele>
        <time>2015-03-30T11:36:40.1Z</time>
      </trkpt>
      <trkpt lat="48.63622" lon="-2.4684">
        <ele>78</ele>
        <time>2015-03-30T11:36:43.1Z</time>
      </trkpt>
      <trkpt lat="48.6362" lon="-2.46836">
        <ele>78</ele>
        <time>2015-03-30T11:36:45.1Z</time>
      </trkpt>
      <trkpt lat="48.6362" lon="-2.46832">
        <ele>78</ele>
        <time>2015-03-30T11:36:47.1Z</time>
      </trkpt>
      <trkpt lat="48.63618" lon="-2.46829">
        <ele>78</ele>
        <time>2015-03-30T11:36:50.1Z</time>
      </trkpt>
      <trkpt lat="48.63617" lon="-2.46826">
        <ele>78</ele>
        <time>2015-03-30T11:36:52.1Z</time>
      </trkpt>
      <trkpt lat="48.63614" lon="-2.46821">
        <ele>78</ele>
        <time>2015-03-30T11:36:55.1Z</time>
      </trkpt>
      <trkpt lat="48.63612" lon="-2.46818">
        <ele>78</ele>
        <time>2015-03-30T11:36:57.1Z</time>
      </trkpt>
      <trkpt lat="48.63609" lon="-2.46815">
        <ele>78</ele>
        <time>2015-03-30T11:37:00.1Z</time>
      </trkpt>
      <trkpt lat="48.63607" lon="-2.46813">
        <ele>78</ele>
        <time>2015-03-30T11:37:02.1Z</time>
      </trkpt>
      <trkpt lat="48.63603" lon="-2.46809">
        <ele>78</ele>
        <time>2015-03-30T11:37:05.1Z</time>
      </trkpt>
      <trkpt lat="48.63601" lon="-2.46806">
        <ele>78</ele>
        <time>2015-03-30T11:37:07.1Z</time>
      </trkpt>
      <trkpt lat="48.63597" lon="-2.46802">
        <ele>78</ele>
        <time>2015-03-30T11:37:10.1Z</time>
      </trkpt>
      <trkpt lat="48.63594" lon="-2.46799">
        <ele>78</ele>
        <time>2015-03-30T11:37:13.1Z</time>
      </trkpt>
      <trkpt lat="48.63593" lon="-2.46797">
        <ele>78</ele>
        <time>2015-03-30T11:37:15.1Z</time>
      </trkpt>
      <trkpt lat="48.63591" lon="-2.46793">
        <ele>78</ele>
        <time>2015-03-30T11:37:18.1Z</time>
      </trkpt>
      <trkpt lat="48.63589" lon="-2.4679">
        <ele>78</ele>
        <time>2015-03-30T11:37:20.1Z</time>
      </trkpt>
      <trkpt lat="48.63587" lon="-2.46787">
        <ele>79</ele>
        <time>2015-03-30T11:37:23.1Z</time>
      </trkpt>
      <trkpt lat="48.63585" lon="-2.46784">
        <ele>79</ele>
        <time>2015-03-30T11:37:25.1Z</time>
      </trkpt>
      <trkpt lat="48.63582" lon="-2.46779">
        <ele>78</ele>
        <time>2015-03-30T11:37:28.1Z</time>
      </trkpt>
      <trkpt lat="48.63581" lon="-2.46778">
        <ele>78</ele>
        <time>2015-03-30T11:37:30.1Z</time>
      </trkpt>
      <trkpt lat="48.63579" lon="-2.46774">
        <ele>78</ele>
        <time>2015-03-30T11:37:33.1Z</time>
      </trkpt>
      <trkpt lat="48.63577" lon="-2.46772">
        <ele>78</ele>
        <time>2015-03-30T11:37:35.1Z</time>
      </trkpt>
      <trkpt lat="48.63575" lon="-2.46769">
        <ele>79</ele>
        <time>2015-03-30T11:37:38.1Z</time>
      </trkpt>
      <trkpt lat="48.63572" lon="-2.46766">
        <ele>79</ele>
        <time>2015-03-30T11:37:41.1Z</time>
      </trkpt>
      <trkpt lat="48.63568" lon="-2.46764">
        <ele>79</ele>
        <time>2015-03-30T11:37:44.1Z</time>
      </trkpt>
      <trkpt lat="48.63566" lon="-2.46762">
        <ele>79</ele>
        <time>2015-03-30T11:37:46.1Z</time>
      </trkpt>
      <trkpt lat="48.63563" lon="-2.46758">
        <ele>79</ele>
        <time>2015-03-30T11:37:49.1Z</time>
      </trkpt>
      <trkpt lat="48.63562" lon="-2.46755">
        <ele>79</ele>
        <time>2015-03-30T11:37:51.1Z</time>
      </trkpt>
      <trkpt lat="48.63559" lon="-2.46748">
        <ele>79</ele>
        <time>2015-03-30T11:37:54.1Z</time>
      </trkpt>
      <trkpt lat="48.63557" lon="-2.46741">
        <ele>79</ele>
        <time>2015-03-30T11:37:57.1Z</time>
      </trkpt>
      <trkpt lat="48.63556" lon="-2.46737">
        <ele>79</ele>
        <time>2015-03-30T11:37:59.1Z</time>
      </trkpt>
      <trkpt lat="48.63553" lon="-2.46732">
        <ele>79</ele>
        <time>2015-03-30T11:38:02.1Z</time>
      </trkpt>
      <trkpt lat="48.6355" lon="-2.46729">
        <ele>79</ele>
        <time>2015-03-30T11:38:04.1Z</time>
      </trkpt>
      <trkpt lat="48.63548" lon="-2.46728">
        <ele>79</ele>
        <time>2015-03-30T11:38:06.1Z</time>
      </trkpt>
      <trkpt lat="48.63545" lon="-2.46726">
        <ele>79</ele>
        <time>2015-03-30T11:38:09.1Z</time>
      </trkpt>
      <trkpt lat="48.6354" lon="-2.46727">
        <ele>79</ele>
        <time>2015-03-30T11:38:12.1Z</time>
      </trkpt>
      <trkpt lat="48.63535" lon="-2.46725">
        <ele>79</ele>
        <time>2015-03-30T11:38:14.1Z</time>
      </trkpt>
      <trkpt lat="48.63528" lon="-2.46716">
        <ele>79</ele>
        <time>2015-03-30T11:38:17.1Z</time>
      </trkpt>
      <trkpt lat="48.63525" lon="-2.46713">
        <ele>79</ele>
        <time>2015-03-30T11:38:19.1Z</time>
      </trkpt>
      <trkpt lat="48.63522" lon="-2.46711">
        <ele>79</ele>
        <time>2015-03-30T11:38:22.1Z</time>
      </trkpt>
      <trkpt lat="48.63519" lon="-2.46714">
        <ele>80</ele>
        <time>2015-03-30T11:38:25.1Z</time>
      </trkpt>
      <trkpt lat="48.63515" lon="-2.46716">
        <ele>79</ele>
        <time>2015-03-30T11:38:28.1Z</time>
      </trkpt>
      <trkpt lat="48.63513" lon="-2.46718">
        <ele>79</ele>
        <time>2015-03-30T11:38:30.1Z</time>
      </trkpt>
      <trkpt lat="48.6351" lon="-2.4672">
        <ele>79</ele>
        <time>2015-03-30T11:38:32.1Z</time>
      </trkpt>
      <trkpt lat="48.63508" lon="-2.4672">
        <ele>79</ele>
        <time>2015-03-30T11:38:35.1Z</time>
      </trkpt>
      <trkpt lat="48.63506" lon="-2.46719">
        <ele>79</ele>
        <time>2015-03-30T11:38:37.1Z</time>
      </trkpt>
      <trkpt lat="48.63503" lon="-2.46718">
        <ele>79</ele>
        <time>2015-03-30T11:38:40.1Z</time>
      </trkpt>
      <trkpt lat="48.63501" lon="-2.46717">
        <ele>78</ele>
        <time>2015-03-30T11:38:42.1Z</time>
      </trkpt>
      <trkpt lat="48.63496" lon="-2.46715">
        <ele>78</ele>
        <time>2015-03-30T11:38:45.1Z</time>
      </trkpt>
      <trkpt lat="48.63492" lon="-2.46713">
        <ele>78</ele>
        <time>2015-03-30T11:38:48.1Z</time>
      </trkpt>
      <trkpt lat="48.6349" lon="-2.46712">
        <ele>79</ele>
        <time>2015-03-30T11:38:51.1Z</time>
      </trkpt>
      <trkpt lat="48.63487" lon="-2.46711">
        <ele>79</ele>
        <time>2015-03-30T11:38:54.1Z</time>
      </trkpt>
      <trkpt lat="48.63483" lon="-2.4671">
        <ele>79</ele>
        <time>2015-03-30T11:38:57.1Z</time>
      </trkpt>
      <trkpt lat="48.63481" lon="-2.46709">
        <ele>78</ele>
        <time>2015-03-30T11:38:59.1Z</time>
      </trkpt>
      <trkpt lat="48.63477" lon="-2.46707">
        <ele>78</ele>
        <time>2015-03-30T11:39:02.1Z</time>
      </trkpt>
      <trkpt lat="48.63475" lon="-2.46706">
        <ele>78</ele>
        <time>2015-03-30T11:39:04.1Z</time>
      </trkpt>
      <trkpt lat="48.63471" lon="-2.46705">
        <ele>79</ele>
        <time>2015-03-30T11:39:07.1Z</time>
      </trkpt>
      <trkpt lat="48.63469" lon="-2.46704">
        <ele>79</ele>
        <time>2015-03-30T11:39:09.1Z</time>
      </trkpt>
      <trkpt lat="48.63465" lon="-2.46703">
        <ele>78</ele>
        <time>2015-03-30T11:39:12.1Z</time>
      </trkpt>
      <trkpt lat="48.63461" lon="-2.46701">
        <ele>79</ele>
        <time>2015-03-30T11:39:15.1Z</time>
      </trkpt>
      <trkpt lat="48.63459" lon="-2.467">
        <ele>79</ele>
        <time>2015-03-30T11:39:17.1Z</time>
      </trkpt>
      <trkpt lat="48.63456" lon="-2.46698">
        <ele>78</ele>
        <time>2015-03-30T11:39:19.1Z</time>
      </trkpt>
      <trkpt lat="48.63453" lon="-2.46697">
        <ele>79</ele>
        <time>2015-03-30T11:39:22.1Z</time>
      </trkpt>
      <trkpt lat="48.6345" lon="-2.46697">
        <ele>79</ele>
        <time>2015-03-30T11:39:24.1Z</time>
      </trkpt>
      <trkpt lat="48.63446" lon="-2.46696">
        <ele>78</ele>
        <time>2015-03-30T11:39:27.1Z</time>
      </trkpt>
      <trkpt lat="48.63443" lon="-2.46695">
        <ele>78</ele>
        <time>2015-03-30T11:39:30.1Z</time>
      </trkpt>
      <trkpt lat="48.63439" lon="-2.46694">
        <ele>78</ele>
        <time>2015-03-30T11:39:33.1Z</time>
      </trkpt>
      <trkpt lat="48.63436" lon="-2.46693">
        <ele>79</ele>
        <time>2015-03-30T11:39:36.1Z</time>
      </trkpt>
      <trkpt lat="48.63433" lon="-2.46692">
        <ele>79</ele>
        <time>2015-03-30T11:39:38.1Z</time>
      </trkpt>
      <trkpt lat="48.63431" lon="-2.46692">
        <ele>79</ele>
        <time>2015-03-30T11:39:40.1Z</time>
      </trkpt>
      <trkpt lat="48.63427" lon="-2.46691">
        <ele>79</ele>
        <time>2015-03-30T11:39:43.1Z</time>
      </trkpt>
      <trkpt lat="48.63424" lon="-2.46689">
        <ele>78</ele>
        <time>2015-03-30T11:39:46.1Z</time>
      </trkpt>
      <trkpt lat="48.6342" lon="-2.46688">
        <ele>79</ele>
        <time>2015-03-30T11:39:49.1Z</time>
      </trkpt>
      <trkpt lat="48.63417" lon="-2.46687">
        <ele>78</ele>
        <time>2015-03-30T11:39:52.1Z</time>
      </trkpt>
      <trkpt lat="48.63414" lon="-2.46687">
        <ele>79</ele>
        <time>2015-03-30T11:39:54.1Z</time>
      </trkpt>
      <trkpt lat="48.6341" lon="-2.46686">
        <ele>79</ele>
        <time>2015-03-30T11:39:57.1Z</time>
      </trkpt>
      <trkpt lat="48.63408" lon="-2.46685">
        <ele>79</ele>
        <time>2015-03-30T11:39:59.1Z</time>
      </trkpt>
      <trkpt lat="48.63405" lon="-2.46685">
        <ele>79</ele>
        <time>2015-03-30T11:40:02.1Z</time>
      </trkpt>
      <trkpt lat="48.63402" lon="-2.46683">
        <ele>78</ele>
        <time>2015-03-30T11:40:04.1Z</time>
      </trkpt>
      <trkpt lat="48.634" lon="-2.46682">
        <ele>78</ele>
        <time>2015-03-30T11:40:06.1Z</time>
      </trkpt>
      <trkpt lat="48.63397" lon="-2.4668">
        <ele>78</ele>
        <time>2015-03-30T11:40:09.1Z</time>
      </trkpt>
      <trkpt lat="48.63395" lon="-2.46679">
        <ele>78</ele>
        <time>2015-03-30T11:40:11.1Z</time>
      </trkpt>
      <trkpt lat="48.63391" lon="-2.46678">
        <ele>78</ele>
        <time>2015-03-30T11:40:14.1Z</time>
      </trkpt>
      <trkpt lat="48.63388" lon="-2.46677">
        <ele>79</ele>
        <time>2015-03-30T11:40:17.1Z</time>
      </trkpt>
      <trkpt lat="48.63384" lon="-2.46676">
        <ele>79</ele>
        <time>2015-03-30T11:40:20.1Z</time>
      </trkpt>
      <trkpt lat="48.63381" lon="-2.46676">
        <ele>79</ele>
        <time>2015-03-30T11:40:23.1Z</time>
      </trkpt>
      <trkpt lat="48.63377" lon="-2.46676">
        <ele>79</ele>
        <time>2015-03-30T11:40:26.1Z</time>
      </trkpt>
      <trkpt lat="48.63375" lon="-2.46676">
        <ele>79</ele>
        <time>2015-03-30T11:40:28.1Z</time>
      </trkpt>
      <trkpt lat="48.63372" lon="-2.46675">
        <ele>79</ele>
        <time>2015-03-30T11:40:31.1Z</time>
      </trkpt>
      <trkpt lat="48.63368" lon="-2.46674">
        <ele>79</ele>
        <time>2015-03-30T11:40:34.1Z</time>
      </trkpt>
      <trkpt lat="48.63364" lon="-2.46674">
        <ele>79</ele>
        <time>2015-03-30T11:40:37.1Z</time>
      </trkpt>
      <trkpt lat="48.6336" lon="-2.46674">
        <ele>79</ele>
        <time>2015-03-30T11:40:40.1Z</time>
      </trkpt>
      <trkpt lat="48.63358" lon="-2.46674">
        <ele>79</ele>
        <time>2015-03-30T11:40:42.1Z</time>
      </trkpt>
      <trkpt lat="48.63354" lon="-2.46673">
        <ele>78</ele>
        <time>2015-03-30T11:40:45.1Z</time>
      </trkpt>
      <trkpt lat="48.63351" lon="-2.46673">
        <ele>78</ele>
        <time>2015-03-30T11:40:47.1Z</time>
      </trkpt>
      <trkpt lat="48.63347" lon="-2.46672">
        <ele>78</ele>
        <time>2015-03-30T11:40:50.1Z</time>
      </trkpt>
      <trkpt lat="48.63345" lon="-2.46672">
        <ele>78</ele>
        <time>2015-03-30T11:40:52.1Z</time>
      </trkpt>
      <trkpt lat="48.63341" lon="-2.46672">
        <ele>78</ele>
        <time>2015-03-30T11:40:55.1Z</time>
      </trkpt>
      <trkpt lat="48.63339" lon="-2.46672">
        <ele>78</ele>
        <time>2015-03-30T11:40:57.1Z</time>
      </trkpt>
      <trkpt lat="48.63335" lon="-2.46672">
        <ele>79</ele>
        <time>2015-03-30T11:41:00.1Z</time>
      </trkpt>
      <trkpt lat="48.63331" lon="-2.46672">
        <ele>79</ele>
        <time>2015-03-30T11:41:03.1Z</time>
      </trkpt>
      <trkpt lat="48.63328" lon="-2.46672">
        <ele>79</ele>
        <time>2015-03-30T11:41:06.1Z</time>
      </trkpt>
      <trkpt lat="48.63325" lon="-2.46672">
        <ele>79</ele>
        <time>2015-03-30T11:41:08.1Z</time>
      </trkpt>
      <trkpt lat="48.63322" lon="-2.46672">
        <ele>79</ele>
        <time>2015-03-30T11:41:11.1Z</time>
      </trkpt>
      <trkpt lat="48.63318" lon="-2.46672">
        <ele>78</ele>
        <time>2015-03-30T11:41:14.1Z</time>
      </trkpt>
      <trkpt lat="48.63314" lon="-2.46672">
        <ele>78</ele>
        <time>2015-03-30T11:41:17.1Z</time>
      </trkpt>
      <trkpt lat="48.6331" lon="-2.46673">
        <ele>78</ele>
        <time>2015-03-30T11:41:20.1Z</time>
      </trkpt>
      <trkpt lat="48.63308" lon="-2.46673">
        <ele>78</ele>
        <time>2015-03-30T11:41:22.1Z</time>
      </trkpt>
      <trkpt lat="48.63304" lon="-2.46673">
        <ele>78</ele>
        <time>2015-03-30T11:41:25.1Z</time>
      </trkpt>
      <trkpt lat="48.63302" lon="-2.46674">
        <ele>78</ele>
        <time>2015-03-30T11:41:27.1Z</time>
      </trkpt>
      <trkpt lat="48.63298" lon="-2.46675">
        <ele>78</ele>
        <time>2015-03-30T11:41:30.1Z</time>
      </trkpt>
      <trkpt lat="48.63296" lon="-2.46675">
        <ele>78</ele>
        <time>2015-03-30T11:41:32.1Z</time>
      </trkpt>
      <trkpt lat="48.63292" lon="-2.46676">
        <ele>78</ele>
        <time>2015-03-30T11:41:35.1Z</time>
      </trkpt>
      <trkpt lat="48.6329" lon="-2.46676">
        <ele>78</ele>
        <time>2015-03-30T11:41:37.1Z</time>
      </trkpt>
      <trkpt lat="48.63286" lon="-2.46677">
        <ele>79</ele>
        <time>2015-03-30T11:41:40.1Z</time>
      </trkpt>
      <trkpt lat="48.63282" lon="-2.46677">
        <ele>79</ele>
        <time>2015-03-30T11:41:43.1Z</time>
      </trkpt>
      <trkpt lat="48.6328" lon="-2.46678">
        <ele>78</ele>
        <time>2015-03-30T11:41:45.1Z</time>
      </trkpt>
      <trkpt lat="48.63276" lon="-2.46678">
        <ele>78</ele>
        <time>2015-03-30T11:41:48.1Z</time>
      </trkpt>
      <trkpt lat="48.63272" lon="-2.46679">
        <ele>78</ele>
        <time>2015-03-30T11:41:51.1Z</time>
      </trkpt>
      <trkpt lat="48.6327" lon="-2.46679">
        <ele>78</ele>
        <time>2015-03-30T11:41:53.1Z</time>
      </trkpt>
      <trkpt lat="48.63266" lon="-2.4668">
        <ele>78</ele>
        <time>2015-03-30T11:41:56.1Z</time>
      </trkpt>
      <trkpt lat="48.63263" lon="-2.4668">
        <ele>78</ele>
        <time>2015-03-30T11:41:58.1Z</time>
      </trkpt>
      <trkpt lat="48.6326" lon="-2.46681">
        <ele>78</ele>
        <time>2015-03-30T11:42:01.1Z</time>
      </trkpt>
      <trkpt lat="48.63257" lon="-2.46681">
        <ele>78</ele>
        <time>2015-03-30T11:42:03.1Z</time>
      </trkpt>
      <trkpt lat="48.63253" lon="-2.46682">
        <ele>78</ele>
        <time>2015-03-30T11:42:06.1Z</time>
      </trkpt>
      <trkpt lat="48.6325" lon="-2.46683">
        <ele>78</ele>
        <time>2015-03-30T11:42:09.1Z</time>
      </trkpt>
      <trkpt lat="48.63248" lon="-2.46684">
        <ele>78</ele>
        <time>2015-03-30T11:42:11.1Z</time>
      </trkpt>
      <trkpt lat="48.63244" lon="-2.46685">
        <ele>78</ele>
        <time>2015-03-30T11:42:14.1Z</time>
      </trkpt>
      <trkpt lat="48.6324" lon="-2.46686">
        <ele>78</ele>
        <time>2015-03-30T11:42:17.1Z</time>
      </trkpt>
      <trkpt lat="48.63238" lon="-2.46686">
        <ele>78</ele>
        <time>2015-03-30T11:42:19.1Z</time>
      </trkpt>
      <trkpt lat="48.63235" lon="-2.46687">
        <ele>78</ele>
        <time>2015-03-30T11:42:21.1Z</time>
      </trkpt>
      <trkpt lat="48.63231" lon="-2.46687">
        <ele>78</ele>
        <time>2015-03-30T11:42:24.1Z</time>
      </trkpt>
      <trkpt lat="48.63227" lon="-2.46687">
        <ele>78</ele>
        <time>2015-03-30T11:42:27.1Z</time>
      </trkpt>
      <trkpt lat="48.63224" lon="-2.46687">
        <ele>78</ele>
        <time>2015-03-30T11:42:29.1Z</time>
      </trkpt>
      <trkpt lat="48.63221" lon="-2.46688">
        <ele>78</ele>
        <time>2015-03-30T11:42:32.1Z</time>
      </trkpt>
      <trkpt lat="48.63218" lon="-2.46688">
        <ele>78</ele>
        <time>2015-03-30T11:42:34.1Z</time>
      </trkpt>
      <trkpt lat="48.63214" lon="-2.46689">
        <ele>78</ele>
        <time>2015-03-30T11:42:37.1Z</time>
      </trkpt>
      <trkpt lat="48.6321" lon="-2.4669">
        <ele>78</ele>
        <time>2015-03-30T11:42:40.1Z</time>
      </trkpt>
      <trkpt lat="48.63207" lon="-2.46692">
        <ele>78</ele>
        <time>2015-03-30T11:42:43.1Z</time>
      </trkpt>
      <trkpt lat="48.63203" lon="-2.46695">
        <ele>78</ele>
        <time>2015-03-30T11:42:46.1Z</time>
      </trkpt>
      <trkpt lat="48.63202" lon="-2.46697">
        <ele>78</ele>
        <time>2015-03-30T11:42:48.1Z</time>
      </trkpt>
      <trkpt lat="48.63199" lon="-2.46701">
        <ele>78</ele>
        <time>2015-03-30T11:42:51.1Z</time>
      </trkpt>
      <trkpt lat="48.63196" lon="-2.46704">
        <ele>78</ele>
        <time>2015-03-30T11:42:54.1Z</time>
      </trkpt>
      <trkpt lat="48.63194" lon="-2.46705">
        <ele>78</ele>
        <time>2015-03-30T11:42:56.1Z</time>
      </trkpt>
      <trkpt lat="48.63192" lon="-2.46706">
        <ele>78</ele>
        <time>2015-03-30T11:42:58.1Z</time>
      </trkpt>
      <trkpt lat="48.63188" lon="-2.46708">
        <ele>78</ele>
        <time>2015-03-30T11:43:01.1Z</time>
      </trkpt>
      <trkpt lat="48.63186" lon="-2.46709">
        <ele>78</ele>
        <time>2015-03-30T11:43:03.1Z</time>
      </trkpt>
      <trkpt lat="48.63182" lon="-2.46711">
        <ele>78</ele>
        <time>2015-03-30T11:43:06.1Z</time>
      </trkpt>
      <trkpt lat="48.63179" lon="-2.46712">
        <ele>78</ele>
        <time>2015-03-30T11:43:09.1Z</time>
      </trkpt>
      <trkpt lat="48.63177" lon="-2.46713">
        <ele>78</ele>
        <time>2015-03-30T11:43:11.1Z</time>
      </trkpt>
      <trkpt lat="48.63174" lon="-2.46714">
        <ele>78</ele>
        <time>2015-03-30T11:43:14.1Z</time>
      </trkpt>
      <trkpt lat="48.63171" lon="-2.46715">
        <ele>78</ele>
        <time>2015-03-30T11:43:16.1Z</time>
      </trkpt>
      <trkpt lat="48.63168" lon="-2.46716">
        <ele>78</ele>
        <time>2015-03-30T11:43:19.1Z</time>
      </trkpt>
      <trkpt lat="48.63165" lon="-2.46717">
        <ele>78</ele>
        <time>2015-03-30T11:43:22.1Z</time>
      </trkpt>
      <trkpt lat="48.63163" lon="-2.46716">
        <ele>78</ele>
        <time>2015-03-30T11:43:24.1Z</time>
      </trkpt>
      <trkpt lat="48.63162" lon="-2.46714">
        <ele>78</ele>
        <time>2015-03-30T11:43:26.1Z</time>
      </trkpt>
      <trkpt lat="48.6316" lon="-2.46712">
        <ele>78</ele>
        <time>2015-03-30T11:43:28.1Z</time>
      </trkpt>
      <trkpt lat="48.63157" lon="-2.4671">
        <ele>78</ele>
        <time>2015-03-30T11:43:31.1Z</time>
      </trkpt>
      <trkpt lat="48.63154" lon="-2.46711">
        <ele>78</ele>
        <time>2015-03-30T11:43:33.1Z</time>
      </trkpt>
      <trkpt lat="48.63151" lon="-2.46712">
        <ele>78</ele>
        <time>2015-03-30T11:43:36.1Z</time>
      </trkpt>
      <trkpt lat="48.63147" lon="-2.46713">
        <ele>78</ele>
        <time>2015-03-30T11:43:39.1Z</time>
      </trkpt>
      <trkpt lat="48.63144" lon="-2.46714">
        <ele>78</ele>
        <time>2015-03-30T11:43:42.1Z</time>
      </trkpt>
      <trkpt lat="48.63142" lon="-2.46714">
        <ele>78</ele>
        <time>2015-03-30T11:43:44.1Z</time>
      </trkpt>
      <trkpt lat="48.63138" lon="-2.46715">
        <ele>78</ele>
        <time>2015-03-30T11:43:47.1Z</time>
      </trkpt>
      <trkpt lat="48.63134" lon="-2.46716">
        <ele>78</ele>
        <time>2015-03-30T11:43:50.1Z</time>
      </trkpt>
      <trkpt lat="48.63132" lon="-2.46717">
        <ele>78</ele>
        <time>2015-03-30T11:43:52.1Z</time>
      </trkpt>
      <trkpt lat="48.63129" lon="-2.46719">
        <ele>78</ele>
        <time>2015-03-30T11:43:54.1Z</time>
      </trkpt>
      <trkpt lat="48.63126" lon="-2.4672">
        <ele>78</ele>
        <time>2015-03-30T11:43:57.1Z</time>
      </trkpt>
      <trkpt lat="48.63123" lon="-2.46721">
        <ele>78</ele>
        <time>2015-03-30T11:43:59.1Z</time>
      </trkpt>
      <trkpt lat="48.6312" lon="-2.46723">
        <ele>77</ele>
        <time>2015-03-30T11:44:02.1Z</time>
      </trkpt>
      <trkpt lat="48.63116" lon="-2.46725">
        <ele>77</ele>
        <time>2015-03-30T11:44:05.1Z</time>
      </trkpt>
      <trkpt lat="48.63113" lon="-2.46727">
        <ele>77</ele>
        <time>2015-03-30T11:44:08.1Z</time>
      </trkpt>
      <trkpt lat="48.6311" lon="-2.46729">
        <ele>78</ele>
        <time>2015-03-30T11:44:11.1Z</time>
      </trkpt>
      <trkpt lat="48.63107" lon="-2.4673">
        <ele>78</ele>
        <time>2015-03-30T11:44:13.1Z</time>
      </trkpt>
      <trkpt lat="48.63104" lon="-2.46731">
        <ele>78</ele>
        <time>2015-03-30T11:44:16.1Z</time>
      </trkpt>
      <trkpt lat="48.63102" lon="-2.46733">
        <ele>78</ele>
        <time>2015-03-30T11:44:18.1Z</time>
      </trkpt>
      <trkpt lat="48.631" lon="-2.46734">
        <ele>78</ele>
        <time>2015-03-30T11:44:20.1Z</time>
      </trkpt>
      <trkpt lat="48.63096" lon="-2.46737">
        <ele>77</ele>
        <time>2015-03-30T11:44:23.1Z</time>
      </trkpt>
      <trkpt lat="48.63094" lon="-2.46738">
        <ele>77</ele>
        <time>2015-03-30T11:44:25.1Z</time>
      </trkpt>
      <trkpt lat="48.63092" lon="-2.4674">
        <ele>77</ele>
        <time>2015-03-30T11:44:27.1Z</time>
      </trkpt>
      <trkpt lat="48.63088" lon="-2.46742">
        <ele>77</ele>
        <time>2015-03-30T11:44:30.1Z</time>
      </trkpt>
      <trkpt lat="48.63085" lon="-2.46743">
        <ele>77</ele>
        <time>2015-03-30T11:44:33.1Z</time>
      </trkpt>
      <trkpt lat="48.63082" lon="-2.46745">
        <ele>77</ele>
        <time>2015-03-30T11:44:36.1Z</time>
      </trkpt>
      <trkpt lat="48.63079" lon="-2.46747">
        <ele>78</ele>
        <time>2015-03-30T11:44:38.1Z</time>
      </trkpt>
      <trkpt lat="48.63077" lon="-2.46748">
        <ele>77</ele>
        <time>2015-03-30T11:44:40.1Z</time>
      </trkpt>
      <trkpt lat="48.63074" lon="-2.4675">
        <ele>77</ele>
        <time>2015-03-30T11:44:43.1Z</time>
      </trkpt>
      <trkpt lat="48.63071" lon="-2.46751">
        <ele>77</ele>
        <time>2015-03-30T11:44:45.1Z</time>
      </trkpt>
      <trkpt lat="48.63068" lon="-2.46753">
        <ele>77</ele>
        <time>2015-03-30T11:44:48.1Z</time>
      </trkpt>
      <trkpt lat="48.63065" lon="-2.46755">
        <ele>77</ele>
        <time>2015-03-30T11:44:50.1Z</time>
      </trkpt>
      <trkpt lat="48.63063" lon="-2.46756">
        <ele>77</ele>
        <time>2015-03-30T11:44:52.1Z</time>
      </trkpt>
      <trkpt lat="48.63061" lon="-2.46758">
        <ele>77</ele>
        <time>2015-03-30T11:44:54.1Z</time>
      </trkpt>
      <trkpt lat="48.63058" lon="-2.4676">
        <ele>77</ele>
        <time>2015-03-30T11:44:57.1Z</time>
      </trkpt>
      <trkpt lat="48.63054" lon="-2.46762">
        <ele>77</ele>
        <time>2015-03-30T11:45:00.1Z</time>
      </trkpt>
      <trkpt lat="48.63052" lon="-2.46764">
        <ele>77</ele>
        <time>2015-03-30T11:45:02.1Z</time>
      </trkpt>
      <trkpt lat="48.6305" lon="-2.46766">
        <ele>77</ele>
        <time>2015-03-30T11:45:04.1Z</time>
      </trkpt>
      <trkpt lat="48.63047" lon="-2.46768">
        <ele>77</ele>
        <time>2015-03-30T11:45:07.1Z</time>
      </trkpt>
      <trkpt lat="48.63045" lon="-2.4677">
        <ele>77</ele>
        <time>2015-03-30T11:45:09.1Z</time>
      </trkpt>
      <trkpt lat="48.63042" lon="-2.46773">
        <ele>77</ele>
        <time>2015-03-30T11:45:12.1Z</time>
      </trkpt>
      <trkpt lat="48.63039" lon="-2.46775">
        <ele>77</ele>
        <time>2015-03-30T11:45:14.1Z</time>
      </trkpt>
      <trkpt lat="48.63037" lon="-2.46777">
        <ele>78</ele>
        <time>2015-03-30T11:45:16.1Z</time>
      </trkpt>
      <trkpt lat="48.63034" lon="-2.46779">
        <ele>78</ele>
        <time>2015-03-30T11:45:19.1Z</time>
      </trkpt>
      <trkpt lat="48.63033" lon="-2.46781">
        <ele>78</ele>
        <time>2015-03-30T11:45:21.1Z</time>
      </trkpt>
      <trkpt lat="48.63029" lon="-2.46783">
        <ele>77</ele>
        <time>2015-03-30T11:45:24.1Z</time>
      </trkpt>
      <trkpt lat="48.63027" lon="-2.46786">
        <ele>78</ele>
        <time>2015-03-30T11:45:27.1Z</time>
      </trkpt>
      <trkpt lat="48.63025" lon="-2.46788">
        <ele>77</ele>
        <time>2015-03-30T11:45:29.1Z</time>
      </trkpt>
      <trkpt lat="48.63023" lon="-2.4679">
        <ele>77</ele>
        <time>2015-03-30T11:45:31.1Z</time>
      </trkpt>
      <trkpt lat="48.6302" lon="-2.46793">
        <ele>77</ele>
        <time>2015-03-30T11:45:34.1Z</time>
      </trkpt>
      <trkpt lat="48.63018" lon="-2.46795">
        <ele>77</ele>
        <time>2015-03-30T11:45:36.1Z</time>
      </trkpt>
      <trkpt lat="48.63016" lon="-2.46797">
        <ele>77</ele>
        <time>2015-03-30T11:45:38.1Z</time>
      </trkpt>
      <trkpt lat="48.63013" lon="-2.46801">
        <ele>77</ele>
        <time>2015-03-30T11:45:41.1Z</time>
      </trkpt>
      <trkpt lat="48.6301" lon="-2.46804">
        <ele>77</ele>
        <time>2015-03-30T11:45:44.1Z</time>
      </trkpt>
      <trkpt lat="48.63007" lon="-2.46807">
        <ele>77</ele>
        <time>2015-03-30T11:45:47.1Z</time>
      </trkpt>
      <trkpt lat="48.63005" lon="-2.46809">
        <ele>78</ele>
        <time>2015-03-30T11:45:49.1Z</time>
      </trkpt>
      <trkpt lat="48.63002" lon="-2.46812">
        <ele>78</ele>
        <time>2015-03-30T11:45:52.1Z</time>
      </trkpt>
      <trkpt lat="48.62999" lon="-2.46815">
        <ele>78</ele>
        <time>2015-03-30T11:45:55.1Z</time>
      </trkpt>
      <trkpt lat="48.62997" lon="-2.46818">
        <ele>78</ele>
        <time>2015-03-30T11:45:57.1Z</time>
      </trkpt>
      <trkpt lat="48.62995" lon="-2.4682">
        <ele>78</ele>
        <time>2015-03-30T11:45:59.1Z</time>
      </trkpt>
      <trkpt lat="48.62992" lon="-2.46824">
        <ele>77</ele>
        <time>2015-03-30T11:46:02.1Z</time>
      </trkpt>
      <trkpt lat="48.62989" lon="-2.46828">
        <ele>77</ele>
        <time>2015-03-30T11:46:05.1Z</time>
      </trkpt>
      <trkpt lat="48.62988" lon="-2.4683">
        <ele>77</ele>
        <time>2015-03-30T11:46:07.1Z</time>
      </trkpt>
      <trkpt lat="48.62985" lon="-2.46833">
        <ele>77</ele>
        <time>2015-03-30T11:46:10.1Z</time>
      </trkpt>
      <trkpt lat="48.62982" lon="-2.46837">
        <ele>78</ele>
        <time>2015-03-30T11:46:13.1Z</time>
      </trkpt>
      <trkpt lat="48.6298" lon="-2.46839">
        <ele>78</ele>
        <time>2015-03-30T11:46:15.1Z</time>
      </trkpt>
      <trkpt lat="48.62978" lon="-2.46841">
        <ele>78</ele>
        <time>2015-03-30T11:46:17.1Z</time>
      </trkpt>
      <trkpt lat="48.62976" lon="-2.46845">
        <ele>78</ele>
        <time>2015-03-30T11:46:20.1Z</time>
      </trkpt>
      <trkpt lat="48.62973" lon="-2.46849">
        <ele>78</ele>
        <time>2015-03-30T11:46:23.1Z</time>
      </trkpt>
      <trkpt lat="48.62971" lon="-2.46852">
        <ele>77</ele>
        <time>2015-03-30T11:46:25.1Z</time>
      </trkpt>
      <trkpt lat="48.62968" lon="-2.46855">
        <ele>77</ele>
        <time>2015-03-30T11:46:28.1Z</time>
      </trkpt>
      <trkpt lat="48.62965" lon="-2.46859">
        <ele>77</ele>
        <time>2015-03-30T11:46:31.1Z</time>
      </trkpt>
      <trkpt lat="48.62963" lon="-2.46861">
        <ele>78</ele>
        <time>2015-03-30T11:46:33.1Z</time>
      </trkpt>
      <trkpt lat="48.62961" lon="-2.46865">
        <ele>77</ele>
        <time>2015-03-30T11:46:36.1Z</time>
      </trkpt>
      <trkpt lat="48.6296" lon="-2.46868">
        <ele>77</ele>
        <time>2015-03-30T11:46:38.1Z</time>
      </trkpt>
      <trkpt lat="48.62957" lon="-2.46872">
        <ele>77</ele>
        <time>2015-03-30T11:46:41.1Z</time>
      </trkpt>
      <trkpt lat="48.62955" lon="-2.46874">
        <ele>77</ele>
        <time>2015-03-30T11:46:43.1Z</time>
      </trkpt>
      <trkpt lat="48.62953" lon="-2.46878">
        <ele>77</ele>
        <time>2015-03-30T11:46:46.1Z</time>
      </trkpt>
      <trkpt lat="48.62951" lon="-2.4688">
        <ele>77</ele>
        <time>2015-03-30T11:46:48.1Z</time>
      </trkpt>
      <trkpt lat="48.62949" lon="-2.46884">
        <ele>77</ele>
        <time>2015-03-30T11:46:51.1Z</time>
      </trkpt>
      <trkpt lat="48.62946" lon="-2.46888">
        <ele>77</ele>
        <time>2015-03-30T11:46:54.1Z</time>
      </trkpt>
      <trkpt lat="48.62944" lon="-2.46892">
        <ele>77</ele>
        <time>2015-03-30T11:46:57.1Z</time>
      </trkpt>
      <trkpt lat="48.62942" lon="-2.46894">
        <ele>77</ele>
        <time>2015-03-30T11:46:59.1Z</time>
      </trkpt>
      <trkpt lat="48.62941" lon="-2.46897">
        <ele>77</ele>
        <time>2015-03-30T11:47:01.1Z</time>
      </trkpt>
      <trkpt lat="48.62938" lon="-2.46901">
        <ele>77</ele>
        <time>2015-03-30T11:47:04.1Z</time>
      </trkpt>
      <trkpt lat="48.62937" lon="-2.46903">
        <ele>77</ele>
        <time>2015-03-30T11:47:06.1Z</time>
      </trkpt>
      <trkpt lat="48.62934" lon="-2.46907">
        <ele>77</ele>
        <time>2015-03-30T11:47:09.1Z</time>
      </trkpt>
      <trkpt lat="48.62932" lon="-2.46911">
        <ele>77</ele>
        <time>2015-03-30T11:47:12.1Z</time>
      </trkpt>
      <trkpt lat="48.62931" lon="-2.46914">
        <ele>77</ele>
        <time>2015-03-30T11:47:14.1Z</time>
      </trkpt>
      <trkpt lat="48.62928" lon="-2.46918">
        <ele>77</ele>
        <time>2015-03-30T11:47:17.1Z</time>
      </trkpt>
      <trkpt lat="48.62926" lon="-2.46922">
        <ele>77</ele>
        <time>2015-03-30T11:47:20.1Z</time>
      </trkpt>
      <trkpt lat="48.62923" lon="-2.46927">
        <ele>77</ele>
        <time>2015-03-30T11:47:23.1Z</time>
      </trkpt>
      <trkpt lat="48.62922" lon="-2.4693">
        <ele>77</ele>
        <time>2015-03-30T11:47:25.1Z</time>
      </trkpt>
      <trkpt lat="48.6292" lon="-2.46933">
        <ele>78</ele>
        <time>2015-03-30T11:47:27.1Z</time>
      </trkpt>
      <trkpt lat="48.62919" lon="-2.46936">
        <ele>77</ele>
        <time>2015-03-30T11:47:29.1Z</time>
      </trkpt>
      <trkpt lat="48.62917" lon="-2.4694">
        <ele>77</ele>
        <time>2015-03-30T11:47:32.1Z</time>
      </trkpt>
      <trkpt lat="48.62916" lon="-2.46943">
        <ele>77</ele>
        <time>2015-03-30T11:47:34.1Z</time>
      </trkpt>
      <trkpt lat="48.62914" lon="-2.46948">
        <ele>77</ele>
        <time>2015-03-30T11:47:37.1Z</time>
      </trkpt>
      <trkpt lat="48.62912" lon="-2.46951">
        <ele>77</ele>
        <time>2015-03-30T11:47:39.1Z</time>
      </trkpt>
      <trkpt lat="48.6291" lon="-2.46955">
        <ele>78</ele>
        <time>2015-03-30T11:47:42.1Z</time>
      </trkpt>
      <trkpt lat="48.62908" lon="-2.46959">
        <ele>78</ele>
        <time>2015-03-30T11:47:45.1Z</time>
      </trkpt>
      <trkpt lat="48.62907" lon="-2.46962">
        <ele>77</ele>
        <time>2015-03-30T11:47:47.1Z</time>
      </trkpt>
      <trkpt lat="48.62906" lon="-2.46966">
        <ele>77</ele>
        <time>2015-03-30T11:47:49.1Z</time>
      </trkpt>
      <trkpt lat="48.62904" lon="-2.46971">
        <ele>77</ele>
        <time>2015-03-30T11:47:52.1Z</time>
      </trkpt>
      <trkpt lat="48.62903" lon="-2.46975">
        <ele>77</ele>
        <time>2015-03-30T11:47:55.1Z</time>
      </trkpt>
      <trkpt lat="48.62901" lon="-2.46978">
        <ele>77</ele>
        <time>2015-03-30T11:47:57.1Z</time>
      </trkpt>
      <trkpt lat="48.629" lon="-2.46983">
        <ele>77</ele>
        <time>2015-03-30T11:48:00.1Z</time>
      </trkpt>
      <trkpt lat="48.62899" lon="-2.46987">
        <ele>77</ele>
        <time>2015-03-30T11:48:03.1Z</time>
      </trkpt>
      <trkpt lat="48.62897" lon="-2.46991">
        <ele>78</ele>
        <time>2015-03-30T11:48:05.1Z</time>
      </trkpt>
      <trkpt lat="48.62897" lon="-2.46994">
        <ele>78</ele>
        <time>2015-03-30T11:48:07.1Z</time>
      </trkpt>
      <trkpt lat="48.62895" lon="-2.46999">
        <ele>78</ele>
        <time>2015-03-30T11:48:10.1Z</time>
      </trkpt>
      <trkpt lat="48.62894" lon="-2.47003">
        <ele>78</ele>
        <time>2015-03-30T11:48:12.1Z</time>
      </trkpt>
      <trkpt lat="48.62893" lon="-2.47008">
        <ele>77</ele>
        <time>2015-03-30T11:48:15.1Z</time>
      </trkpt>
      <trkpt lat="48.62892" lon="-2.47011">
        <ele>77</ele>
        <time>2015-03-30T11:48:17.1Z</time>
      </trkpt>
      <trkpt lat="48.6289" lon="-2.47015">
        <ele>77</ele>
        <time>2015-03-30T11:48:20.1Z</time>
      </trkpt>
      <trkpt lat="48.62888" lon="-2.4702">
        <ele>77</ele>
        <time>2015-03-30T11:48:23.1Z</time>
      </trkpt>
      <trkpt lat="48.62887" lon="-2.47024">
        <ele>77</ele>
        <time>2015-03-30T11:48:25.1Z</time>
      </trkpt>
      <trkpt lat="48.62886" lon="-2.47027">
        <ele>77</ele>
        <time>2015-03-30T11:48:27.1Z</time>
      </trkpt>
      <trkpt lat="48.62885" lon="-2.47033">
        <ele>77</ele>
        <time>2015-03-30T11:48:30.1Z</time>
      </trkpt>
      <trkpt lat="48.62884" lon="-2.47036">
        <ele>77</ele>
        <time>2015-03-30T11:48:32.1Z</time>
      </trkpt>
      <trkpt lat="48.62883" lon="-2.47041">
        <ele>77</ele>
        <time>2015-03-30T11:48:35.1Z</time>
      </trkpt>
      <trkpt lat="48.62882" lon="-2.47044">
        <ele>77</ele>
        <time>2015-03-30T11:48:37.1Z</time>
      </trkpt>
      <trkpt lat="48.62881" lon="-2.4705">
        <ele>77</ele>
        <time>2015-03-30T11:48:40.1Z</time>
      </trkpt>
      <trkpt lat="48.6288" lon="-2.47055">
        <ele>77</ele>
        <time>2015-03-30T11:48:43.1Z</time>
      </trkpt>
      <trkpt lat="48.62879" lon="-2.47058">
        <ele>77</ele>
        <time>2015-03-30T11:48:45.1Z</time>
      </trkpt>
      <trkpt lat="48.62878" lon="-2.47063">
        <ele>77</ele>
        <time>2015-03-30T11:48:48.1Z</time>
      </trkpt>
      <trkpt lat="48.62877" lon="-2.47069">
        <ele>77</ele>
        <time>2015-03-30T11:48:51.1Z</time>
      </trkpt>
      <trkpt lat="48.62876" lon="-2.47072">
        <ele>77</ele>
        <time>2015-03-30T11:48:53.1Z</time>
      </trkpt>
      <trkpt lat="48.62875" lon="-2.47077">
        <ele>77</ele>
        <time>2015-03-30T11:48:56.1Z</time>
      </trkpt>
      <trkpt lat="48.62873" lon="-2.4708">
        <ele>77</ele>
        <time>2015-03-30T11:48:58.1Z</time>
      </trkpt>
      <trkpt lat="48.62872" lon="-2.47085">
        <ele>77</ele>
        <time>2015-03-30T11:49:01.1Z</time>
      </trkpt>
      <trkpt lat="48.62871" lon="-2.47087">
        <ele>77</ele>
        <time>2015-03-30T11:49:04.1Z</time>
      </trkpt>
      <trkpt lat="48.62869" lon="-2.47088">
        <ele>77</ele>
        <time>2015-03-30T11:49:06.1Z</time>
      </trkpt>
      <trkpt lat="48.62867" lon="-2.47089">
        <ele>77</ele>
        <time>2015-03-30T11:49:08.1Z</time>
      </trkpt>
      <trkpt lat="48.62864" lon="-2.47089">
        <ele>77</ele>
        <time>2015-03-30T11:49:11.1Z</time>
      </trkpt>
      <trkpt lat="48.6286" lon="-2.47091">
        <ele>77</ele>
        <time>2015-03-30T11:49:14.1Z</time>
      </trkpt>
      <trkpt lat="48.62859" lon="-2.47093">
        <ele>78</ele>
        <time>2015-03-30T11:49:16.1Z</time>
      </trkpt>
      <trkpt lat="48.62856" lon="-2.47097">
        <ele>78</ele>
        <time>2015-03-30T11:49:19.1Z</time>
      </trkpt>
      <trkpt lat="48.62855" lon="-2.47101">
        <ele>78</ele>
        <time>2015-03-30T11:49:22.1Z</time>
      </trkpt>
      <trkpt lat="48.62855" lon="-2.47106">
        <ele>79</ele>
        <time>2015-03-30T11:49:25.1Z</time>
      </trkpt>
      <trkpt lat="48.62855" lon="-2.47108">
        <ele>79</ele>
        <time>2015-03-30T11:49:27.1Z</time>
      </trkpt>
      <trkpt lat="48.62856" lon="-2.47112">
        <ele>80</ele>
        <time>2015-03-30T11:49:30.1Z</time>
      </trkpt>
      <trkpt lat="48.62856" lon="-2.47115">
        <ele>80</ele>
        <time>2015-03-30T11:49:32.1Z</time>
      </trkpt>
      <trkpt lat="48.62855" lon="-2.47118">
        <ele>80</ele>
        <time>2015-03-30T11:49:34.1Z</time>
      </trkpt>
      <trkpt lat="48.62856" lon="-2.4712">
        <ele>81</ele>
        <time>2015-03-30T11:49:36.1Z</time>
      </trkpt>
      <trkpt lat="48.62857" lon="-2.47124">
        <ele>81</ele>
        <time>2015-03-30T11:49:39.1Z</time>
      </trkpt>
      <trkpt lat="48.62858" lon="-2.47128">
        <ele>81</ele>
        <time>2015-03-30T11:49:42.1Z</time>
      </trkpt>
      <trkpt lat="48.62859" lon="-2.47131">
        <ele>81</ele>
        <time>2015-03-30T11:49:44.1Z</time>
      </trkpt>
      <trkpt lat="48.62861" lon="-2.47135">
        <ele>82</ele>
        <time>2015-03-30T11:49:47.1Z</time>
      </trkpt>
      <trkpt lat="48.62862" lon="-2.47138">
        <ele>83</ele>
        <time>2015-03-30T11:49:50.1Z</time>
      </trkpt>
      <trkpt lat="48.62861" lon="-2.47138">
        <ele>83</ele>
        <time>2015-03-30T11:49:52.1Z</time>
      </trkpt>
      <trkpt lat="48.6286" lon="-2.47135">
        <ele>83</ele>
        <time>2015-03-30T11:49:55.1Z</time>
      </trkpt>
      <trkpt lat="48.62859" lon="-2.47132">
        <ele>83</ele>
        <time>2015-03-30T11:49:57.1Z</time>
      </trkpt>
      <trkpt lat="48.62859" lon="-2.47128">
        <ele>84</ele>
        <time>2015-03-30T11:50:00.1Z</time>
      </trkpt>
      <trkpt lat="48.62858" lon="-2.47125">
        <ele>83</ele>
        <time>2015-03-30T11:50:02.1Z</time>
      </trkpt>
      <trkpt lat="48.62857" lon="-2.47122">
        <ele>84</ele>
        <time>2015-03-30T11:50:04.1Z</time>
      </trkpt>
      <trkpt lat="48.62857" lon="-2.47119">
        <ele>84</ele>
        <time>2015-03-30T11:50:06.1Z</time>
      </trkpt>
      <trkpt lat="48.62855" lon="-2.47114">
        <ele>84</ele>
        <time>2015-03-30T11:50:09.1Z</time>
      </trkpt>
      <trkpt lat="48.62854" lon="-2.47112">
        <ele>84</ele>
        <time>2015-03-30T11:50:11.1Z</time>
      </trkpt>
      <trkpt lat="48.62853" lon="-2.47108">
        <ele>84</ele>
        <time>2015-03-30T11:50:14.1Z</time>
      </trkpt>
      <trkpt lat="48.62852" lon="-2.47104">
        <ele>85</ele>
        <time>2015-03-30T11:50:17.1Z</time>
      </trkpt>
      <trkpt lat="48.62851" lon="-2.47102">
        <ele>85</ele>
        <time>2015-03-30T11:50:19.1Z</time>
      </trkpt>
      <trkpt lat="48.62849" lon="-2.47098">
        <ele>85</ele>
        <time>2015-03-30T11:50:22.1Z</time>
      </trkpt>
      <trkpt lat="48.62847" lon="-2.47095">
        <ele>85</ele>
        <time>2015-03-30T11:50:24.1Z</time>
      </trkpt>
      <trkpt lat="48.62845" lon="-2.47092">
        <ele>86</ele>
        <time>2015-03-30T11:50:27.1Z</time>
      </trkpt>
      <trkpt lat="48.62843" lon="-2.47088">
        <ele>86</ele>
        <time>2015-03-30T11:50:30.1Z</time>
      </trkpt>
      <trkpt lat="48.62841" lon="-2.47086">
        <ele>86</ele>
        <time>2015-03-30T11:50:32.1Z</time>
      </trkpt>
      <trkpt lat="48.6284" lon="-2.47083">
        <ele>86</ele>
        <time>2015-03-30T11:50:34.1Z</time>
      </trkpt>
      <trkpt lat="48.6284" lon="-2.47079">
        <ele>86</ele>
        <time>2015-03-30T11:50:37.1Z</time>
      </trkpt>
      <trkpt lat="48.62839" lon="-2.47077">
        <ele>87</ele>
        <time>2015-03-30T11:50:39.1Z</time>
      </trkpt>
      <trkpt lat="48.62838" lon="-2.47074">
        <ele>87</ele>
        <time>2015-03-30T11:50:41.1Z</time>
      </trkpt>
      <trkpt lat="48.62836" lon="-2.4707">
        <ele>87</ele>
        <time>2015-03-30T11:50:44.1Z</time>
      </trkpt>
      <trkpt lat="48.62834" lon="-2.47067">
        <ele>87</ele>
        <time>2015-03-30T11:50:47.1Z</time>
      </trkpt>
      <trkpt lat="48.62833" lon="-2.47063">
        <ele>87</ele>
        <time>2015-03-30T11:50:50.1Z</time>
      </trkpt>
      <trkpt lat="48.62831" lon="-2.47061">
        <ele>88</ele>
        <time>2015-03-30T11:50:52.1Z</time>
      </trkpt>
      <trkpt lat="48.6283" lon="-2.47059">
        <ele>88</ele>
        <time>2015-03-30T11:50:54.1Z</time>
      </trkpt>
      <trkpt lat="48.62828" lon="-2.47055">
        <ele>88</ele>
        <time>2015-03-30T11:50:57.1Z</time>
      </trkpt>
      <trkpt lat="48.62827" lon="-2.47053">
        <ele>88</ele>
        <time>2015-03-30T11:50:59.1Z</time>
      </trkpt>
      <trkpt lat="48.62825" lon="-2.47051">
        <ele>89</ele>
        <time>2015-03-30T11:51:01.1Z</time>
      </trkpt>
      <trkpt lat="48.62823" lon="-2.47048">
        <ele>89</ele>
        <time>2015-03-30T11:51:04.1Z</time>
      </trkpt>
      <trkpt lat="48.6282" lon="-2.47044">
        <ele>89</ele>
        <time>2015-03-30T11:51:07.1Z</time>
      </trkpt>
      <trkpt lat="48.62819" lon="-2.4704">
        <ele>89</ele>
        <time>2015-03-30T11:51:10.1Z</time>
      </trkpt>
      <trkpt lat="48.62816" lon="-2.47038">
        <ele>89</ele>
        <time>2015-03-30T11:51:13.1Z</time>
      </trkpt>
      <trkpt lat="48.62815" lon="-2.4704">
        <ele>89</ele>
        <time>2015-03-30T11:51:15.1Z</time>
      </trkpt>
      <trkpt lat="48.62814" lon="-2.47045">
        <ele>88</ele>
        <time>2015-03-30T11:51:18.1Z</time>
      </trkpt>
      <trkpt lat="48.62812" lon="-2.47049">
        <ele>88</ele>
        <time>2015-03-30T11:51:21.1Z</time>
      </trkpt>
      <trkpt lat="48.6281" lon="-2.47054">
        <ele>88</ele>
        <time>2015-03-30T11:51:24.1Z</time>
      </trkpt>
      <trkpt lat="48.62808" lon="-2.47059">
        <ele>89</ele>
        <time>2015-03-30T11:51:27.1Z</time>
      </trkpt>
      <trkpt lat="48.62806" lon="-2.47063">
        <ele>89</ele>
        <time>2015-03-30T11:51:30.1Z</time>
      </trkpt>
      <trkpt lat="48.62804" lon="-2.47068">
        <ele>89</ele>
        <time>2015-03-30T11:51:33.1Z</time>
      </trkpt>
      <trkpt lat="48.62803" lon="-2.47072">
        <ele>89</ele>
        <time>2015-03-30T11:51:36.1Z</time>
      </trkpt>
      <trkpt lat="48.62802" lon="-2.47076">
        <ele>90</ele>
        <time>2015-03-30T11:51:38.1Z</time>
      </trkpt>
      <trkpt lat="48.62801" lon="-2.47079">
        <ele>90</ele>
        <time>2015-03-30T11:51:40.1Z</time>
      </trkpt>
      <trkpt lat="48.62799" lon="-2.47084">
        <ele>90</ele>
        <time>2015-03-30T11:51:43.1Z</time>
      </trkpt>
      <trkpt lat="48.62798" lon="-2.47087">
        <ele>90</ele>
        <time>2015-03-30T11:51:45.1Z</time>
      </trkpt>
      <trkpt lat="48.62797" lon="-2.47093">
        <ele>90</ele>
        <time>2015-03-30T11:51:48.1Z</time>
      </trkpt>
      <trkpt lat="48.62796" lon="-2.47097">
        <ele>90</ele>
        <time>2015-03-30T11:51:51.1Z</time>
      </trkpt>
      <trkpt lat="48.62794" lon="-2.47102">
        <ele>90</ele>
        <time>2015-03-30T11:51:54.1Z</time>
      </trkpt>
      <trkpt lat="48.62793" lon="-2.47107">
        <ele>91</ele>
        <time>2015-03-30T11:51:57.1Z</time>
      </trkpt>
      <trkpt lat="48.62791" lon="-2.47112">
        <ele>91</ele>
        <time>2015-03-30T11:52:00.1Z</time>
      </trkpt>
      <trkpt lat="48.62789" lon="-2.47117">
        <ele>91</ele>
        <time>2015-03-30T11:52:03.1Z</time>
      </trkpt>
      <trkpt lat="48.62788" lon="-2.47123">
        <ele>91</ele>
        <time>2015-03-30T11:52:06.1Z</time>
      </trkpt>
      <trkpt lat="48.62788" lon="-2.47128">
        <ele>91</ele>
        <time>2015-03-30T11:52:09.1Z</time>
      </trkpt>
      <trkpt lat="48.62787" lon="-2.47132">
        <ele>91</ele>
        <time>2015-03-30T11:52:12.1Z</time>
      </trkpt>
      <trkpt lat="48.62787" lon="-2.47137">
        <ele>92</ele>
        <time>2015-03-30T11:52:15.1Z</time>
      </trkpt>
      <trkpt lat="48.62786" lon="-2.47141">
        <ele>92</ele>
        <time>2015-03-30T11:52:17.1Z</time>
      </trkpt>
      <trkpt lat="48.62785" lon="-2.47144">
        <ele>92</ele>
        <time>2015-03-30T11:52:19.1Z</time>
      </trkpt>
      <trkpt lat="48.62785" lon="-2.47149">
        <ele>92</ele>
        <time>2015-03-30T11:52:22.1Z</time>
      </trkpt>
      <trkpt lat="48.62784" lon="-2.47154">
        <ele>92</ele>
        <time>2015-03-30T11:52:25.1Z</time>
      </trkpt>
      <trkpt lat="48.62783" lon="-2.47157">
        <ele>92</ele>
        <time>2015-03-30T11:52:27.1Z</time>
      </trkpt>
      <trkpt lat="48.62782" lon="-2.47162">
        <ele>93</ele>
        <time>2015-03-30T11:52:30.1Z</time>
      </trkpt>
      <trkpt lat="48.62782" lon="-2.47167">
        <ele>93</ele>
        <time>2015-03-30T11:52:33.1Z</time>
      </trkpt>
      <trkpt lat="48.62781" lon="-2.4717">
        <ele>93</ele>
        <time>2015-03-30T11:52:35.1Z</time>
      </trkpt>
      <trkpt lat="48.6278" lon="-2.47173">
        <ele>93</ele>
        <time>2015-03-30T11:52:37.1Z</time>
      </trkpt>
      <trkpt lat="48.6278" lon="-2.47179">
        <ele>93</ele>
        <time>2015-03-30T11:52:40.1Z</time>
      </trkpt>
      <trkpt lat="48.62779" lon="-2.47183">
        <ele>93</ele>
        <time>2015-03-30T11:52:43.1Z</time>
      </trkpt>
      <trkpt lat="48.62778" lon="-2.47186">
        <ele>94</ele>
        <time>2015-03-30T11:52:45.1Z</time>
      </trkpt>
      <trkpt lat="48.62778" lon="-2.47189">
        <ele>94</ele>
        <time>2015-03-30T11:52:47.1Z</time>
      </trkpt>
      <trkpt lat="48.62777" lon="-2.47194">
        <ele>94</ele>
        <time>2015-03-30T11:52:50.1Z</time>
      </trkpt>
      <trkpt lat="48.62776" lon="-2.47198">
        <ele>94</ele>
        <time>2015-03-30T11:52:52.1Z</time>
      </trkpt>
      <trkpt lat="48.62775" lon="-2.47201">
        <ele>94</ele>
        <time>2015-03-30T11:52:54.1Z</time>
      </trkpt>
      <trkpt lat="48.62773" lon="-2.47205">
        <ele>94</ele>
        <time>2015-03-30T11:52:57.1Z</time>
      </trkpt>
      <trkpt lat="48.62772" lon="-2.47209">
        <ele>95</ele>
        <time>2015-03-30T11:52:59.1Z</time>
      </trkpt>
      <trkpt lat="48.62771" lon="-2.47212">
        <ele>95</ele>
        <time>2015-03-30T11:53:02.1Z</time>
      </trkpt>
      <trkpt lat="48.62769" lon="-2.47217">
        <ele>95</ele>
        <time>2015-03-30T11:53:05.1Z</time>
      </trkpt>
      <trkpt lat="48.62768" lon="-2.4722">
        <ele>95</ele>
        <time>2015-03-30T11:53:07.1Z</time>
      </trkpt>
      <trkpt lat="48.62765" lon="-2.47224">
        <ele>95</ele>
        <time>2015-03-30T11:53:10.1Z</time>
      </trkpt>
      <trkpt lat="48.62763" lon="-2.47228">
        <ele>95</ele>
        <time>2015-03-30T11:53:13.1Z</time>
      </trkpt>
      <trkpt lat="48.6276" lon="-2.47231">
        <ele>95</ele>
        <time>2015-03-30T11:53:16.1Z</time>
      </trkpt>
      <trkpt lat="48.62758" lon="-2.47234">
        <ele>95</ele>
        <time>2015-03-30T11:53:19.1Z</time>
      </trkpt>
      <trkpt lat="48.62755" lon="-2.47236">
        <ele>96</ele>
        <time>2015-03-30T11:53:22.1Z</time>
      </trkpt>
      <trkpt lat="48.62752" lon="-2.47239">
        <ele>96</ele>
        <time>2015-03-30T11:53:25.1Z</time>
      </trkpt>
      <trkpt lat="48.6275" lon="-2.4724">
        <ele>96</ele>
        <time>2015-03-30T11:53:27.1Z</time>
      </trkpt>
      <trkpt lat="48.62748" lon="-2.47241">
        <ele>96</ele>
        <time>2015-03-30T11:53:29.1Z</time>
      </trkpt>
      <trkpt lat="48.62745" lon="-2.47243">
        <ele>97</ele>
        <time>2015-03-30T11:53:32.1Z</time>
      </trkpt>
      <trkpt lat="48.62742" lon="-2.47244">
        <ele>97</ele>
        <time>2015-03-30T11:53:35.1Z</time>
      </trkpt>
      <trkpt lat="48.6274" lon="-2.47245">
        <ele>97</ele>
        <time>2015-03-30T11:53:37.1Z</time>
      </trkpt>
      <trkpt lat="48.62737" lon="-2.47247">
        <ele>97</ele>
        <time>2015-03-30T11:53:40.1Z</time>
      </trkpt>
      <trkpt lat="48.62734" lon="-2.47248">
        <ele>97</ele>
        <time>2015-03-30T11:53:42.1Z</time>
      </trkpt>
      <trkpt lat="48.62731" lon="-2.4725">
        <ele>97</ele>
        <time>2015-03-30T11:53:45.1Z</time>
      </trkpt>
      <trkpt lat="48.62729" lon="-2.4725">
        <ele>97</ele>
        <time>2015-03-30T11:53:47.1Z</time>
      </trkpt>
      <trkpt lat="48.62727" lon="-2.47251">
        <ele>97</ele>
        <time>2015-03-30T11:53:49.1Z</time>
      </trkpt>
      <trkpt lat="48.62725" lon="-2.47252">
        <ele>97</ele>
        <time>2015-03-30T11:53:51.1Z</time>
      </trkpt>
      <trkpt lat="48.62722" lon="-2.47253">
        <ele>97</ele>
        <time>2015-03-30T11:53:54.1Z</time>
      </trkpt>
      <trkpt lat="48.6272" lon="-2.47254">
        <ele>97</ele>
        <time>2015-03-30T11:53:56.1Z</time>
      </trkpt>
      <trkpt lat="48.62717" lon="-2.47255">
        <ele>98</ele>
        <time>2015-03-30T11:53:59.1Z</time>
      </trkpt>
      <trkpt lat="48.62714" lon="-2.47256">
        <ele>98</ele>
        <time>2015-03-30T11:54:01.1Z</time>
      </trkpt>
      <trkpt lat="48.62712" lon="-2.47257">
        <ele>98</ele>
        <time>2015-03-30T11:54:03.1Z</time>
      </trkpt>
      <trkpt lat="48.6271" lon="-2.47258">
        <ele>98</ele>
        <time>2015-03-30T11:54:05.1Z</time>
      </trkpt>
      <trkpt lat="48.62706" lon="-2.4726">
        <ele>98</ele>
        <time>2015-03-30T11:54:08.1Z</time>
      </trkpt>
      <trkpt lat="48.62703" lon="-2.47261">
        <ele>99</ele>
        <time>2015-03-30T11:54:11.1Z</time>
      </trkpt>
      <trkpt lat="48.627" lon="-2.47263">
        <ele>99</ele>
        <time>2015-03-30T11:54:14.1Z</time>
      </trkpt>
      <trkpt lat="48.62697" lon="-2.47264">
        <ele>99</ele>
        <time>2015-03-30T11:54:17.1Z</time>
      </trkpt>
      <trkpt lat="48.62695" lon="-2.47264">
        <ele>99</ele>
        <time>2015-03-30T11:54:19.1Z</time>
      </trkpt>
      <trkpt lat="48.62692" lon="-2.47265">
        <ele>99</ele>
        <time>2015-03-30T11:54:22.1Z</time>
      </trkpt>
      <trkpt lat="48.62688" lon="-2.47265">
        <ele>99</ele>
        <time>2015-03-30T11:54:25.1Z</time>
      </trkpt>
      <trkpt lat="48.62685" lon="-2.47267">
        <ele>99</ele>
        <time>2015-03-30T11:54:28.1Z</time>
      </trkpt>
      <trkpt lat="48.62683" lon="-2.47267">
        <ele>100</ele>
        <time>2015-03-30T11:54:30.1Z</time>
      </trkpt>
      <trkpt lat="48.62681" lon="-2.47268">
        <ele>100</ele>
        <time>2015-03-30T11:54:32.1Z</time>
      </trkpt>
      <trkpt lat="48.62677" lon="-2.47269">
        <ele>100</ele>
        <time>2015-03-30T11:54:35.1Z</time>
      </trkpt>
      <trkpt lat="48.62675" lon="-2.4727">
        <ele>100</ele>
        <time>2015-03-30T11:54:37.1Z</time>
      </trkpt>
      <trkpt lat="48.62672" lon="-2.47272">
        <ele>101</ele>
        <time>2015-03-30T11:54:40.1Z</time>
      </trkpt>
      <trkpt lat="48.62668" lon="-2.47274">
        <ele>101</ele>
        <time>2015-03-30T11:54:43.1Z</time>
      </trkpt>
      <trkpt lat="48.62667" lon="-2.47276">
        <ele>101</ele>
        <time>2015-03-30T11:54:45.1Z</time>
      </trkpt>
      <trkpt lat="48.62664" lon="-2.47278">
        <ele>101</ele>
        <time>2015-03-30T11:54:48.1Z</time>
      </trkpt>
      <trkpt lat="48.62661" lon="-2.47278">
        <ele>100</ele>
        <time>2015-03-30T11:54:51.1Z</time>
      </trkpt>
      <trkpt lat="48.62658" lon="-2.4728">
        <ele>100</ele>
        <time>2015-03-30T11:54:54.1Z</time>
      </trkpt>
      <trkpt lat="48.62656" lon="-2.47281">
        <ele>100</ele>
        <time>2015-03-30T11:54:56.1Z</time>
      </trkpt>
      <trkpt lat="48.62653" lon="-2.47282">
        <ele>100</ele>
        <time>2015-03-30T11:54:58.1Z</time>
      </trkpt>
      <trkpt lat="48.6265" lon="-2.47282">
        <ele>99</ele>
        <time>2015-03-30T11:55:01.1Z</time>
      </trkpt>
      <trkpt lat="48.62648" lon="-2.47283">
        <ele>99</ele>
        <time>2015-03-30T11:55:03.1Z</time>
      </trkpt>
      <trkpt lat="48.62645" lon="-2.47284">
        <ele>99</ele>
        <time>2015-03-30T11:55:06.1Z</time>
      </trkpt>
      <trkpt lat="48.62642" lon="-2.47284">
        <ele>98</ele>
        <time>2015-03-30T11:55:08.1Z</time>
      </trkpt>
      <trkpt lat="48.62639" lon="-2.47284">
        <ele>98</ele>
        <time>2015-03-30T11:55:11.1Z</time>
      </trkpt>
      <trkpt lat="48.62635" lon="-2.47284">
        <ele>98</ele>
        <time>2015-03-30T11:55:14.1Z</time>
      </trkpt>
      <trkpt lat="48.62633" lon="-2.47285">
        <ele>98</ele>
        <time>2015-03-30T11:55:16.1Z</time>
      </trkpt>
      <trkpt lat="48.62629" lon="-2.47287">
        <ele>98</ele>
        <time>2015-03-30T11:55:19.1Z</time>
      </trkpt>
      <trkpt lat="48.62626" lon="-2.47288">
        <ele>97</ele>
        <time>2015-03-30T11:55:22.1Z</time>
      </trkpt>
      <trkpt lat="48.62622" lon="-2.47288">
        <ele>97</ele>
        <time>2015-03-30T11:55:25.1Z</time>
      </trkpt>
      <trkpt lat="48.62622" lon="-2.47289">
        <ele>98</ele>
        <time>2015-03-30T11:55:28.1Z</time>
      </trkpt>
      <trkpt lat="48.62622" lon="-2.47289">
        <ele>98</ele>
        <time>2015-03-30T11:55:31.1Z</time>
      </trkpt>
      <trkpt lat="48.62622" lon="-2.47289">
        <ele>97</ele>
        <time>2015-03-30T11:55:35.1Z</time>
      </trkpt>
      <trkpt lat="48.62619" lon="-2.47292">
        <ele>97</ele>
        <time>2015-03-30T11:55:37.1Z</time>
      </trkpt>
      <trkpt lat="48.62618" lon="-2.47292">
        <ele>97</ele>
        <time>2015-03-30T11:55:39.1Z</time>
      </trkpt>
      <trkpt lat="48.62614" lon="-2.47294">
        <ele>96</ele>
        <time>2015-03-30T11:55:42.1Z</time>
      </trkpt>
      <trkpt lat="48.62611" lon="-2.47297">
        <ele>95</ele>
        <time>2015-03-30T11:55:44.1Z</time>
      </trkpt>
      <trkpt lat="48.62608" lon="-2.47299">
        <ele>95</ele>
        <time>2015-03-30T11:55:47.1Z</time>
      </trkpt>
      <trkpt lat="48.62607" lon="-2.47301">
        <ele>95</ele>
        <time>2015-03-30T11:55:49.1Z</time>
      </trkpt>
      <trkpt lat="48.62603" lon="-2.47304">
        <ele>95</ele>
        <time>2015-03-30T11:55:52.1Z</time>
      </trkpt>
      <trkpt lat="48.62599" lon="-2.47306">
        <ele>94</ele>
        <time>2015-03-30T11:55:55.1Z</time>
      </trkpt>
      <trkpt lat="48.62597" lon="-2.47308">
        <ele>94</ele>
        <time>2015-03-30T11:55:57.1Z</time>
      </trkpt>
      <trkpt lat="48.62592" lon="-2.4731">
        <ele>93</ele>
        <time>2015-03-30T11:56:00.1Z</time>
      </trkpt>
      <trkpt lat="48.62589" lon="-2.47314">
        <ele>93</ele>
        <time>2015-03-30T11:56:03.1Z</time>
      </trkpt>
      <trkpt lat="48.62586" lon="-2.47316">
        <ele>93</ele>
        <time>2015-03-30T11:56:05.1Z</time>
      </trkpt>
      <trkpt lat="48.62583" lon="-2.4732">
        <ele>92</ele>
        <time>2015-03-30T11:56:08.1Z</time>
      </trkpt>
      <trkpt lat="48.6258" lon="-2.47324">
        <ele>92</ele>
        <time>2015-03-30T11:56:10.1Z</time>
      </trkpt>
      <trkpt lat="48.62578" lon="-2.47326">
        <ele>92</ele>
        <time>2015-03-30T11:56:13.1Z</time>
      </trkpt>
      <trkpt lat="48.62576" lon="-2.47328">
        <ele>92</ele>
        <time>2015-03-30T11:56:15.1Z</time>
      </trkpt>
      <trkpt lat="48.62573" lon="-2.47333">
        <ele>91</ele>
        <time>2015-03-30T11:56:17.1Z</time>
      </trkpt>
      <trkpt lat="48.62571" lon="-2.47335">
        <ele>91</ele>
        <time>2015-03-30T11:56:20.1Z</time>
      </trkpt>
      <trkpt lat="48.62568" lon="-2.47338">
        <ele>91</ele>
        <time>2015-03-30T11:56:23.1Z</time>
      </trkpt>
      <trkpt lat="48.62565" lon="-2.47341">
        <ele>91</ele>
        <time>2015-03-30T11:56:26.1Z</time>
      </trkpt>
      <trkpt lat="48.62562" lon="-2.47345">
        <ele>90</ele>
        <time>2015-03-30T11:56:28.1Z</time>
      </trkpt>
      <trkpt lat="48.6256" lon="-2.47349">
        <ele>90</ele>
        <time>2015-03-30T11:56:31.1Z</time>
      </trkpt>
      <trkpt lat="48.62558" lon="-2.47353">
        <ele>90</ele>
        <time>2015-03-30T11:56:33.1Z</time>
      </trkpt>
      <trkpt lat="48.62556" lon="-2.47354">
        <ele>89</ele>
        <time>2015-03-30T11:56:36.1Z</time>
      </trkpt>
      <trkpt lat="48.62553" lon="-2.47353">
        <ele>88</ele>
        <time>2015-03-30T11:56:38.1Z</time>
      </trkpt>
      <trkpt lat="48.6255" lon="-2.47352">
        <ele>88</ele>
        <time>2015-03-30T11:56:41.1Z</time>
      </trkpt>
      <trkpt lat="48.62548" lon="-2.47347">
        <ele>88</ele>
        <time>2015-03-30T11:56:44.1Z</time>
      </trkpt>
      <trkpt lat="48.62547" lon="-2.47344">
        <ele>88</ele>
        <time>2015-03-30T11:56:47.1Z</time>
      </trkpt>
      <trkpt lat="48.62544" lon="-2.4734">
        <ele>87</ele>
        <time>2015-03-30T11:56:50.1Z</time>
      </trkpt>
      <trkpt lat="48.62544" lon="-2.47338">
        <ele>87</ele>
        <time>2015-03-30T11:56:52.1Z</time>
      </trkpt>
      <trkpt lat="48.62544" lon="-2.47334">
        <ele>87</ele>
        <time>2015-03-30T11:56:55.1Z</time>
      </trkpt>
      <trkpt lat="48.62544" lon="-2.47329">
        <ele>86</ele>
        <time>2015-03-30T11:56:58.1Z</time>
      </trkpt>
      <trkpt lat="48.62543" lon="-2.47325">
        <ele>86</ele>
        <time>2015-03-30T11:57:01.1Z</time>
      </trkpt>
      <trkpt lat="48.62541" lon="-2.47327">
        <ele>86</ele>
        <time>2015-03-30T11:57:04.1Z</time>
      </trkpt>
      <trkpt lat="48.6254" lon="-2.47329">
        <ele>86</ele>
        <time>2015-03-30T11:57:07.1Z</time>
      </trkpt>
      <trkpt lat="48.62538" lon="-2.47334">
        <ele>86</ele>
        <time>2015-03-30T11:57:09.1Z</time>
      </trkpt>
      <trkpt lat="48.62538" lon="-2.47338">
        <ele>85</ele>
        <time>2015-03-30T11:57:12.1Z</time>
      </trkpt>
      <trkpt lat="48.62539" lon="-2.47343">
        <ele>85</ele>
        <time>2015-03-30T11:57:15.1Z</time>
      </trkpt>
      <trkpt lat="48.62539" lon="-2.47347">
        <ele>85</ele>
        <time>2015-03-30T11:57:17.1Z</time>
      </trkpt>
      <trkpt lat="48.62539" lon="-2.4735">
        <ele>85</ele>
        <time>2015-03-30T11:57:20.1Z</time>
      </trkpt>
      <trkpt lat="48.6254" lon="-2.47351">
        <ele>85</ele>
        <time>2015-03-30T11:57:22.1Z</time>
      </trkpt>
      <trkpt lat="48.62541" lon="-2.47354">
        <ele>85</ele>
        <time>2015-03-30T11:57:25.1Z</time>
      </trkpt>
      <trkpt lat="48.62543" lon="-2.47358">
        <ele>85</ele>
        <time>2015-03-30T11:57:28.1Z</time>
      </trkpt>
      <trkpt lat="48.62545" lon="-2.47363">
        <ele>84</ele>
        <time>2015-03-30T11:57:30.1Z</time>
      </trkpt>
      <trkpt lat="48.62545" lon="-2.47367">
        <ele>83</ele>
        <time>2015-03-30T11:57:33.1Z</time>
      </trkpt>
      <trkpt lat="48.62546" lon="-2.4737">
        <ele>83</ele>
        <time>2015-03-30T11:57:35.1Z</time>
      </trkpt>
      <trkpt lat="48.62547" lon="-2.47375">
        <ele>83</ele>
        <time>2015-03-30T11:57:38.1Z</time>
      </trkpt>
      <trkpt lat="48.62548" lon="-2.4738">
        <ele>83</ele>
        <time>2015-03-30T11:57:41.1Z</time>
      </trkpt>
      <trkpt lat="48.62549" lon="-2.47384">
        <ele>82</ele>
        <time>2015-03-30T11:57:43.1Z</time>
      </trkpt>
      <trkpt lat="48.62549" lon="-2.47387">
        <ele>82</ele>
        <time>2015-03-30T11:57:46.1Z</time>
      </trkpt>
      <trkpt lat="48.62548" lon="-2.47389">
        <ele>82</ele>
        <time>2015-03-30T11:57:48.1Z</time>
      </trkpt>
      <trkpt lat="48.62547" lon="-2.47387">
        <ele>82</ele>
        <time>2015-03-30T11:57:51.1Z</time>
      </trkpt>
      <trkpt lat="48.62545" lon="-2.47383">
        <ele>81</ele>
        <time>2015-03-30T11:57:53.1Z</time>
      </trkpt>
      <trkpt lat="48.62545" lon="-2.47382">
        <ele>81</ele>
        <time>2015-03-30T11:57:56.1Z</time>
      </trkpt>
      <trkpt lat="48.62544" lon="-2.47381">
        <ele>81</ele>
        <time>2015-03-30T11:57:58.1Z</time>
      </trkpt>
      <trkpt lat="48.62543" lon="-2.47379">
        <ele>81</ele>
        <time>2015-03-30T11:58:01.1Z</time>
      </trkpt>
      <trkpt lat="48.62542" lon="-2.47375">
        <ele>81</ele>
        <time>2015-03-30T11:58:03.1Z</time>
      </trkpt>
      <trkpt lat="48.62541" lon="-2.47372">
        <ele>80</ele>
        <time>2015-03-30T11:58:06.1Z</time>
      </trkpt>
      <trkpt lat="48.62539" lon="-2.47366">
        <ele>80</ele>
        <time>2015-03-30T11:58:09.1Z</time>
      </trkpt>
      <trkpt lat="48.62537" lon="-2.47362">
        <ele>79</ele>
        <time>2015-03-30T11:58:11.1Z</time>
      </trkpt>
      <trkpt lat="48.62535" lon="-2.47358">
        <ele>79</ele>
        <time>2015-03-30T11:58:14.1Z</time>
      </trkpt>
      <trkpt lat="48.62534" lon="-2.47355">
        <ele>79</ele>
        <time>2015-03-30T11:58:16.1Z</time>
      </trkpt>
      <trkpt lat="48.62532" lon="-2.4735">
        <ele>79</ele>
        <time>2015-03-30T11:58:18.1Z</time>
      </trkpt>
      <trkpt lat="48.62531" lon="-2.47346">
        <ele>79</ele>
        <time>2015-03-30T11:58:21.1Z</time>
      </trkpt>
      <trkpt lat="48.62528" lon="-2.47342">
        <ele>79</ele>
        <time>2015-03-30T11:58:23.1Z</time>
      </trkpt>
      <trkpt lat="48.62526" lon="-2.47339">
        <ele>78</ele>
        <time>2015-03-30T11:58:26.1Z</time>
      </trkpt>
      <trkpt lat="48.62524" lon="-2.47335">
        <ele>78</ele>
        <time>2015-03-30T11:58:28.1Z</time>
      </trkpt>
      <trkpt lat="48.62524" lon="-2.47332">
        <ele>77</ele>
        <time>2015-03-30T11:58:30.1Z</time>
      </trkpt>
      <trkpt lat="48.62524" lon="-2.47327">
        <ele>77</ele>
        <time>2015-03-30T11:58:34.1Z</time>
      </trkpt>
      <trkpt lat="48.62526" lon="-2.47323">
        <ele>76</ele>
        <time>2015-03-30T11:58:37.1Z</time>
      </trkpt>
      <trkpt lat="48.62527" lon="-2.4732">
        <ele>76</ele>
        <time>2015-03-30T11:58:39.1Z</time>
      </trkpt>
      <trkpt lat="48.62529" lon="-2.47318">
        <ele>75</ele>
        <time>2015-03-30T11:58:41.1Z</time>
      </trkpt>
      <trkpt lat="48.62529" lon="-2.47313">
        <ele>75</ele>
        <time>2015-03-30T11:58:43.1Z</time>
      </trkpt>
      <trkpt lat="48.62529" lon="-2.4731">
        <ele>74</ele>
        <time>2015-03-30T11:58:46.1Z</time>
      </trkpt>
      <trkpt lat="48.62531" lon="-2.47306">
        <ele>73</ele>
        <time>2015-03-30T11:58:48.1Z</time>
      </trkpt>
      <trkpt lat="48.62531" lon="-2.47303">
        <ele>73</ele>
        <time>2015-03-30T11:58:51.1Z</time>
      </trkpt>
      <trkpt lat="48.62531" lon="-2.47301">
        <ele>73</ele>
        <time>2015-03-30T11:58:53.1Z</time>
      </trkpt>
      <trkpt lat="48.62531" lon="-2.47295">
        <ele>72</ele>
        <time>2015-03-30T11:58:55.1Z</time>
      </trkpt>
      <trkpt lat="48.62532" lon="-2.47292">
        <ele>72</ele>
        <time>2015-03-30T11:58:58.1Z</time>
      </trkpt>
      <trkpt lat="48.62531" lon="-2.47287">
        <ele>73</ele>
        <time>2015-03-30T11:59:00.1Z</time>
      </trkpt>
      <trkpt lat="48.62531" lon="-2.47284">
        <ele>73</ele>
        <time>2015-03-30T11:59:03.1Z</time>
      </trkpt>
      <trkpt lat="48.6253" lon="-2.47279">
        <ele>73</ele>
        <time>2015-03-30T11:59:06.1Z</time>
      </trkpt>
      <trkpt lat="48.62529" lon="-2.47276">
        <ele>72</ele>
        <time>2015-03-30T11:59:08.1Z</time>
      </trkpt>
      <trkpt lat="48.62527" lon="-2.47271">
        <ele>72</ele>
        <time>2015-03-30T11:59:10.1Z</time>
      </trkpt>
      <trkpt lat="48.62526" lon="-2.47269">
        <ele>72</ele>
        <time>2015-03-30T11:59:13.1Z</time>
      </trkpt>
      <trkpt lat="48.62524" lon="-2.47264">
        <ele>73</ele>
        <time>2015-03-30T11:59:15.1Z</time>
      </trkpt>
      <trkpt lat="48.62522" lon="-2.47261">
        <ele>73</ele>
        <time>2015-03-30T11:59:18.1Z</time>
      </trkpt>
      <trkpt lat="48.62518" lon="-2.47256">
        <ele>73</ele>
        <time>2015-03-30T11:59:21.1Z</time>
      </trkpt>
      <trkpt lat="48.62516" lon="-2.47254">
        <ele>73</ele>
        <time>2015-03-30T11:59:23.1Z</time>
      </trkpt>
      <trkpt lat="48.62513" lon="-2.47251">
        <ele>73</ele>
        <time>2015-03-30T11:59:25.1Z</time>
      </trkpt>
      <trkpt lat="48.62511" lon="-2.47249">
        <ele>73</ele>
        <time>2015-03-30T11:59:28.1Z</time>
      </trkpt>
      <trkpt lat="48.62507" lon="-2.47246">
        <ele>72</ele>
        <time>2015-03-30T11:59:30.1Z</time>
      </trkpt>
      <trkpt lat="48.62504" lon="-2.47246">
        <ele>72</ele>
        <time>2015-03-30T11:59:32.1Z</time>
      </trkpt>
      <trkpt lat="48.62502" lon="-2.47245">
        <ele>73</ele>
        <time>2015-03-30T11:59:35.1Z</time>
      </trkpt>
      <trkpt lat="48.62498" lon="-2.47243">
        <ele>73</ele>
        <time>2015-03-30T11:59:37.1Z</time>
      </trkpt>
      <trkpt lat="48.62495" lon="-2.47242">
        <ele>73</ele>
        <time>2015-03-30T11:59:40.1Z</time>
      </trkpt>
      <trkpt lat="48.62492" lon="-2.4724">
        <ele>72</ele>
        <time>2015-03-30T11:59:42.1Z</time>
      </trkpt>
      <trkpt lat="48.6249" lon="-2.47239">
        <ele>72</ele>
        <time>2015-03-30T11:59:45.1Z</time>
      </trkpt>
      <trkpt lat="48.62486" lon="-2.47237">
        <ele>72</ele>
        <time>2015-03-30T11:59:47.1Z</time>
      </trkpt>
      <trkpt lat="48.62482" lon="-2.47236">
        <ele>72</ele>
        <time>2015-03-30T11:59:50.1Z</time>
      </trkpt>
      <trkpt lat="48.6248" lon="-2.47236">
        <ele>72</ele>
        <time>2015-03-30T11:59:53.1Z</time>
      </trkpt>
      <trkpt lat="48.62476" lon="-2.47236">
        <ele>73</ele>
        <time>2015-03-30T11:59:55.1Z</time>
      </trkpt>
      <trkpt lat="48.62474" lon="-2.47236">
        <ele>72</ele>
        <time>2015-03-30T11:59:58.1Z</time>
      </trkpt>
      <trkpt lat="48.6247" lon="-2.47235">
        <ele>73</ele>
        <time>2015-03-30T12:00:01.1Z</time>
      </trkpt>
      <trkpt lat="48.62466" lon="-2.47236">
        <ele>73</ele>
        <time>2015-03-30T12:00:03.1Z</time>
      </trkpt>
      <trkpt lat="48.62462" lon="-2.47235">
        <ele>73</ele>
        <time>2015-03-30T12:00:07.1Z</time>
      </trkpt>
      <trkpt lat="48.62458" lon="-2.47235">
        <ele>72</ele>
        <time>2015-03-30T12:00:09.1Z</time>
      </trkpt>
      <trkpt lat="48.62455" lon="-2.47235">
        <ele>72</ele>
        <time>2015-03-30T12:00:12.1Z</time>
      </trkpt>
      <trkpt lat="48.62452" lon="-2.47235">
        <ele>72</ele>
        <time>2015-03-30T12:00:14.1Z</time>
      </trkpt>
      <trkpt lat="48.62449" lon="-2.47235">
        <ele>72</ele>
        <time>2015-03-30T12:00:16.1Z</time>
      </trkpt>
      <trkpt lat="48.62446" lon="-2.47234">
        <ele>72</ele>
        <time>2015-03-30T12:00:19.1Z</time>
      </trkpt>
      <trkpt lat="48.62442" lon="-2.47234">
        <ele>72</ele>
        <time>2015-03-30T12:00:21.1Z</time>
      </trkpt>
      <trkpt lat="48.62439" lon="-2.47234">
        <ele>72</ele>
        <time>2015-03-30T12:00:24.1Z</time>
      </trkpt>
      <trkpt lat="48.62436" lon="-2.47235">
        <ele>72</ele>
        <time>2015-03-30T12:00:26.1Z</time>
      </trkpt>
      <trkpt lat="48.62433" lon="-2.47235">
        <ele>72</ele>
        <time>2015-03-30T12:00:30.1Z</time>
      </trkpt>
      <trkpt lat="48.62429" lon="-2.47235">
        <ele>72</ele>
        <time>2015-03-30T12:00:32.1Z</time>
      </trkpt>
      <trkpt lat="48.62427" lon="-2.47235">
        <ele>72</ele>
        <time>2015-03-30T12:00:35.1Z</time>
      </trkpt>
      <trkpt lat="48.62423" lon="-2.47236">
        <ele>72</ele>
        <time>2015-03-30T12:00:37.1Z</time>
      </trkpt>
      <trkpt lat="48.62421" lon="-2.47236">
        <ele>72</ele>
        <time>2015-03-30T12:00:40.1Z</time>
      </trkpt>
      <trkpt lat="48.62418" lon="-2.47237">
        <ele>72</ele>
        <time>2015-03-30T12:00:43.1Z</time>
      </trkpt>
      <trkpt lat="48.62414" lon="-2.47238">
        <ele>72</ele>
        <time>2015-03-30T12:00:46.1Z</time>
      </trkpt>
      <trkpt lat="48.62411" lon="-2.47238">
        <ele>72</ele>
        <time>2015-03-30T12:00:49.1Z</time>
      </trkpt>
      <trkpt lat="48.62408" lon="-2.47239">
        <ele>72</ele>
        <time>2015-03-30T12:00:51.1Z</time>
      </trkpt>
      <trkpt lat="48.62406" lon="-2.47239">
        <ele>72</ele>
        <time>2015-03-30T12:00:54.1Z</time>
      </trkpt>
      <trkpt lat="48.62402" lon="-2.4724">
        <ele>72</ele>
        <time>2015-03-30T12:00:56.1Z</time>
      </trkpt>
      <trkpt lat="48.624" lon="-2.4724">
        <ele>72</ele>
        <time>2015-03-30T12:00:59.1Z</time>
      </trkpt>
      <trkpt lat="48.62397" lon="-2.4724">
        <ele>72</ele>
        <time>2015-03-30T12:01:01.1Z</time>
      </trkpt>
      <trkpt lat="48.62393" lon="-2.4724">
        <ele>72</ele>
        <time>2015-03-30T12:01:04.1Z</time>
      </trkpt>
      <trkpt lat="48.62389" lon="-2.47241">
        <ele>73</ele>
        <time>2015-03-30T12:01:06.1Z</time>
      </trkpt>
      <trkpt lat="48.62387" lon="-2.47242">
        <ele>73</ele>
        <time>2015-03-30T12:01:09.1Z</time>
      </trkpt>
      <trkpt lat="48.62383" lon="-2.47244">
        <ele>73</ele>
        <time>2015-03-30T12:01:12.1Z</time>
      </trkpt>
      <trkpt lat="48.6238" lon="-2.47246">
        <ele>73</ele>
        <time>2015-03-30T12:01:15.1Z</time>
      </trkpt>
      <trkpt lat="48.62376" lon="-2.47247">
        <ele>73</ele>
        <time>2015-03-30T12:01:17.1Z</time>
      </trkpt>
      <trkpt lat="48.62374" lon="-2.47248">
        <ele>73</ele>
        <time>2015-03-30T12:01:19.1Z</time>
      </trkpt>
      <trkpt lat="48.62372" lon="-2.47249">
        <ele>72</ele>
        <time>2015-03-30T12:01:22.1Z</time>
      </trkpt>
      <trkpt lat="48.62369" lon="-2.4725">
        <ele>72</ele>
        <time>2015-03-30T12:01:25.1Z</time>
      </trkpt>
      <trkpt lat="48.62365" lon="-2.47252">
        <ele>72</ele>
        <time>2015-03-30T12:01:27.1Z</time>
      </trkpt>
      <trkpt lat="48.62363" lon="-2.47253">
        <ele>72</ele>
        <time>2015-03-30T12:01:30.1Z</time>
      </trkpt>
      <trkpt lat="48.62361" lon="-2.47255">
        <ele>72</ele>
        <time>2015-03-30T12:01:32.1Z</time>
      </trkpt>
      <trkpt lat="48.62359" lon="-2.47256">
        <ele>72</ele>
        <time>2015-03-30T12:01:34.1Z</time>
      </trkpt>
      <trkpt lat="48.62356" lon="-2.47258">
        <ele>73</ele>
        <time>2015-03-30T12:01:37.1Z</time>
      </trkpt>
      <trkpt lat="48.62354" lon="-2.4726">
        <ele>73</ele>
        <time>2015-03-30T12:01:39.1Z</time>
      </trkpt>
      <trkpt lat="48.62352" lon="-2.47261">
        <ele>73</ele>
        <time>2015-03-30T12:01:41.1Z</time>
      </trkpt>
      <trkpt lat="48.62349" lon="-2.47265">
        <ele>73</ele>
        <time>2015-03-30T12:01:44.1Z</time>
      </trkpt>
      <trkpt lat="48.62347" lon="-2.47267">
        <ele>73</ele>
        <time>2015-03-30T12:01:47.1Z</time>
      </trkpt>
      <trkpt lat="48.62344" lon="-2.47269">
        <ele>73</ele>
        <time>2015-03-30T12:01:49.1Z</time>
      </trkpt>
      <trkpt lat="48.62343" lon="-2.47271">
        <ele>73</ele>
        <time>2015-03-30T12:01:51.1Z</time>
      </trkpt>
      <trkpt lat="48.6234" lon="-2.47273">
        <ele>73</ele>
        <time>2015-03-30T12:01:55.1Z</time>
      </trkpt>
      <trkpt lat="48.62336" lon="-2.47275">
        <ele>73</ele>
        <time>2015-03-30T12:01:57.1Z</time>
      </trkpt>
      <trkpt lat="48.62334" lon="-2.47276">
        <ele>73</ele>
        <time>2015-03-30T12:02:00.1Z</time>
      </trkpt>
      <trkpt lat="48.6233" lon="-2.47277">
        <ele>73</ele>
        <time>2015-03-30T12:02:03.1Z</time>
      </trkpt>
      <trkpt lat="48.62328" lon="-2.47279">
        <ele>73</ele>
        <time>2015-03-30T12:02:05.1Z</time>
      </trkpt>
      <trkpt lat="48.62326" lon="-2.47283">
        <ele>73</ele>
        <time>2015-03-30T12:02:09.1Z</time>
      </trkpt>
      <trkpt lat="48.62323" lon="-2.47284">
        <ele>73</ele>
        <time>2015-03-30T12:02:11.1Z</time>
      </trkpt>
      <trkpt lat="48.6232" lon="-2.47287">
        <ele>73</ele>
        <time>2015-03-30T12:02:14.1Z</time>
      </trkpt>
      <trkpt lat="48.62318" lon="-2.47288">
        <ele>73</ele>
        <time>2015-03-30T12:02:17.1Z</time>
      </trkpt>
      <trkpt lat="48.62315" lon="-2.4729">
        <ele>73</ele>
        <time>2015-03-30T12:02:19.1Z</time>
      </trkpt>
      <trkpt lat="48.62312" lon="-2.47291">
        <ele>73</ele>
        <time>2015-03-30T12:02:22.1Z</time>
      </trkpt>
      <trkpt lat="48.6231" lon="-2.47291">
        <ele>73</ele>
        <time>2015-03-30T12:02:24.1Z</time>
      </trkpt>
      <trkpt lat="48.62307" lon="-2.47293">
        <ele>73</ele>
        <time>2015-03-30T12:02:26.1Z</time>
      </trkpt>
      <trkpt lat="48.62303" lon="-2.47295">
        <ele>73</ele>
        <time>2015-03-30T12:02:30.1Z</time>
      </trkpt>
      <trkpt lat="48.62299" lon="-2.47297">
        <ele>73</ele>
        <time>2015-03-30T12:02:32.1Z</time>
      </trkpt>
      <trkpt lat="48.62297" lon="-2.47299">
        <ele>73</ele>
        <time>2015-03-30T12:02:35.1Z</time>
      </trkpt>
      <trkpt lat="48.62294" lon="-2.47302">
        <ele>73</ele>
        <time>2015-03-30T12:02:37.1Z</time>
      </trkpt>
      <trkpt lat="48.62291" lon="-2.47304">
        <ele>73</ele>
        <time>2015-03-30T12:02:40.1Z</time>
      </trkpt>
      <trkpt lat="48.62288" lon="-2.47305">
        <ele>73</ele>
        <time>2015-03-30T12:02:42.1Z</time>
      </trkpt>
      <trkpt lat="48.62285" lon="-2.47307">
        <ele>73</ele>
        <time>2015-03-30T12:02:45.1Z</time>
      </trkpt>
      <trkpt lat="48.62283" lon="-2.47309">
        <ele>73</ele>
        <time>2015-03-30T12:02:47.1Z</time>
      </trkpt>
      <trkpt lat="48.6228" lon="-2.4731">
        <ele>73</ele>
        <time>2015-03-30T12:02:51.1Z</time>
      </trkpt>
      <trkpt lat="48.62277" lon="-2.47313">
        <ele>73</ele>
        <time>2015-03-30T12:02:54.1Z</time>
      </trkpt>
      <trkpt lat="48.62275" lon="-2.47316">
        <ele>73</ele>
        <time>2015-03-30T12:02:57.1Z</time>
      </trkpt>
      <trkpt lat="48.62272" lon="-2.47318">
        <ele>73</ele>
        <time>2015-03-30T12:02:59.1Z</time>
      </trkpt>
      <trkpt lat="48.6227" lon="-2.4732">
        <ele>73</ele>
        <time>2015-03-30T12:03:02.1Z</time>
      </trkpt>
      <trkpt lat="48.62267" lon="-2.47323">
        <ele>73</ele>
        <time>2015-03-30T12:03:05.1Z</time>
      </trkpt>
      <trkpt lat="48.62264" lon="-2.47325">
        <ele>73</ele>
        <time>2015-03-30T12:03:07.1Z</time>
      </trkpt>
      <trkpt lat="48.62261" lon="-2.47326">
        <ele>73</ele>
        <time>2015-03-30T12:03:10.1Z</time>
      </trkpt>
      <trkpt lat="48.62259" lon="-2.47327">
        <ele>73</ele>
        <time>2015-03-30T12:03:12.1Z</time>
      </trkpt>
      <trkpt lat="48.62257" lon="-2.47329">
        <ele>73</ele>
        <time>2015-03-30T12:03:15.1Z</time>
      </trkpt>
      <trkpt lat="48.62255" lon="-2.47329">
        <ele>73</ele>
        <time>2015-03-30T12:03:18.1Z</time>
      </trkpt>
      <trkpt lat="48.62251" lon="-2.4733">
        <ele>73</ele>
        <time>2015-03-30T12:03:21.1Z</time>
      </trkpt>
      <trkpt lat="48.62249" lon="-2.47332">
        <ele>73</ele>
        <time>2015-03-30T12:03:23.1Z</time>
      </trkpt>
      <trkpt lat="48.62247" lon="-2.47332">
        <ele>73</ele>
        <time>2015-03-30T12:03:25.1Z</time>
      </trkpt>
      <trkpt lat="48.62244" lon="-2.47333">
        <ele>73</ele>
        <time>2015-03-30T12:03:29.1Z</time>
      </trkpt>
      <trkpt lat="48.62241" lon="-2.47334">
        <ele>74</ele>
        <time>2015-03-30T12:03:32.1Z</time>
      </trkpt>
      <trkpt lat="48.62239" lon="-2.47335">
        <ele>74</ele>
        <time>2015-03-30T12:03:35.1Z</time>
      </trkpt>
      <trkpt lat="48.62236" lon="-2.47336">
        <ele>74</ele>
        <time>2015-03-30T12:03:37.1Z</time>
      </trkpt>
      <trkpt lat="48.62234" lon="-2.47337">
        <ele>74</ele>
        <time>2015-03-30T12:03:41.1Z</time>
      </trkpt>
      <trkpt lat="48.62233" lon="-2.47338">
        <ele>74</ele>
        <time>2015-03-30T12:03:43.1Z</time>
      </trkpt>
      <trkpt lat="48.6223" lon="-2.4734">
        <ele>75</ele>
        <time>2015-03-30T12:03:45.1Z</time>
      </trkpt>
      <trkpt lat="48.62228" lon="-2.47344">
        <ele>76</ele>
        <time>2015-03-30T12:03:49.1Z</time>
      </trkpt>
      <trkpt lat="48.62224" lon="-2.47348">
        <ele>76</ele>
        <time>2015-03-30T12:03:51.1Z</time>
      </trkpt>
      <trkpt lat="48.62222" lon="-2.4735">
        <ele>76</ele>
        <time>2015-03-30T12:03:54.1Z</time>
      </trkpt>
      <trkpt lat="48.6222" lon="-2.47354">
        <ele>76</ele>
        <time>2015-03-30T12:03:56.1Z</time>
      </trkpt>
      <trkpt lat="48.62217" lon="-2.47358">
        <ele>76</ele>
        <time>2015-03-30T12:03:58.1Z</time>
      </trkpt>
      <trkpt lat="48.62215" lon="-2.47361">
        <ele>76</ele>
        <time>2015-03-30T12:04:01.1Z</time>
      </trkpt>
      <trkpt lat="48.62212" lon="-2.47363">
        <ele>76</ele>
        <time>2015-03-30T12:04:03.1Z</time>
      </trkpt>
      <trkpt lat="48.6221" lon="-2.47365">
        <ele>76</ele>
        <time>2015-03-30T12:04:05.1Z</time>
      </trkpt>
      <trkpt lat="48.62207" lon="-2.47369">
        <ele>76</ele>
        <time>2015-03-30T12:04:08.1Z</time>
      </trkpt>
      <trkpt lat="48.62204" lon="-2.47373">
        <ele>76</ele>
        <time>2015-03-30T12:04:12.1Z</time>
      </trkpt>
      <trkpt lat="48.62202" lon="-2.47377">
        <ele>76</ele>
        <time>2015-03-30T12:04:14.1Z</time>
      </trkpt>
      <trkpt lat="48.62201" lon="-2.47379">
        <ele>76</ele>
        <time>2015-03-30T12:04:17.1Z</time>
      </trkpt>
      <trkpt lat="48.62199" lon="-2.47382">
        <ele>76</ele>
        <time>2015-03-30T12:04:19.1Z</time>
      </trkpt>
      <trkpt lat="48.62196" lon="-2.47386">
        <ele>76</ele>
        <time>2015-03-30T12:04:21.1Z</time>
      </trkpt>
      <trkpt lat="48.62194" lon="-2.47387">
        <ele>76</ele>
        <time>2015-03-30T12:04:24.1Z</time>
      </trkpt>
      <trkpt lat="48.62192" lon="-2.47391">
        <ele>76</ele>
        <time>2015-03-30T12:04:26.1Z</time>
      </trkpt>
      <trkpt lat="48.62189" lon="-2.47395">
        <ele>75</ele>
        <time>2015-03-30T12:04:30.1Z</time>
      </trkpt>
      <trkpt lat="48.62187" lon="-2.47399">
        <ele>76</ele>
        <time>2015-03-30T12:04:32.1Z</time>
      </trkpt>
      <trkpt lat="48.62185" lon="-2.47402">
        <ele>76</ele>
        <time>2015-03-30T12:04:35.1Z</time>
      </trkpt>
      <trkpt lat="48.62183" lon="-2.47406">
        <ele>77</ele>
        <time>2015-03-30T12:04:37.1Z</time>
      </trkpt>
      <trkpt lat="48.62181" lon="-2.47409">
        <ele>77</ele>
        <time>2015-03-30T12:04:40.1Z</time>
      </trkpt>
      <trkpt lat="48.6218" lon="-2.47412">
        <ele>77</ele>
        <time>2015-03-30T12:04:42.1Z</time>
      </trkpt>
      <trkpt lat="48.62178" lon="-2.47417">
        <ele>77</ele>
        <time>2015-03-30T12:04:44.1Z</time>
      </trkpt>
      <trkpt lat="48.62176" lon="-2.47422">
        <ele>77</ele>
        <time>2015-03-30T12:04:47.1Z</time>
      </trkpt>
      <trkpt lat="48.62174" lon="-2.47425">
        <ele>77</ele>
        <time>2015-03-30T12:04:49.1Z</time>
      </trkpt>
      <trkpt lat="48.62172" lon="-2.47429">
        <ele>77</ele>
        <time>2015-03-30T12:04:52.1Z</time>
      </trkpt>
      <trkpt lat="48.62171" lon="-2.47432">
        <ele>77</ele>
        <time>2015-03-30T12:04:54.1Z</time>
      </trkpt>
      <trkpt lat="48.6217" lon="-2.47434">
        <ele>77</ele>
        <time>2015-03-30T12:04:57.1Z</time>
      </trkpt>
      <trkpt lat="48.62167" lon="-2.47436">
        <ele>77</ele>
        <time>2015-03-30T12:04:59.1Z</time>
      </trkpt>
      <trkpt lat="48.62166" lon="-2.47438">
        <ele>77</ele>
        <time>2015-03-30T12:05:02.1Z</time>
      </trkpt>
      <trkpt lat="48.62165" lon="-2.47441">
        <ele>77</ele>
        <time>2015-03-30T12:05:04.1Z</time>
      </trkpt>
      <trkpt lat="48.62165" lon="-2.47442">
        <ele>77</ele>
        <time>2015-03-30T12:05:07.1Z</time>
      </trkpt>
      <trkpt lat="48.62162" lon="-2.47443">
        <ele>77</ele>
        <time>2015-03-30T12:05:11.1Z</time>
      </trkpt>
      <trkpt lat="48.62158" lon="-2.47447">
        <ele>77</ele>
        <time>2015-03-30T12:05:14.1Z</time>
      </trkpt>
      <trkpt lat="48.62156" lon="-2.4745">
        <ele>77</ele>
        <time>2015-03-30T12:05:16.1Z</time>
      </trkpt>
      <trkpt lat="48.62152" lon="-2.47452">
        <ele>77</ele>
        <time>2015-03-30T12:05:19.1Z</time>
      </trkpt>
      <trkpt lat="48.6215" lon="-2.47455">
        <ele>77</ele>
        <time>2015-03-30T12:05:22.1Z</time>
      </trkpt>
      <trkpt lat="48.62147" lon="-2.4746">
        <ele>77</ele>
        <time>2015-03-30T12:05:24.1Z</time>
      </trkpt>
      <trkpt lat="48.62145" lon="-2.47463">
        <ele>77</ele>
        <time>2015-03-30T12:05:27.1Z</time>
      </trkpt>
      <trkpt lat="48.62142" lon="-2.47467">
        <ele>77</ele>
        <time>2015-03-30T12:05:29.1Z</time>
      </trkpt>
      <trkpt lat="48.62139" lon="-2.4747">
        <ele>77</ele>
        <time>2015-03-30T12:05:33.1Z</time>
      </trkpt>
      <trkpt lat="48.62137" lon="-2.47473">
        <ele>77</ele>
        <time>2015-03-30T12:05:35.1Z</time>
      </trkpt>
      <trkpt lat="48.62135" lon="-2.47476">
        <ele>77</ele>
        <time>2015-03-30T12:05:38.1Z</time>
      </trkpt>
      <trkpt lat="48.62133" lon="-2.47479">
        <ele>77</ele>
        <time>2015-03-30T12:05:41.1Z</time>
      </trkpt>
      <trkpt lat="48.62131" lon="-2.47483">
        <ele>77</ele>
        <time>2015-03-30T12:05:43.1Z</time>
      </trkpt>
      <trkpt lat="48.62129" lon="-2.47485">
        <ele>77</ele>
        <time>2015-03-30T12:05:47.1Z</time>
      </trkpt>
      <trkpt lat="48.62126" lon="-2.47488">
        <ele>77</ele>
        <time>2015-03-30T12:05:50.1Z</time>
      </trkpt>
      <trkpt lat="48.62124" lon="-2.47492">
        <ele>77</ele>
        <time>2015-03-30T12:05:53.1Z</time>
      </trkpt>
      <trkpt lat="48.62121" lon="-2.47495">
        <ele>77</ele>
        <time>2015-03-30T12:05:55.1Z</time>
      </trkpt>
      <trkpt lat="48.62118" lon="-2.47497">
        <ele>77</ele>
        <time>2015-03-30T12:05:59.1Z</time>
      </trkpt>
      <trkpt lat="48.62117" lon="-2.47499">
        <ele>77</ele>
        <time>2015-03-30T12:06:01.1Z</time>
      </trkpt>
      <trkpt lat="48.62114" lon="-2.47503">
        <ele>77</ele>
        <time>2015-03-30T12:06:03.1Z</time>
      </trkpt>
      <trkpt lat="48.62112" lon="-2.47504">
        <ele>77</ele>
        <time>2015-03-30T12:06:06.1Z</time>
      </trkpt>
      <trkpt lat="48.6211" lon="-2.47508">
        <ele>77</ele>
        <time>2015-03-30T12:06:08.1Z</time>
      </trkpt>
      <trkpt lat="48.6211" lon="-2.4751">
        <ele>77</ele>
        <time>2015-03-30T12:06:10.1Z</time>
      </trkpt>
      <trkpt lat="48.62109" lon="-2.47512">
        <ele>77</ele>
        <time>2015-03-30T12:06:12.1Z</time>
      </trkpt>
      <trkpt lat="48.62107" lon="-2.47516">
        <ele>76</ele>
        <time>2015-03-30T12:06:16.1Z</time>
      </trkpt>
      <trkpt lat="48.62105" lon="-2.47521">
        <ele>76</ele>
        <time>2015-03-30T12:06:18.1Z</time>
      </trkpt>
      <trkpt lat="48.62103" lon="-2.47523">
        <ele>76</ele>
        <time>2015-03-30T12:06:21.1Z</time>
      </trkpt>
      <trkpt lat="48.62101" lon="-2.47526">
        <ele>76</ele>
        <time>2015-03-30T12:06:23.1Z</time>
      </trkpt>
      <trkpt lat="48.62099" lon="-2.4753">
        <ele>76</ele>
        <time>2015-03-30T12:06:25.1Z</time>
      </trkpt>
      <trkpt lat="48.62097" lon="-2.47533">
        <ele>77</ele>
        <time>2015-03-30T12:06:27.1Z</time>
      </trkpt>
      <trkpt lat="48.62094" lon="-2.47536">
        <ele>77</ele>
        <time>2015-03-30T12:06:30.1Z</time>
      </trkpt>
      <trkpt lat="48.62091" lon="-2.4754">
        <ele>77</ele>
        <time>2015-03-30T12:06:34.1Z</time>
      </trkpt>
      <trkpt lat="48.62088" lon="-2.47543">
        <ele>77</ele>
        <time>2015-03-30T12:06:37.1Z</time>
      </trkpt>
      <trkpt lat="48.62086" lon="-2.47547">
        <ele>77</ele>
        <time>2015-03-30T12:06:39.1Z</time>
      </trkpt>
      <trkpt lat="48.62083" lon="-2.47551">
        <ele>76</ele>
        <time>2015-03-30T12:06:43.1Z</time>
      </trkpt>
      <trkpt lat="48.6208" lon="-2.47554">
        <ele>76</ele>
        <time>2015-03-30T12:06:45.1Z</time>
      </trkpt>
      <trkpt lat="48.62078" lon="-2.47556">
        <ele>76</ele>
        <time>2015-03-30T12:06:47.1Z</time>
      </trkpt>
      <trkpt lat="48.62076" lon="-2.4756">
        <ele>76</ele>
        <time>2015-03-30T12:06:51.1Z</time>
      </trkpt>
      <trkpt lat="48.62073" lon="-2.47564">
        <ele>76</ele>
        <time>2015-03-30T12:06:53.1Z</time>
      </trkpt>
      <trkpt lat="48.6207" lon="-2.47569">
        <ele>76</ele>
        <time>2015-03-30T12:06:56.1Z</time>
      </trkpt>
      <trkpt lat="48.62069" lon="-2.47572">
        <ele>76</ele>
        <time>2015-03-30T12:06:58.1Z</time>
      </trkpt>
      <trkpt lat="48.62066" lon="-2.47576">
        <ele>76</ele>
        <time>2015-03-30T12:07:01.1Z</time>
      </trkpt>
      <trkpt lat="48.62064" lon="-2.47579">
        <ele>76</ele>
        <time>2015-03-30T12:07:04.1Z</time>
      </trkpt>
      <trkpt lat="48.62061" lon="-2.47582">
        <ele>76</ele>
        <time>2015-03-30T12:07:07.1Z</time>
      </trkpt>
      <trkpt lat="48.62059" lon="-2.47586">
        <ele>76</ele>
        <time>2015-03-30T12:07:09.1Z</time>
      </trkpt>
      <trkpt lat="48.62056" lon="-2.47589">
        <ele>76</ele>
        <time>2015-03-30T12:07:12.1Z</time>
      </trkpt>
      <trkpt lat="48.62055" lon="-2.47591">
        <ele>76</ele>
        <time>2015-03-30T12:07:14.1Z</time>
      </trkpt>
      <trkpt lat="48.62053" lon="-2.47595">
        <ele>76</ele>
        <time>2015-03-30T12:07:17.1Z</time>
      </trkpt>
      <trkpt lat="48.62051" lon="-2.47598">
        <ele>76</ele>
        <time>2015-03-30T12:07:19.1Z</time>
      </trkpt>
      <trkpt lat="48.62049" lon="-2.47601">
        <ele>77</ele>
        <time>2015-03-30T12:07:22.1Z</time>
      </trkpt>
      <trkpt lat="48.62047" lon="-2.47605">
        <ele>76</ele>
        <time>2015-03-30T12:07:24.1Z</time>
      </trkpt>
      <trkpt lat="48.62046" lon="-2.47606">
        <ele>76</ele>
        <time>2015-03-30T12:07:27.1Z</time>
      </trkpt>
      <trkpt lat="48.62043" lon="-2.4761">
        <ele>76</ele>
        <time>2015-03-30T12:07:29.1Z</time>
      </trkpt>
      <trkpt lat="48.62041" lon="-2.47612">
        <ele>76</ele>
        <time>2015-03-30T12:07:31.1Z</time>
      </trkpt>
      <trkpt lat="48.62038" lon="-2.47616">
        <ele>76</ele>
        <time>2015-03-30T12:07:34.1Z</time>
      </trkpt>
      <trkpt lat="48.62036" lon="-2.47618">
        <ele>76</ele>
        <time>2015-03-30T12:07:37.1Z</time>
      </trkpt>
      <trkpt lat="48.62034" lon="-2.47621">
        <ele>76</ele>
        <time>2015-03-30T12:07:39.1Z</time>
      </trkpt>
      <trkpt lat="48.62033" lon="-2.47624">
        <ele>76</ele>
        <time>2015-03-30T12:07:42.1Z</time>
      </trkpt>
      <trkpt lat="48.6203" lon="-2.47627">
        <ele>76</ele>
        <time>2015-03-30T12:07:44.1Z</time>
      </trkpt>
      <trkpt lat="48.62029" lon="-2.4763">
        <ele>76</ele>
        <time>2015-03-30T12:07:46.1Z</time>
      </trkpt>
      <trkpt lat="48.62027" lon="-2.47634">
        <ele>76</ele>
        <time>2015-03-30T12:07:50.1Z</time>
      </trkpt>
      <trkpt lat="48.62025" lon="-2.47638">
        <ele>75</ele>
        <time>2015-03-30T12:07:52.1Z</time>
      </trkpt>
      <trkpt lat="48.62022" lon="-2.47642">
        <ele>75</ele>
        <time>2015-03-30T12:07:55.1Z</time>
      </trkpt>
      <trkpt lat="48.6202" lon="-2.47645">
        <ele>75</ele>
        <time>2015-03-30T12:07:57.1Z</time>
      </trkpt>
      <trkpt lat="48.62017" lon="-2.47648">
        <ele>76</ele>
        <time>2015-03-30T12:08:00.1Z</time>
      </trkpt>
      <trkpt lat="48.62016" lon="-2.4765">
        <ele>76</ele>
        <time>2015-03-30T12:08:03.1Z</time>
      </trkpt>
      <trkpt lat="48.62012" lon="-2.47654">
        <ele>76</ele>
        <time>2015-03-30T12:08:05.1Z</time>
      </trkpt>
      <trkpt lat="48.6201" lon="-2.47656">
        <ele>76</ele>
        <time>2015-03-30T12:08:07.1Z</time>
      </trkpt>
      <trkpt lat="48.62007" lon="-2.4766">
        <ele>76</ele>
        <time>2015-03-30T12:08:10.1Z</time>
      </trkpt>
      <trkpt lat="48.62005" lon="-2.47662">
        <ele>76</ele>
        <time>2015-03-30T12:08:12.1Z</time>
      </trkpt>
      <trkpt lat="48.62002" lon="-2.47665">
        <ele>76</ele>
        <time>2015-03-30T12:08:15.1Z</time>
      </trkpt>
      <trkpt lat="48.61999" lon="-2.47668">
        <ele>76</ele>
        <time>2015-03-30T12:08:18.1Z</time>
      </trkpt>
      <trkpt lat="48.61997" lon="-2.47671">
        <ele>76</ele>
        <time>2015-03-30T12:08:20.1Z</time>
      </trkpt>
      <trkpt lat="48.61994" lon="-2.47674">
        <ele>76</ele>
        <time>2015-03-30T12:08:23.1Z</time>
      </trkpt>
      <trkpt lat="48.61993" lon="-2.47677">
        <ele>76</ele>
        <time>2015-03-30T12:08:25.1Z</time>
      </trkpt>
      <trkpt lat="48.6199" lon="-2.4768">
        <ele>76</ele>
        <time>2015-03-30T12:08:28.1Z</time>
      </trkpt>
      <trkpt lat="48.61988" lon="-2.47685">
        <ele>76</ele>
        <time>2015-03-30T12:08:31.1Z</time>
      </trkpt>
      <trkpt lat="48.61984" lon="-2.47688">
        <ele>76</ele>
        <time>2015-03-30T12:08:34.1Z</time>
      </trkpt>
      <trkpt lat="48.61983" lon="-2.4769">
        <ele>75</ele>
        <time>2015-03-30T12:08:36.1Z</time>
      </trkpt>
      <trkpt lat="48.61982" lon="-2.47693">
        <ele>75</ele>
        <time>2015-03-30T12:08:38.1Z</time>
      </trkpt>
      <trkpt lat="48.6198" lon="-2.47697">
        <ele>75</ele>
        <time>2015-03-30T12:08:41.1Z</time>
      </trkpt>
      <trkpt lat="48.61978" lon="-2.47699">
        <ele>76</ele>
        <time>2015-03-30T12:08:43.1Z</time>
      </trkpt>
      <trkpt lat="48.61975" lon="-2.47703">
        <ele>76</ele>
        <time>2015-03-30T12:08:46.1Z</time>
      </trkpt>
      <trkpt lat="48.61974" lon="-2.47705">
        <ele>76</ele>
        <time>2015-03-30T12:08:48.1Z</time>
      </trkpt>
      <trkpt lat="48.61971" lon="-2.47709">
        <ele>76</ele>
        <time>2015-03-30T12:08:51.1Z</time>
      </trkpt>
      <trkpt lat="48.6197" lon="-2.47711">
        <ele>76</ele>
        <time>2015-03-30T12:08:53.1Z</time>
      </trkpt>
      <trkpt lat="48.61967" lon="-2.47715">
        <ele>76</ele>
        <time>2015-03-30T12:08:56.1Z</time>
      </trkpt>
      <trkpt lat="48.61964" lon="-2.4772">
        <ele>76</ele>
        <time>2015-03-30T12:08:59.1Z</time>
      </trkpt>
      <trkpt lat="48.61962" lon="-2.47722">
        <ele>76</ele>
        <time>2015-03-30T12:09:01.1Z</time>
      </trkpt>
      <trkpt lat="48.61959" lon="-2.47726">
        <ele>76</ele>
        <time>2015-03-30T12:09:04.1Z</time>
      </trkpt>
      <trkpt lat="48.61956" lon="-2.47728">
        <ele>75</ele>
        <time>2015-03-30T12:09:06.1Z</time>
      </trkpt>
      <trkpt lat="48.61953" lon="-2.47731">
        <ele>76</ele>
        <time>2015-03-30T12:09:09.1Z</time>
      </trkpt>
      <trkpt lat="48.6195" lon="-2.47735">
        <ele>76</ele>
        <time>2015-03-30T12:09:12.1Z</time>
      </trkpt>
      <trkpt lat="48.61946" lon="-2.47738">
        <ele>76</ele>
        <time>2015-03-30T12:09:15.1Z</time>
      </trkpt>
      <trkpt lat="48.61943" lon="-2.47741">
        <ele>76</ele>
        <time>2015-03-30T12:09:18.1Z</time>
      </trkpt>
      <trkpt lat="48.61939" lon="-2.47744">
        <ele>76</ele>
        <time>2015-03-30T12:09:21.1Z</time>
      </trkpt>
      <trkpt lat="48.61936" lon="-2.47747">
        <ele>76</ele>
        <time>2015-03-30T12:09:24.1Z</time>
      </trkpt>
      <trkpt lat="48.61932" lon="-2.47751">
        <ele>76</ele>
        <time>2015-03-30T12:09:27.1Z</time>
      </trkpt>
      <trkpt lat="48.6193" lon="-2.47753">
        <ele>76</ele>
        <time>2015-03-30T12:09:29.1Z</time>
      </trkpt>
      <trkpt lat="48.61927" lon="-2.47756">
        <ele>76</ele>
        <time>2015-03-30T12:09:32.1Z</time>
      </trkpt>
      <trkpt lat="48.61924" lon="-2.47759">
        <ele>76</ele>
        <time>2015-03-30T12:09:34.1Z</time>
      </trkpt>
      <trkpt lat="48.61921" lon="-2.47762">
        <ele>76</ele>
        <time>2015-03-30T12:09:37.1Z</time>
      </trkpt>
      <trkpt lat="48.61919" lon="-2.47766">
        <ele>76</ele>
        <time>2015-03-30T12:09:40.1Z</time>
      </trkpt>
      <trkpt lat="48.61916" lon="-2.4777">
        <ele>76</ele>
        <time>2015-03-30T12:09:43.1Z</time>
      </trkpt>
      <trkpt lat="48.61915" lon="-2.47773">
        <ele>76</ele>
        <time>2015-03-30T12:09:45.1Z</time>
      </trkpt>
      <trkpt lat="48.61913" lon="-2.47777">
        <ele>76</ele>
        <time>2015-03-30T12:09:48.1Z</time>
      </trkpt>
      <trkpt lat="48.61912" lon="-2.4778">
        <ele>76</ele>
        <time>2015-03-30T12:09:51.1Z</time>
      </trkpt>
      <trkpt lat="48.6191" lon="-2.47784">
        <ele>76</ele>
        <time>2015-03-30T12:09:53.1Z</time>
      </trkpt>
      <trkpt lat="48.61909" lon="-2.47786">
        <ele>76</ele>
        <time>2015-03-30T12:09:55.1Z</time>
      </trkpt>
      <trkpt lat="48.61907" lon="-2.4779">
        <ele>76</ele>
        <time>2015-03-30T12:09:58.1Z</time>
      </trkpt>
      <trkpt lat="48.61906" lon="-2.47793">
        <ele>76</ele>
        <time>2015-03-30T12:10:01.1Z</time>
      </trkpt>
      <trkpt lat="48.61905" lon="-2.47795">
        <ele>76</ele>
        <time>2015-03-30T12:10:03.1Z</time>
      </trkpt>
      <trkpt lat="48.61903" lon="-2.47797">
        <ele>76</ele>
        <time>2015-03-30T12:10:06.1Z</time>
      </trkpt>
      <trkpt lat="48.61903" lon="-2.47797">
        <ele>75</ele>
        <time>2015-03-30T12:10:08.1Z</time>
      </trkpt>
      <trkpt lat="48.61903" lon="-2.47797">
        <ele>75</ele>
        <time>2015-03-30T12:10:10.1Z</time>
      </trkpt>
      <trkpt lat="48.61903" lon="-2.478">
        <ele>75</ele>
        <time>2015-03-30T12:10:13.1Z</time>
      </trkpt>
      <trkpt lat="48.61903" lon="-2.478">
        <ele>76</ele>
        <time>2015-03-30T12:10:15.1Z</time>
      </trkpt>
      <trkpt lat="48.61903" lon="-2.478">
        <ele>76</ele>
        <time>2015-03-30T12:10:18.1Z</time>
      </trkpt>
      <trkpt lat="48.61904" lon="-2.478">
        <ele>76</ele>
        <time>2015-03-30T12:10:21.1Z</time>
      </trkpt>
      <trkpt lat="48.61904" lon="-2.478">
        <ele>76</ele>
        <time>2015-03-30T12:10:23.1Z</time>
      </trkpt>
      <trkpt lat="48.61904" lon="-2.478">
        <ele>76</ele>
        <time>2015-03-30T12:10:25.1Z</time>
      </trkpt>
      <trkpt lat="48.61905" lon="-2.478">
        <ele>76</ele>
        <time>2015-03-30T12:10:28.1Z</time>
      </trkpt>
      <trkpt lat="48.61905" lon="-2.478">
        <ele>76</ele>
        <time>2015-03-30T12:10:30.1Z</time>
      </trkpt>
      <trkpt lat="48.61905" lon="-2.478">
        <ele>76</ele>
        <time>2015-03-30T12:10:33.1Z</time>
      </trkpt>
      <trkpt lat="48.61906" lon="-2.47801">
        <ele>76</ele>
        <time>2015-03-30T12:10:36.1Z</time>
      </trkpt>
      <trkpt lat="48.61906" lon="-2.47801">
        <ele>76</ele>
        <time>2015-03-30T12:10:38.1Z</time>
      </trkpt>
      <trkpt lat="48.61906" lon="-2.47801">
        <ele>76</ele>
        <time>2015-03-30T12:10:40.1Z</time>
      </trkpt>
      <trkpt lat="48.61907" lon="-2.47801">
        <ele>76</ele>
        <time>2015-03-30T12:10:43.1Z</time>
      </trkpt>
      <trkpt lat="48.61907" lon="-2.47802">
        <ele>76</ele>
        <time>2015-03-30T12:10:45.1Z</time>
      </trkpt>
      <trkpt lat="48.61908" lon="-2.47802">
        <ele>76</ele>
        <time>2015-03-30T12:10:48.1Z</time>
      </trkpt>
      <trkpt lat="48.61908" lon="-2.47803">
        <ele>76</ele>
        <time>2015-03-30T12:10:50.1Z</time>
      </trkpt>
      <trkpt lat="48.61908" lon="-2.47803">
        <ele>76</ele>
        <time>2015-03-30T12:10:53.1Z</time>
      </trkpt>
      <trkpt lat="48.61908" lon="-2.47803">
        <ele>76</ele>
        <time>2015-03-30T12:10:55.1Z</time>
      </trkpt>
      <trkpt lat="48.61908" lon="-2.47804">
        <ele>76</ele>
        <time>2015-03-30T12:10:58.1Z</time>
      </trkpt>
      <trkpt lat="48.61909" lon="-2.47804">
        <ele>76</ele>
        <time>2015-03-30T12:11:01.1Z</time>
      </trkpt>
      <trkpt lat="48.61909" lon="-2.47805">
        <ele>76</ele>
        <time>2015-03-30T12:11:06.1Z</time>
      </trkpt>
      <trkpt lat="48.61909" lon="-2.47804">
        <ele>76</ele>
        <time>2015-03-30T12:11:08.1Z</time>
      </trkpt>
      <trkpt lat="48.6191" lon="-2.47804">
        <ele>76</ele>
        <time>2015-03-30T12:11:10.1Z</time>
      </trkpt>
      <trkpt lat="48.61909" lon="-2.47805">
        <ele>76</ele>
        <time>2015-03-30T12:11:12.1Z</time>
      </trkpt>
      <trkpt lat="48.6191" lon="-2.47805">
        <ele>76</ele>
        <time>2015-03-30T12:11:15.1Z</time>
      </trkpt>
      <trkpt lat="48.6191" lon="-2.47805">
        <ele>76</ele>
        <time>2015-03-30T12:11:18.1Z</time>
      </trkpt>
      <trkpt lat="48.6191" lon="-2.47805">
        <ele>76</ele>
        <time>2015-03-30T12:11:20.1Z</time>
      </trkpt>
      <trkpt lat="48.6191" lon="-2.47805">
        <ele>76</ele>
        <time>2015-03-30T12:11:22.1Z</time>
      </trkpt>
      <trkpt lat="48.6191" lon="-2.47805">
        <ele>76</ele>
        <time>2015-03-30T12:11:25.1Z</time>
      </trkpt>
      <trkpt lat="48.6191" lon="-2.47804">
        <ele>76</ele>
        <time>2015-03-30T12:11:28.1Z</time>
      </trkpt>
      <trkpt lat="48.6191" lon="-2.47804">
        <ele>76</ele>
        <time>2015-03-30T12:11:31.1Z</time>
      </trkpt>
      <trkpt lat="48.6191" lon="-2.47804">
        <ele>76</ele>
        <time>2015-03-30T12:11:34.1Z</time>
      </trkpt>
      <trkpt lat="48.61911" lon="-2.47803">
        <ele>76</ele>
        <time>2015-03-30T12:11:37.1Z</time>
      </trkpt>
      <trkpt lat="48.6191" lon="-2.47803">
        <ele>76</ele>
        <time>2015-03-30T12:11:40.1Z</time>
      </trkpt>
      <trkpt lat="48.6191" lon="-2.47803">
        <ele>76</ele>
        <time>2015-03-30T12:11:42.1Z</time>
      </trkpt>
      <trkpt lat="48.6191" lon="-2.47803">
        <ele>76</ele>
        <time>2015-03-30T12:11:45.1Z</time>
      </trkpt>
      <trkpt lat="48.61909" lon="-2.47803">
        <ele>76</ele>
        <time>2015-03-30T12:11:50.1Z</time>
      </trkpt>
      <trkpt lat="48.61909" lon="-2.47804">
        <ele>76</ele>
        <time>2015-03-30T12:11:52.1Z</time>
      </trkpt>
      <trkpt lat="48.61908" lon="-2.47804">
        <ele>76</ele>
        <time>2015-03-30T12:11:56.1Z</time>
      </trkpt>
      <trkpt lat="48.61908" lon="-2.47804">
        <ele>76</ele>
        <time>2015-03-30T12:11:58.1Z</time>
      </trkpt>
      <trkpt lat="48.61908" lon="-2.47804">
        <ele>76</ele>
        <time>2015-03-30T12:12:02.1Z</time>
      </trkpt>
      <trkpt lat="48.61908" lon="-2.47804">
        <ele>76</ele>
        <time>2015-03-30T12:12:05.1Z</time>
      </trkpt>
      <trkpt lat="48.61908" lon="-2.47804">
        <ele>76</ele>
        <time>2015-03-30T12:12:07.1Z</time>
      </trkpt>
      <trkpt lat="48.61907" lon="-2.47804">
        <ele>76</ele>
        <time>2015-03-30T12:12:10.1Z</time>
      </trkpt>
      <trkpt lat="48.61907" lon="-2.47804">
        <ele>76</ele>
        <time>2015-03-30T12:12:12.1Z</time>
      </trkpt>
      <trkpt lat="48.61907" lon="-2.47804">
        <ele>76</ele>
        <time>2015-03-30T12:12:14.1Z</time>
      </trkpt>
      <trkpt lat="48.61907" lon="-2.47804">
        <ele>76</ele>
        <time>2015-03-30T12:12:17.1Z</time>
      </trkpt>
      <trkpt lat="48.61907" lon="-2.47805">
        <ele>76</ele>
        <time>2015-03-30T12:12:20.1Z</time>
      </trkpt>
      <trkpt lat="48.61906" lon="-2.47805">
        <ele>76</ele>
        <time>2015-03-30T12:12:22.1Z</time>
      </trkpt>
      <trkpt lat="48.61906" lon="-2.47806">
        <ele>76</ele>
        <time>2015-03-30T12:12:25.1Z</time>
      </trkpt>
      <trkpt lat="48.61906" lon="-2.47806">
        <ele>76</ele>
        <time>2015-03-30T12:12:28.1Z</time>
      </trkpt>
      <trkpt lat="48.61906" lon="-2.47806">
        <ele>76</ele>
        <time>2015-03-30T12:12:30.1Z</time>
      </trkpt>
      <trkpt lat="48.61906" lon="-2.47807">
        <ele>76</ele>
        <time>2015-03-30T12:12:35.1Z</time>
      </trkpt>
      <trkpt lat="48.61906" lon="-2.47807">
        <ele>76</ele>
        <time>2015-03-30T12:12:39.1Z</time>
      </trkpt>
      <trkpt lat="48.61906" lon="-2.47807">
        <ele>76</ele>
        <time>2015-03-30T12:12:43.1Z</time>
      </trkpt>
      <trkpt lat="48.61906" lon="-2.47807">
        <ele>76</ele>
        <time>2015-03-30T12:12:48.1Z</time>
      </trkpt>
      <trkpt lat="48.61906" lon="-2.47807">
        <ele>76</ele>
        <time>2015-03-30T12:12:51.1Z</time>
      </trkpt>
      <trkpt lat="48.61906" lon="-2.47807">
        <ele>76</ele>
        <time>2015-03-30T12:12:54.1Z</time>
      </trkpt>
      <trkpt lat="48.61906" lon="-2.47806">
        <ele>76</ele>
        <time>2015-03-30T12:12:57.1Z</time>
      </trkpt>
      <trkpt lat="48.61907" lon="-2.47807">
        <ele>76</ele>
        <time>2015-03-30T12:13:00.1Z</time>
      </trkpt>
      <trkpt lat="48.61907" lon="-2.47807">
        <ele>76</ele>
        <time>2015-03-30T12:13:03.1Z</time>
      </trkpt>
      <trkpt lat="48.61907" lon="-2.47807">
        <ele>76</ele>
        <time>2015-03-30T12:13:08.1Z</time>
      </trkpt>
      <trkpt lat="48.61907" lon="-2.47807">
        <ele>76</ele>
        <time>2015-03-30T12:13:10.1Z</time>
      </trkpt>
      <trkpt lat="48.61907" lon="-2.47807">
        <ele>76</ele>
        <time>2015-03-30T12:13:14.1Z</time>
      </trkpt>
      <trkpt lat="48.61907" lon="-2.47807">
        <ele>76</ele>
        <time>2015-03-30T12:13:22.1Z</time>
      </trkpt>
      <trkpt lat="48.61907" lon="-2.47807">
        <ele>76</ele>
        <time>2015-03-30T12:13:26.1Z</time>
      </trkpt>
      <trkpt lat="48.61908" lon="-2.47807">
        <ele>76</ele>
        <time>2015-03-30T12:13:29.1Z</time>
      </trkpt>
      <trkpt lat="48.61908" lon="-2.47807">
        <ele>76</ele>
        <time>2015-03-30T12:13:31.1Z</time>
      </trkpt>
      <trkpt lat="48.61908" lon="-2.47806">
        <ele>76</ele>
        <time>2015-03-30T12:13:34.1Z</time>
      </trkpt>
      <trkpt lat="48.61908" lon="-2.47806">
        <ele>76</ele>
        <time>2015-03-30T12:13:37.1Z</time>
      </trkpt>
      <trkpt lat="48.61908" lon="-2.47806">
        <ele>76</ele>
        <time>2015-03-30T12:13:40.1Z</time>
      </trkpt>
      <trkpt lat="48.61908" lon="-2.47806">
        <ele>76</ele>
        <time>2015-03-30T12:13:43.1Z</time>
      </trkpt>
      <trkpt lat="48.61908" lon="-2.47806">
        <ele>76</ele>
        <time>2015-03-30T12:13:45.1Z</time>
      </trkpt>
      <trkpt lat="48.61908" lon="-2.47806">
        <ele>76</ele>
        <time>2015-03-30T12:13:48.1Z</time>
      </trkpt>
      <trkpt lat="48.61908" lon="-2.47806">
        <ele>76</ele>
        <time>2015-03-30T12:13:50.1Z</time>
      </trkpt>
      <trkpt lat="48.61908" lon="-2.47806">
        <ele>76</ele>
        <time>2015-03-30T12:13:53.1Z</time>
      </trkpt>
      <trkpt lat="48.61908" lon="-2.47806">
        <ele>76</ele>
        <time>2015-03-30T12:13:56.1Z</time>
      </trkpt>
      <trkpt lat="48.61908" lon="-2.47806">
        <ele>76</ele>
        <time>2015-03-30T12:13:58.1Z</time>
      </trkpt>
      <trkpt lat="48.61908" lon="-2.47806">
        <ele>76</ele>
        <time>2015-03-30T12:14:00.1Z</time>
      </trkpt>
      <trkpt lat="48.61908" lon="-2.47805">
        <ele>76</ele>
        <time>2015-03-30T12:14:03.1Z</time>
      </trkpt>
      <trkpt lat="48.61908" lon="-2.47805">
        <ele>76</ele>
        <time>2015-03-30T12:14:07.1Z</time>
      </trkpt>
      <trkpt lat="48.61907" lon="-2.47805">
        <ele>76</ele>
        <time>2015-03-30T12:14:09.1Z</time>
      </trkpt>
      <trkpt lat="48.61907" lon="-2.47805">
        <ele>76</ele>
        <time>2015-03-30T12:14:11.1Z</time>
      </trkpt>
      <trkpt lat="48.61907" lon="-2.47805">
        <ele>76</ele>
        <time>2015-03-30T12:14:14.1Z</time>
      </trkpt>
      <trkpt lat="48.61907" lon="-2.47804">
        <ele>76</ele>
        <time>2015-03-30T12:14:17.1Z</time>
      </trkpt>
      <trkpt lat="48.61908" lon="-2.47802">
        <ele>76</ele>
        <time>2015-03-30T12:14:19.1Z</time>
      </trkpt>
      <trkpt lat="48.61908" lon="-2.478">
        <ele>76</ele>
        <time>2015-03-30T12:14:22.1Z</time>
      </trkpt>
      <trkpt lat="48.61909" lon="-2.478">
        <ele>76</ele>
        <time>2015-03-30T12:14:25.1Z</time>
      </trkpt>
      <trkpt lat="48.61909" lon="-2.478">
        <ele>76</ele>
        <time>2015-03-30T12:14:27.1Z</time>
      </trkpt>
      <trkpt lat="48.61909" lon="-2.47801">
        <ele>77</ele>
        <time>2015-03-30T12:14:30.1Z</time>
      </trkpt>
      <trkpt lat="48.61911" lon="-2.478">
        <ele>76</ele>
        <time>2015-03-30T12:14:33.1Z</time>
      </trkpt>
      <trkpt lat="48.61911" lon="-2.478">
        <ele>76</ele>
        <time>2015-03-30T12:14:36.1Z</time>
      </trkpt>
      <trkpt lat="48.61912" lon="-2.478">
        <ele>76</ele>
        <time>2015-03-30T12:14:38.1Z</time>
      </trkpt>
      <trkpt lat="48.61912" lon="-2.478">
        <ele>76</ele>
        <time>2015-03-30T12:14:40.1Z</time>
      </trkpt>
      <trkpt lat="48.61912" lon="-2.478">
        <ele>76</ele>
        <time>2015-03-30T12:14:43.1Z</time>
      </trkpt>
      <trkpt lat="48.61912" lon="-2.47799">
        <ele>76</ele>
        <time>2015-03-30T12:14:45.1Z</time>
      </trkpt>
      <trkpt lat="48.61911" lon="-2.47797">
        <ele>76</ele>
        <time>2015-03-30T12:14:48.1Z</time>
      </trkpt>
      <trkpt lat="48.61908" lon="-2.47799">
        <ele>77</ele>
        <time>2015-03-30T12:14:51.1Z</time>
      </trkpt>
      <trkpt lat="48.61906" lon="-2.47801">
        <ele>77</ele>
        <time>2015-03-30T12:14:53.1Z</time>
      </trkpt>
      <trkpt lat="48.61902" lon="-2.47804">
        <ele>77</ele>
        <time>2015-03-30T12:14:56.1Z</time>
      </trkpt>
      <trkpt lat="48.619" lon="-2.47807">
        <ele>77</ele>
        <time>2015-03-30T12:14:58.1Z</time>
      </trkpt>
      <trkpt lat="48.61898" lon="-2.4781">
        <ele>77</ele>
        <time>2015-03-30T12:15:01.1Z</time>
      </trkpt>
      <trkpt lat="48.61897" lon="-2.47811">
        <ele>77</ele>
        <time>2015-03-30T12:15:03.1Z</time>
      </trkpt>
      <trkpt lat="48.61895" lon="-2.47812">
        <ele>77</ele>
        <time>2015-03-30T12:15:05.1Z</time>
      </trkpt>
      <trkpt lat="48.61895" lon="-2.47815">
        <ele>77</ele>
        <time>2015-03-30T12:15:08.1Z</time>
      </trkpt>
      <trkpt lat="48.61897" lon="-2.47815">
        <ele>77</ele>
        <time>2015-03-30T12:15:11.1Z</time>
      </trkpt>
      <trkpt lat="48.61897" lon="-2.47815">
        <ele>78</ele>
        <time>2015-03-30T12:15:15.1Z</time>
      </trkpt>
      <trkpt lat="48.61897" lon="-2.47816">
        <ele>78</ele>
        <time>2015-03-30T12:15:17.1Z</time>
      </trkpt>
      <trkpt lat="48.61897" lon="-2.47816">
        <ele>78</ele>
        <time>2015-03-30T12:15:19.1Z</time>
      </trkpt>
      <trkpt lat="48.61898" lon="-2.47817">
        <ele>78</ele>
        <time>2015-03-30T12:15:22.1Z</time>
      </trkpt>
      <trkpt lat="48.61897" lon="-2.47816">
        <ele>78</ele>
        <time>2015-03-30T12:15:25.1Z</time>
      </trkpt>
      <trkpt lat="48.61897" lon="-2.47817">
        <ele>78</ele>
        <time>2015-03-30T12:15:27.1Z</time>
      </trkpt>
      <trkpt lat="48.61896" lon="-2.47815">
        <ele>78</ele>
        <time>2015-03-30T12:15:30.1Z</time>
      </trkpt>
      <trkpt lat="48.61896" lon="-2.47811">
        <ele>77</ele>
        <time>2015-03-30T12:15:33.1Z</time>
      </trkpt>
      <trkpt lat="48.61898" lon="-2.4781">
        <ele>77</ele>
        <time>2015-03-30T12:15:36.1Z</time>
      </trkpt>
      <trkpt lat="48.61898" lon="-2.4781">
        <ele>77</ele>
        <time>2015-03-30T12:15:38.1Z</time>
      </trkpt>
      <trkpt lat="48.619" lon="-2.4781">
        <ele>77</ele>
        <time>2015-03-30T12:15:41.1Z</time>
      </trkpt>
      <trkpt lat="48.619" lon="-2.4781">
        <ele>78</ele>
        <time>2015-03-30T12:15:44.1Z</time>
      </trkpt>
      <trkpt lat="48.61901" lon="-2.47811">
        <ele>78</ele>
        <time>2015-03-30T12:15:46.1Z</time>
      </trkpt>
      <trkpt lat="48.61901" lon="-2.47812">
        <ele>78</ele>
        <time>2015-03-30T12:15:48.1Z</time>
      </trkpt>
      <trkpt lat="48.61902" lon="-2.47813">
        <ele>77</ele>
        <time>2015-03-30T12:15:52.1Z</time>
      </trkpt>
      <trkpt lat="48.61904" lon="-2.47814">
        <ele>77</ele>
        <time>2015-03-30T12:15:55.1Z</time>
      </trkpt>
      <trkpt lat="48.61904" lon="-2.47814">
        <ele>77</ele>
        <time>2015-03-30T12:15:59.1Z</time>
      </trkpt>
      <trkpt lat="48.61903" lon="-2.47815">
        <ele>76</ele>
        <time>2015-03-30T12:16:02.1Z</time>
      </trkpt>
      <trkpt lat="48.61903" lon="-2.47813">
        <ele>76</ele>
        <time>2015-03-30T12:16:04.1Z</time>
      </trkpt>
      <trkpt lat="48.61902" lon="-2.47814">
        <ele>76</ele>
        <time>2015-03-30T12:16:06.1Z</time>
      </trkpt>
      <trkpt lat="48.619" lon="-2.47816">
        <ele>76</ele>
        <time>2015-03-30T12:16:09.1Z</time>
      </trkpt>
      <trkpt lat="48.619" lon="-2.47819">
        <ele>77</ele>
        <time>2015-03-30T12:16:12.1Z</time>
      </trkpt>
      <trkpt lat="48.61898" lon="-2.47823">
        <ele>77</ele>
        <time>2015-03-30T12:16:15.1Z</time>
      </trkpt>
      <trkpt lat="48.61895" lon="-2.47827">
        <ele>78</ele>
        <time>2015-03-30T12:16:18.1Z</time>
      </trkpt>
      <trkpt lat="48.61892" lon="-2.47831">
        <ele>78</ele>
        <time>2015-03-30T12:16:21.1Z</time>
      </trkpt>
      <trkpt lat="48.61889" lon="-2.47834">
        <ele>78</ele>
        <time>2015-03-30T12:16:23.1Z</time>
      </trkpt>
      <trkpt lat="48.61885" lon="-2.47838">
        <ele>77</ele>
        <time>2015-03-30T12:16:26.1Z</time>
      </trkpt>
      <trkpt lat="48.61883" lon="-2.47841">
        <ele>77</ele>
        <time>2015-03-30T12:16:28.1Z</time>
      </trkpt>
      <trkpt lat="48.6188" lon="-2.47845">
        <ele>78</ele>
        <time>2015-03-30T12:16:31.1Z</time>
      </trkpt>
      <trkpt lat="48.61877" lon="-2.47849">
        <ele>78</ele>
        <time>2015-03-30T12:16:34.1Z</time>
      </trkpt>
      <trkpt lat="48.61876" lon="-2.47851">
        <ele>78</ele>
        <time>2015-03-30T12:16:36.1Z</time>
      </trkpt>
      <trkpt lat="48.61874" lon="-2.47854">
        <ele>78</ele>
        <time>2015-03-30T12:16:38.1Z</time>
      </trkpt>
      <trkpt lat="48.61871" lon="-2.47857">
        <ele>78</ele>
        <time>2015-03-30T12:16:41.1Z</time>
      </trkpt>
      <trkpt lat="48.61869" lon="-2.4786">
        <ele>78</ele>
        <time>2015-03-30T12:16:43.1Z</time>
      </trkpt>
      <trkpt lat="48.61865" lon="-2.47864">
        <ele>78</ele>
        <time>2015-03-30T12:16:46.1Z</time>
      </trkpt>
      <trkpt lat="48.61864" lon="-2.47866">
        <ele>78</ele>
        <time>2015-03-30T12:16:48.1Z</time>
      </trkpt>
      <trkpt lat="48.61861" lon="-2.47868">
        <ele>79</ele>
        <time>2015-03-30T12:16:51.1Z</time>
      </trkpt>
      <trkpt lat="48.6186" lon="-2.47868">
        <ele>79</ele>
        <time>2015-03-30T12:16:54.1Z</time>
      </trkpt>
      <trkpt lat="48.6186" lon="-2.47868">
        <ele>79</ele>
        <time>2015-03-30T12:16:56.1Z</time>
      </trkpt>
      <trkpt lat="48.61858" lon="-2.47871">
        <ele>79</ele>
        <time>2015-03-30T12:16:59.1Z</time>
      </trkpt>
      <trkpt lat="48.61856" lon="-2.47874">
        <ele>78</ele>
        <time>2015-03-30T12:17:02.1Z</time>
      </trkpt>
      <trkpt lat="48.61855" lon="-2.47876">
        <ele>78</ele>
        <time>2015-03-30T12:17:04.1Z</time>
      </trkpt>
      <trkpt lat="48.61853" lon="-2.47878">
        <ele>78</ele>
        <time>2015-03-30T12:17:06.1Z</time>
      </trkpt>
      <trkpt lat="48.61851" lon="-2.4788">
        <ele>78</ele>
        <time>2015-03-30T12:17:09.1Z</time>
      </trkpt>
      <trkpt lat="48.61849" lon="-2.47883">
        <ele>78</ele>
        <time>2015-03-30T12:17:11.1Z</time>
      </trkpt>
      <trkpt lat="48.61848" lon="-2.47885">
        <ele>78</ele>
        <time>2015-03-30T12:17:13.1Z</time>
      </trkpt>
      <trkpt lat="48.61846" lon="-2.47889">
        <ele>78</ele>
        <time>2015-03-30T12:17:16.1Z</time>
      </trkpt>
      <trkpt lat="48.61843" lon="-2.47892">
        <ele>78</ele>
        <time>2015-03-30T12:17:19.1Z</time>
      </trkpt>
      <trkpt lat="48.61842" lon="-2.47895">
        <ele>78</ele>
        <time>2015-03-30T12:17:21.1Z</time>
      </trkpt>
      <trkpt lat="48.61839" lon="-2.47897">
        <ele>78</ele>
        <time>2015-03-30T12:17:24.1Z</time>
      </trkpt>
      <trkpt lat="48.61837" lon="-2.47899">
        <ele>78</ele>
        <time>2015-03-30T12:17:27.1Z</time>
      </trkpt>
      <trkpt lat="48.61833" lon="-2.47902">
        <ele>78</ele>
        <time>2015-03-30T12:17:30.1Z</time>
      </trkpt>
      <trkpt lat="48.61831" lon="-2.47904">
        <ele>78</ele>
        <time>2015-03-30T12:17:32.1Z</time>
      </trkpt>
      <trkpt lat="48.61827" lon="-2.47909">
        <ele>78</ele>
        <time>2015-03-30T12:17:35.1Z</time>
      </trkpt>
      <trkpt lat="48.61824" lon="-2.47912">
        <ele>78</ele>
        <time>2015-03-30T12:17:38.1Z</time>
      </trkpt>
      <trkpt lat="48.61823" lon="-2.47915">
        <ele>78</ele>
        <time>2015-03-30T12:17:40.1Z</time>
      </trkpt>
      <trkpt lat="48.6182" lon="-2.47917">
        <ele>78</ele>
        <time>2015-03-30T12:17:43.1Z</time>
      </trkpt>
      <trkpt lat="48.61818" lon="-2.47919">
        <ele>79</ele>
        <time>2015-03-30T12:17:45.1Z</time>
      </trkpt>
      <trkpt lat="48.61815" lon="-2.4792">
        <ele>79</ele>
        <time>2015-03-30T12:17:48.1Z</time>
      </trkpt>
      <trkpt lat="48.61813" lon="-2.47922">
        <ele>79</ele>
        <time>2015-03-30T12:17:51.1Z</time>
      </trkpt>
      <trkpt lat="48.61812" lon="-2.47922">
        <ele>80</ele>
        <time>2015-03-30T12:17:53.1Z</time>
      </trkpt>
      <trkpt lat="48.61811" lon="-2.47922">
        <ele>80</ele>
        <time>2015-03-30T12:17:55.1Z</time>
      </trkpt>
      <trkpt lat="48.61808" lon="-2.47921">
        <ele>80</ele>
        <time>2015-03-30T12:17:58.1Z</time>
      </trkpt>
      <trkpt lat="48.61807" lon="-2.47921">
        <ele>80</ele>
        <time>2015-03-30T12:18:01.1Z</time>
      </trkpt>
      <trkpt lat="48.61807" lon="-2.47923">
        <ele>79</ele>
        <time>2015-03-30T12:18:04.1Z</time>
      </trkpt>
      <trkpt lat="48.61806" lon="-2.47925">
        <ele>79</ele>
        <time>2015-03-30T12:18:06.1Z</time>
      </trkpt>
      <trkpt lat="48.61806" lon="-2.47929">
        <ele>79</ele>
        <time>2015-03-30T12:18:08.1Z</time>
      </trkpt>
      <trkpt lat="48.61804" lon="-2.47934">
        <ele>79</ele>
        <time>2015-03-30T12:18:11.1Z</time>
      </trkpt>
      <trkpt lat="48.61802" lon="-2.47939">
        <ele>79</ele>
        <time>2015-03-30T12:18:14.1Z</time>
      </trkpt>
      <trkpt lat="48.61801" lon="-2.47942">
        <ele>79</ele>
        <time>2015-03-30T12:18:16.1Z</time>
      </trkpt>
      <trkpt lat="48.61799" lon="-2.47947">
        <ele>79</ele>
        <time>2015-03-30T12:18:19.1Z</time>
      </trkpt>
      <trkpt lat="48.61799" lon="-2.47949">
        <ele>79</ele>
        <time>2015-03-30T12:18:21.1Z</time>
      </trkpt>
      <trkpt lat="48.61799" lon="-2.47951">
        <ele>79</ele>
        <time>2015-03-30T12:18:23.1Z</time>
      </trkpt>
      <trkpt lat="48.61799" lon="-2.47954">
        <ele>79</ele>
        <time>2015-03-30T12:18:26.1Z</time>
      </trkpt>
      <trkpt lat="48.618" lon="-2.47957">
        <ele>79</ele>
        <time>2015-03-30T12:18:29.1Z</time>
      </trkpt>
      <trkpt lat="48.61799" lon="-2.4796">
        <ele>79</ele>
        <time>2015-03-30T12:18:32.1Z</time>
      </trkpt>
      <trkpt lat="48.61796" lon="-2.47964">
        <ele>79</ele>
        <time>2015-03-30T12:18:35.1Z</time>
      </trkpt>
      <trkpt lat="48.61795" lon="-2.47966">
        <ele>79</ele>
        <time>2015-03-30T12:18:37.1Z</time>
      </trkpt>
      <trkpt lat="48.61793" lon="-2.4797">
        <ele>79</ele>
        <time>2015-03-30T12:18:40.1Z</time>
      </trkpt>
      <trkpt lat="48.6179" lon="-2.47973">
        <ele>79</ele>
        <time>2015-03-30T12:18:43.1Z</time>
      </trkpt>
      <trkpt lat="48.61789" lon="-2.47977">
        <ele>79</ele>
        <time>2015-03-30T12:18:46.1Z</time>
      </trkpt>
      <trkpt lat="48.61787" lon="-2.47981">
        <ele>79</ele>
        <time>2015-03-30T12:18:49.1Z</time>
      </trkpt>
      <trkpt lat="48.61786" lon="-2.47984">
        <ele>79</ele>
        <time>2015-03-30T12:18:52.1Z</time>
      </trkpt>
      <trkpt lat="48.61784" lon="-2.47987">
        <ele>79</ele>
        <time>2015-03-30T12:18:54.1Z</time>
      </trkpt>
      <trkpt lat="48.61783" lon="-2.47991">
        <ele>79</ele>
        <time>2015-03-30T12:18:57.1Z</time>
      </trkpt>
      <trkpt lat="48.61783" lon="-2.47995">
        <ele>79</ele>
        <time>2015-03-30T12:18:59.1Z</time>
      </trkpt>
      <trkpt lat="48.61782" lon="-2.48">
        <ele>79</ele>
        <time>2015-03-30T12:19:02.1Z</time>
      </trkpt>
      <trkpt lat="48.61779" lon="-2.48005">
        <ele>79</ele>
        <time>2015-03-30T12:19:05.1Z</time>
      </trkpt>
      <trkpt lat="48.61777" lon="-2.48008">
        <ele>79</ele>
        <time>2015-03-30T12:19:08.1Z</time>
      </trkpt>
      <trkpt lat="48.61774" lon="-2.48012">
        <ele>79</ele>
        <time>2015-03-30T12:19:11.1Z</time>
      </trkpt>
      <trkpt lat="48.61772" lon="-2.48014">
        <ele>79</ele>
        <time>2015-03-30T12:19:13.1Z</time>
      </trkpt>
      <trkpt lat="48.61771" lon="-2.48016">
        <ele>79</ele>
        <time>2015-03-30T12:19:15.1Z</time>
      </trkpt>
      <trkpt lat="48.61769" lon="-2.48018">
        <ele>79</ele>
        <time>2015-03-30T12:19:17.1Z</time>
      </trkpt>
      <trkpt lat="48.61766" lon="-2.48022">
        <ele>79</ele>
        <time>2015-03-30T12:19:20.1Z</time>
      </trkpt>
      <trkpt lat="48.61765" lon="-2.48027">
        <ele>79</ele>
        <time>2015-03-30T12:19:23.1Z</time>
      </trkpt>
      <trkpt lat="48.61763" lon="-2.4803">
        <ele>79</ele>
        <time>2015-03-30T12:19:25.1Z</time>
      </trkpt>
      <trkpt lat="48.61761" lon="-2.48032">
        <ele>79</ele>
        <time>2015-03-30T12:19:27.1Z</time>
      </trkpt>
      <trkpt lat="48.61758" lon="-2.48036">
        <ele>79</ele>
        <time>2015-03-30T12:19:30.1Z</time>
      </trkpt>
      <trkpt lat="48.61756" lon="-2.48038">
        <ele>79</ele>
        <time>2015-03-30T12:19:32.1Z</time>
      </trkpt>
      <trkpt lat="48.61755" lon="-2.4804">
        <ele>79</ele>
        <time>2015-03-30T12:19:34.1Z</time>
      </trkpt>
      <trkpt lat="48.61753" lon="-2.48043">
        <ele>79</ele>
        <time>2015-03-30T12:19:37.1Z</time>
      </trkpt>
      <trkpt lat="48.6175" lon="-2.48046">
        <ele>79</ele>
        <time>2015-03-30T12:19:40.1Z</time>
      </trkpt>
      <trkpt lat="48.61749" lon="-2.48048">
        <ele>79</ele>
        <time>2015-03-30T12:19:42.1Z</time>
      </trkpt>
      <trkpt lat="48.61746" lon="-2.48051">
        <ele>79</ele>
        <time>2015-03-30T12:19:45.1Z</time>
      </trkpt>
      <trkpt lat="48.61744" lon="-2.48053">
        <ele>79</ele>
        <time>2015-03-30T12:19:47.1Z</time>
      </trkpt>
      <trkpt lat="48.61742" lon="-2.48057">
        <ele>79</ele>
        <time>2015-03-30T12:19:50.1Z</time>
      </trkpt>
      <trkpt lat="48.61739" lon="-2.4806">
        <ele>79</ele>
        <time>2015-03-30T12:19:53.1Z</time>
      </trkpt>
      <trkpt lat="48.61737" lon="-2.48063">
        <ele>78</ele>
        <time>2015-03-30T12:19:56.1Z</time>
      </trkpt>
      <trkpt lat="48.61736" lon="-2.48065">
        <ele>78</ele>
        <time>2015-03-30T12:19:58.1Z</time>
      </trkpt>
      <trkpt lat="48.61734" lon="-2.48067">
        <ele>78</ele>
        <time>2015-03-30T12:20:01.1Z</time>
      </trkpt>
      <trkpt lat="48.61733" lon="-2.48069">
        <ele>78</ele>
        <time>2015-03-30T12:20:03.1Z</time>
      </trkpt>
      <trkpt lat="48.61731" lon="-2.48071">
        <ele>77</ele>
        <time>2015-03-30T12:20:06.1Z</time>
      </trkpt>
      <trkpt lat="48.61728" lon="-2.4807">
        <ele>77</ele>
        <time>2015-03-30T12:20:09.1Z</time>
      </trkpt>
      <trkpt lat="48.61725" lon="-2.48069">
        <ele>77</ele>
        <time>2015-03-30T12:20:12.1Z</time>
      </trkpt>
      <trkpt lat="48.61722" lon="-2.48066">
        <ele>77</ele>
        <time>2015-03-30T12:20:15.1Z</time>
      </trkpt>
      <trkpt lat="48.6172" lon="-2.48064">
        <ele>77</ele>
        <time>2015-03-30T12:20:18.1Z</time>
      </trkpt>
      <trkpt lat="48.61717" lon="-2.48063">
        <ele>77</ele>
        <time>2015-03-30T12:20:20.1Z</time>
      </trkpt>
      <trkpt lat="48.61713" lon="-2.48062">
        <ele>77</ele>
        <time>2015-03-30T12:20:23.1Z</time>
      </trkpt>
      <trkpt lat="48.61709" lon="-2.48062">
        <ele>77</ele>
        <time>2015-03-30T12:20:26.1Z</time>
      </trkpt>
      <trkpt lat="48.61705" lon="-2.48062">
        <ele>77</ele>
        <time>2015-03-30T12:20:29.1Z</time>
      </trkpt>
      <trkpt lat="48.61703" lon="-2.48063">
        <ele>77</ele>
        <time>2015-03-30T12:20:31.1Z</time>
      </trkpt>
      <trkpt lat="48.61701" lon="-2.48065">
        <ele>77</ele>
        <time>2015-03-30T12:20:33.1Z</time>
      </trkpt>
      <trkpt lat="48.61698" lon="-2.48068">
        <ele>78</ele>
        <time>2015-03-30T12:20:36.1Z</time>
      </trkpt>
      <trkpt lat="48.61694" lon="-2.48073">
        <ele>78</ele>
        <time>2015-03-30T12:20:39.1Z</time>
      </trkpt>
      <trkpt lat="48.61692" lon="-2.48077">
        <ele>78</ele>
        <time>2015-03-30T12:20:42.1Z</time>
      </trkpt>
      <trkpt lat="48.6169" lon="-2.48082">
        <ele>78</ele>
        <time>2015-03-30T12:20:45.1Z</time>
      </trkpt>
      <trkpt lat="48.61688" lon="-2.48084">
        <ele>78</ele>
        <time>2015-03-30T12:20:47.1Z</time>
      </trkpt>
      <trkpt lat="48.61686" lon="-2.4809">
        <ele>78</ele>
        <time>2015-03-30T12:20:50.1Z</time>
      </trkpt>
      <trkpt lat="48.61684" lon="-2.48094">
        <ele>78</ele>
        <time>2015-03-30T12:20:52.1Z</time>
      </trkpt>
      <trkpt lat="48.61681" lon="-2.48099">
        <ele>79</ele>
        <time>2015-03-30T12:20:55.1Z</time>
      </trkpt>
      <trkpt lat="48.61679" lon="-2.48102">
        <ele>79</ele>
        <time>2015-03-30T12:20:57.1Z</time>
      </trkpt>
      <trkpt lat="48.61677" lon="-2.48107">
        <ele>78</ele>
        <time>2015-03-30T12:21:00.1Z</time>
      </trkpt>
      <trkpt lat="48.61676" lon="-2.4811">
        <ele>79</ele>
        <time>2015-03-30T12:21:02.1Z</time>
      </trkpt>
      <trkpt lat="48.61674" lon="-2.48115">
        <ele>79</ele>
        <time>2015-03-30T12:21:05.1Z</time>
      </trkpt>
      <trkpt lat="48.61673" lon="-2.48119">
        <ele>79</ele>
        <time>2015-03-30T12:21:07.1Z</time>
      </trkpt>
      <trkpt lat="48.6167" lon="-2.48123">
        <ele>80</ele>
        <time>2015-03-30T12:21:10.1Z</time>
      </trkpt>
      <trkpt lat="48.61668" lon="-2.48126">
        <ele>80</ele>
        <time>2015-03-30T12:21:12.1Z</time>
      </trkpt>
      <trkpt lat="48.61667" lon="-2.48132">
        <ele>80</ele>
        <time>2015-03-30T12:21:15.1Z</time>
      </trkpt>
      <trkpt lat="48.61665" lon="-2.48137">
        <ele>79</ele>
        <time>2015-03-30T12:21:18.1Z</time>
      </trkpt>
      <trkpt lat="48.61663" lon="-2.48143">
        <ele>80</ele>
        <time>2015-03-30T12:21:21.1Z</time>
      </trkpt>
      <trkpt lat="48.61662" lon="-2.48146">
        <ele>80</ele>
        <time>2015-03-30T12:21:23.1Z</time>
      </trkpt>
      <trkpt lat="48.6166" lon="-2.48149">
        <ele>80</ele>
        <time>2015-03-30T12:21:26.1Z</time>
      </trkpt>
      <trkpt lat="48.61657" lon="-2.48154">
        <ele>80</ele>
        <time>2015-03-30T12:21:29.1Z</time>
      </trkpt>
      <trkpt lat="48.61654" lon="-2.48157">
        <ele>80</ele>
        <time>2015-03-30T12:21:32.1Z</time>
      </trkpt>
      <trkpt lat="48.61652" lon="-2.4816">
        <ele>80</ele>
        <time>2015-03-30T12:21:34.1Z</time>
      </trkpt>
      <trkpt lat="48.61649" lon="-2.48165">
        <ele>79</ele>
        <time>2015-03-30T12:21:37.1Z</time>
      </trkpt>
      <trkpt lat="48.61648" lon="-2.48169">
        <ele>80</ele>
        <time>2015-03-30T12:21:39.1Z</time>
      </trkpt>
      <trkpt lat="48.61646" lon="-2.48173">
        <ele>79</ele>
        <time>2015-03-30T12:21:42.1Z</time>
      </trkpt>
      <trkpt lat="48.61644" lon="-2.48177">
        <ele>80</ele>
        <time>2015-03-30T12:21:44.1Z</time>
      </trkpt>
      <trkpt lat="48.61642" lon="-2.48182">
        <ele>79</ele>
        <time>2015-03-30T12:21:47.1Z</time>
      </trkpt>
      <trkpt lat="48.6164" lon="-2.48186">
        <ele>79</ele>
        <time>2015-03-30T12:21:50.1Z</time>
      </trkpt>
      <trkpt lat="48.61638" lon="-2.4819">
        <ele>79</ele>
        <time>2015-03-30T12:21:53.1Z</time>
      </trkpt>
      <trkpt lat="48.61636" lon="-2.48194">
        <ele>79</ele>
        <time>2015-03-30T12:21:56.1Z</time>
      </trkpt>
      <trkpt lat="48.61634" lon="-2.48198">
        <ele>80</ele>
        <time>2015-03-30T12:21:59.1Z</time>
      </trkpt>
      <trkpt lat="48.61633" lon="-2.48203">
        <ele>79</ele>
        <time>2015-03-30T12:22:02.1Z</time>
      </trkpt>
      <trkpt lat="48.61634" lon="-2.48204">
        <ele>80</ele>
        <time>2015-03-30T12:22:05.1Z</time>
      </trkpt>
      <trkpt lat="48.61635" lon="-2.48204">
        <ele>80</ele>
        <time>2015-03-30T12:22:08.1Z</time>
      </trkpt>
      <trkpt lat="48.61636" lon="-2.48204">
        <ele>80</ele>
        <time>2015-03-30T12:22:11.1Z</time>
      </trkpt>
      <trkpt lat="48.61637" lon="-2.48204">
        <ele>80</ele>
        <time>2015-03-30T12:22:14.1Z</time>
      </trkpt>
      <trkpt lat="48.61637" lon="-2.48204">
        <ele>80</ele>
        <time>2015-03-30T12:22:16.1Z</time>
      </trkpt>
      <trkpt lat="48.61635" lon="-2.48207">
        <ele>80</ele>
        <time>2015-03-30T12:22:19.1Z</time>
      </trkpt>
      <trkpt lat="48.61633" lon="-2.48211">
        <ele>80</ele>
        <time>2015-03-30T12:22:22.1Z</time>
      </trkpt>
      <trkpt lat="48.61631" lon="-2.48215">
        <ele>80</ele>
        <time>2015-03-30T12:22:25.1Z</time>
      </trkpt>
      <trkpt lat="48.6163" lon="-2.48217">
        <ele>80</ele>
        <time>2015-03-30T12:22:27.1Z</time>
      </trkpt>
      <trkpt lat="48.61629" lon="-2.48219">
        <ele>80</ele>
        <time>2015-03-30T12:22:29.1Z</time>
      </trkpt>
      <trkpt lat="48.61627" lon="-2.48221">
        <ele>80</ele>
        <time>2015-03-30T12:22:31.1Z</time>
      </trkpt>
      <trkpt lat="48.61625" lon="-2.48225">
        <ele>80</ele>
        <time>2015-03-30T12:22:34.1Z</time>
      </trkpt>
      <trkpt lat="48.61622" lon="-2.48229">
        <ele>80</ele>
        <time>2015-03-30T12:22:37.1Z</time>
      </trkpt>
      <trkpt lat="48.61619" lon="-2.48233">
        <ele>79</ele>
        <time>2015-03-30T12:22:40.1Z</time>
      </trkpt>
      <trkpt lat="48.61618" lon="-2.48236">
        <ele>80</ele>
        <time>2015-03-30T12:22:42.1Z</time>
      </trkpt>
      <trkpt lat="48.61615" lon="-2.4824">
        <ele>80</ele>
        <time>2015-03-30T12:22:45.1Z</time>
      </trkpt>
      <trkpt lat="48.61612" lon="-2.48244">
        <ele>80</ele>
        <time>2015-03-30T12:22:47.1Z</time>
      </trkpt>
      <trkpt lat="48.6161" lon="-2.48248">
        <ele>80</ele>
        <time>2015-03-30T12:22:50.1Z</time>
      </trkpt>
      <trkpt lat="48.61607" lon="-2.48251">
        <ele>80</ele>
        <time>2015-03-30T12:22:53.1Z</time>
      </trkpt>
      <trkpt lat="48.61605" lon="-2.48254">
        <ele>80</ele>
        <time>2015-03-30T12:22:56.1Z</time>
      </trkpt>
      <trkpt lat="48.61603" lon="-2.48259">
        <ele>79</ele>
        <time>2015-03-30T12:22:59.1Z</time>
      </trkpt>
      <trkpt lat="48.61601" lon="-2.48261">
        <ele>79</ele>
        <time>2015-03-30T12:23:01.1Z</time>
      </trkpt>
      <trkpt lat="48.61599" lon="-2.48266">
        <ele>79</ele>
        <time>2015-03-30T12:23:04.1Z</time>
      </trkpt>
      <trkpt lat="48.61597" lon="-2.48271">
        <ele>79</ele>
        <time>2015-03-30T12:23:07.1Z</time>
      </trkpt>
      <trkpt lat="48.61595" lon="-2.48275">
        <ele>80</ele>
        <time>2015-03-30T12:23:10.1Z</time>
      </trkpt>
      <trkpt lat="48.61593" lon="-2.48278">
        <ele>79</ele>
        <time>2015-03-30T12:23:12.1Z</time>
      </trkpt>
      <trkpt lat="48.61591" lon="-2.48283">
        <ele>79</ele>
        <time>2015-03-30T12:23:15.1Z</time>
      </trkpt>
      <trkpt lat="48.61588" lon="-2.48287">
        <ele>79</ele>
        <time>2015-03-30T12:23:18.1Z</time>
      </trkpt>
      <trkpt lat="48.61586" lon="-2.4829">
        <ele>79</ele>
        <time>2015-03-30T12:23:20.1Z</time>
      </trkpt>
      <trkpt lat="48.61584" lon="-2.48292">
        <ele>79</ele>
        <time>2015-03-30T12:23:23.1Z</time>
      </trkpt>
      <trkpt lat="48.61581" lon="-2.48295">
        <ele>79</ele>
        <time>2015-03-30T12:23:26.1Z</time>
      </trkpt>
      <trkpt lat="48.61579" lon="-2.48298">
        <ele>79</ele>
        <time>2015-03-30T12:23:29.1Z</time>
      </trkpt>
      <trkpt lat="48.61577" lon="-2.48301">
        <ele>80</ele>
        <time>2015-03-30T12:23:32.1Z</time>
      </trkpt>
      <trkpt lat="48.61574" lon="-2.48302">
        <ele>80</ele>
        <time>2015-03-30T12:23:35.1Z</time>
      </trkpt>
      <trkpt lat="48.61573" lon="-2.48305">
        <ele>80</ele>
        <time>2015-03-30T12:23:38.1Z</time>
      </trkpt>
      <trkpt lat="48.61572" lon="-2.48307">
        <ele>80</ele>
        <time>2015-03-30T12:23:40.1Z</time>
      </trkpt>
      <trkpt lat="48.6157" lon="-2.48312">
        <ele>80</ele>
        <time>2015-03-30T12:23:43.1Z</time>
      </trkpt>
      <trkpt lat="48.6157" lon="-2.48315">
        <ele>80</ele>
        <time>2015-03-30T12:23:45.1Z</time>
      </trkpt>
      <trkpt lat="48.6157" lon="-2.48319">
        <ele>80</ele>
        <time>2015-03-30T12:23:48.1Z</time>
      </trkpt>
      <trkpt lat="48.6157" lon="-2.48323">
        <ele>81</ele>
        <time>2015-03-30T12:23:51.1Z</time>
      </trkpt>
      <trkpt lat="48.6157" lon="-2.48323">
        <ele>81</ele>
        <time>2015-03-30T12:23:53.1Z</time>
      </trkpt>
      <trkpt lat="48.6157" lon="-2.48324">
        <ele>82</ele>
        <time>2015-03-30T12:23:56.1Z</time>
      </trkpt>
      <trkpt lat="48.6157" lon="-2.48326">
        <ele>82</ele>
        <time>2015-03-30T12:23:58.1Z</time>
      </trkpt>
      <trkpt lat="48.6157" lon="-2.48327">
        <ele>82</ele>
        <time>2015-03-30T12:24:00.1Z</time>
      </trkpt>
      <trkpt lat="48.6157" lon="-2.48331">
        <ele>82</ele>
        <time>2015-03-30T12:24:03.1Z</time>
      </trkpt>
      <trkpt lat="48.6157" lon="-2.48335">
        <ele>82</ele>
        <time>2015-03-30T12:24:05.1Z</time>
      </trkpt>
      <trkpt lat="48.61568" lon="-2.48339">
        <ele>82</ele>
        <time>2015-03-30T12:24:08.1Z</time>
      </trkpt>
      <trkpt lat="48.61567" lon="-2.48343">
        <ele>82</ele>
        <time>2015-03-30T12:24:10.1Z</time>
      </trkpt>
      <trkpt lat="48.61566" lon="-2.48345">
        <ele>82</ele>
        <time>2015-03-30T12:24:12.1Z</time>
      </trkpt>
      <trkpt lat="48.61565" lon="-2.48349">
        <ele>82</ele>
        <time>2015-03-30T12:24:15.1Z</time>
      </trkpt>
      <trkpt lat="48.61562" lon="-2.48354">
        <ele>82</ele>
        <time>2015-03-30T12:24:18.1Z</time>
      </trkpt>
      <trkpt lat="48.61561" lon="-2.48357">
        <ele>82</ele>
        <time>2015-03-30T12:24:20.1Z</time>
      </trkpt>
      <trkpt lat="48.61559" lon="-2.48361">
        <ele>82</ele>
        <time>2015-03-30T12:24:23.1Z</time>
      </trkpt>
      <trkpt lat="48.61557" lon="-2.48367">
        <ele>82</ele>
        <time>2015-03-30T12:24:26.1Z</time>
      </trkpt>
      <trkpt lat="48.61556" lon="-2.48371">
        <ele>82</ele>
        <time>2015-03-30T12:24:28.1Z</time>
      </trkpt>
      <trkpt lat="48.61555" lon="-2.48375">
        <ele>82</ele>
        <time>2015-03-30T12:24:31.1Z</time>
      </trkpt>
      <trkpt lat="48.61554" lon="-2.48378">
        <ele>82</ele>
        <time>2015-03-30T12:24:33.1Z</time>
      </trkpt>
      <trkpt lat="48.61552" lon="-2.48384">
        <ele>82</ele>
        <time>2015-03-30T12:24:36.1Z</time>
      </trkpt>
      <trkpt lat="48.6155" lon="-2.48386">
        <ele>82</ele>
        <time>2015-03-30T12:24:38.1Z</time>
      </trkpt>
      <trkpt lat="48.61549" lon="-2.48391">
        <ele>82</ele>
        <time>2015-03-30T12:24:41.1Z</time>
      </trkpt>
      <trkpt lat="48.61547" lon="-2.48396">
        <ele>82</ele>
        <time>2015-03-30T12:24:44.1Z</time>
      </trkpt>
      <trkpt lat="48.61545" lon="-2.48398">
        <ele>82</ele>
        <time>2015-03-30T12:24:46.1Z</time>
      </trkpt>
      <trkpt lat="48.61544" lon="-2.48402">
        <ele>82</ele>
        <time>2015-03-30T12:24:48.1Z</time>
      </trkpt>
      <trkpt lat="48.61542" lon="-2.48408">
        <ele>82</ele>
        <time>2015-03-30T12:24:51.1Z</time>
      </trkpt>
      <trkpt lat="48.61542" lon="-2.48411">
        <ele>82</ele>
        <time>2015-03-30T12:24:53.1Z</time>
      </trkpt>
      <trkpt lat="48.6154" lon="-2.48413">
        <ele>83</ele>
        <time>2015-03-30T12:24:55.1Z</time>
      </trkpt>
      <trkpt lat="48.61538" lon="-2.48419">
        <ele>83</ele>
        <time>2015-03-30T12:24:58.1Z</time>
      </trkpt>
      <trkpt lat="48.61536" lon="-2.48424">
        <ele>82</ele>
        <time>2015-03-30T12:25:01.1Z</time>
      </trkpt>
      <trkpt lat="48.61535" lon="-2.48429">
        <ele>83</ele>
        <time>2015-03-30T12:25:04.1Z</time>
      </trkpt>
      <trkpt lat="48.61533" lon="-2.48433">
        <ele>83</ele>
        <time>2015-03-30T12:25:06.1Z</time>
      </trkpt>
      <trkpt lat="48.61533" lon="-2.48437">
        <ele>83</ele>
        <time>2015-03-30T12:25:09.1Z</time>
      </trkpt>
      <trkpt lat="48.61531" lon="-2.48441">
        <ele>84</ele>
        <time>2015-03-30T12:25:12.1Z</time>
      </trkpt>
      <trkpt lat="48.61528" lon="-2.48445">
        <ele>84</ele>
        <time>2015-03-30T12:25:15.1Z</time>
      </trkpt>
      <trkpt lat="48.61525" lon="-2.48449">
        <ele>84</ele>
        <time>2015-03-30T12:25:18.1Z</time>
      </trkpt>
      <trkpt lat="48.61524" lon="-2.48451">
        <ele>84</ele>
        <time>2015-03-30T12:25:20.1Z</time>
      </trkpt>
      <trkpt lat="48.61522" lon="-2.48454">
        <ele>85</ele>
        <time>2015-03-30T12:25:22.1Z</time>
      </trkpt>
      <trkpt lat="48.6152" lon="-2.48459">
        <ele>85</ele>
        <time>2015-03-30T12:25:25.1Z</time>
      </trkpt>
      <trkpt lat="48.61518" lon="-2.48462">
        <ele>85</ele>
        <time>2015-03-30T12:25:28.1Z</time>
      </trkpt>
      <trkpt lat="48.61517" lon="-2.48467">
        <ele>85</ele>
        <time>2015-03-30T12:25:31.1Z</time>
      </trkpt>
      <trkpt lat="48.61516" lon="-2.48471">
        <ele>85</ele>
        <time>2015-03-30T12:25:33.1Z</time>
      </trkpt>
      <trkpt lat="48.61514" lon="-2.48476">
        <ele>86</ele>
        <time>2015-03-30T12:25:36.1Z</time>
      </trkpt>
      <trkpt lat="48.61512" lon="-2.48481">
        <ele>86</ele>
        <time>2015-03-30T12:25:39.1Z</time>
      </trkpt>
      <trkpt lat="48.6151" lon="-2.48484">
        <ele>86</ele>
        <time>2015-03-30T12:25:41.1Z</time>
      </trkpt>
      <trkpt lat="48.61508" lon="-2.48489">
        <ele>87</ele>
        <time>2015-03-30T12:25:44.1Z</time>
      </trkpt>
      <trkpt lat="48.61507" lon="-2.48492">
        <ele>87</ele>
        <time>2015-03-30T12:25:46.1Z</time>
      </trkpt>
      <trkpt lat="48.61506" lon="-2.48496">
        <ele>87</ele>
        <time>2015-03-30T12:25:49.1Z</time>
      </trkpt>
      <trkpt lat="48.61505" lon="-2.48499">
        <ele>87</ele>
        <time>2015-03-30T12:25:51.1Z</time>
      </trkpt>
      <trkpt lat="48.61504" lon="-2.48501">
        <ele>87</ele>
        <time>2015-03-30T12:25:53.1Z</time>
      </trkpt>
      <trkpt lat="48.61502" lon="-2.48505">
        <ele>87</ele>
        <time>2015-03-30T12:25:56.1Z</time>
      </trkpt>
      <trkpt lat="48.615" lon="-2.48508">
        <ele>87</ele>
        <time>2015-03-30T12:25:58.1Z</time>
      </trkpt>
      <trkpt lat="48.61498" lon="-2.48511">
        <ele>87</ele>
        <time>2015-03-30T12:26:01.1Z</time>
      </trkpt>
      <trkpt lat="48.61496" lon="-2.48514">
        <ele>88</ele>
        <time>2015-03-30T12:26:04.1Z</time>
      </trkpt>
      <trkpt lat="48.61496" lon="-2.48517">
        <ele>88</ele>
        <time>2015-03-30T12:26:07.1Z</time>
      </trkpt>
      <trkpt lat="48.61496" lon="-2.48521">
        <ele>88</ele>
        <time>2015-03-30T12:26:09.1Z</time>
      </trkpt>
      <trkpt lat="48.61495" lon="-2.48525">
        <ele>89</ele>
        <time>2015-03-30T12:26:11.1Z</time>
      </trkpt>
      <trkpt lat="48.61495" lon="-2.4853">
        <ele>89</ele>
        <time>2015-03-30T12:26:14.1Z</time>
      </trkpt>
      <trkpt lat="48.61494" lon="-2.48534">
        <ele>89</ele>
        <time>2015-03-30T12:26:16.1Z</time>
      </trkpt>
      <trkpt lat="48.61494" lon="-2.48538">
        <ele>89</ele>
        <time>2015-03-30T12:26:19.1Z</time>
      </trkpt>
      <trkpt lat="48.61493" lon="-2.48542">
        <ele>89</ele>
        <time>2015-03-30T12:26:21.1Z</time>
      </trkpt>
      <trkpt lat="48.61492" lon="-2.48547">
        <ele>90</ele>
        <time>2015-03-30T12:26:24.1Z</time>
      </trkpt>
      <trkpt lat="48.61491" lon="-2.4855">
        <ele>90</ele>
        <time>2015-03-30T12:26:26.1Z</time>
      </trkpt>
      <trkpt lat="48.61491" lon="-2.48555">
        <ele>90</ele>
        <time>2015-03-30T12:26:29.1Z</time>
      </trkpt>
      <trkpt lat="48.61489" lon="-2.48559">
        <ele>90</ele>
        <time>2015-03-30T12:26:32.1Z</time>
      </trkpt>
      <trkpt lat="48.61487" lon="-2.48564">
        <ele>90</ele>
        <time>2015-03-30T12:26:35.1Z</time>
      </trkpt>
      <trkpt lat="48.61486" lon="-2.48567">
        <ele>90</ele>
        <time>2015-03-30T12:26:37.1Z</time>
      </trkpt>
      <trkpt lat="48.61486" lon="-2.4857">
        <ele>90</ele>
        <time>2015-03-30T12:26:39.1Z</time>
      </trkpt>
      <trkpt lat="48.61485" lon="-2.48572">
        <ele>90</ele>
        <time>2015-03-30T12:26:41.1Z</time>
      </trkpt>
      <trkpt lat="48.61484" lon="-2.48575">
        <ele>91</ele>
        <time>2015-03-30T12:26:43.1Z</time>
      </trkpt>
      <trkpt lat="48.61482" lon="-2.48581">
        <ele>91</ele>
        <time>2015-03-30T12:26:46.1Z</time>
      </trkpt>
      <trkpt lat="48.61481" lon="-2.48586">
        <ele>91</ele>
        <time>2015-03-30T12:26:49.1Z</time>
      </trkpt>
      <trkpt lat="48.6148" lon="-2.4859">
        <ele>92</ele>
        <time>2015-03-30T12:26:52.1Z</time>
      </trkpt>
      <trkpt lat="48.6148" lon="-2.48593">
        <ele>92</ele>
        <time>2015-03-30T12:26:54.1Z</time>
      </trkpt>
      <trkpt lat="48.61479" lon="-2.48597">
        <ele>92</ele>
        <time>2015-03-30T12:26:57.1Z</time>
      </trkpt>
      <trkpt lat="48.61478" lon="-2.48601">
        <ele>92</ele>
        <time>2015-03-30T12:27:00.1Z</time>
      </trkpt>
      <trkpt lat="48.61476" lon="-2.48605">
        <ele>93</ele>
        <time>2015-03-30T12:27:03.1Z</time>
      </trkpt>
      <trkpt lat="48.61475" lon="-2.4861">
        <ele>93</ele>
        <time>2015-03-30T12:27:06.1Z</time>
      </trkpt>
      <trkpt lat="48.61472" lon="-2.48614">
        <ele>94</ele>
        <time>2015-03-30T12:27:09.1Z</time>
      </trkpt>
      <trkpt lat="48.61471" lon="-2.4862">
        <ele>94</ele>
        <time>2015-03-30T12:27:12.1Z</time>
      </trkpt>
      <trkpt lat="48.61471" lon="-2.48623">
        <ele>95</ele>
        <time>2015-03-30T12:27:14.1Z</time>
      </trkpt>
      <trkpt lat="48.61471" lon="-2.48628">
        <ele>95</ele>
        <time>2015-03-30T12:27:17.1Z</time>
      </trkpt>
      <trkpt lat="48.61472" lon="-2.48631">
        <ele>95</ele>
        <time>2015-03-30T12:27:19.1Z</time>
      </trkpt>
      <trkpt lat="48.61472" lon="-2.48638">
        <ele>95</ele>
        <time>2015-03-30T12:27:22.1Z</time>
      </trkpt>
      <trkpt lat="48.61471" lon="-2.48641">
        <ele>95</ele>
        <time>2015-03-30T12:27:24.1Z</time>
      </trkpt>
      <trkpt lat="48.6147" lon="-2.48646">
        <ele>96</ele>
        <time>2015-03-30T12:27:26.1Z</time>
      </trkpt>
      <trkpt lat="48.6147" lon="-2.48652">
        <ele>95</ele>
        <time>2015-03-30T12:27:29.1Z</time>
      </trkpt>
      <trkpt lat="48.61471" lon="-2.48656">
        <ele>96</ele>
        <time>2015-03-30T12:27:31.1Z</time>
      </trkpt>
      <trkpt lat="48.61472" lon="-2.4866">
        <ele>96</ele>
        <time>2015-03-30T12:27:34.1Z</time>
      </trkpt>
      <trkpt lat="48.61472" lon="-2.48665">
        <ele>96</ele>
        <time>2015-03-30T12:27:36.1Z</time>
      </trkpt>
      <trkpt lat="48.61472" lon="-2.48668">
        <ele>95</ele>
        <time>2015-03-30T12:27:38.1Z</time>
      </trkpt>
      <trkpt lat="48.6147" lon="-2.48674">
        <ele>95</ele>
        <time>2015-03-30T12:27:41.1Z</time>
      </trkpt>
      <trkpt lat="48.6147" lon="-2.48676">
        <ele>95</ele>
        <time>2015-03-30T12:27:43.1Z</time>
      </trkpt>
      <trkpt lat="48.6147" lon="-2.48681">
        <ele>95</ele>
        <time>2015-03-30T12:27:46.1Z</time>
      </trkpt>
      <trkpt lat="48.61469" lon="-2.48686">
        <ele>95</ele>
        <time>2015-03-30T12:27:49.1Z</time>
      </trkpt>
      <trkpt lat="48.61469" lon="-2.4869">
        <ele>96</ele>
        <time>2015-03-30T12:27:51.1Z</time>
      </trkpt>
      <trkpt lat="48.61467" lon="-2.48696">
        <ele>96</ele>
        <time>2015-03-30T12:27:54.1Z</time>
      </trkpt>
      <trkpt lat="48.61467" lon="-2.48701">
        <ele>96</ele>
        <time>2015-03-30T12:27:57.1Z</time>
      </trkpt>
      <trkpt lat="48.61468" lon="-2.48704">
        <ele>96</ele>
        <time>2015-03-30T12:27:59.1Z</time>
      </trkpt>
      <trkpt lat="48.61467" lon="-2.48709">
        <ele>96</ele>
        <time>2015-03-30T12:28:02.1Z</time>
      </trkpt>
      <trkpt lat="48.61467" lon="-2.48711">
        <ele>96</ele>
        <time>2015-03-30T12:28:04.1Z</time>
      </trkpt>
      <trkpt lat="48.61467" lon="-2.48714">
        <ele>97</ele>
        <time>2015-03-30T12:28:06.1Z</time>
      </trkpt>
      <trkpt lat="48.61467" lon="-2.48719">
        <ele>97</ele>
        <time>2015-03-30T12:28:09.1Z</time>
      </trkpt>
      <trkpt lat="48.61466" lon="-2.48723">
        <ele>97</ele>
        <time>2015-03-30T12:28:12.1Z</time>
      </trkpt>
      <trkpt lat="48.61465" lon="-2.48727">
        <ele>97</ele>
        <time>2015-03-30T12:28:15.1Z</time>
      </trkpt>
      <trkpt lat="48.61464" lon="-2.48731">
        <ele>98</ele>
        <time>2015-03-30T12:28:17.1Z</time>
      </trkpt>
      <trkpt lat="48.61463" lon="-2.48733">
        <ele>98</ele>
        <time>2015-03-30T12:28:20.1Z</time>
      </trkpt>
      <trkpt lat="48.61462" lon="-2.48734">
        <ele>99</ele>
        <time>2015-03-30T12:28:22.1Z</time>
      </trkpt>
      <trkpt lat="48.61462" lon="-2.48733">
        <ele>100</ele>
        <time>2015-03-30T12:28:26.1Z</time>
      </trkpt>
      <trkpt lat="48.61462" lon="-2.48734">
        <ele>101</ele>
        <time>2015-03-30T12:28:29.1Z</time>
      </trkpt>
      <trkpt lat="48.61462" lon="-2.48734">
        <ele>101</ele>
        <time>2015-03-30T12:28:32.1Z</time>
      </trkpt>
      <trkpt lat="48.61462" lon="-2.48734">
        <ele>101</ele>
        <time>2015-03-30T12:28:35.1Z</time>
      </trkpt>
      <trkpt lat="48.61462" lon="-2.48734">
        <ele>101</ele>
        <time>2015-03-30T12:28:38.1Z</time>
      </trkpt>
      <trkpt lat="48.61462" lon="-2.48734">
        <ele>101</ele>
        <time>2015-03-30T12:28:42.1Z</time>
      </trkpt>
      <trkpt lat="48.61463" lon="-2.48734">
        <ele>101</ele>
        <time>2015-03-30T12:28:45.1Z</time>
      </trkpt>
      <trkpt lat="48.61463" lon="-2.48734">
        <ele>102</ele>
        <time>2015-03-30T12:28:48.1Z</time>
      </trkpt>
      <trkpt lat="48.61464" lon="-2.48734">
        <ele>101</ele>
        <time>2015-03-30T12:28:51.1Z</time>
      </trkpt>
      <trkpt lat="48.61464" lon="-2.48734">
        <ele>102</ele>
        <time>2015-03-30T12:28:53.1Z</time>
      </trkpt>
      <trkpt lat="48.61465" lon="-2.48734">
        <ele>101</ele>
        <time>2015-03-30T12:28:56.1Z</time>
      </trkpt>
      <trkpt lat="48.61465" lon="-2.48734">
        <ele>101</ele>
        <time>2015-03-30T12:28:58.1Z</time>
      </trkpt>
      <trkpt lat="48.61465" lon="-2.48734">
        <ele>100</ele>
        <time>2015-03-30T12:29:01.1Z</time>
      </trkpt>
      <trkpt lat="48.61467" lon="-2.48737">
        <ele>99</ele>
        <time>2015-03-30T12:29:04.1Z</time>
      </trkpt>
      <trkpt lat="48.61467" lon="-2.48741">
        <ele>99</ele>
        <time>2015-03-30T12:29:07.1Z</time>
      </trkpt>
      <trkpt lat="48.61465" lon="-2.48744">
        <ele>99</ele>
        <time>2015-03-30T12:29:10.1Z</time>
      </trkpt>
      <trkpt lat="48.61464" lon="-2.48747">
        <ele>99</ele>
        <time>2015-03-30T12:29:12.1Z</time>
      </trkpt>
      <trkpt lat="48.61464" lon="-2.48751">
        <ele>99</ele>
        <time>2015-03-30T12:29:15.1Z</time>
      </trkpt>
      <trkpt lat="48.61464" lon="-2.48752">
        <ele>99</ele>
        <time>2015-03-30T12:29:17.1Z</time>
      </trkpt>
      <trkpt lat="48.61463" lon="-2.48756">
        <ele>99</ele>
        <time>2015-03-30T12:29:20.1Z</time>
      </trkpt>
      <trkpt lat="48.61463" lon="-2.48758">
        <ele>99</ele>
        <time>2015-03-30T12:29:23.1Z</time>
      </trkpt>
      <trkpt lat="48.61463" lon="-2.4876">
        <ele>99</ele>
        <time>2015-03-30T12:29:25.1Z</time>
      </trkpt>
      <trkpt lat="48.61463" lon="-2.48762">
        <ele>99</ele>
        <time>2015-03-30T12:29:27.1Z</time>
      </trkpt>
      <trkpt lat="48.61463" lon="-2.48766">
        <ele>99</ele>
        <time>2015-03-30T12:29:30.1Z</time>
      </trkpt>
      <trkpt lat="48.61462" lon="-2.4877">
        <ele>98</ele>
        <time>2015-03-30T12:29:33.1Z</time>
      </trkpt>
      <trkpt lat="48.61462" lon="-2.48773">
        <ele>98</ele>
        <time>2015-03-30T12:29:35.1Z</time>
      </trkpt>
      <trkpt lat="48.61462" lon="-2.48778">
        <ele>98</ele>
        <time>2015-03-30T12:29:38.1Z</time>
      </trkpt>
      <trkpt lat="48.61461" lon="-2.48782">
        <ele>98</ele>
        <time>2015-03-30T12:29:41.1Z</time>
      </trkpt>
      <trkpt lat="48.61461" lon="-2.48786">
        <ele>98</ele>
        <time>2015-03-30T12:29:43.1Z</time>
      </trkpt>
      <trkpt lat="48.61461" lon="-2.48791">
        <ele>98</ele>
        <time>2015-03-30T12:29:46.1Z</time>
      </trkpt>
      <trkpt lat="48.6146" lon="-2.48795">
        <ele>97</ele>
        <time>2015-03-30T12:29:48.1Z</time>
      </trkpt>
      <trkpt lat="48.61458" lon="-2.48801">
        <ele>97</ele>
        <time>2015-03-30T12:29:51.1Z</time>
      </trkpt>
      <trkpt lat="48.61457" lon="-2.48804">
        <ele>97</ele>
        <time>2015-03-30T12:29:53.1Z</time>
      </trkpt>
      <trkpt lat="48.61457" lon="-2.48807">
        <ele>97</ele>
        <time>2015-03-30T12:29:55.1Z</time>
      </trkpt>
      <trkpt lat="48.61456" lon="-2.48812">
        <ele>97</ele>
        <time>2015-03-30T12:29:58.1Z</time>
      </trkpt>
      <trkpt lat="48.61455" lon="-2.48817">
        <ele>97</ele>
        <time>2015-03-30T12:30:01.1Z</time>
      </trkpt>
      <trkpt lat="48.61454" lon="-2.48821">
        <ele>97</ele>
        <time>2015-03-30T12:30:03.1Z</time>
      </trkpt>
      <trkpt lat="48.61453" lon="-2.48824">
        <ele>97</ele>
        <time>2015-03-30T12:30:05.1Z</time>
      </trkpt>
      <trkpt lat="48.61452" lon="-2.4883">
        <ele>97</ele>
        <time>2015-03-30T12:30:08.1Z</time>
      </trkpt>
      <trkpt lat="48.61451" lon="-2.48832">
        <ele>97</ele>
        <time>2015-03-30T12:30:11.1Z</time>
      </trkpt>
      <trkpt lat="48.61452" lon="-2.48831">
        <ele>97</ele>
        <time>2015-03-30T12:30:14.1Z</time>
      </trkpt>
      <trkpt lat="48.61453" lon="-2.48831">
        <ele>98</ele>
        <time>2015-03-30T12:30:16.1Z</time>
      </trkpt>
      <trkpt lat="48.61454" lon="-2.48831">
        <ele>98</ele>
        <time>2015-03-30T12:30:19.1Z</time>
      </trkpt>
      <trkpt lat="48.61454" lon="-2.48831">
        <ele>98</ele>
        <time>2015-03-30T12:30:21.1Z</time>
      </trkpt>
      <trkpt lat="48.61454" lon="-2.48832">
        <ele>98</ele>
        <time>2015-03-30T12:30:23.1Z</time>
      </trkpt>
      <trkpt lat="48.61455" lon="-2.48833">
        <ele>98</ele>
        <time>2015-03-30T12:30:26.1Z</time>
      </trkpt>
      <trkpt lat="48.61456" lon="-2.48835">
        <ele>97</ele>
        <time>2015-03-30T12:30:29.1Z</time>
      </trkpt>
      <trkpt lat="48.61455" lon="-2.48838">
        <ele>96</ele>
        <time>2015-03-30T12:30:31.1Z</time>
      </trkpt>
      <trkpt lat="48.61455" lon="-2.48843">
        <ele>96</ele>
        <time>2015-03-30T12:30:34.1Z</time>
      </trkpt>
      <trkpt lat="48.61454" lon="-2.48846">
        <ele>96</ele>
        <time>2015-03-30T12:30:36.1Z</time>
      </trkpt>
      <trkpt lat="48.61452" lon="-2.48851">
        <ele>97</ele>
        <time>2015-03-30T12:30:39.1Z</time>
      </trkpt>
      <trkpt lat="48.61452" lon="-2.48854">
        <ele>97</ele>
        <time>2015-03-30T12:30:41.1Z</time>
      </trkpt>
      <trkpt lat="48.61451" lon="-2.48859">
        <ele>97</ele>
        <time>2015-03-30T12:30:44.1Z</time>
      </trkpt>
      <trkpt lat="48.6145" lon="-2.48863">
        <ele>97</ele>
        <time>2015-03-30T12:30:46.1Z</time>
      </trkpt>
      <trkpt lat="48.61449" lon="-2.48868">
        <ele>96</ele>
        <time>2015-03-30T12:30:49.1Z</time>
      </trkpt>
      <trkpt lat="48.61447" lon="-2.48872">
        <ele>96</ele>
        <time>2015-03-30T12:30:51.1Z</time>
      </trkpt>
      <trkpt lat="48.61446" lon="-2.48875">
        <ele>97</ele>
        <time>2015-03-30T12:30:53.1Z</time>
      </trkpt>
      <trkpt lat="48.61444" lon="-2.48881">
        <ele>96</ele>
        <time>2015-03-30T12:30:56.1Z</time>
      </trkpt>
      <trkpt lat="48.61443" lon="-2.48884">
        <ele>97</ele>
        <time>2015-03-30T12:30:58.1Z</time>
      </trkpt>
      <trkpt lat="48.61442" lon="-2.48889">
        <ele>97</ele>
        <time>2015-03-30T12:31:01.1Z</time>
      </trkpt>
      <trkpt lat="48.61442" lon="-2.48893">
        <ele>97</ele>
        <time>2015-03-30T12:31:03.1Z</time>
      </trkpt>
      <trkpt lat="48.61441" lon="-2.48896">
        <ele>97</ele>
        <time>2015-03-30T12:31:05.1Z</time>
      </trkpt>
      <trkpt lat="48.61441" lon="-2.48899">
        <ele>97</ele>
        <time>2015-03-30T12:31:07.1Z</time>
      </trkpt>
      <trkpt lat="48.61441" lon="-2.48903">
        <ele>97</ele>
        <time>2015-03-30T12:31:10.1Z</time>
      </trkpt>
      <trkpt lat="48.6144" lon="-2.48907">
        <ele>97</ele>
        <time>2015-03-30T12:31:13.1Z</time>
      </trkpt>
      <trkpt lat="48.61439" lon="-2.48913">
        <ele>97</ele>
        <time>2015-03-30T12:31:16.1Z</time>
      </trkpt>
      <trkpt lat="48.61438" lon="-2.48918">
        <ele>97</ele>
        <time>2015-03-30T12:31:19.1Z</time>
      </trkpt>
      <trkpt lat="48.61436" lon="-2.48923">
        <ele>98</ele>
        <time>2015-03-30T12:31:22.1Z</time>
      </trkpt>
      <trkpt lat="48.61435" lon="-2.48926">
        <ele>98</ele>
        <time>2015-03-30T12:31:24.1Z</time>
      </trkpt>
      <trkpt lat="48.61435" lon="-2.4893">
        <ele>98</ele>
        <time>2015-03-30T12:31:27.1Z</time>
      </trkpt>
      <trkpt lat="48.61435" lon="-2.48933">
        <ele>98</ele>
        <time>2015-03-30T12:31:30.1Z</time>
      </trkpt>
      <trkpt lat="48.61435" lon="-2.48935">
        <ele>99</ele>
        <time>2015-03-30T12:31:32.1Z</time>
      </trkpt>
      <trkpt lat="48.61435" lon="-2.48938">
        <ele>99</ele>
        <time>2015-03-30T12:31:35.1Z</time>
      </trkpt>
      <trkpt lat="48.61435" lon="-2.4894">
        <ele>99</ele>
        <time>2015-03-30T12:31:37.1Z</time>
      </trkpt>
      <trkpt lat="48.61434" lon="-2.48941">
        <ele>99</ele>
        <time>2015-03-30T12:31:39.1Z</time>
      </trkpt>
      <trkpt lat="48.61433" lon="-2.48942">
        <ele>99</ele>
        <time>2015-03-30T12:31:42.1Z</time>
      </trkpt>
      <trkpt lat="48.61433" lon="-2.48943">
        <ele>100</ele>
        <time>2015-03-30T12:31:45.1Z</time>
      </trkpt>
      <trkpt lat="48.61433" lon="-2.4895">
        <ele>99</ele>
        <time>2015-03-30T12:31:48.1Z</time>
      </trkpt>
      <trkpt lat="48.6143" lon="-2.48955">
        <ele>98</ele>
        <time>2015-03-30T12:31:51.1Z</time>
      </trkpt>
      <trkpt lat="48.61428" lon="-2.48958">
        <ele>98</ele>
        <time>2015-03-30T12:31:54.1Z</time>
      </trkpt>
      <trkpt lat="48.61428" lon="-2.48961">
        <ele>98</ele>
        <time>2015-03-30T12:31:56.1Z</time>
      </trkpt>
      <trkpt lat="48.61427" lon="-2.48963">
        <ele>98</ele>
        <time>2015-03-30T12:31:59.1Z</time>
      </trkpt>
      <trkpt lat="48.61424" lon="-2.48968">
        <ele>98</ele>
        <time>2015-03-30T12:32:02.1Z</time>
      </trkpt>
      <trkpt lat="48.61421" lon="-2.48973">
        <ele>97</ele>
        <time>2015-03-30T12:32:05.1Z</time>
      </trkpt>
      <trkpt lat="48.61419" lon="-2.48977">
        <ele>97</ele>
        <time>2015-03-30T12:32:07.1Z</time>
      </trkpt>
      <trkpt lat="48.61416" lon="-2.48981">
        <ele>97</ele>
        <time>2015-03-30T12:32:10.1Z</time>
      </trkpt>
      <trkpt lat="48.61415" lon="-2.48983">
        <ele>97</ele>
        <time>2015-03-30T12:32:12.1Z</time>
      </trkpt>
      <trkpt lat="48.61414" lon="-2.48985">
        <ele>97</ele>
        <time>2015-03-30T12:32:15.1Z</time>
      </trkpt>
      <trkpt lat="48.61413" lon="-2.48985">
        <ele>97</ele>
        <time>2015-03-30T12:32:17.1Z</time>
      </trkpt>
      <trkpt lat="48.61412" lon="-2.48987">
        <ele>97</ele>
        <time>2015-03-30T12:32:20.1Z</time>
      </trkpt>
      <trkpt lat="48.61412" lon="-2.48989">
        <ele>97</ele>
        <time>2015-03-30T12:32:22.1Z</time>
      </trkpt>
      <trkpt lat="48.61411" lon="-2.48991">
        <ele>97</ele>
        <time>2015-03-30T12:32:24.1Z</time>
      </trkpt>
      <trkpt lat="48.61411" lon="-2.48992">
        <ele>96</ele>
        <time>2015-03-30T12:32:26.1Z</time>
      </trkpt>
      <trkpt lat="48.6141" lon="-2.48995">
        <ele>96</ele>
        <time>2015-03-30T12:32:29.1Z</time>
      </trkpt>
      <trkpt lat="48.6141" lon="-2.48997">
        <ele>95</ele>
        <time>2015-03-30T12:32:31.1Z</time>
      </trkpt>
      <trkpt lat="48.61409" lon="-2.49">
        <ele>95</ele>
        <time>2015-03-30T12:32:34.1Z</time>
      </trkpt>
      <trkpt lat="48.61408" lon="-2.49002">
        <ele>94</ele>
        <time>2015-03-30T12:32:37.1Z</time>
      </trkpt>
      <trkpt lat="48.61407" lon="-2.49003">
        <ele>94</ele>
        <time>2015-03-30T12:32:40.1Z</time>
      </trkpt>
      <trkpt lat="48.61407" lon="-2.49003">
        <ele>94</ele>
        <time>2015-03-30T12:32:42.1Z</time>
      </trkpt>
      <trkpt lat="48.61406" lon="-2.49007">
        <ele>94</ele>
        <time>2015-03-30T12:32:45.1Z</time>
      </trkpt>
      <trkpt lat="48.61404" lon="-2.4901">
        <ele>93</ele>
        <time>2015-03-30T12:32:48.1Z</time>
      </trkpt>
      <trkpt lat="48.61403" lon="-2.49012">
        <ele>93</ele>
        <time>2015-03-30T12:32:50.1Z</time>
      </trkpt>
      <trkpt lat="48.61401" lon="-2.49014">
        <ele>92</ele>
        <time>2015-03-30T12:32:53.1Z</time>
      </trkpt>
      <trkpt lat="48.61398" lon="-2.49016">
        <ele>92</ele>
        <time>2015-03-30T12:32:56.1Z</time>
      </trkpt>
      <trkpt lat="48.61397" lon="-2.49017">
        <ele>91</ele>
        <time>2015-03-30T12:32:58.1Z</time>
      </trkpt>
      <trkpt lat="48.61395" lon="-2.4902">
        <ele>91</ele>
        <time>2015-03-30T12:33:01.1Z</time>
      </trkpt>
      <trkpt lat="48.61392" lon="-2.49023">
        <ele>91</ele>
        <time>2015-03-30T12:33:04.1Z</time>
      </trkpt>
      <trkpt lat="48.6139" lon="-2.49025">
        <ele>91</ele>
        <time>2015-03-30T12:33:06.1Z</time>
      </trkpt>
      <trkpt lat="48.61388" lon="-2.49028">
        <ele>90</ele>
        <time>2015-03-30T12:33:09.1Z</time>
      </trkpt>
      <trkpt lat="48.61386" lon="-2.4903">
        <ele>90</ele>
        <time>2015-03-30T12:33:11.1Z</time>
      </trkpt>
      <trkpt lat="48.61383" lon="-2.49032">
        <ele>90</ele>
        <time>2015-03-30T12:33:13.1Z</time>
      </trkpt>
      <trkpt lat="48.6138" lon="-2.49032">
        <ele>91</ele>
        <time>2015-03-30T12:33:16.1Z</time>
      </trkpt>
      <trkpt lat="48.61377" lon="-2.49033">
        <ele>91</ele>
        <time>2015-03-30T12:33:18.1Z</time>
      </trkpt>
      <trkpt lat="48.61372" lon="-2.49035">
        <ele>91</ele>
        <time>2015-03-30T12:33:21.1Z</time>
      </trkpt>
      <trkpt lat="48.61369" lon="-2.49036">
        <ele>91</ele>
        <time>2015-03-30T12:33:24.1Z</time>
      </trkpt>
      <trkpt lat="48.61368" lon="-2.49037">
        <ele>90</ele>
        <time>2015-03-30T12:33:26.1Z</time>
      </trkpt>
      <trkpt lat="48.61367" lon="-2.4904">
        <ele>91</ele>
        <time>2015-03-30T12:33:29.1Z</time>
      </trkpt>
      <trkpt lat="48.61366" lon="-2.4904">
        <ele>91</ele>
        <time>2015-03-30T12:33:32.1Z</time>
      </trkpt>
      <trkpt lat="48.61364" lon="-2.49041">
        <ele>91</ele>
        <time>2015-03-30T12:33:34.1Z</time>
      </trkpt>
      <trkpt lat="48.61364" lon="-2.49042">
        <ele>91</ele>
        <time>2015-03-30T12:33:36.1Z</time>
      </trkpt>
      <trkpt lat="48.61361" lon="-2.49043">
        <ele>91</ele>
        <time>2015-03-30T12:33:39.1Z</time>
      </trkpt>
      <trkpt lat="48.61359" lon="-2.49043">
        <ele>91</ele>
        <time>2015-03-30T12:33:42.1Z</time>
      </trkpt>
      <trkpt lat="48.61357" lon="-2.49044">
        <ele>90</ele>
        <time>2015-03-30T12:33:44.1Z</time>
      </trkpt>
      <trkpt lat="48.61356" lon="-2.49045">
        <ele>91</ele>
        <time>2015-03-30T12:33:46.1Z</time>
      </trkpt>
      <trkpt lat="48.61354" lon="-2.49047">
        <ele>91</ele>
        <time>2015-03-30T12:33:49.1Z</time>
      </trkpt>
      <trkpt lat="48.61351" lon="-2.49048">
        <ele>91</ele>
        <time>2015-03-30T12:33:51.1Z</time>
      </trkpt>
      <trkpt lat="48.61348" lon="-2.49049">
        <ele>91</ele>
        <time>2015-03-30T12:33:54.1Z</time>
      </trkpt>
      <trkpt lat="48.61346" lon="-2.4905">
        <ele>91</ele>
        <time>2015-03-30T12:33:56.1Z</time>
      </trkpt>
      <trkpt lat="48.61343" lon="-2.4905">
        <ele>91</ele>
        <time>2015-03-30T12:33:59.1Z</time>
      </trkpt>
      <trkpt lat="48.6134" lon="-2.49051">
        <ele>92</ele>
        <time>2015-03-30T12:34:02.1Z</time>
      </trkpt>
      <trkpt lat="48.61339" lon="-2.4905">
        <ele>93</ele>
        <time>2015-03-30T12:34:04.1Z</time>
      </trkpt>
      <trkpt lat="48.61338" lon="-2.4905">
        <ele>93</ele>
        <time>2015-03-30T12:34:06.1Z</time>
      </trkpt>
      <trkpt lat="48.61336" lon="-2.4905">
        <ele>93</ele>
        <time>2015-03-30T12:34:09.1Z</time>
      </trkpt>
      <trkpt lat="48.61333" lon="-2.4905">
        <ele>94</ele>
        <time>2015-03-30T12:34:12.1Z</time>
      </trkpt>
      <trkpt lat="48.61331" lon="-2.4905">
        <ele>94</ele>
        <time>2015-03-30T12:34:15.1Z</time>
      </trkpt>
      <trkpt lat="48.61328" lon="-2.49051">
        <ele>95</ele>
        <time>2015-03-30T12:34:18.1Z</time>
      </trkpt>
      <trkpt lat="48.61326" lon="-2.49052">
        <ele>95</ele>
        <time>2015-03-30T12:34:20.1Z</time>
      </trkpt>
      <trkpt lat="48.61323" lon="-2.49054">
        <ele>95</ele>
        <time>2015-03-30T12:34:23.1Z</time>
      </trkpt>
      <trkpt lat="48.61319" lon="-2.49055">
        <ele>95</ele>
        <time>2015-03-30T12:34:26.1Z</time>
      </trkpt>
      <trkpt lat="48.61317" lon="-2.49056">
        <ele>94</ele>
        <time>2015-03-30T12:34:28.1Z</time>
      </trkpt>
      <trkpt lat="48.61315" lon="-2.49057">
        <ele>94</ele>
        <time>2015-03-30T12:34:31.1Z</time>
      </trkpt>
      <trkpt lat="48.61313" lon="-2.49058">
        <ele>94</ele>
        <time>2015-03-30T12:34:33.1Z</time>
      </trkpt>
      <trkpt lat="48.61311" lon="-2.49058">
        <ele>95</ele>
        <time>2015-03-30T12:34:35.1Z</time>
      </trkpt>
      <trkpt lat="48.61308" lon="-2.49059">
        <ele>95</ele>
        <time>2015-03-30T12:34:38.1Z</time>
      </trkpt>
      <trkpt lat="48.61306" lon="-2.49061">
        <ele>95</ele>
        <time>2015-03-30T12:34:40.1Z</time>
      </trkpt>
      <trkpt lat="48.61304" lon="-2.49061">
        <ele>95</ele>
        <time>2015-03-30T12:34:43.1Z</time>
      </trkpt>
      <trkpt lat="48.61303" lon="-2.49062">
        <ele>94</ele>
        <time>2015-03-30T12:34:45.1Z</time>
      </trkpt>
      <trkpt lat="48.613" lon="-2.49063">
        <ele>94</ele>
        <time>2015-03-30T12:34:48.1Z</time>
      </trkpt>
      <trkpt lat="48.61298" lon="-2.49062">
        <ele>94</ele>
        <time>2015-03-30T12:34:50.1Z</time>
      </trkpt>
      <trkpt lat="48.61294" lon="-2.49062">
        <ele>94</ele>
        <time>2015-03-30T12:34:53.1Z</time>
      </trkpt>
      <trkpt lat="48.61292" lon="-2.49061">
        <ele>94</ele>
        <time>2015-03-30T12:34:56.1Z</time>
      </trkpt>
      <trkpt lat="48.61289" lon="-2.49059">
        <ele>94</ele>
        <time>2015-03-30T12:34:59.1Z</time>
      </trkpt>
      <trkpt lat="48.61287" lon="-2.49058">
        <ele>94</ele>
        <time>2015-03-30T12:35:01.1Z</time>
      </trkpt>
      <trkpt lat="48.61285" lon="-2.49057">
        <ele>94</ele>
        <time>2015-03-30T12:35:03.1Z</time>
      </trkpt>
      <trkpt lat="48.61284" lon="-2.49056">
        <ele>94</ele>
        <time>2015-03-30T12:35:05.1Z</time>
      </trkpt>
      <trkpt lat="48.61282" lon="-2.49054">
        <ele>95</ele>
        <time>2015-03-30T12:35:07.1Z</time>
      </trkpt>
      <trkpt lat="48.6128" lon="-2.49052">
        <ele>95</ele>
        <time>2015-03-30T12:35:10.1Z</time>
      </trkpt>
      <trkpt lat="48.61278" lon="-2.4905">
        <ele>95</ele>
        <time>2015-03-30T12:35:12.1Z</time>
      </trkpt>
      <trkpt lat="48.61276" lon="-2.49049">
        <ele>95</ele>
        <time>2015-03-30T12:35:14.1Z</time>
      </trkpt>
      <trkpt lat="48.61274" lon="-2.49048">
        <ele>95</ele>
        <time>2015-03-30T12:35:16.1Z</time>
      </trkpt>
      <trkpt lat="48.61272" lon="-2.49047">
        <ele>95</ele>
        <time>2015-03-30T12:35:18.1Z</time>
      </trkpt>
      <trkpt lat="48.6127" lon="-2.49046">
        <ele>95</ele>
        <time>2015-03-30T12:35:20.1Z</time>
      </trkpt>
      <trkpt lat="48.61267" lon="-2.49045">
        <ele>95</ele>
        <time>2015-03-30T12:35:22.1Z</time>
      </trkpt>
      <trkpt lat="48.61264" lon="-2.49045">
        <ele>95</ele>
        <time>2015-03-30T12:35:25.1Z</time>
      </trkpt>
      <trkpt lat="48.61262" lon="-2.49044">
        <ele>95</ele>
        <time>2015-03-30T12:35:27.1Z</time>
      </trkpt>
      <trkpt lat="48.61259" lon="-2.49043">
        <ele>95</ele>
        <time>2015-03-30T12:35:29.1Z</time>
      </trkpt>
      <trkpt lat="48.61256" lon="-2.49042">
        <ele>95</ele>
        <time>2015-03-30T12:35:32.1Z</time>
      </trkpt>
      <trkpt lat="48.61253" lon="-2.49042">
        <ele>95</ele>
        <time>2015-03-30T12:35:34.1Z</time>
      </trkpt>
      <trkpt lat="48.6125" lon="-2.49041">
        <ele>94</ele>
        <time>2015-03-30T12:35:37.1Z</time>
      </trkpt>
      <trkpt lat="48.61248" lon="-2.49041">
        <ele>95</ele>
        <time>2015-03-30T12:35:39.1Z</time>
      </trkpt>
      <trkpt lat="48.61246" lon="-2.49042">
        <ele>95</ele>
        <time>2015-03-30T12:35:42.1Z</time>
      </trkpt>
      <trkpt lat="48.61244" lon="-2.49042">
        <ele>95</ele>
        <time>2015-03-30T12:35:45.1Z</time>
      </trkpt>
      <trkpt lat="48.61242" lon="-2.49041">
        <ele>95</ele>
        <time>2015-03-30T12:35:48.1Z</time>
      </trkpt>
      <trkpt lat="48.61239" lon="-2.4904">
        <ele>95</ele>
        <time>2015-03-30T12:35:50.1Z</time>
      </trkpt>
      <trkpt lat="48.61235" lon="-2.49036">
        <ele>95</ele>
        <time>2015-03-30T12:35:53.1Z</time>
      </trkpt>
      <trkpt lat="48.61234" lon="-2.49035">
        <ele>95</ele>
        <time>2015-03-30T12:35:55.1Z</time>
      </trkpt>
      <trkpt lat="48.61233" lon="-2.49032">
        <ele>95</ele>
        <time>2015-03-30T12:35:57.1Z</time>
      </trkpt>
      <trkpt lat="48.6123" lon="-2.49028">
        <ele>96</ele>
        <time>2015-03-30T12:36:00.1Z</time>
      </trkpt>
      <trkpt lat="48.61229" lon="-2.49026">
        <ele>96</ele>
        <time>2015-03-30T12:36:02.1Z</time>
      </trkpt>
      <trkpt lat="48.61227" lon="-2.49024">
        <ele>96</ele>
        <time>2015-03-30T12:36:04.1Z</time>
      </trkpt>
      <trkpt lat="48.61224" lon="-2.49021">
        <ele>97</ele>
        <time>2015-03-30T12:36:07.1Z</time>
      </trkpt>
      <trkpt lat="48.61222" lon="-2.49019">
        <ele>97</ele>
        <time>2015-03-30T12:36:09.1Z</time>
      </trkpt>
      <trkpt lat="48.6122" lon="-2.49017">
        <ele>97</ele>
        <time>2015-03-30T12:36:11.1Z</time>
      </trkpt>
      <trkpt lat="48.61218" lon="-2.49017">
        <ele>97</ele>
        <time>2015-03-30T12:36:13.1Z</time>
      </trkpt>
      <trkpt lat="48.61216" lon="-2.49018">
        <ele>97</ele>
        <time>2015-03-30T12:36:16.1Z</time>
      </trkpt>
      <trkpt lat="48.61214" lon="-2.49021">
        <ele>97</ele>
        <time>2015-03-30T12:36:18.1Z</time>
      </trkpt>
      <trkpt lat="48.61212" lon="-2.49023">
        <ele>97</ele>
        <time>2015-03-30T12:36:20.1Z</time>
      </trkpt>
      <trkpt lat="48.6121" lon="-2.49026">
        <ele>97</ele>
        <time>2015-03-30T12:36:23.1Z</time>
      </trkpt>
      <trkpt lat="48.61208" lon="-2.4903">
        <ele>97</ele>
        <time>2015-03-30T12:36:25.1Z</time>
      </trkpt>
      <trkpt lat="48.61205" lon="-2.49034">
        <ele>97</ele>
        <time>2015-03-30T12:36:28.1Z</time>
      </trkpt>
      <trkpt lat="48.61203" lon="-2.49037">
        <ele>97</ele>
        <time>2015-03-30T12:36:30.1Z</time>
      </trkpt>
      <trkpt lat="48.61201" lon="-2.49041">
        <ele>97</ele>
        <time>2015-03-30T12:36:33.1Z</time>
      </trkpt>
      <trkpt lat="48.61198" lon="-2.49042">
        <ele>97</ele>
        <time>2015-03-30T12:36:35.1Z</time>
      </trkpt>
      <trkpt lat="48.61195" lon="-2.49044">
        <ele>97</ele>
        <time>2015-03-30T12:36:38.1Z</time>
      </trkpt>
      <trkpt lat="48.61192" lon="-2.49046">
        <ele>97</ele>
        <time>2015-03-30T12:36:41.1Z</time>
      </trkpt>
      <trkpt lat="48.61189" lon="-2.49047">
        <ele>97</ele>
        <time>2015-03-30T12:36:44.1Z</time>
      </trkpt>
      <trkpt lat="48.61186" lon="-2.49048">
        <ele>97</ele>
        <time>2015-03-30T12:36:47.1Z</time>
      </trkpt>
      <trkpt lat="48.61184" lon="-2.4905">
        <ele>97</ele>
        <time>2015-03-30T12:36:49.1Z</time>
      </trkpt>
      <trkpt lat="48.61182" lon="-2.49053">
        <ele>97</ele>
        <time>2015-03-30T12:36:51.1Z</time>
      </trkpt>
      <trkpt lat="48.6118" lon="-2.49057">
        <ele>97</ele>
        <time>2015-03-30T12:36:54.1Z</time>
      </trkpt>
      <trkpt lat="48.61177" lon="-2.49059">
        <ele>96</ele>
        <time>2015-03-30T12:36:57.1Z</time>
      </trkpt>
      <trkpt lat="48.61175" lon="-2.49062">
        <ele>96</ele>
        <time>2015-03-30T12:36:59.1Z</time>
      </trkpt>
      <trkpt lat="48.61174" lon="-2.49065">
        <ele>96</ele>
        <time>2015-03-30T12:37:01.1Z</time>
      </trkpt>
      <trkpt lat="48.61172" lon="-2.49067">
        <ele>96</ele>
        <time>2015-03-30T12:37:03.1Z</time>
      </trkpt>
      <trkpt lat="48.6117" lon="-2.4907">
        <ele>96</ele>
        <time>2015-03-30T12:37:05.1Z</time>
      </trkpt>
      <trkpt lat="48.61169" lon="-2.49072">
        <ele>96</ele>
        <time>2015-03-30T12:37:07.1Z</time>
      </trkpt>
      <trkpt lat="48.61168" lon="-2.49074">
        <ele>96</ele>
        <time>2015-03-30T12:37:09.1Z</time>
      </trkpt>
      <trkpt lat="48.61166" lon="-2.49076">
        <ele>96</ele>
        <time>2015-03-30T12:37:11.1Z</time>
      </trkpt>
      <trkpt lat="48.61164" lon="-2.49078">
        <ele>96</ele>
        <time>2015-03-30T12:37:14.1Z</time>
      </trkpt>
      <trkpt lat="48.61163" lon="-2.4908">
        <ele>96</ele>
        <time>2015-03-30T12:37:16.1Z</time>
      </trkpt>
      <trkpt lat="48.61161" lon="-2.49085">
        <ele>96</ele>
        <time>2015-03-30T12:37:19.1Z</time>
      </trkpt>
      <trkpt lat="48.6116" lon="-2.49087">
        <ele>96</ele>
        <time>2015-03-30T12:37:21.1Z</time>
      </trkpt>
      <trkpt lat="48.61159" lon="-2.4909">
        <ele>96</ele>
        <time>2015-03-30T12:37:23.1Z</time>
      </trkpt>
      <trkpt lat="48.61158" lon="-2.49092">
        <ele>96</ele>
        <time>2015-03-30T12:37:25.1Z</time>
      </trkpt>
      <trkpt lat="48.61156" lon="-2.49094">
        <ele>96</ele>
        <time>2015-03-30T12:37:27.1Z</time>
      </trkpt>
      <trkpt lat="48.61154" lon="-2.49095">
        <ele>95</ele>
        <time>2015-03-30T12:37:29.1Z</time>
      </trkpt>
      <trkpt lat="48.61153" lon="-2.49097">
        <ele>96</ele>
        <time>2015-03-30T12:37:32.1Z</time>
      </trkpt>
      <trkpt lat="48.61151" lon="-2.49099">
        <ele>96</ele>
        <time>2015-03-30T12:37:34.1Z</time>
      </trkpt>
      <trkpt lat="48.6115" lon="-2.49102">
        <ele>96</ele>
        <time>2015-03-30T12:37:37.1Z</time>
      </trkpt>
      <trkpt lat="48.61148" lon="-2.49105">
        <ele>96</ele>
        <time>2015-03-30T12:37:40.1Z</time>
      </trkpt>
      <trkpt lat="48.61146" lon="-2.49108">
        <ele>97</ele>
        <time>2015-03-30T12:37:43.1Z</time>
      </trkpt>
      <trkpt lat="48.61145" lon="-2.49109">
        <ele>97</ele>
        <time>2015-03-30T12:37:46.1Z</time>
      </trkpt>
      <trkpt lat="48.61144" lon="-2.4911">
        <ele>97</ele>
        <time>2015-03-30T12:37:48.1Z</time>
      </trkpt>
      <trkpt lat="48.61142" lon="-2.49112">
        <ele>98</ele>
        <time>2015-03-30T12:37:51.1Z</time>
      </trkpt>
      <trkpt lat="48.6114" lon="-2.49113">
        <ele>98</ele>
        <time>2015-03-30T12:37:53.1Z</time>
      </trkpt>
      <trkpt lat="48.61139" lon="-2.49115">
        <ele>98</ele>
        <time>2015-03-30T12:37:56.1Z</time>
      </trkpt>
      <trkpt lat="48.61138" lon="-2.49117">
        <ele>99</ele>
        <time>2015-03-30T12:37:58.1Z</time>
      </trkpt>
      <trkpt lat="48.61137" lon="-2.49118">
        <ele>99</ele>
        <time>2015-03-30T12:38:00.1Z</time>
      </trkpt>
      <trkpt lat="48.61136" lon="-2.4912">
        <ele>100</ele>
        <time>2015-03-30T12:38:03.1Z</time>
      </trkpt>
      <trkpt lat="48.61135" lon="-2.49121">
        <ele>100</ele>
        <time>2015-03-30T12:38:05.1Z</time>
      </trkpt>
      <trkpt lat="48.61134" lon="-2.49124">
        <ele>101</ele>
        <time>2015-03-30T12:38:08.1Z</time>
      </trkpt>
      <trkpt lat="48.61134" lon="-2.49125">
        <ele>101</ele>
        <time>2015-03-30T12:38:10.1Z</time>
      </trkpt>
      <trkpt lat="48.61133" lon="-2.49127">
        <ele>102</ele>
        <time>2015-03-30T12:38:12.1Z</time>
      </trkpt>
      <trkpt lat="48.61132" lon="-2.49128">
        <ele>102</ele>
        <time>2015-03-30T12:38:14.1Z</time>
      </trkpt>
      <trkpt lat="48.61131" lon="-2.49131">
        <ele>103</ele>
        <time>2015-03-30T12:38:17.1Z</time>
      </trkpt>
      <trkpt lat="48.6113" lon="-2.49134">
        <ele>103</ele>
        <time>2015-03-30T12:38:20.1Z</time>
      </trkpt>
      <trkpt lat="48.6113" lon="-2.49137">
        <ele>103</ele>
        <time>2015-03-30T12:38:23.1Z</time>
      </trkpt>
      <trkpt lat="48.61129" lon="-2.49142">
        <ele>104</ele>
        <time>2015-03-30T12:38:26.1Z</time>
      </trkpt>
      <trkpt lat="48.61129" lon="-2.49144">
        <ele>104</ele>
        <time>2015-03-30T12:38:28.1Z</time>
      </trkpt>
      <trkpt lat="48.61129" lon="-2.49147">
        <ele>104</ele>
        <time>2015-03-30T12:38:31.1Z</time>
      </trkpt>
      <trkpt lat="48.61127" lon="-2.49149">
        <ele>104</ele>
        <time>2015-03-30T12:38:33.1Z</time>
      </trkpt>
      <trkpt lat="48.61126" lon="-2.49151">
        <ele>104</ele>
        <time>2015-03-30T12:38:35.1Z</time>
      </trkpt>
      <trkpt lat="48.61125" lon="-2.49152">
        <ele>105</ele>
        <time>2015-03-30T12:38:37.1Z</time>
      </trkpt>
      <trkpt lat="48.61123" lon="-2.49155">
        <ele>105</ele>
        <time>2015-03-30T12:38:40.1Z</time>
      </trkpt>
      <trkpt lat="48.61121" lon="-2.49158">
        <ele>106</ele>
        <time>2015-03-30T12:38:43.1Z</time>
      </trkpt>
      <trkpt lat="48.61118" lon="-2.4916">
        <ele>106</ele>
        <time>2015-03-30T12:38:46.1Z</time>
      </trkpt>
      <trkpt lat="48.61117" lon="-2.49162">
        <ele>106</ele>
        <time>2015-03-30T12:38:48.1Z</time>
      </trkpt>
      <trkpt lat="48.61115" lon="-2.49164">
        <ele>106</ele>
        <time>2015-03-30T12:38:51.1Z</time>
      </trkpt>
      <trkpt lat="48.61114" lon="-2.49165">
        <ele>106</ele>
        <time>2015-03-30T12:38:53.1Z</time>
      </trkpt>
      <trkpt lat="48.61112" lon="-2.49167">
        <ele>106</ele>
        <time>2015-03-30T12:38:56.1Z</time>
      </trkpt>
      <trkpt lat="48.6111" lon="-2.49169">
        <ele>106</ele>
        <time>2015-03-30T12:38:58.1Z</time>
      </trkpt>
      <trkpt lat="48.61109" lon="-2.49168">
        <ele>107</ele>
        <time>2015-03-30T12:39:01.1Z</time>
      </trkpt>
      <trkpt lat="48.61108" lon="-2.49168">
        <ele>107</ele>
        <time>2015-03-30T12:39:03.1Z</time>
      </trkpt>
      <trkpt lat="48.61108" lon="-2.49171">
        <ele>107</ele>
        <time>2015-03-30T12:39:06.1Z</time>
      </trkpt>
      <trkpt lat="48.61104" lon="-2.49173">
        <ele>107</ele>
        <time>2015-03-30T12:39:09.1Z</time>
      </trkpt>
      <trkpt lat="48.61102" lon="-2.49174">
        <ele>107</ele>
        <time>2015-03-30T12:39:11.1Z</time>
      </trkpt>
      <trkpt lat="48.611" lon="-2.49175">
        <ele>107</ele>
        <time>2015-03-30T12:39:13.1Z</time>
      </trkpt>
      <trkpt lat="48.61098" lon="-2.49175">
        <ele>107</ele>
        <time>2015-03-30T12:39:15.1Z</time>
      </trkpt>
      <trkpt lat="48.61096" lon="-2.49175">
        <ele>107</ele>
        <time>2015-03-30T12:39:18.1Z</time>
      </trkpt>
      <trkpt lat="48.61094" lon="-2.49176">
        <ele>107</ele>
        <time>2015-03-30T12:39:21.1Z</time>
      </trkpt>
      <trkpt lat="48.61093" lon="-2.49178">
        <ele>106</ele>
        <time>2015-03-30T12:39:23.1Z</time>
      </trkpt>
      <trkpt lat="48.61092" lon="-2.49179">
        <ele>106</ele>
        <time>2015-03-30T12:39:25.1Z</time>
      </trkpt>
      <trkpt lat="48.6109" lon="-2.49181">
        <ele>105</ele>
        <time>2015-03-30T12:39:28.1Z</time>
      </trkpt>
      <trkpt lat="48.61089" lon="-2.49183">
        <ele>105</ele>
        <time>2015-03-30T12:39:30.1Z</time>
      </trkpt>
      <trkpt lat="48.61088" lon="-2.49186">
        <ele>105</ele>
        <time>2015-03-30T12:39:33.1Z</time>
      </trkpt>
      <trkpt lat="48.61088" lon="-2.49188">
        <ele>104</ele>
        <time>2015-03-30T12:39:35.1Z</time>
      </trkpt>
      <trkpt lat="48.61088" lon="-2.4919">
        <ele>104</ele>
        <time>2015-03-30T12:39:37.1Z</time>
      </trkpt>
      <trkpt lat="48.61087" lon="-2.49194">
        <ele>103</ele>
        <time>2015-03-30T12:39:40.1Z</time>
      </trkpt>
      <trkpt lat="48.61087" lon="-2.49197">
        <ele>102</ele>
        <time>2015-03-30T12:39:43.1Z</time>
      </trkpt>
      <trkpt lat="48.61086" lon="-2.492">
        <ele>101</ele>
        <time>2015-03-30T12:39:46.1Z</time>
      </trkpt>
      <trkpt lat="48.61086" lon="-2.49201">
        <ele>101</ele>
        <time>2015-03-30T12:39:49.1Z</time>
      </trkpt>
      <trkpt lat="48.61086" lon="-2.49205">
        <ele>101</ele>
        <time>2015-03-30T12:39:52.1Z</time>
      </trkpt>
      <trkpt lat="48.61084" lon="-2.49209">
        <ele>101</ele>
        <time>2015-03-30T12:39:55.1Z</time>
      </trkpt>
      <trkpt lat="48.61083" lon="-2.49212">
        <ele>100</ele>
        <time>2015-03-30T12:39:57.1Z</time>
      </trkpt>
      <trkpt lat="48.61083" lon="-2.49212">
        <ele>100</ele>
        <time>2015-03-30T12:40:00.1Z</time>
      </trkpt>
      <trkpt lat="48.61083" lon="-2.49211">
        <ele>100</ele>
        <time>2015-03-30T12:40:02.1Z</time>
      </trkpt>
      <trkpt lat="48.61083" lon="-2.4921">
        <ele>100</ele>
        <time>2015-03-30T12:40:04.1Z</time>
      </trkpt>
      <trkpt lat="48.61083" lon="-2.49209">
        <ele>100</ele>
        <time>2015-03-30T12:40:07.1Z</time>
      </trkpt>
      <trkpt lat="48.61083" lon="-2.4921">
        <ele>100</ele>
        <time>2015-03-30T12:40:10.1Z</time>
      </trkpt>
      <trkpt lat="48.61083" lon="-2.49211">
        <ele>100</ele>
        <time>2015-03-30T12:40:14.1Z</time>
      </trkpt>
      <trkpt lat="48.61083" lon="-2.49211">
        <ele>100</ele>
        <time>2015-03-30T12:40:16.1Z</time>
      </trkpt>
      <trkpt lat="48.61083" lon="-2.49212">
        <ele>100</ele>
        <time>2015-03-30T12:40:19.1Z</time>
      </trkpt>
      <trkpt lat="48.61084" lon="-2.49211">
        <ele>100</ele>
        <time>2015-03-30T12:40:22.1Z</time>
      </trkpt>
      <trkpt lat="48.61085" lon="-2.49208">
        <ele>100</ele>
        <time>2015-03-30T12:40:25.1Z</time>
      </trkpt>
      <trkpt lat="48.61085" lon="-2.49209">
        <ele>101</ele>
        <time>2015-03-30T12:40:28.1Z</time>
      </trkpt>
      <trkpt lat="48.61085" lon="-2.49209">
        <ele>101</ele>
        <time>2015-03-30T12:40:30.1Z</time>
      </trkpt>
      <trkpt lat="48.61084" lon="-2.49209">
        <ele>101</ele>
        <time>2015-03-30T12:40:35.1Z</time>
      </trkpt>
      <trkpt lat="48.61085" lon="-2.49209">
        <ele>101</ele>
        <time>2015-03-30T12:40:38.1Z</time>
      </trkpt>
      <trkpt lat="48.61085" lon="-2.49208">
        <ele>101</ele>
        <time>2015-03-30T12:40:40.1Z</time>
      </trkpt>
      <trkpt lat="48.61085" lon="-2.49208">
        <ele>101</ele>
        <time>2015-03-30T12:40:43.1Z</time>
      </trkpt>
      <trkpt lat="48.61085" lon="-2.49208">
        <ele>101</ele>
        <time>2015-03-30T12:40:45.1Z</time>
      </trkpt>
      <trkpt lat="48.61084" lon="-2.49207">
        <ele>101</ele>
        <time>2015-03-30T12:40:47.1Z</time>
      </trkpt>
      <trkpt lat="48.61084" lon="-2.49207">
        <ele>101</ele>
        <time>2015-03-30T12:40:50.1Z</time>
      </trkpt>
      <trkpt lat="48.61085" lon="-2.49206">
        <ele>101</ele>
        <time>2015-03-30T12:40:53.1Z</time>
      </trkpt>
      <trkpt lat="48.61084" lon="-2.49205">
        <ele>101</ele>
        <time>2015-03-30T12:40:55.1Z</time>
      </trkpt>
      <trkpt lat="48.61084" lon="-2.49205">
        <ele>101</ele>
        <time>2015-03-30T12:40:57.1Z</time>
      </trkpt>
      <trkpt lat="48.61084" lon="-2.49204">
        <ele>101</ele>
        <time>2015-03-30T12:41:00.1Z</time>
      </trkpt>
      <trkpt lat="48.61084" lon="-2.49204">
        <ele>101</ele>
        <time>2015-03-30T12:41:02.1Z</time>
      </trkpt>
      <trkpt lat="48.61085" lon="-2.49203">
        <ele>101</ele>
        <time>2015-03-30T12:41:06.1Z</time>
      </trkpt>
      <trkpt lat="48.61086" lon="-2.49205">
        <ele>101</ele>
        <time>2015-03-30T12:41:08.1Z</time>
      </trkpt>
      <trkpt lat="48.61085" lon="-2.4921">
        <ele>101</ele>
        <time>2015-03-30T12:41:11.1Z</time>
      </trkpt>
      <trkpt lat="48.61083" lon="-2.49215">
        <ele>100</ele>
        <time>2015-03-30T12:41:14.1Z</time>
      </trkpt>
      <trkpt lat="48.61083" lon="-2.49218">
        <ele>100</ele>
        <time>2015-03-30T12:41:16.1Z</time>
      </trkpt>
      <trkpt lat="48.61084" lon="-2.49221">
        <ele>99</ele>
        <time>2015-03-30T12:41:18.1Z</time>
      </trkpt>
      <trkpt lat="48.61084" lon="-2.49223">
        <ele>98</ele>
        <time>2015-03-30T12:41:20.1Z</time>
      </trkpt>
      <trkpt lat="48.61084" lon="-2.49224">
        <ele>98</ele>
        <time>2015-03-30T12:41:24.1Z</time>
      </trkpt>
      <trkpt lat="48.61082" lon="-2.49226">
        <ele>98</ele>
        <time>2015-03-30T12:41:26.1Z</time>
      </trkpt>
      <trkpt lat="48.6108" lon="-2.4923">
        <ele>98</ele>
        <time>2015-03-30T12:41:29.1Z</time>
      </trkpt>
      <trkpt lat="48.61076" lon="-2.49231">
        <ele>97</ele>
        <time>2015-03-30T12:41:32.1Z</time>
      </trkpt>
      <trkpt lat="48.61073" lon="-2.49232">
        <ele>97</ele>
        <time>2015-03-30T12:41:35.1Z</time>
      </trkpt>
      <trkpt lat="48.6107" lon="-2.49235">
        <ele>96</ele>
        <time>2015-03-30T12:41:38.1Z</time>
      </trkpt>
      <trkpt lat="48.61069" lon="-2.49237">
        <ele>95</ele>
        <time>2015-03-30T12:41:40.1Z</time>
      </trkpt>
      <trkpt lat="48.61068" lon="-2.49242">
        <ele>94</ele>
        <time>2015-03-30T12:41:43.1Z</time>
      </trkpt>
      <trkpt lat="48.61067" lon="-2.49245">
        <ele>94</ele>
        <time>2015-03-30T12:41:45.1Z</time>
      </trkpt>
      <trkpt lat="48.61066" lon="-2.49247">
        <ele>93</ele>
        <time>2015-03-30T12:41:47.1Z</time>
      </trkpt>
      <trkpt lat="48.61066" lon="-2.4925">
        <ele>93</ele>
        <time>2015-03-30T12:41:49.1Z</time>
      </trkpt>
      <trkpt lat="48.61066" lon="-2.49252">
        <ele>92</ele>
        <time>2015-03-30T12:41:51.1Z</time>
      </trkpt>
      <trkpt lat="48.61066" lon="-2.49252">
        <ele>92</ele>
        <time>2015-03-30T12:41:54.1Z</time>
      </trkpt>
      <trkpt lat="48.61065" lon="-2.49253">
        <ele>92</ele>
        <time>2015-03-30T12:41:57.1Z</time>
      </trkpt>
      <trkpt lat="48.61063" lon="-2.49254">
        <ele>91</ele>
        <time>2015-03-30T12:41:59.1Z</time>
      </trkpt>
      <trkpt lat="48.61061" lon="-2.49257">
        <ele>90</ele>
        <time>2015-03-30T12:42:02.1Z</time>
      </trkpt>
      <trkpt lat="48.61061" lon="-2.49258">
        <ele>89</ele>
        <time>2015-03-30T12:42:04.1Z</time>
      </trkpt>
      <trkpt lat="48.61058" lon="-2.49261">
        <ele>89</ele>
        <time>2015-03-30T12:42:07.1Z</time>
      </trkpt>
      <trkpt lat="48.61055" lon="-2.49264">
        <ele>89</ele>
        <time>2015-03-30T12:42:10.1Z</time>
      </trkpt>
      <trkpt lat="48.61052" lon="-2.49265">
        <ele>88</ele>
        <time>2015-03-30T12:42:13.1Z</time>
      </trkpt>
      <trkpt lat="48.61049" lon="-2.49266">
        <ele>87</ele>
        <time>2015-03-30T12:42:16.1Z</time>
      </trkpt>
      <trkpt lat="48.61046" lon="-2.49268">
        <ele>87</ele>
        <time>2015-03-30T12:42:19.1Z</time>
      </trkpt>
      <trkpt lat="48.61044" lon="-2.49269">
        <ele>86</ele>
        <time>2015-03-30T12:42:21.1Z</time>
      </trkpt>
      <trkpt lat="48.61043" lon="-2.4927">
        <ele>86</ele>
        <time>2015-03-30T12:42:24.1Z</time>
      </trkpt>
      <trkpt lat="48.6104" lon="-2.49272">
        <ele>85</ele>
        <time>2015-03-30T12:42:27.1Z</time>
      </trkpt>
      <trkpt lat="48.61036" lon="-2.49273">
        <ele>85</ele>
        <time>2015-03-30T12:42:30.1Z</time>
      </trkpt>
      <trkpt lat="48.61033" lon="-2.49274">
        <ele>84</ele>
        <time>2015-03-30T12:42:33.1Z</time>
      </trkpt>
      <trkpt lat="48.61031" lon="-2.49275">
        <ele>84</ele>
        <time>2015-03-30T12:42:35.1Z</time>
      </trkpt>
      <trkpt lat="48.61027" lon="-2.49277">
        <ele>83</ele>
        <time>2015-03-30T12:42:38.1Z</time>
      </trkpt>
      <trkpt lat="48.61024" lon="-2.49277">
        <ele>83</ele>
        <time>2015-03-30T12:42:41.1Z</time>
      </trkpt>
      <trkpt lat="48.61022" lon="-2.49277">
        <ele>83</ele>
        <time>2015-03-30T12:42:43.1Z</time>
      </trkpt>
      <trkpt lat="48.61019" lon="-2.49277">
        <ele>83</ele>
        <time>2015-03-30T12:42:46.1Z</time>
      </trkpt>
      <trkpt lat="48.61017" lon="-2.49277">
        <ele>82</ele>
        <time>2015-03-30T12:42:48.1Z</time>
      </trkpt>
      <trkpt lat="48.61015" lon="-2.49277">
        <ele>82</ele>
        <time>2015-03-30T12:42:50.1Z</time>
      </trkpt>
      <trkpt lat="48.61011" lon="-2.49278">
        <ele>82</ele>
        <time>2015-03-30T12:42:53.1Z</time>
      </trkpt>
      <trkpt lat="48.61009" lon="-2.49279">
        <ele>82</ele>
        <time>2015-03-30T12:42:55.1Z</time>
      </trkpt>
      <trkpt lat="48.61006" lon="-2.49281">
        <ele>82</ele>
        <time>2015-03-30T12:42:58.1Z</time>
      </trkpt>
      <trkpt lat="48.61005" lon="-2.49282">
        <ele>82</ele>
        <time>2015-03-30T12:43:00.1Z</time>
      </trkpt>
      <trkpt lat="48.61001" lon="-2.49284">
        <ele>82</ele>
        <time>2015-03-30T12:43:03.1Z</time>
      </trkpt>
      <trkpt lat="48.61" lon="-2.49287">
        <ele>82</ele>
        <time>2015-03-30T12:43:05.1Z</time>
      </trkpt>
      <trkpt lat="48.60997" lon="-2.49289">
        <ele>81</ele>
        <time>2015-03-30T12:43:08.1Z</time>
      </trkpt>
      <trkpt lat="48.60995" lon="-2.49291">
        <ele>81</ele>
        <time>2015-03-30T12:43:10.1Z</time>
      </trkpt>
      <trkpt lat="48.60993" lon="-2.49294">
        <ele>80</ele>
        <time>2015-03-30T12:43:13.1Z</time>
      </trkpt>
      <trkpt lat="48.6099" lon="-2.49298">
        <ele>80</ele>
        <time>2015-03-30T12:43:16.1Z</time>
      </trkpt>
      <trkpt lat="48.60988" lon="-2.493">
        <ele>79</ele>
        <time>2015-03-30T12:43:18.1Z</time>
      </trkpt>
      <trkpt lat="48.60986" lon="-2.49302">
        <ele>79</ele>
        <time>2015-03-30T12:43:20.1Z</time>
      </trkpt>
      <trkpt lat="48.60983" lon="-2.49305">
        <ele>79</ele>
        <time>2015-03-30T12:43:23.1Z</time>
      </trkpt>
      <trkpt lat="48.6098" lon="-2.49309">
        <ele>79</ele>
        <time>2015-03-30T12:43:26.1Z</time>
      </trkpt>
      <trkpt lat="48.60978" lon="-2.49312">
        <ele>79</ele>
        <time>2015-03-30T12:43:29.1Z</time>
      </trkpt>
      <trkpt lat="48.60975" lon="-2.49315">
        <ele>79</ele>
        <time>2015-03-30T12:43:32.1Z</time>
      </trkpt>
      <trkpt lat="48.60972" lon="-2.49318">
        <ele>79</ele>
        <time>2015-03-30T12:43:35.1Z</time>
      </trkpt>
      <trkpt lat="48.6097" lon="-2.49321">
        <ele>79</ele>
        <time>2015-03-30T12:43:37.1Z</time>
      </trkpt>
      <trkpt lat="48.60967" lon="-2.49325">
        <ele>78</ele>
        <time>2015-03-30T12:43:40.1Z</time>
      </trkpt>
      <trkpt lat="48.60965" lon="-2.49327">
        <ele>79</ele>
        <time>2015-03-30T12:43:42.1Z</time>
      </trkpt>
      <trkpt lat="48.60961" lon="-2.49332">
        <ele>79</ele>
        <time>2015-03-30T12:43:45.1Z</time>
      </trkpt>
      <trkpt lat="48.60959" lon="-2.49335">
        <ele>79</ele>
        <time>2015-03-30T12:43:47.1Z</time>
      </trkpt>
      <trkpt lat="48.60956" lon="-2.49339">
        <ele>79</ele>
        <time>2015-03-30T12:43:50.1Z</time>
      </trkpt>
      <trkpt lat="48.60954" lon="-2.49342">
        <ele>78</ele>
        <time>2015-03-30T12:43:53.1Z</time>
      </trkpt>
      <trkpt lat="48.60953" lon="-2.49345">
        <ele>78</ele>
        <time>2015-03-30T12:43:55.1Z</time>
      </trkpt>
      <trkpt lat="48.60951" lon="-2.49347">
        <ele>78</ele>
        <time>2015-03-30T12:43:57.1Z</time>
      </trkpt>
      <trkpt lat="48.6095" lon="-2.4935">
        <ele>78</ele>
        <time>2015-03-30T12:44:00.1Z</time>
      </trkpt>
      <trkpt lat="48.60949" lon="-2.49353">
        <ele>78</ele>
        <time>2015-03-30T12:44:03.1Z</time>
      </trkpt>
      <trkpt lat="48.60948" lon="-2.49356">
        <ele>78</ele>
        <time>2015-03-30T12:44:05.1Z</time>
      </trkpt>
      <trkpt lat="48.60947" lon="-2.49357">
        <ele>78</ele>
        <time>2015-03-30T12:44:08.1Z</time>
      </trkpt>
      <trkpt lat="48.60946" lon="-2.49357">
        <ele>78</ele>
        <time>2015-03-30T12:44:10.1Z</time>
      </trkpt>
      <trkpt lat="48.60946" lon="-2.49359">
        <ele>78</ele>
        <time>2015-03-30T12:44:13.1Z</time>
      </trkpt>
      <trkpt lat="48.60945" lon="-2.49359">
        <ele>78</ele>
        <time>2015-03-30T12:44:15.1Z</time>
      </trkpt>
      <trkpt lat="48.60945" lon="-2.4936">
        <ele>78</ele>
        <time>2015-03-30T12:44:19.1Z</time>
      </trkpt>
      <trkpt lat="48.60945" lon="-2.4936">
        <ele>78</ele>
        <time>2015-03-30T12:44:22.1Z</time>
      </trkpt>
      <trkpt lat="48.60945" lon="-2.49361">
        <ele>77</ele>
        <time>2015-03-30T12:44:25.1Z</time>
      </trkpt>
      <trkpt lat="48.60945" lon="-2.49362">
        <ele>78</ele>
        <time>2015-03-30T12:44:27.1Z</time>
      </trkpt>
      <trkpt lat="48.60944" lon="-2.49362">
        <ele>78</ele>
        <time>2015-03-30T12:44:30.1Z</time>
      </trkpt>
      <trkpt lat="48.60944" lon="-2.49363">
        <ele>78</ele>
        <time>2015-03-30T12:44:32.1Z</time>
      </trkpt>
      <trkpt lat="48.60944" lon="-2.49361">
        <ele>78</ele>
        <time>2015-03-30T12:44:35.1Z</time>
      </trkpt>
      <trkpt lat="48.60944" lon="-2.49361">
        <ele>78</ele>
        <time>2015-03-30T12:44:37.1Z</time>
      </trkpt>
      <trkpt lat="48.60944" lon="-2.49362">
        <ele>78</ele>
        <time>2015-03-30T12:44:40.1Z</time>
      </trkpt>
      <trkpt lat="48.60944" lon="-2.49362">
        <ele>78</ele>
        <time>2015-03-30T12:44:43.1Z</time>
      </trkpt>
      <trkpt lat="48.60943" lon="-2.49362">
        <ele>78</ele>
        <time>2015-03-30T12:44:45.1Z</time>
      </trkpt>
      <trkpt lat="48.60943" lon="-2.49362">
        <ele>78</ele>
        <time>2015-03-30T12:44:47.1Z</time>
      </trkpt>
      <trkpt lat="48.60943" lon="-2.49363">
        <ele>78</ele>
        <time>2015-03-30T12:44:50.1Z</time>
      </trkpt>
      <trkpt lat="48.60943" lon="-2.49363">
        <ele>78</ele>
        <time>2015-03-30T12:44:53.1Z</time>
      </trkpt>
      <trkpt lat="48.60943" lon="-2.49363">
        <ele>78</ele>
        <time>2015-03-30T12:44:58.1Z</time>
      </trkpt>
      <trkpt lat="48.60943" lon="-2.49363">
        <ele>78</ele>
        <time>2015-03-30T12:45:02.1Z</time>
      </trkpt>
      <trkpt lat="48.60943" lon="-2.49363">
        <ele>78</ele>
        <time>2015-03-30T12:45:05.1Z</time>
      </trkpt>
      <trkpt lat="48.60943" lon="-2.49364">
        <ele>78</ele>
        <time>2015-03-30T12:45:09.1Z</time>
      </trkpt>
      <trkpt lat="48.60943" lon="-2.49364">
        <ele>78</ele>
        <time>2015-03-30T12:45:12.1Z</time>
      </trkpt>
      <trkpt lat="48.60943" lon="-2.49364">
        <ele>78</ele>
        <time>2015-03-30T12:45:14.1Z</time>
      </trkpt>
      <trkpt lat="48.60943" lon="-2.49364">
        <ele>78</ele>
        <time>2015-03-30T12:45:17.1Z</time>
      </trkpt>
      <trkpt lat="48.60943" lon="-2.49364">
        <ele>78</ele>
        <time>2015-03-30T12:45:21.1Z</time>
      </trkpt>
      <trkpt lat="48.60943" lon="-2.49364">
        <ele>78</ele>
        <time>2015-03-30T12:45:23.1Z</time>
      </trkpt>
      <trkpt lat="48.60943" lon="-2.49365">
        <ele>78</ele>
        <time>2015-03-30T12:45:25.1Z</time>
      </trkpt>
      <trkpt lat="48.60943" lon="-2.49365">
        <ele>78</ele>
        <time>2015-03-30T12:45:28.1Z</time>
      </trkpt>
      <trkpt lat="48.60943" lon="-2.49365">
        <ele>78</ele>
        <time>2015-03-30T12:45:31.1Z</time>
      </trkpt>
      <trkpt lat="48.60943" lon="-2.49365">
        <ele>78</ele>
        <time>2015-03-30T12:45:36.1Z</time>
      </trkpt>
      <trkpt lat="48.60943" lon="-2.49365">
        <ele>79</ele>
        <time>2015-03-30T12:45:38.1Z</time>
      </trkpt>
      <trkpt lat="48.60944" lon="-2.49365">
        <ele>78</ele>
        <time>2015-03-30T12:45:40.1Z</time>
      </trkpt>
      <trkpt lat="48.60944" lon="-2.49365">
        <ele>78</ele>
        <time>2015-03-30T12:45:43.1Z</time>
      </trkpt>
      <trkpt lat="48.60943" lon="-2.49365">
        <ele>78</ele>
        <time>2015-03-30T12:45:45.1Z</time>
      </trkpt>
      <trkpt lat="48.60943" lon="-2.49366">
        <ele>78</ele>
        <time>2015-03-30T12:45:48.1Z</time>
      </trkpt>
      <trkpt lat="48.60943" lon="-2.49366">
        <ele>78</ele>
        <time>2015-03-30T12:45:50.1Z</time>
      </trkpt>
      <trkpt lat="48.60943" lon="-2.49366">
        <ele>78</ele>
        <time>2015-03-30T12:45:53.1Z</time>
      </trkpt>
      <trkpt lat="48.60943" lon="-2.49366">
        <ele>78</ele>
        <time>2015-03-30T12:45:55.1Z</time>
      </trkpt>
      <trkpt lat="48.60943" lon="-2.49366">
        <ele>78</ele>
        <time>2015-03-30T12:45:57.1Z</time>
      </trkpt>
      <trkpt lat="48.60943" lon="-2.49366">
        <ele>78</ele>
        <time>2015-03-30T12:46:00.1Z</time>
      </trkpt>
      <trkpt lat="48.60943" lon="-2.49366">
        <ele>78</ele>
        <time>2015-03-30T12:46:03.1Z</time>
      </trkpt>
      <trkpt lat="48.60943" lon="-2.49366">
        <ele>78</ele>
        <time>2015-03-30T12:46:06.1Z</time>
      </trkpt>
      <trkpt lat="48.60944" lon="-2.49366">
        <ele>78</ele>
        <time>2015-03-30T12:46:08.1Z</time>
      </trkpt>
      <trkpt lat="48.60944" lon="-2.49367">
        <ele>79</ele>
        <time>2015-03-30T12:46:11.1Z</time>
      </trkpt>
      <trkpt lat="48.60944" lon="-2.49367">
        <ele>79</ele>
        <time>2015-03-30T12:46:13.1Z</time>
      </trkpt>
      <trkpt lat="48.60944" lon="-2.49367">
        <ele>79</ele>
        <time>2015-03-30T12:46:15.1Z</time>
      </trkpt>
      <trkpt lat="48.60944" lon="-2.49368">
        <ele>79</ele>
        <time>2015-03-30T12:46:17.1Z</time>
      </trkpt>
      <trkpt lat="48.60944" lon="-2.49368">
        <ele>78</ele>
        <time>2015-03-30T12:46:22.1Z</time>
      </trkpt>
      <trkpt lat="48.60944" lon="-2.49369">
        <ele>78</ele>
        <time>2015-03-30T12:46:24.1Z</time>
      </trkpt>
      <trkpt lat="48.60944" lon="-2.49369">
        <ele>78</ele>
        <time>2015-03-30T12:46:28.1Z</time>
      </trkpt>
      <trkpt lat="48.60945" lon="-2.49369">
        <ele>78</ele>
        <time>2015-03-30T12:46:33.1Z</time>
      </trkpt>
      <trkpt lat="48.60946" lon="-2.49369">
        <ele>78</ele>
        <time>2015-03-30T12:46:36.1Z</time>
      </trkpt>
      <trkpt lat="48.60946" lon="-2.49369">
        <ele>78</ele>
        <time>2015-03-30T12:46:38.1Z</time>
      </trkpt>
      <trkpt lat="48.60946" lon="-2.49369">
        <ele>78</ele>
        <time>2015-03-30T12:46:41.1Z</time>
      </trkpt>
      <trkpt lat="48.60946" lon="-2.49368">
        <ele>79</ele>
        <time>2015-03-30T12:46:44.1Z</time>
      </trkpt>
      <trkpt lat="48.60946" lon="-2.49368">
        <ele>79</ele>
        <time>2015-03-30T12:46:47.1Z</time>
      </trkpt>
      <trkpt lat="48.60946" lon="-2.49368">
        <ele>78</ele>
        <time>2015-03-30T12:46:50.1Z</time>
      </trkpt>
      <trkpt lat="48.60946" lon="-2.49369">
        <ele>78</ele>
        <time>2015-03-30T12:46:52.1Z</time>
      </trkpt>
      <trkpt lat="48.60946" lon="-2.4937">
        <ele>78</ele>
        <time>2015-03-30T12:46:55.1Z</time>
      </trkpt>
      <trkpt lat="48.60946" lon="-2.4937">
        <ele>79</ele>
        <time>2015-03-30T12:46:58.1Z</time>
      </trkpt>
      <trkpt lat="48.60946" lon="-2.4937">
        <ele>78</ele>
        <time>2015-03-30T12:47:00.1Z</time>
      </trkpt>
      <trkpt lat="48.60946" lon="-2.4937">
        <ele>78</ele>
        <time>2015-03-30T12:47:03.1Z</time>
      </trkpt>
      <trkpt lat="48.60946" lon="-2.4937">
        <ele>78</ele>
        <time>2015-03-30T12:47:05.1Z</time>
      </trkpt>
      <trkpt lat="48.60944" lon="-2.49368">
        <ele>79</ele>
        <time>2015-03-30T12:47:08.1Z</time>
      </trkpt>
      <trkpt lat="48.60943" lon="-2.49369">
        <ele>79</ele>
        <time>2015-03-30T12:47:10.1Z</time>
      </trkpt>
      <trkpt lat="48.6094" lon="-2.49371">
        <ele>79</ele>
        <time>2015-03-30T12:47:13.1Z</time>
      </trkpt>
      <trkpt lat="48.60939" lon="-2.4937">
        <ele>79</ele>
        <time>2015-03-30T12:47:16.1Z</time>
      </trkpt>
      <trkpt lat="48.60939" lon="-2.4937">
        <ele>79</ele>
        <time>2015-03-30T12:47:19.1Z</time>
      </trkpt>
      <trkpt lat="48.6094" lon="-2.49368">
        <ele>79</ele>
        <time>2015-03-30T12:47:21.1Z</time>
      </trkpt>
      <trkpt lat="48.6094" lon="-2.49367">
        <ele>78</ele>
        <time>2015-03-30T12:47:24.1Z</time>
      </trkpt>
      <trkpt lat="48.60939" lon="-2.49368">
        <ele>79</ele>
        <time>2015-03-30T12:47:27.1Z</time>
      </trkpt>
      <trkpt lat="48.60939" lon="-2.49368">
        <ele>78</ele>
        <time>2015-03-30T12:47:29.1Z</time>
      </trkpt>
      <trkpt lat="48.60939" lon="-2.49367">
        <ele>78</ele>
        <time>2015-03-30T12:47:32.1Z</time>
      </trkpt>
      <trkpt lat="48.60939" lon="-2.49366">
        <ele>78</ele>
        <time>2015-03-30T12:47:35.1Z</time>
      </trkpt>
      <trkpt lat="48.60939" lon="-2.49365">
        <ele>78</ele>
        <time>2015-03-30T12:47:37.1Z</time>
      </trkpt>
      <trkpt lat="48.60939" lon="-2.49365">
        <ele>79</ele>
        <time>2015-03-30T12:47:40.1Z</time>
      </trkpt>
      <trkpt lat="48.60943" lon="-2.49364">
        <ele>79</ele>
        <time>2015-03-30T12:47:43.1Z</time>
      </trkpt>
      <trkpt lat="48.60944" lon="-2.49364">
        <ele>79</ele>
        <time>2015-03-30T12:47:46.1Z</time>
      </trkpt>
      <trkpt lat="48.60943" lon="-2.49365">
        <ele>79</ele>
        <time>2015-03-30T12:47:48.1Z</time>
      </trkpt>
      <trkpt lat="48.60942" lon="-2.49364">
        <ele>79</ele>
        <time>2015-03-30T12:47:51.1Z</time>
      </trkpt>
      <trkpt lat="48.60942" lon="-2.49363">
        <ele>79</ele>
        <time>2015-03-30T12:47:53.1Z</time>
      </trkpt>
      <trkpt lat="48.60942" lon="-2.49363">
        <ele>79</ele>
        <time>2015-03-30T12:47:56.1Z</time>
      </trkpt>
      <trkpt lat="48.60942" lon="-2.49363">
        <ele>79</ele>
        <time>2015-03-30T12:47:58.1Z</time>
      </trkpt>
      <trkpt lat="48.60941" lon="-2.49363">
        <ele>79</ele>
        <time>2015-03-30T12:48:02.1Z</time>
      </trkpt>
      <trkpt lat="48.60941" lon="-2.49362">
        <ele>79</ele>
        <time>2015-03-30T12:48:04.1Z</time>
      </trkpt>
      <trkpt lat="48.60941" lon="-2.49362">
        <ele>79</ele>
        <time>2015-03-30T12:48:07.1Z</time>
      </trkpt>
      <trkpt lat="48.60941" lon="-2.49362">
        <ele>79</ele>
        <time>2015-03-30T12:48:10.1Z</time>
      </trkpt>
      <trkpt lat="48.6094" lon="-2.49362">
        <ele>79</ele>
        <time>2015-03-30T12:48:14.1Z</time>
      </trkpt>
      <trkpt lat="48.6094" lon="-2.49362">
        <ele>79</ele>
        <time>2015-03-30T12:48:18.1Z</time>
      </trkpt>
      <trkpt lat="48.6094" lon="-2.49362">
        <ele>79</ele>
        <time>2015-03-30T12:48:20.1Z</time>
      </trkpt>
      <trkpt lat="48.6094" lon="-2.49362">
        <ele>79</ele>
        <time>2015-03-30T12:48:22.1Z</time>
      </trkpt>
      <trkpt lat="48.6094" lon="-2.49361">
        <ele>79</ele>
        <time>2015-03-30T12:48:25.1Z</time>
      </trkpt>
      <trkpt lat="48.60941" lon="-2.49361">
        <ele>79</ele>
        <time>2015-03-30T12:48:28.1Z</time>
      </trkpt>
      <trkpt lat="48.60941" lon="-2.49361">
        <ele>79</ele>
        <time>2015-03-30T12:48:30.1Z</time>
      </trkpt>
      <trkpt lat="48.60941" lon="-2.49361">
        <ele>79</ele>
        <time>2015-03-30T12:48:33.1Z</time>
      </trkpt>
      <trkpt lat="48.60941" lon="-2.49361">
        <ele>79</ele>
        <time>2015-03-30T12:48:35.1Z</time>
      </trkpt>
      <trkpt lat="48.60941" lon="-2.49362">
        <ele>79</ele>
        <time>2015-03-30T12:48:37.1Z</time>
      </trkpt>
      <trkpt lat="48.60941" lon="-2.49362">
        <ele>79</ele>
        <time>2015-03-30T12:48:41.1Z</time>
      </trkpt>
      <trkpt lat="48.60941" lon="-2.49362">
        <ele>79</ele>
        <time>2015-03-30T12:48:44.1Z</time>
      </trkpt>
      <trkpt lat="48.60941" lon="-2.49362">
        <ele>78</ele>
        <time>2015-03-30T12:48:46.1Z</time>
      </trkpt>
      <trkpt lat="48.60941" lon="-2.49363">
        <ele>78</ele>
        <time>2015-03-30T12:48:49.1Z</time>
      </trkpt>
      <trkpt lat="48.60941" lon="-2.49363">
        <ele>78</ele>
        <time>2015-03-30T12:48:52.1Z</time>
      </trkpt>
      <trkpt lat="48.60941" lon="-2.49363">
        <ele>79</ele>
        <time>2015-03-30T12:48:55.1Z</time>
      </trkpt>
      <trkpt lat="48.60941" lon="-2.49363">
        <ele>79</ele>
        <time>2015-03-30T12:48:57.1Z</time>
      </trkpt>
      <trkpt lat="48.60941" lon="-2.49363">
        <ele>79</ele>
        <time>2015-03-30T12:48:59.1Z</time>
      </trkpt>
      <trkpt lat="48.6094" lon="-2.49363">
        <ele>79</ele>
        <time>2015-03-30T12:49:03.1Z</time>
      </trkpt>
      <trkpt lat="48.6094" lon="-2.49362">
        <ele>79</ele>
        <time>2015-03-30T12:49:07.1Z</time>
      </trkpt>
      <trkpt lat="48.6094" lon="-2.49362">
        <ele>79</ele>
        <time>2015-03-30T12:49:12.1Z</time>
      </trkpt>
      <trkpt lat="48.6094" lon="-2.49362">
        <ele>79</ele>
        <time>2015-03-30T12:49:15.1Z</time>
      </trkpt>
      <trkpt lat="48.60939" lon="-2.49362">
        <ele>79</ele>
        <time>2015-03-30T12:49:18.1Z</time>
      </trkpt>
      <trkpt lat="48.6094" lon="-2.49362">
        <ele>79</ele>
        <time>2015-03-30T12:49:21.1Z</time>
      </trkpt>
      <trkpt lat="48.60939" lon="-2.49362">
        <ele>79</ele>
        <time>2015-03-30T12:49:24.1Z</time>
      </trkpt>
      <trkpt lat="48.6094" lon="-2.49362">
        <ele>79</ele>
        <time>2015-03-30T12:49:27.1Z</time>
      </trkpt>
      <trkpt lat="48.60939" lon="-2.49362">
        <ele>79</ele>
        <time>2015-03-30T12:49:30.1Z</time>
      </trkpt>
      <trkpt lat="48.60939" lon="-2.49362">
        <ele>79</ele>
        <time>2015-03-30T12:49:34.1Z</time>
      </trkpt>
      <trkpt lat="48.60939" lon="-2.49362">
        <ele>79</ele>
        <time>2015-03-30T12:49:38.1Z</time>
      </trkpt>
      <trkpt lat="48.60939" lon="-2.49362">
        <ele>79</ele>
        <time>2015-03-30T12:49:43.1Z</time>
      </trkpt>
      <trkpt lat="48.60939" lon="-2.49362">
        <ele>79</ele>
        <time>2015-03-30T12:49:45.1Z</time>
      </trkpt>
      <trkpt lat="48.60939" lon="-2.49362">
        <ele>79</ele>
        <time>2015-03-30T12:49:51.1Z</time>
      </trkpt>
      <trkpt lat="48.60939" lon="-2.49363">
        <ele>79</ele>
        <time>2015-03-30T12:49:54.1Z</time>
      </trkpt>
      <trkpt lat="48.60939" lon="-2.49363">
        <ele>79</ele>
        <time>2015-03-30T12:49:58.1Z</time>
      </trkpt>
      <trkpt lat="48.60939" lon="-2.49363">
        <ele>79</ele>
        <time>2015-03-30T12:50:01.1Z</time>
      </trkpt>
      <trkpt lat="48.60938" lon="-2.49363">
        <ele>79</ele>
        <time>2015-03-30T12:50:04.1Z</time>
      </trkpt>
      <trkpt lat="48.60939" lon="-2.49363">
        <ele>79</ele>
        <time>2015-03-30T12:50:06.1Z</time>
      </trkpt>
      <trkpt lat="48.60939" lon="-2.49362">
        <ele>79</ele>
        <time>2015-03-30T12:50:10.1Z</time>
      </trkpt>
      <trkpt lat="48.60938" lon="-2.49362">
        <ele>78</ele>
        <time>2015-03-30T12:50:13.1Z</time>
      </trkpt>
      <trkpt lat="48.60939" lon="-2.49363">
        <ele>78</ele>
        <time>2015-03-30T12:50:15.1Z</time>
      </trkpt>
      <trkpt lat="48.60939" lon="-2.49363">
        <ele>78</ele>
        <time>2015-03-30T12:50:18.1Z</time>
      </trkpt>
      <trkpt lat="48.60939" lon="-2.49362">
        <ele>78</ele>
        <time>2015-03-30T12:50:20.1Z</time>
      </trkpt>
      <trkpt lat="48.60939" lon="-2.49362">
        <ele>79</ele>
        <time>2015-03-30T12:50:23.1Z</time>
      </trkpt>
      <trkpt lat="48.60939" lon="-2.49362">
        <ele>79</ele>
        <time>2015-03-30T12:50:26.1Z</time>
      </trkpt>
      <trkpt lat="48.60939" lon="-2.49362">
        <ele>79</ele>
        <time>2015-03-30T12:50:29.1Z</time>
      </trkpt>
      <trkpt lat="48.60939" lon="-2.49362">
        <ele>79</ele>
        <time>2015-03-30T12:50:31.1Z</time>
      </trkpt>
      <trkpt lat="48.60939" lon="-2.49361">
        <ele>79</ele>
        <time>2015-03-30T12:50:33.1Z</time>
      </trkpt>
      <trkpt lat="48.60938" lon="-2.49361">
        <ele>79</ele>
        <time>2015-03-30T12:50:36.1Z</time>
      </trkpt>
      <trkpt lat="48.60938" lon="-2.49361">
        <ele>79</ele>
        <time>2015-03-30T12:50:38.1Z</time>
      </trkpt>
      <trkpt lat="48.60938" lon="-2.4936">
        <ele>78</ele>
        <time>2015-03-30T12:50:42.1Z</time>
      </trkpt>
      <trkpt lat="48.60938" lon="-2.4936">
        <ele>79</ele>
        <time>2015-03-30T12:50:45.1Z</time>
      </trkpt>
      <trkpt lat="48.60938" lon="-2.4936">
        <ele>78</ele>
        <time>2015-03-30T12:50:48.1Z</time>
      </trkpt>
      <trkpt lat="48.60938" lon="-2.4936">
        <ele>78</ele>
        <time>2015-03-30T12:50:50.1Z</time>
      </trkpt>
      <trkpt lat="48.60938" lon="-2.49359">
        <ele>78</ele>
        <time>2015-03-30T12:50:53.1Z</time>
      </trkpt>
      <trkpt lat="48.60938" lon="-2.49359">
        <ele>78</ele>
        <time>2015-03-30T12:50:56.1Z</time>
      </trkpt>
      <trkpt lat="48.60938" lon="-2.49359">
        <ele>78</ele>
        <time>2015-03-30T12:50:59.1Z</time>
      </trkpt>
      <trkpt lat="48.60937" lon="-2.49359">
        <ele>78</ele>
        <time>2015-03-30T12:51:02.1Z</time>
      </trkpt>
      <trkpt lat="48.60937" lon="-2.49359">
        <ele>78</ele>
        <time>2015-03-30T12:51:06.1Z</time>
      </trkpt>
      <trkpt lat="48.60937" lon="-2.49359">
        <ele>78</ele>
        <time>2015-03-30T12:51:11.1Z</time>
      </trkpt>
      <trkpt lat="48.60937" lon="-2.49359">
        <ele>78</ele>
        <time>2015-03-30T12:51:13.1Z</time>
      </trkpt>
      <trkpt lat="48.60937" lon="-2.4936">
        <ele>78</ele>
        <time>2015-03-30T12:51:16.1Z</time>
      </trkpt>
      <trkpt lat="48.60937" lon="-2.4936">
        <ele>78</ele>
        <time>2015-03-30T12:51:19.1Z</time>
      </trkpt>
      <trkpt lat="48.60937" lon="-2.4936">
        <ele>78</ele>
        <time>2015-03-30T12:51:21.1Z</time>
      </trkpt>
      <trkpt lat="48.60937" lon="-2.49361">
        <ele>78</ele>
        <time>2015-03-30T12:51:24.1Z</time>
      </trkpt>
      <trkpt lat="48.60938" lon="-2.49361">
        <ele>78</ele>
        <time>2015-03-30T12:51:27.1Z</time>
      </trkpt>
      <trkpt lat="48.60938" lon="-2.49361">
        <ele>78</ele>
        <time>2015-03-30T12:51:30.1Z</time>
      </trkpt>
      <trkpt lat="48.60938" lon="-2.49362">
        <ele>78</ele>
        <time>2015-03-30T12:51:33.1Z</time>
      </trkpt>
      <trkpt lat="48.60938" lon="-2.49362">
        <ele>78</ele>
        <time>2015-03-30T12:51:35.1Z</time>
      </trkpt>
      <trkpt lat="48.60938" lon="-2.49362">
        <ele>78</ele>
        <time>2015-03-30T12:51:38.1Z</time>
      </trkpt>
      <trkpt lat="48.60938" lon="-2.49362">
        <ele>78</ele>
        <time>2015-03-30T12:51:42.1Z</time>
      </trkpt>
      <trkpt lat="48.60938" lon="-2.49362">
        <ele>77</ele>
        <time>2015-03-30T12:51:44.1Z</time>
      </trkpt>
      <trkpt lat="48.60937" lon="-2.49362">
        <ele>78</ele>
        <time>2015-03-30T12:51:46.1Z</time>
      </trkpt>
      <trkpt lat="48.60938" lon="-2.49362">
        <ele>77</ele>
        <time>2015-03-30T12:51:51.1Z</time>
      </trkpt>
      <trkpt lat="48.60937" lon="-2.49362">
        <ele>77</ele>
        <time>2015-03-30T12:51:54.1Z</time>
      </trkpt>
      <trkpt lat="48.60937" lon="-2.49362">
        <ele>77</ele>
        <time>2015-03-30T12:51:58.1Z</time>
      </trkpt>
      <trkpt lat="48.60937" lon="-2.49362">
        <ele>77</ele>
        <time>2015-03-30T12:52:00.1Z</time>
      </trkpt>
      <trkpt lat="48.60937" lon="-2.49362">
        <ele>77</ele>
        <time>2015-03-30T12:52:02.1Z</time>
      </trkpt>
      <trkpt lat="48.60936" lon="-2.49362">
        <ele>77</ele>
        <time>2015-03-30T12:52:06.1Z</time>
      </trkpt>
      <trkpt lat="48.60936" lon="-2.49362">
        <ele>77</ele>
        <time>2015-03-30T12:52:09.1Z</time>
      </trkpt>
      <trkpt lat="48.60936" lon="-2.49362">
        <ele>77</ele>
        <time>2015-03-30T12:52:11.1Z</time>
      </trkpt>
      <trkpt lat="48.60935" lon="-2.49362">
        <ele>77</ele>
        <time>2015-03-30T12:52:13.1Z</time>
      </trkpt>
      <trkpt lat="48.60934" lon="-2.49362">
        <ele>78</ele>
        <time>2015-03-30T12:52:16.1Z</time>
      </trkpt>
      <trkpt lat="48.60934" lon="-2.49363">
        <ele>77</ele>
        <time>2015-03-30T12:52:19.1Z</time>
      </trkpt>
      <trkpt lat="48.60933" lon="-2.49363">
        <ele>77</ele>
        <time>2015-03-30T12:52:22.1Z</time>
      </trkpt>
      <trkpt lat="48.60933" lon="-2.49363">
        <ele>77</ele>
        <time>2015-03-30T12:52:26.1Z</time>
      </trkpt>
      <trkpt lat="48.60933" lon="-2.49362">
        <ele>77</ele>
        <time>2015-03-30T12:52:28.1Z</time>
      </trkpt>
      <trkpt lat="48.60933" lon="-2.49362">
        <ele>77</ele>
        <time>2015-03-30T12:52:31.1Z</time>
      </trkpt>
      <trkpt lat="48.60933" lon="-2.49362">
        <ele>77</ele>
        <time>2015-03-30T12:52:34.1Z</time>
      </trkpt>
      <trkpt lat="48.60933" lon="-2.49362">
        <ele>77</ele>
        <time>2015-03-30T12:52:37.1Z</time>
      </trkpt>
      <trkpt lat="48.60934" lon="-2.49361">
        <ele>77</ele>
        <time>2015-03-30T12:52:40.1Z</time>
      </trkpt>
      <trkpt lat="48.60934" lon="-2.49361">
        <ele>77</ele>
        <time>2015-03-30T12:52:42.1Z</time>
      </trkpt>
      <trkpt lat="48.60934" lon="-2.49361">
        <ele>77</ele>
        <time>2015-03-30T12:52:45.1Z</time>
      </trkpt>
      <trkpt lat="48.60935" lon="-2.4936">
        <ele>77</ele>
        <time>2015-03-30T12:52:47.1Z</time>
      </trkpt>
      <trkpt lat="48.60935" lon="-2.4936">
        <ele>77</ele>
        <time>2015-03-30T12:52:50.1Z</time>
      </trkpt>
      <trkpt lat="48.60935" lon="-2.4936">
        <ele>77</ele>
        <time>2015-03-30T12:52:53.1Z</time>
      </trkpt>
      <trkpt lat="48.60936" lon="-2.49359">
        <ele>77</ele>
        <time>2015-03-30T12:52:55.1Z</time>
      </trkpt>
      <trkpt lat="48.60936" lon="-2.49359">
        <ele>77</ele>
        <time>2015-03-30T12:52:58.1Z</time>
      </trkpt>
      <trkpt lat="48.60936" lon="-2.49359">
        <ele>77</ele>
        <time>2015-03-30T12:53:00.1Z</time>
      </trkpt>
      <trkpt lat="48.60936" lon="-2.49359">
        <ele>77</ele>
        <time>2015-03-30T12:53:03.1Z</time>
      </trkpt>
      <trkpt lat="48.60936" lon="-2.49358">
        <ele>77</ele>
        <time>2015-03-30T12:53:06.1Z</time>
      </trkpt>
      <trkpt lat="48.60936" lon="-2.49358">
        <ele>77</ele>
        <time>2015-03-30T12:53:09.1Z</time>
      </trkpt>
      <trkpt lat="48.60936" lon="-2.49357">
        <ele>77</ele>
        <time>2015-03-30T12:53:11.1Z</time>
      </trkpt>
      <trkpt lat="48.60935" lon="-2.49356">
        <ele>77</ele>
        <time>2015-03-30T12:53:13.1Z</time>
      </trkpt>
      <trkpt lat="48.60934" lon="-2.49355">
        <ele>77</ele>
        <time>2015-03-30T12:53:16.1Z</time>
      </trkpt>
      <trkpt lat="48.60933" lon="-2.49355">
        <ele>77</ele>
        <time>2015-03-30T12:53:19.1Z</time>
      </trkpt>
      <trkpt lat="48.60932" lon="-2.49355">
        <ele>78</ele>
        <time>2015-03-30T12:53:22.1Z</time>
      </trkpt>
      <trkpt lat="48.60931" lon="-2.49355">
        <ele>77</ele>
        <time>2015-03-30T12:53:25.1Z</time>
      </trkpt>
      <trkpt lat="48.6093" lon="-2.49354">
        <ele>78</ele>
        <time>2015-03-30T12:53:28.1Z</time>
      </trkpt>
      <trkpt lat="48.60929" lon="-2.49354">
        <ele>78</ele>
        <time>2015-03-30T12:53:30.1Z</time>
      </trkpt>
      <trkpt lat="48.60928" lon="-2.49352">
        <ele>78</ele>
        <time>2015-03-30T12:53:33.1Z</time>
      </trkpt>
      <trkpt lat="48.60928" lon="-2.49352">
        <ele>77</ele>
        <time>2015-03-30T12:53:36.1Z</time>
      </trkpt>
      <trkpt lat="48.60928" lon="-2.49353">
        <ele>77</ele>
        <time>2015-03-30T12:53:39.1Z</time>
      </trkpt>
      <trkpt lat="48.60928" lon="-2.49352">
        <ele>77</ele>
        <time>2015-03-30T12:53:42.1Z</time>
      </trkpt>
      <trkpt lat="48.60926" lon="-2.49351">
        <ele>78</ele>
        <time>2015-03-30T12:53:45.1Z</time>
      </trkpt>
      <trkpt lat="48.60925" lon="-2.49349">
        <ele>78</ele>
        <time>2015-03-30T12:53:47.1Z</time>
      </trkpt>
      <trkpt lat="48.60923" lon="-2.49347">
        <ele>78</ele>
        <time>2015-03-30T12:53:50.1Z</time>
      </trkpt>
      <trkpt lat="48.60922" lon="-2.49346">
        <ele>78</ele>
        <time>2015-03-30T12:53:52.1Z</time>
      </trkpt>
      <trkpt lat="48.6092" lon="-2.49346">
        <ele>78</ele>
        <time>2015-03-30T12:53:54.1Z</time>
      </trkpt>
      <trkpt lat="48.60918" lon="-2.49345">
        <ele>77</ele>
        <time>2015-03-30T12:53:56.1Z</time>
      </trkpt>
      <trkpt lat="48.60915" lon="-2.49344">
        <ele>78</ele>
        <time>2015-03-30T12:53:59.1Z</time>
      </trkpt>
      <trkpt lat="48.60913" lon="-2.49344">
        <ele>78</ele>
        <time>2015-03-30T12:54:01.1Z</time>
      </trkpt>
      <trkpt lat="48.60911" lon="-2.49343">
        <ele>78</ele>
        <time>2015-03-30T12:54:03.1Z</time>
      </trkpt>
      <trkpt lat="48.60909" lon="-2.49342">
        <ele>78</ele>
        <time>2015-03-30T12:54:05.1Z</time>
      </trkpt>
      <trkpt lat="48.60906" lon="-2.49342">
        <ele>78</ele>
        <time>2015-03-30T12:54:08.1Z</time>
      </trkpt>
      <trkpt lat="48.60904" lon="-2.4934">
        <ele>78</ele>
        <time>2015-03-30T12:54:11.1Z</time>
      </trkpt>
      <trkpt lat="48.60902" lon="-2.49339">
        <ele>78</ele>
        <time>2015-03-30T12:54:13.1Z</time>
      </trkpt>
      <trkpt lat="48.609" lon="-2.49338">
        <ele>78</ele>
        <time>2015-03-30T12:54:15.1Z</time>
      </trkpt>
      <trkpt lat="48.60897" lon="-2.49337">
        <ele>78</ele>
        <time>2015-03-30T12:54:18.1Z</time>
      </trkpt>
      <trkpt lat="48.60895" lon="-2.49336">
        <ele>78</ele>
        <time>2015-03-30T12:54:20.1Z</time>
      </trkpt>
      <trkpt lat="48.60891" lon="-2.49336">
        <ele>78</ele>
        <time>2015-03-30T12:54:23.1Z</time>
      </trkpt>
      <trkpt lat="48.60889" lon="-2.49336">
        <ele>78</ele>
        <time>2015-03-30T12:54:25.1Z</time>
      </trkpt>
      <trkpt lat="48.60886" lon="-2.49335">
        <ele>78</ele>
        <time>2015-03-30T12:54:28.1Z</time>
      </trkpt>
      <trkpt lat="48.60884" lon="-2.49335">
        <ele>78</ele>
        <time>2015-03-30T12:54:30.1Z</time>
      </trkpt>
      <trkpt lat="48.60882" lon="-2.49334">
        <ele>78</ele>
        <time>2015-03-30T12:54:33.1Z</time>
      </trkpt>
      <trkpt lat="48.6088" lon="-2.49334">
        <ele>79</ele>
        <time>2015-03-30T12:54:35.1Z</time>
      </trkpt>
      <trkpt lat="48.60878" lon="-2.49334">
        <ele>79</ele>
        <time>2015-03-30T12:54:37.1Z</time>
      </trkpt>
      <trkpt lat="48.60875" lon="-2.49332">
        <ele>79</ele>
        <time>2015-03-30T12:54:40.1Z</time>
      </trkpt>
      <trkpt lat="48.60872" lon="-2.49332">
        <ele>79</ele>
        <time>2015-03-30T12:54:42.1Z</time>
      </trkpt>
      <trkpt lat="48.6087" lon="-2.49332">
        <ele>79</ele>
        <time>2015-03-30T12:54:44.1Z</time>
      </trkpt>
      <trkpt lat="48.60867" lon="-2.49331">
        <ele>79</ele>
        <time>2015-03-30T12:54:47.1Z</time>
      </trkpt>
      <trkpt lat="48.60863" lon="-2.49331">
        <ele>79</ele>
        <time>2015-03-30T12:54:50.1Z</time>
      </trkpt>
      <trkpt lat="48.6086" lon="-2.4933">
        <ele>79</ele>
        <time>2015-03-30T12:54:52.1Z</time>
      </trkpt>
      <trkpt lat="48.60857" lon="-2.49329">
        <ele>79</ele>
        <time>2015-03-30T12:54:55.1Z</time>
      </trkpt>
      <trkpt lat="48.60855" lon="-2.49327">
        <ele>79</ele>
        <time>2015-03-30T12:54:57.1Z</time>
      </trkpt>
      <trkpt lat="48.60852" lon="-2.49326">
        <ele>79</ele>
        <time>2015-03-30T12:54:59.1Z</time>
      </trkpt>
      <trkpt lat="48.6085" lon="-2.49325">
        <ele>79</ele>
        <time>2015-03-30T12:55:01.1Z</time>
      </trkpt>
      <trkpt lat="48.60846" lon="-2.49324">
        <ele>79</ele>
        <time>2015-03-30T12:55:04.1Z</time>
      </trkpt>
      <trkpt lat="48.60844" lon="-2.49324">
        <ele>79</ele>
        <time>2015-03-30T12:55:06.1Z</time>
      </trkpt>
      <trkpt lat="48.60842" lon="-2.49323">
        <ele>80</ele>
        <time>2015-03-30T12:55:08.1Z</time>
      </trkpt>
      <trkpt lat="48.60839" lon="-2.49322">
        <ele>80</ele>
        <time>2015-03-30T12:55:11.1Z</time>
      </trkpt>
      <trkpt lat="48.60837" lon="-2.49321">
        <ele>80</ele>
        <time>2015-03-30T12:55:13.1Z</time>
      </trkpt>
      <trkpt lat="48.60834" lon="-2.4932">
        <ele>80</ele>
        <time>2015-03-30T12:55:16.1Z</time>
      </trkpt>
      <trkpt lat="48.60831" lon="-2.49319">
        <ele>80</ele>
        <time>2015-03-30T12:55:18.1Z</time>
      </trkpt>
      <trkpt lat="48.60828" lon="-2.49318">
        <ele>80</ele>
        <time>2015-03-30T12:55:21.1Z</time>
      </trkpt>
      <trkpt lat="48.60825" lon="-2.49317">
        <ele>80</ele>
        <time>2015-03-30T12:55:24.1Z</time>
      </trkpt>
      <trkpt lat="48.60823" lon="-2.49316">
        <ele>80</ele>
        <time>2015-03-30T12:55:26.1Z</time>
      </trkpt>
      <trkpt lat="48.60819" lon="-2.49315">
        <ele>80</ele>
        <time>2015-03-30T12:55:29.1Z</time>
      </trkpt>
      <trkpt lat="48.60817" lon="-2.49314">
        <ele>81</ele>
        <time>2015-03-30T12:55:31.1Z</time>
      </trkpt>
      <trkpt lat="48.60813" lon="-2.49313">
        <ele>81</ele>
        <time>2015-03-30T12:55:34.1Z</time>
      </trkpt>
      <trkpt lat="48.60809" lon="-2.49312">
        <ele>81</ele>
        <time>2015-03-30T12:55:37.1Z</time>
      </trkpt>
      <trkpt lat="48.60808" lon="-2.49313">
        <ele>81</ele>
        <time>2015-03-30T12:55:39.1Z</time>
      </trkpt>
      <trkpt lat="48.60806" lon="-2.49313">
        <ele>81</ele>
        <time>2015-03-30T12:55:41.1Z</time>
      </trkpt>
      <trkpt lat="48.60803" lon="-2.49313">
        <ele>81</ele>
        <time>2015-03-30T12:55:44.1Z</time>
      </trkpt>
      <trkpt lat="48.608" lon="-2.49313">
        <ele>82</ele>
        <time>2015-03-30T12:55:47.1Z</time>
      </trkpt>
      <trkpt lat="48.60798" lon="-2.49313">
        <ele>82</ele>
        <time>2015-03-30T12:55:49.1Z</time>
      </trkpt>
      <trkpt lat="48.60796" lon="-2.49314">
        <ele>82</ele>
        <time>2015-03-30T12:55:51.1Z</time>
      </trkpt>
      <trkpt lat="48.60793" lon="-2.49313">
        <ele>82</ele>
        <time>2015-03-30T12:55:53.1Z</time>
      </trkpt>
      <trkpt lat="48.6079" lon="-2.49314">
        <ele>82</ele>
        <time>2015-03-30T12:55:55.1Z</time>
      </trkpt>
      <trkpt lat="48.60788" lon="-2.49314">
        <ele>82</ele>
        <time>2015-03-30T12:55:57.1Z</time>
      </trkpt>
      <trkpt lat="48.60786" lon="-2.49315">
        <ele>82</ele>
        <time>2015-03-30T12:55:59.1Z</time>
      </trkpt>
      <trkpt lat="48.60782" lon="-2.49315">
        <ele>82</ele>
        <time>2015-03-30T12:56:02.1Z</time>
      </trkpt>
      <trkpt lat="48.6078" lon="-2.49315">
        <ele>83</ele>
        <time>2015-03-30T12:56:04.1Z</time>
      </trkpt>
      <trkpt lat="48.60778" lon="-2.49316">
        <ele>83</ele>
        <time>2015-03-30T12:56:06.1Z</time>
      </trkpt>
      <trkpt lat="48.60776" lon="-2.49317">
        <ele>83</ele>
        <time>2015-03-30T12:56:08.1Z</time>
      </trkpt>
      <trkpt lat="48.60773" lon="-2.49318">
        <ele>82</ele>
        <time>2015-03-30T12:56:11.1Z</time>
      </trkpt>
      <trkpt lat="48.6077" lon="-2.49318">
        <ele>83</ele>
        <time>2015-03-30T12:56:14.1Z</time>
      </trkpt>
      <trkpt lat="48.60768" lon="-2.49317">
        <ele>83</ele>
        <time>2015-03-30T12:56:16.1Z</time>
      </trkpt>
      <trkpt lat="48.60765" lon="-2.49317">
        <ele>83</ele>
        <time>2015-03-30T12:56:19.1Z</time>
      </trkpt>
      <trkpt lat="48.60762" lon="-2.49319">
        <ele>83</ele>
        <time>2015-03-30T12:56:22.1Z</time>
      </trkpt>
      <trkpt lat="48.60758" lon="-2.49319">
        <ele>83</ele>
        <time>2015-03-30T12:56:25.1Z</time>
      </trkpt>
      <trkpt lat="48.60756" lon="-2.49319">
        <ele>83</ele>
        <time>2015-03-30T12:56:27.1Z</time>
      </trkpt>
      <trkpt lat="48.60751" lon="-2.4932">
        <ele>83</ele>
        <time>2015-03-30T12:56:30.1Z</time>
      </trkpt>
      <trkpt lat="48.60749" lon="-2.4932">
        <ele>84</ele>
        <time>2015-03-30T12:56:32.1Z</time>
      </trkpt>
      <trkpt lat="48.60745" lon="-2.49321">
        <ele>84</ele>
        <time>2015-03-30T12:56:35.1Z</time>
      </trkpt>
      <trkpt lat="48.60741" lon="-2.49322">
        <ele>84</ele>
        <time>2015-03-30T12:56:38.1Z</time>
      </trkpt>
      <trkpt lat="48.60739" lon="-2.49322">
        <ele>84</ele>
        <time>2015-03-30T12:56:40.1Z</time>
      </trkpt>
      <trkpt lat="48.60735" lon="-2.49323">
        <ele>84</ele>
        <time>2015-03-30T12:56:43.1Z</time>
      </trkpt>
      <trkpt lat="48.60732" lon="-2.49323">
        <ele>84</ele>
        <time>2015-03-30T12:56:46.1Z</time>
      </trkpt>
      <trkpt lat="48.60728" lon="-2.49325">
        <ele>84</ele>
        <time>2015-03-30T12:56:49.1Z</time>
      </trkpt>
      <trkpt lat="48.60726" lon="-2.49325">
        <ele>84</ele>
        <time>2015-03-30T12:56:51.1Z</time>
      </trkpt>
      <trkpt lat="48.60723" lon="-2.49325">
        <ele>84</ele>
        <time>2015-03-30T12:56:53.1Z</time>
      </trkpt>
      <trkpt lat="48.60719" lon="-2.49324">
        <ele>85</ele>
        <time>2015-03-30T12:56:56.1Z</time>
      </trkpt>
      <trkpt lat="48.60717" lon="-2.49324">
        <ele>85</ele>
        <time>2015-03-30T12:56:58.1Z</time>
      </trkpt>
      <trkpt lat="48.60714" lon="-2.49324">
        <ele>86</ele>
        <time>2015-03-30T12:57:00.1Z</time>
      </trkpt>
      <trkpt lat="48.60711" lon="-2.49324">
        <ele>86</ele>
        <time>2015-03-30T12:57:03.1Z</time>
      </trkpt>
      <trkpt lat="48.60708" lon="-2.49324">
        <ele>86</ele>
        <time>2015-03-30T12:57:05.1Z</time>
      </trkpt>
      <trkpt lat="48.60704" lon="-2.49324">
        <ele>85</ele>
        <time>2015-03-30T12:57:08.1Z</time>
      </trkpt>
      <trkpt lat="48.60702" lon="-2.49324">
        <ele>85</ele>
        <time>2015-03-30T12:57:10.1Z</time>
      </trkpt>
      <trkpt lat="48.60699" lon="-2.49323">
        <ele>86</ele>
        <time>2015-03-30T12:57:13.1Z</time>
      </trkpt>
      <trkpt lat="48.60695" lon="-2.49323">
        <ele>86</ele>
        <time>2015-03-30T12:57:16.1Z</time>
      </trkpt>
      <trkpt lat="48.60693" lon="-2.49322">
        <ele>86</ele>
        <time>2015-03-30T12:57:18.1Z</time>
      </trkpt>
      <trkpt lat="48.6069" lon="-2.49322">
        <ele>87</ele>
        <time>2015-03-30T12:57:20.1Z</time>
      </trkpt>
      <trkpt lat="48.60686" lon="-2.49321">
        <ele>87</ele>
        <time>2015-03-30T12:57:23.1Z</time>
      </trkpt>
      <trkpt lat="48.60682" lon="-2.4932">
        <ele>87</ele>
        <time>2015-03-30T12:57:26.1Z</time>
      </trkpt>
      <trkpt lat="48.6068" lon="-2.49319">
        <ele>87</ele>
        <time>2015-03-30T12:57:28.1Z</time>
      </trkpt>
      <trkpt lat="48.60677" lon="-2.49318">
        <ele>88</ele>
        <time>2015-03-30T12:57:30.1Z</time>
      </trkpt>
      <trkpt lat="48.60674" lon="-2.49317">
        <ele>88</ele>
        <time>2015-03-30T12:57:33.1Z</time>
      </trkpt>
      <trkpt lat="48.60672" lon="-2.49316">
        <ele>88</ele>
        <time>2015-03-30T12:57:35.1Z</time>
      </trkpt>
      <trkpt lat="48.6067" lon="-2.49314">
        <ele>88</ele>
        <time>2015-03-30T12:57:37.1Z</time>
      </trkpt>
      <trkpt lat="48.60668" lon="-2.49312">
        <ele>88</ele>
        <time>2015-03-30T12:57:39.1Z</time>
      </trkpt>
      <trkpt lat="48.60666" lon="-2.4931">
        <ele>88</ele>
        <time>2015-03-30T12:57:41.1Z</time>
      </trkpt>
      <trkpt lat="48.60663" lon="-2.49307">
        <ele>89</ele>
        <time>2015-03-30T12:57:44.1Z</time>
      </trkpt>
      <trkpt lat="48.60661" lon="-2.49305">
        <ele>88</ele>
        <time>2015-03-30T12:57:46.1Z</time>
      </trkpt>
      <trkpt lat="48.60659" lon="-2.49303">
        <ele>89</ele>
        <time>2015-03-30T12:57:48.1Z</time>
      </trkpt>
      <trkpt lat="48.60656" lon="-2.493">
        <ele>89</ele>
        <time>2015-03-30T12:57:51.1Z</time>
      </trkpt>
      <trkpt lat="48.60654" lon="-2.49298">
        <ele>89</ele>
        <time>2015-03-30T12:57:53.1Z</time>
      </trkpt>
      <trkpt lat="48.60651" lon="-2.49294">
        <ele>90</ele>
        <time>2015-03-30T12:57:56.1Z</time>
      </trkpt>
      <trkpt lat="48.60649" lon="-2.49291">
        <ele>90</ele>
        <time>2015-03-30T12:57:58.1Z</time>
      </trkpt>
      <trkpt lat="48.60646" lon="-2.49288">
        <ele>90</ele>
        <time>2015-03-30T12:58:01.1Z</time>
      </trkpt>
      <trkpt lat="48.60643" lon="-2.49285">
        <ele>90</ele>
        <time>2015-03-30T12:58:04.1Z</time>
      </trkpt>
      <trkpt lat="48.60641" lon="-2.49283">
        <ele>91</ele>
        <time>2015-03-30T12:58:06.1Z</time>
      </trkpt>
      <trkpt lat="48.60639" lon="-2.4928">
        <ele>91</ele>
        <time>2015-03-30T12:58:09.1Z</time>
      </trkpt>
      <trkpt lat="48.60637" lon="-2.49277">
        <ele>91</ele>
        <time>2015-03-30T12:58:11.1Z</time>
      </trkpt>
      <trkpt lat="48.60634" lon="-2.49273">
        <ele>91</ele>
        <time>2015-03-30T12:58:14.1Z</time>
      </trkpt>
      <trkpt lat="48.60633" lon="-2.49271">
        <ele>92</ele>
        <time>2015-03-30T12:58:16.1Z</time>
      </trkpt>
      <trkpt lat="48.6063" lon="-2.49268">
        <ele>92</ele>
        <time>2015-03-30T12:58:19.1Z</time>
      </trkpt>
      <trkpt lat="48.60628" lon="-2.49266">
        <ele>92</ele>
        <time>2015-03-30T12:58:21.1Z</time>
      </trkpt>
      <trkpt lat="48.60626" lon="-2.49263">
        <ele>92</ele>
        <time>2015-03-30T12:58:24.1Z</time>
      </trkpt>
      <trkpt lat="48.60623" lon="-2.49261">
        <ele>92</ele>
        <time>2015-03-30T12:58:27.1Z</time>
      </trkpt>
      <trkpt lat="48.60621" lon="-2.49259">
        <ele>93</ele>
        <time>2015-03-30T12:58:29.1Z</time>
      </trkpt>
      <trkpt lat="48.6062" lon="-2.49258">
        <ele>93</ele>
        <time>2015-03-30T12:58:31.1Z</time>
      </trkpt>
      <trkpt lat="48.60618" lon="-2.49256">
        <ele>93</ele>
        <time>2015-03-30T12:58:33.1Z</time>
      </trkpt>
      <trkpt lat="48.60616" lon="-2.49255">
        <ele>93</ele>
        <time>2015-03-30T12:58:36.1Z</time>
      </trkpt>
      <trkpt lat="48.60614" lon="-2.49254">
        <ele>94</ele>
        <time>2015-03-30T12:58:39.1Z</time>
      </trkpt>
      <trkpt lat="48.60612" lon="-2.49253">
        <ele>94</ele>
        <time>2015-03-30T12:58:41.1Z</time>
      </trkpt>
      <trkpt lat="48.60609" lon="-2.49252">
        <ele>94</ele>
        <time>2015-03-30T12:58:44.1Z</time>
      </trkpt>
      <trkpt lat="48.60607" lon="-2.49251">
        <ele>95</ele>
        <time>2015-03-30T12:58:47.1Z</time>
      </trkpt>
      <trkpt lat="48.60604" lon="-2.49248">
        <ele>95</ele>
        <time>2015-03-30T12:58:50.1Z</time>
      </trkpt>
      <trkpt lat="48.60602" lon="-2.49247">
        <ele>95</ele>
        <time>2015-03-30T12:58:52.1Z</time>
      </trkpt>
      <trkpt lat="48.60599" lon="-2.49246">
        <ele>96</ele>
        <time>2015-03-30T12:58:55.1Z</time>
      </trkpt>
      <trkpt lat="48.60597" lon="-2.49245">
        <ele>96</ele>
        <time>2015-03-30T12:58:58.1Z</time>
      </trkpt>
      <trkpt lat="48.60596" lon="-2.49246">
        <ele>96</ele>
        <time>2015-03-30T12:59:00.1Z</time>
      </trkpt>
      <trkpt lat="48.60596" lon="-2.49247">
        <ele>96</ele>
        <time>2015-03-30T12:59:02.1Z</time>
      </trkpt>
      <trkpt lat="48.60596" lon="-2.49248">
        <ele>96</ele>
        <time>2015-03-30T12:59:04.1Z</time>
      </trkpt>
      <trkpt lat="48.60595" lon="-2.49249">
        <ele>96</ele>
        <time>2015-03-30T12:59:06.1Z</time>
      </trkpt>
      <trkpt lat="48.60595" lon="-2.49251">
        <ele>96</ele>
        <time>2015-03-30T12:59:09.1Z</time>
      </trkpt>
      <trkpt lat="48.60593" lon="-2.49251">
        <ele>96</ele>
        <time>2015-03-30T12:59:12.1Z</time>
      </trkpt>
      <trkpt lat="48.60592" lon="-2.49251">
        <ele>96</ele>
        <time>2015-03-30T12:59:14.1Z</time>
      </trkpt>
      <trkpt lat="48.6059" lon="-2.4925">
        <ele>96</ele>
        <time>2015-03-30T12:59:16.1Z</time>
      </trkpt>
      <trkpt lat="48.60588" lon="-2.49249">
        <ele>97</ele>
        <time>2015-03-30T12:59:18.1Z</time>
      </trkpt>
      <trkpt lat="48.60586" lon="-2.49248">
        <ele>97</ele>
        <time>2015-03-30T12:59:20.1Z</time>
      </trkpt>
      <trkpt lat="48.60583" lon="-2.49247">
        <ele>97</ele>
        <time>2015-03-30T12:59:23.1Z</time>
      </trkpt>
      <trkpt lat="48.6058" lon="-2.49246">
        <ele>98</ele>
        <time>2015-03-30T12:59:26.1Z</time>
      </trkpt>
      <trkpt lat="48.60577" lon="-2.49244">
        <ele>98</ele>
        <time>2015-03-30T12:59:29.1Z</time>
      </trkpt>
      <trkpt lat="48.60574" lon="-2.49242">
        <ele>98</ele>
        <time>2015-03-30T12:59:32.1Z</time>
      </trkpt>
      <trkpt lat="48.60572" lon="-2.49242">
        <ele>98</ele>
        <time>2015-03-30T12:59:34.1Z</time>
      </trkpt>
      <trkpt lat="48.60569" lon="-2.4924">
        <ele>99</ele>
        <time>2015-03-30T12:59:37.1Z</time>
      </trkpt>
      <trkpt lat="48.60567" lon="-2.49239">
        <ele>99</ele>
        <time>2015-03-30T12:59:39.1Z</time>
      </trkpt>
      <trkpt lat="48.60563" lon="-2.49238">
        <ele>99</ele>
        <time>2015-03-30T12:59:42.1Z</time>
      </trkpt>
      <trkpt lat="48.6056" lon="-2.49238">
        <ele>99</ele>
        <time>2015-03-30T12:59:44.1Z</time>
      </trkpt>
      <trkpt lat="48.60556" lon="-2.49238">
        <ele>99</ele>
        <time>2015-03-30T12:59:46.1Z</time>
      </trkpt>
      <trkpt lat="48.60552" lon="-2.49238">
        <ele>100</ele>
        <time>2015-03-30T12:59:49.1Z</time>
      </trkpt>
      <trkpt lat="48.60548" lon="-2.49238">
        <ele>100</ele>
        <time>2015-03-30T12:59:52.1Z</time>
      </trkpt>
      <trkpt lat="48.60545" lon="-2.49238">
        <ele>100</ele>
        <time>2015-03-30T12:59:55.1Z</time>
      </trkpt>
      <trkpt lat="48.60542" lon="-2.49237">
        <ele>100</ele>
        <time>2015-03-30T12:59:57.1Z</time>
      </trkpt>
      <trkpt lat="48.60537" lon="-2.49236">
        <ele>101</ele>
        <time>2015-03-30T13:00:00.1Z</time>
      </trkpt>
      <trkpt lat="48.60534" lon="-2.49236">
        <ele>102</ele>
        <time>2015-03-30T13:00:03.1Z</time>
      </trkpt>
      <trkpt lat="48.60532" lon="-2.49236">
        <ele>102</ele>
        <time>2015-03-30T13:00:05.1Z</time>
      </trkpt>
      <trkpt lat="48.60528" lon="-2.49235">
        <ele>102</ele>
        <time>2015-03-30T13:00:08.1Z</time>
      </trkpt>
      <trkpt lat="48.60526" lon="-2.49235">
        <ele>102</ele>
        <time>2015-03-30T13:00:10.1Z</time>
      </trkpt>
      <trkpt lat="48.60522" lon="-2.49234">
        <ele>102</ele>
        <time>2015-03-30T13:00:13.1Z</time>
      </trkpt>
      <trkpt lat="48.6052" lon="-2.49234">
        <ele>103</ele>
        <time>2015-03-30T13:00:15.1Z</time>
      </trkpt>
      <trkpt lat="48.60516" lon="-2.49234">
        <ele>103</ele>
        <time>2015-03-30T13:00:18.1Z</time>
      </trkpt>
      <trkpt lat="48.60513" lon="-2.49234">
        <ele>103</ele>
        <time>2015-03-30T13:00:21.1Z</time>
      </trkpt>
      <trkpt lat="48.6051" lon="-2.49234">
        <ele>103</ele>
        <time>2015-03-30T13:00:23.1Z</time>
      </trkpt>
      <trkpt lat="48.60507" lon="-2.49234">
        <ele>104</ele>
        <time>2015-03-30T13:00:25.1Z</time>
      </trkpt>
      <trkpt lat="48.60503" lon="-2.49233">
        <ele>104</ele>
        <time>2015-03-30T13:00:28.1Z</time>
      </trkpt>
      <trkpt lat="48.60501" lon="-2.49233">
        <ele>104</ele>
        <time>2015-03-30T13:00:30.1Z</time>
      </trkpt>
      <trkpt lat="48.605" lon="-2.49232">
        <ele>104</ele>
        <time>2015-03-30T13:00:32.1Z</time>
      </trkpt>
      <trkpt lat="48.60498" lon="-2.49231">
        <ele>104</ele>
        <time>2015-03-30T13:00:34.1Z</time>
      </trkpt>
      <trkpt lat="48.60495" lon="-2.49229">
        <ele>105</ele>
        <time>2015-03-30T13:00:37.1Z</time>
      </trkpt>
      <trkpt lat="48.60493" lon="-2.49227">
        <ele>105</ele>
        <time>2015-03-30T13:00:39.1Z</time>
      </trkpt>
      <trkpt lat="48.6049" lon="-2.49226">
        <ele>105</ele>
        <time>2015-03-30T13:00:42.1Z</time>
      </trkpt>
      <trkpt lat="48.60487" lon="-2.49224">
        <ele>105</ele>
        <time>2015-03-30T13:00:44.1Z</time>
      </trkpt>
      <trkpt lat="48.60484" lon="-2.49221">
        <ele>105</ele>
        <time>2015-03-30T13:00:47.1Z</time>
      </trkpt>
      <trkpt lat="48.60481" lon="-2.49218">
        <ele>106</ele>
        <time>2015-03-30T13:00:50.1Z</time>
      </trkpt>
      <trkpt lat="48.60478" lon="-2.49214">
        <ele>106</ele>
        <time>2015-03-30T13:00:53.1Z</time>
      </trkpt>
      <trkpt lat="48.60476" lon="-2.49212">
        <ele>106</ele>
        <time>2015-03-30T13:00:55.1Z</time>
      </trkpt>
      <trkpt lat="48.60473" lon="-2.49207">
        <ele>106</ele>
        <time>2015-03-30T13:00:58.1Z</time>
      </trkpt>
      <trkpt lat="48.60471" lon="-2.49204">
        <ele>106</ele>
        <time>2015-03-30T13:01:00.1Z</time>
      </trkpt>
      <trkpt lat="48.6047" lon="-2.49202">
        <ele>107</ele>
        <time>2015-03-30T13:01:02.1Z</time>
      </trkpt>
      <trkpt lat="48.60468" lon="-2.49198">
        <ele>107</ele>
        <time>2015-03-30T13:01:05.1Z</time>
      </trkpt>
      <trkpt lat="48.60466" lon="-2.49195">
        <ele>107</ele>
        <time>2015-03-30T13:01:07.1Z</time>
      </trkpt>
      <trkpt lat="48.60464" lon="-2.49191">
        <ele>107</ele>
        <time>2015-03-30T13:01:09.1Z</time>
      </trkpt>
      <trkpt lat="48.60463" lon="-2.49186">
        <ele>107</ele>
        <time>2015-03-30T13:01:12.1Z</time>
      </trkpt>
      <trkpt lat="48.60461" lon="-2.49183">
        <ele>108</ele>
        <time>2015-03-30T13:01:14.1Z</time>
      </trkpt>
      <trkpt lat="48.60459" lon="-2.49181">
        <ele>108</ele>
        <time>2015-03-30T13:01:16.1Z</time>
      </trkpt>
      <trkpt lat="48.60458" lon="-2.49178">
        <ele>108</ele>
        <time>2015-03-30T13:01:18.1Z</time>
      </trkpt>
      <trkpt lat="48.60455" lon="-2.49173">
        <ele>108</ele>
        <time>2015-03-30T13:01:21.1Z</time>
      </trkpt>
      <trkpt lat="48.60453" lon="-2.49169">
        <ele>108</ele>
        <time>2015-03-30T13:01:24.1Z</time>
      </trkpt>
      <trkpt lat="48.6045" lon="-2.49166">
        <ele>108</ele>
        <time>2015-03-30T13:01:27.1Z</time>
      </trkpt>
      <trkpt lat="48.60448" lon="-2.49162">
        <ele>109</ele>
        <time>2015-03-30T13:01:30.1Z</time>
      </trkpt>
      <trkpt lat="48.60445" lon="-2.49158">
        <ele>109</ele>
        <time>2015-03-30T13:01:33.1Z</time>
      </trkpt>
      <trkpt lat="48.60443" lon="-2.49155">
        <ele>109</ele>
        <time>2015-03-30T13:01:35.1Z</time>
      </trkpt>
      <trkpt lat="48.6044" lon="-2.49152">
        <ele>109</ele>
        <time>2015-03-30T13:01:38.1Z</time>
      </trkpt>
      <trkpt lat="48.60437" lon="-2.4915">
        <ele>109</ele>
        <time>2015-03-30T13:01:40.1Z</time>
      </trkpt>
      <trkpt lat="48.60434" lon="-2.49147">
        <ele>109</ele>
        <time>2015-03-30T13:01:43.1Z</time>
      </trkpt>
      <trkpt lat="48.60431" lon="-2.49146">
        <ele>109</ele>
        <time>2015-03-30T13:01:45.1Z</time>
      </trkpt>
      <trkpt lat="48.60427" lon="-2.49143">
        <ele>110</ele>
        <time>2015-03-30T13:01:48.1Z</time>
      </trkpt>
      <trkpt lat="48.60424" lon="-2.49141">
        <ele>110</ele>
        <time>2015-03-30T13:01:50.1Z</time>
      </trkpt>
      <trkpt lat="48.60421" lon="-2.49138">
        <ele>110</ele>
        <time>2015-03-30T13:01:53.1Z</time>
      </trkpt>
      <trkpt lat="48.60418" lon="-2.49135">
        <ele>111</ele>
        <time>2015-03-30T13:01:56.1Z</time>
      </trkpt>
      <trkpt lat="48.60416" lon="-2.49132">
        <ele>111</ele>
        <time>2015-03-30T13:01:59.1Z</time>
      </trkpt>
      <trkpt lat="48.60413" lon="-2.49129">
        <ele>111</ele>
        <time>2015-03-30T13:02:02.1Z</time>
      </trkpt>
      <trkpt lat="48.60409" lon="-2.49127">
        <ele>111</ele>
        <time>2015-03-30T13:02:05.1Z</time>
      </trkpt>
      <trkpt lat="48.60407" lon="-2.49125">
        <ele>111</ele>
        <time>2015-03-30T13:02:07.1Z</time>
      </trkpt>
      <trkpt lat="48.60405" lon="-2.49123">
        <ele>111</ele>
        <time>2015-03-30T13:02:09.1Z</time>
      </trkpt>
      <trkpt lat="48.60402" lon="-2.49121">
        <ele>112</ele>
        <time>2015-03-30T13:02:12.1Z</time>
      </trkpt>
      <trkpt lat="48.60398" lon="-2.4912">
        <ele>112</ele>
        <time>2015-03-30T13:02:15.1Z</time>
      </trkpt>
      <trkpt lat="48.60396" lon="-2.49119">
        <ele>112</ele>
        <time>2015-03-30T13:02:17.1Z</time>
      </trkpt>
      <trkpt lat="48.60394" lon="-2.49117">
        <ele>112</ele>
        <time>2015-03-30T13:02:19.1Z</time>
      </trkpt>
      <trkpt lat="48.60392" lon="-2.49116">
        <ele>112</ele>
        <time>2015-03-30T13:02:22.1Z</time>
      </trkpt>
      <trkpt lat="48.60389" lon="-2.49115">
        <ele>112</ele>
        <time>2015-03-30T13:02:24.1Z</time>
      </trkpt>
      <trkpt lat="48.60387" lon="-2.49113">
        <ele>113</ele>
        <time>2015-03-30T13:02:27.1Z</time>
      </trkpt>
      <trkpt lat="48.60384" lon="-2.49111">
        <ele>113</ele>
        <time>2015-03-30T13:02:30.1Z</time>
      </trkpt>
      <trkpt lat="48.60382" lon="-2.4911">
        <ele>113</ele>
        <time>2015-03-30T13:02:32.1Z</time>
      </trkpt>
      <trkpt lat="48.60379" lon="-2.49107">
        <ele>113</ele>
        <time>2015-03-30T13:02:35.1Z</time>
      </trkpt>
      <trkpt lat="48.60378" lon="-2.49106">
        <ele>113</ele>
        <time>2015-03-30T13:02:37.1Z</time>
      </trkpt>
      <trkpt lat="48.60374" lon="-2.49106">
        <ele>114</ele>
        <time>2015-03-30T13:02:40.1Z</time>
      </trkpt>
      <trkpt lat="48.60371" lon="-2.49104">
        <ele>114</ele>
        <time>2015-03-30T13:02:42.1Z</time>
      </trkpt>
      <trkpt lat="48.60368" lon="-2.49103">
        <ele>114</ele>
        <time>2015-03-30T13:02:45.1Z</time>
      </trkpt>
      <trkpt lat="48.60366" lon="-2.49102">
        <ele>114</ele>
        <time>2015-03-30T13:02:47.1Z</time>
      </trkpt>
      <trkpt lat="48.60362" lon="-2.49099">
        <ele>115</ele>
        <time>2015-03-30T13:02:50.1Z</time>
      </trkpt>
      <trkpt lat="48.60359" lon="-2.49098">
        <ele>115</ele>
        <time>2015-03-30T13:02:53.1Z</time>
      </trkpt>
      <trkpt lat="48.60355" lon="-2.49096">
        <ele>115</ele>
        <time>2015-03-30T13:02:56.1Z</time>
      </trkpt>
      <trkpt lat="48.60352" lon="-2.49096">
        <ele>115</ele>
        <time>2015-03-30T13:02:58.1Z</time>
      </trkpt>
      <trkpt lat="48.60351" lon="-2.49096">
        <ele>115</ele>
        <time>2015-03-30T13:03:00.1Z</time>
      </trkpt>
      <trkpt lat="48.60349" lon="-2.49095">
        <ele>115</ele>
        <time>2015-03-30T13:03:02.1Z</time>
      </trkpt>
      <trkpt lat="48.60345" lon="-2.49095">
        <ele>115</ele>
        <time>2015-03-30T13:03:05.1Z</time>
      </trkpt>
      <trkpt lat="48.60342" lon="-2.49096">
        <ele>116</ele>
        <time>2015-03-30T13:03:08.1Z</time>
      </trkpt>
      <trkpt lat="48.60339" lon="-2.49095">
        <ele>116</ele>
        <time>2015-03-30T13:03:11.1Z</time>
      </trkpt>
      <trkpt lat="48.60336" lon="-2.49095">
        <ele>116</ele>
        <time>2015-03-30T13:03:14.1Z</time>
      </trkpt>
      <trkpt lat="48.60334" lon="-2.49094">
        <ele>117</ele>
        <time>2015-03-30T13:03:16.1Z</time>
      </trkpt>
      <trkpt lat="48.60331" lon="-2.49092">
        <ele>117</ele>
        <time>2015-03-30T13:03:19.1Z</time>
      </trkpt>
      <trkpt lat="48.60329" lon="-2.49092">
        <ele>118</ele>
        <time>2015-03-30T13:03:21.1Z</time>
      </trkpt>
      <trkpt lat="48.60326" lon="-2.49089">
        <ele>118</ele>
        <time>2015-03-30T13:03:24.1Z</time>
      </trkpt>
      <trkpt lat="48.60324" lon="-2.49087">
        <ele>118</ele>
        <time>2015-03-30T13:03:26.1Z</time>
      </trkpt>
      <trkpt lat="48.60321" lon="-2.49084">
        <ele>118</ele>
        <time>2015-03-30T13:03:29.1Z</time>
      </trkpt>
      <trkpt lat="48.60318" lon="-2.49082">
        <ele>118</ele>
        <time>2015-03-30T13:03:32.1Z</time>
      </trkpt>
      <trkpt lat="48.60315" lon="-2.49079">
        <ele>118</ele>
        <time>2015-03-30T13:03:35.1Z</time>
      </trkpt>
      <trkpt lat="48.60314" lon="-2.49076">
        <ele>118</ele>
        <time>2015-03-30T13:03:37.1Z</time>
      </trkpt>
      <trkpt lat="48.60311" lon="-2.49071">
        <ele>119</ele>
        <time>2015-03-30T13:03:40.1Z</time>
      </trkpt>
      <trkpt lat="48.60308" lon="-2.49068">
        <ele>119</ele>
        <time>2015-03-30T13:03:43.1Z</time>
      </trkpt>
      <trkpt lat="48.60304" lon="-2.49066">
        <ele>119</ele>
        <time>2015-03-30T13:03:46.1Z</time>
      </trkpt>
      <trkpt lat="48.60302" lon="-2.49064">
        <ele>119</ele>
        <time>2015-03-30T13:03:48.1Z</time>
      </trkpt>
      <trkpt lat="48.603" lon="-2.49062">
        <ele>120</ele>
        <time>2015-03-30T13:03:50.1Z</time>
      </trkpt>
      <trkpt lat="48.60297" lon="-2.4906">
        <ele>120</ele>
        <time>2015-03-30T13:03:53.1Z</time>
      </trkpt>
      <trkpt lat="48.60294" lon="-2.49058">
        <ele>120</ele>
        <time>2015-03-30T13:03:55.1Z</time>
      </trkpt>
      <trkpt lat="48.6029" lon="-2.49056">
        <ele>120</ele>
        <time>2015-03-30T13:03:58.1Z</time>
      </trkpt>
      <trkpt lat="48.60288" lon="-2.49054">
        <ele>120</ele>
        <time>2015-03-30T13:04:00.1Z</time>
      </trkpt>
      <trkpt lat="48.60286" lon="-2.49053">
        <ele>120</ele>
        <time>2015-03-30T13:04:02.1Z</time>
      </trkpt>
      <trkpt lat="48.60282" lon="-2.49051">
        <ele>121</ele>
        <time>2015-03-30T13:04:05.1Z</time>
      </trkpt>
      <trkpt lat="48.60278" lon="-2.49051">
        <ele>121</ele>
        <time>2015-03-30T13:04:08.1Z</time>
      </trkpt>
      <trkpt lat="48.60276" lon="-2.4905">
        <ele>121</ele>
        <time>2015-03-30T13:04:10.1Z</time>
      </trkpt>
      <trkpt lat="48.60272" lon="-2.4905">
        <ele>121</ele>
        <time>2015-03-30T13:04:13.1Z</time>
      </trkpt>
      <trkpt lat="48.6027" lon="-2.49051">
        <ele>121</ele>
        <time>2015-03-30T13:04:15.1Z</time>
      </trkpt>
      <trkpt lat="48.60267" lon="-2.49051">
        <ele>121</ele>
        <time>2015-03-30T13:04:18.1Z</time>
      </trkpt>
      <trkpt lat="48.60264" lon="-2.49052">
        <ele>122</ele>
        <time>2015-03-30T13:04:20.1Z</time>
      </trkpt>
      <trkpt lat="48.6026" lon="-2.49053">
        <ele>122</ele>
        <time>2015-03-30T13:04:23.1Z</time>
      </trkpt>
      <trkpt lat="48.60258" lon="-2.49053">
        <ele>122</ele>
        <time>2015-03-30T13:04:25.1Z</time>
      </trkpt>
      <trkpt lat="48.60254" lon="-2.49054">
        <ele>122</ele>
        <time>2015-03-30T13:04:28.1Z</time>
      </trkpt>
      <trkpt lat="48.60251" lon="-2.49054">
        <ele>122</ele>
        <time>2015-03-30T13:04:31.1Z</time>
      </trkpt>
      <trkpt lat="48.60249" lon="-2.49055">
        <ele>122</ele>
        <time>2015-03-30T13:04:33.1Z</time>
      </trkpt>
      <trkpt lat="48.60247" lon="-2.49054">
        <ele>123</ele>
        <time>2015-03-30T13:04:35.1Z</time>
      </trkpt>
      <trkpt lat="48.60244" lon="-2.49052">
        <ele>123</ele>
        <time>2015-03-30T13:04:38.1Z</time>
      </trkpt>
      <trkpt lat="48.60241" lon="-2.49052">
        <ele>123</ele>
        <time>2015-03-30T13:04:40.1Z</time>
      </trkpt>
      <trkpt lat="48.60238" lon="-2.49051">
        <ele>123</ele>
        <time>2015-03-30T13:04:43.1Z</time>
      </trkpt>
      <trkpt lat="48.60234" lon="-2.4905">
        <ele>123</ele>
        <time>2015-03-30T13:04:46.1Z</time>
      </trkpt>
      <trkpt lat="48.60231" lon="-2.4905">
        <ele>124</ele>
        <time>2015-03-30T13:04:49.1Z</time>
      </trkpt>
      <trkpt lat="48.60228" lon="-2.4905">
        <ele>124</ele>
        <time>2015-03-30T13:04:52.1Z</time>
      </trkpt>
      <trkpt lat="48.60225" lon="-2.49048">
        <ele>124</ele>
        <time>2015-03-30T13:04:55.1Z</time>
      </trkpt>
      <trkpt lat="48.60222" lon="-2.49046">
        <ele>125</ele>
        <time>2015-03-30T13:04:58.1Z</time>
      </trkpt>
      <trkpt lat="48.6022" lon="-2.49046">
        <ele>125</ele>
        <time>2015-03-30T13:05:00.1Z</time>
      </trkpt>
      <trkpt lat="48.60217" lon="-2.49043">
        <ele>125</ele>
        <time>2015-03-30T13:05:03.1Z</time>
      </trkpt>
      <trkpt lat="48.60214" lon="-2.49041">
        <ele>126</ele>
        <time>2015-03-30T13:05:06.1Z</time>
      </trkpt>
      <trkpt lat="48.60211" lon="-2.49039">
        <ele>126</ele>
        <time>2015-03-30T13:05:08.1Z</time>
      </trkpt>
      <trkpt lat="48.60208" lon="-2.49035">
        <ele>127</ele>
        <time>2015-03-30T13:05:11.1Z</time>
      </trkpt>
      <trkpt lat="48.60205" lon="-2.49031">
        <ele>127</ele>
        <time>2015-03-30T13:05:14.1Z</time>
      </trkpt>
      <trkpt lat="48.60203" lon="-2.49027">
        <ele>127</ele>
        <time>2015-03-30T13:05:17.1Z</time>
      </trkpt>
      <trkpt lat="48.60201" lon="-2.49025">
        <ele>128</ele>
        <time>2015-03-30T13:05:19.1Z</time>
      </trkpt>
      <trkpt lat="48.60199" lon="-2.4902">
        <ele>128</ele>
        <time>2015-03-30T13:05:22.1Z</time>
      </trkpt>
      <trkpt lat="48.60198" lon="-2.49017">
        <ele>128</ele>
        <time>2015-03-30T13:05:24.1Z</time>
      </trkpt>
      <trkpt lat="48.60196" lon="-2.49012">
        <ele>129</ele>
        <time>2015-03-30T13:05:27.1Z</time>
      </trkpt>
      <trkpt lat="48.60195" lon="-2.49009">
        <ele>129</ele>
        <time>2015-03-30T13:05:29.1Z</time>
      </trkpt>
      <trkpt lat="48.60193" lon="-2.49005">
        <ele>130</ele>
        <time>2015-03-30T13:05:32.1Z</time>
      </trkpt>
      <trkpt lat="48.60191" lon="-2.49002">
        <ele>130</ele>
        <time>2015-03-30T13:05:34.1Z</time>
      </trkpt>
      <trkpt lat="48.6019" lon="-2.48999">
        <ele>130</ele>
        <time>2015-03-30T13:05:36.1Z</time>
      </trkpt>
      <trkpt lat="48.60188" lon="-2.48995">
        <ele>131</ele>
        <time>2015-03-30T13:05:39.1Z</time>
      </trkpt>
      <trkpt lat="48.60187" lon="-2.48992">
        <ele>131</ele>
        <time>2015-03-30T13:05:41.1Z</time>
      </trkpt>
      <trkpt lat="48.60185" lon="-2.48988">
        <ele>131</ele>
        <time>2015-03-30T13:05:44.1Z</time>
      </trkpt>
      <trkpt lat="48.60183" lon="-2.48985">
        <ele>132</ele>
        <time>2015-03-30T13:05:47.1Z</time>
      </trkpt>
      <trkpt lat="48.6018" lon="-2.48981">
        <ele>132</ele>
        <time>2015-03-30T13:05:50.1Z</time>
      </trkpt>
      <trkpt lat="48.60177" lon="-2.48977">
        <ele>133</ele>
        <time>2015-03-30T13:05:53.1Z</time>
      </trkpt>
      <trkpt lat="48.60175" lon="-2.48976">
        <ele>133</ele>
        <time>2015-03-30T13:05:56.1Z</time>
      </trkpt>
      <trkpt lat="48.60173" lon="-2.48974">
        <ele>133</ele>
        <time>2015-03-30T13:05:58.1Z</time>
      </trkpt>
      <trkpt lat="48.60171" lon="-2.48971">
        <ele>133</ele>
        <time>2015-03-30T13:06:01.1Z</time>
      </trkpt>
      <trkpt lat="48.6017" lon="-2.4897">
        <ele>134</ele>
        <time>2015-03-30T13:06:03.1Z</time>
      </trkpt>
      <trkpt lat="48.60168" lon="-2.48969">
        <ele>134</ele>
        <time>2015-03-30T13:06:05.1Z</time>
      </trkpt>
      <trkpt lat="48.60166" lon="-2.48966">
        <ele>134</ele>
        <time>2015-03-30T13:06:08.1Z</time>
      </trkpt>
      <trkpt lat="48.60164" lon="-2.48965">
        <ele>135</ele>
        <time>2015-03-30T13:06:10.1Z</time>
      </trkpt>
      <trkpt lat="48.60162" lon="-2.48963">
        <ele>135</ele>
        <time>2015-03-30T13:06:12.1Z</time>
      </trkpt>
      <trkpt lat="48.60161" lon="-2.48962">
        <ele>135</ele>
        <time>2015-03-30T13:06:14.1Z</time>
      </trkpt>
      <trkpt lat="48.60158" lon="-2.48959">
        <ele>135</ele>
        <time>2015-03-30T13:06:17.1Z</time>
      </trkpt>
      <trkpt lat="48.60155" lon="-2.48957">
        <ele>136</ele>
        <time>2015-03-30T13:06:20.1Z</time>
      </trkpt>
      <trkpt lat="48.60153" lon="-2.48955">
        <ele>136</ele>
        <time>2015-03-30T13:06:23.1Z</time>
      </trkpt>
      <trkpt lat="48.60151" lon="-2.48954">
        <ele>136</ele>
        <time>2015-03-30T13:06:25.1Z</time>
      </trkpt>
      <trkpt lat="48.6015" lon="-2.48952">
        <ele>136</ele>
        <time>2015-03-30T13:06:27.1Z</time>
      </trkpt>
      <trkpt lat="48.60147" lon="-2.48949">
        <ele>137</ele>
        <time>2015-03-30T13:06:30.1Z</time>
      </trkpt>
      <trkpt lat="48.60146" lon="-2.48947">
        <ele>137</ele>
        <time>2015-03-30T13:06:32.1Z</time>
      </trkpt>
      <trkpt lat="48.60144" lon="-2.48945">
        <ele>137</ele>
        <time>2015-03-30T13:06:34.1Z</time>
      </trkpt>
      <trkpt lat="48.60142" lon="-2.48941">
        <ele>137</ele>
        <time>2015-03-30T13:06:37.1Z</time>
      </trkpt>
      <trkpt lat="48.6014" lon="-2.48938">
        <ele>138</ele>
        <time>2015-03-30T13:06:40.1Z</time>
      </trkpt>
      <trkpt lat="48.60139" lon="-2.48933">
        <ele>138</ele>
        <time>2015-03-30T13:06:43.1Z</time>
      </trkpt>
      <trkpt lat="48.60138" lon="-2.48928">
        <ele>138</ele>
        <time>2015-03-30T13:06:46.1Z</time>
      </trkpt>
      <trkpt lat="48.60137" lon="-2.48925">
        <ele>139</ele>
        <time>2015-03-30T13:06:48.1Z</time>
      </trkpt>
      <trkpt lat="48.60137" lon="-2.48922">
        <ele>139</ele>
        <time>2015-03-30T13:06:50.1Z</time>
      </trkpt>
      <trkpt lat="48.60137" lon="-2.48916">
        <ele>140</ele>
        <time>2015-03-30T13:06:53.1Z</time>
      </trkpt>
      <trkpt lat="48.60138" lon="-2.48913">
        <ele>140</ele>
        <time>2015-03-30T13:06:55.1Z</time>
      </trkpt>
      <trkpt lat="48.60138" lon="-2.48908">
        <ele>140</ele>
        <time>2015-03-30T13:06:58.1Z</time>
      </trkpt>
      <trkpt lat="48.60138" lon="-2.48905">
        <ele>140</ele>
        <time>2015-03-30T13:07:00.1Z</time>
      </trkpt>
      <trkpt lat="48.60139" lon="-2.48902">
        <ele>140</ele>
        <time>2015-03-30T13:07:02.1Z</time>
      </trkpt>
      <trkpt lat="48.60139" lon="-2.48899">
        <ele>141</ele>
        <time>2015-03-30T13:07:04.1Z</time>
      </trkpt>
      <trkpt lat="48.60141" lon="-2.48894">
        <ele>141</ele>
        <time>2015-03-30T13:07:07.1Z</time>
      </trkpt>
      <trkpt lat="48.60141" lon="-2.48891">
        <ele>141</ele>
        <time>2015-03-30T13:07:09.1Z</time>
      </trkpt>
      <trkpt lat="48.60141" lon="-2.48888">
        <ele>141</ele>
        <time>2015-03-30T13:07:11.1Z</time>
      </trkpt>
      <trkpt lat="48.60141" lon="-2.48883">
        <ele>141</ele>
        <time>2015-03-30T13:07:14.1Z</time>
      </trkpt>
      <trkpt lat="48.60141" lon="-2.48879">
        <ele>141</ele>
        <time>2015-03-30T13:07:16.1Z</time>
      </trkpt>
      <trkpt lat="48.60141" lon="-2.48873">
        <ele>141</ele>
        <time>2015-03-30T13:07:19.1Z</time>
      </trkpt>
      <trkpt lat="48.6014" lon="-2.48868">
        <ele>141</ele>
        <time>2015-03-30T13:07:22.1Z</time>
      </trkpt>
      <trkpt lat="48.6014" lon="-2.48864">
        <ele>141</ele>
        <time>2015-03-30T13:07:24.1Z</time>
      </trkpt>
      <trkpt lat="48.60141" lon="-2.48861">
        <ele>142</ele>
        <time>2015-03-30T13:07:26.1Z</time>
      </trkpt>
      <trkpt lat="48.60142" lon="-2.48855">
        <ele>142</ele>
        <time>2015-03-30T13:07:29.1Z</time>
      </trkpt>
      <trkpt lat="48.60143" lon="-2.48852">
        <ele>142</ele>
        <time>2015-03-30T13:07:31.1Z</time>
      </trkpt>
      <trkpt lat="48.60144" lon="-2.48846">
        <ele>142</ele>
        <time>2015-03-30T13:07:34.1Z</time>
      </trkpt>
      <trkpt lat="48.60145" lon="-2.48843">
        <ele>142</ele>
        <time>2015-03-30T13:07:36.1Z</time>
      </trkpt>
      <trkpt lat="48.60147" lon="-2.48838">
        <ele>142</ele>
        <time>2015-03-30T13:07:39.1Z</time>
      </trkpt>
      <trkpt lat="48.60148" lon="-2.48835">
        <ele>142</ele>
        <time>2015-03-30T13:07:41.1Z</time>
      </trkpt>
      <trkpt lat="48.6015" lon="-2.4883">
        <ele>142</ele>
        <time>2015-03-30T13:07:44.1Z</time>
      </trkpt>
      <trkpt lat="48.60151" lon="-2.48826">
        <ele>142</ele>
        <time>2015-03-30T13:07:46.1Z</time>
      </trkpt>
      <trkpt lat="48.60152" lon="-2.48823">
        <ele>142</ele>
        <time>2015-03-30T13:07:48.1Z</time>
      </trkpt>
      <trkpt lat="48.60154" lon="-2.48819">
        <ele>142</ele>
        <time>2015-03-30T13:07:50.1Z</time>
      </trkpt>
      <trkpt lat="48.60155" lon="-2.48816">
        <ele>142</ele>
        <time>2015-03-30T13:07:52.1Z</time>
      </trkpt>
      <trkpt lat="48.60157" lon="-2.48812">
        <ele>142</ele>
        <time>2015-03-30T13:07:55.1Z</time>
      </trkpt>
      <trkpt lat="48.60159" lon="-2.48807">
        <ele>142</ele>
        <time>2015-03-30T13:07:58.1Z</time>
      </trkpt>
      <trkpt lat="48.6016" lon="-2.48804">
        <ele>142</ele>
        <time>2015-03-30T13:08:00.1Z</time>
      </trkpt>
      <trkpt lat="48.60162" lon="-2.48801">
        <ele>142</ele>
        <time>2015-03-30T13:08:02.1Z</time>
      </trkpt>
      <trkpt lat="48.60163" lon="-2.48798">
        <ele>142</ele>
        <time>2015-03-30T13:08:04.1Z</time>
      </trkpt>
      <trkpt lat="48.60164" lon="-2.48793">
        <ele>142</ele>
        <time>2015-03-30T13:08:06.1Z</time>
      </trkpt>
      <trkpt lat="48.60164" lon="-2.4879">
        <ele>142</ele>
        <time>2015-03-30T13:08:08.1Z</time>
      </trkpt>
      <trkpt lat="48.60164" lon="-2.4879">
        <ele>142</ele>
        <time>2015-03-30T13:08:11.1Z</time>
      </trkpt>
      <trkpt lat="48.60164" lon="-2.48791">
        <ele>142</ele>
        <time>2015-03-30T13:08:13.1Z</time>
      </trkpt>
      <trkpt lat="48.60165" lon="-2.48791">
        <ele>142</ele>
        <time>2015-03-30T13:08:15.1Z</time>
      </trkpt>
      <trkpt lat="48.60166" lon="-2.48791">
        <ele>142</ele>
        <time>2015-03-30T13:08:17.1Z</time>
      </trkpt>
      <trkpt lat="48.60166" lon="-2.48792">
        <ele>142</ele>
        <time>2015-03-30T13:08:19.1Z</time>
      </trkpt>
      <trkpt lat="48.60166" lon="-2.48792">
        <ele>142</ele>
        <time>2015-03-30T13:08:23.1Z</time>
      </trkpt>
      <trkpt lat="48.60166" lon="-2.48793">
        <ele>142</ele>
        <time>2015-03-30T13:08:26.1Z</time>
      </trkpt>
      <trkpt lat="48.60166" lon="-2.48792">
        <ele>142</ele>
        <time>2015-03-30T13:08:30.1Z</time>
      </trkpt>
      <trkpt lat="48.60166" lon="-2.48793">
        <ele>142</ele>
        <time>2015-03-30T13:08:32.1Z</time>
      </trkpt>
      <trkpt lat="48.60166" lon="-2.48793">
        <ele>142</ele>
        <time>2015-03-30T13:08:35.1Z</time>
      </trkpt>
      <trkpt lat="48.60165" lon="-2.48793">
        <ele>142</ele>
        <time>2015-03-30T13:08:38.1Z</time>
      </trkpt>
      <trkpt lat="48.60165" lon="-2.48793">
        <ele>142</ele>
        <time>2015-03-30T13:08:41.1Z</time>
      </trkpt>
      <trkpt lat="48.60166" lon="-2.48793">
        <ele>142</ele>
        <time>2015-03-30T13:08:44.1Z</time>
      </trkpt>
      <trkpt lat="48.60165" lon="-2.48793">
        <ele>142</ele>
        <time>2015-03-30T13:08:46.1Z</time>
      </trkpt>
      <trkpt lat="48.60166" lon="-2.48793">
        <ele>142</ele>
        <time>2015-03-30T13:08:51.1Z</time>
      </trkpt>
      <trkpt lat="48.60165" lon="-2.48793">
        <ele>142</ele>
        <time>2015-03-30T13:08:54.1Z</time>
      </trkpt>
      <trkpt lat="48.60165" lon="-2.48793">
        <ele>141</ele>
        <time>2015-03-30T13:08:57.1Z</time>
      </trkpt>
      <trkpt lat="48.60165" lon="-2.48793">
        <ele>141</ele>
        <time>2015-03-30T13:09:00.1Z</time>
      </trkpt>
      <trkpt lat="48.60165" lon="-2.48793">
        <ele>141</ele>
        <time>2015-03-30T13:09:02.1Z</time>
      </trkpt>
      <trkpt lat="48.60165" lon="-2.48793">
        <ele>141</ele>
        <time>2015-03-30T13:09:04.1Z</time>
      </trkpt>
      <trkpt lat="48.60165" lon="-2.48793">
        <ele>142</ele>
        <time>2015-03-30T13:09:07.1Z</time>
      </trkpt>
      <trkpt lat="48.60165" lon="-2.48793">
        <ele>141</ele>
        <time>2015-03-30T13:09:09.1Z</time>
      </trkpt>
      <trkpt lat="48.60165" lon="-2.48793">
        <ele>141</ele>
        <time>2015-03-30T13:09:13.1Z</time>
      </trkpt>
      <trkpt lat="48.60165" lon="-2.48793">
        <ele>141</ele>
        <time>2015-03-30T13:09:16.1Z</time>
      </trkpt>
      <trkpt lat="48.60165" lon="-2.48792">
        <ele>141</ele>
        <time>2015-03-30T13:09:19.1Z</time>
      </trkpt>
      <trkpt lat="48.60165" lon="-2.48791">
        <ele>141</ele>
        <time>2015-03-30T13:09:21.1Z</time>
      </trkpt>
      <trkpt lat="48.60165" lon="-2.48791">
        <ele>141</ele>
        <time>2015-03-30T13:09:23.1Z</time>
      </trkpt>
      <trkpt lat="48.60165" lon="-2.4879">
        <ele>141</ele>
        <time>2015-03-30T13:09:26.1Z</time>
      </trkpt>
      <trkpt lat="48.60165" lon="-2.4879">
        <ele>141</ele>
        <time>2015-03-30T13:09:28.1Z</time>
      </trkpt>
      <trkpt lat="48.60164" lon="-2.48791">
        <ele>141</ele>
        <time>2015-03-30T13:09:30.1Z</time>
      </trkpt>
      <trkpt lat="48.60164" lon="-2.4879">
        <ele>141</ele>
        <time>2015-03-30T13:09:33.1Z</time>
      </trkpt>
      <trkpt lat="48.60164" lon="-2.4879">
        <ele>141</ele>
        <time>2015-03-30T13:09:36.1Z</time>
      </trkpt>
      <trkpt lat="48.60164" lon="-2.4879">
        <ele>140</ele>
        <time>2015-03-30T13:09:41.1Z</time>
      </trkpt>
      <trkpt lat="48.60165" lon="-2.48791">
        <ele>140</ele>
        <time>2015-03-30T13:09:44.1Z</time>
      </trkpt>
      <trkpt lat="48.60165" lon="-2.48791">
        <ele>140</ele>
        <time>2015-03-30T13:09:47.1Z</time>
      </trkpt>
      <trkpt lat="48.60165" lon="-2.48791">
        <ele>140</ele>
        <time>2015-03-30T13:09:50.1Z</time>
      </trkpt>
      <trkpt lat="48.60165" lon="-2.48791">
        <ele>140</ele>
        <time>2015-03-30T13:09:53.1Z</time>
      </trkpt>
      <trkpt lat="48.60165" lon="-2.48791">
        <ele>140</ele>
        <time>2015-03-30T13:09:57.1Z</time>
      </trkpt>
      <trkpt lat="48.60165" lon="-2.48791">
        <ele>140</ele>
        <time>2015-03-30T13:10:00.1Z</time>
      </trkpt>
      <trkpt lat="48.60165" lon="-2.4879">
        <ele>140</ele>
        <time>2015-03-30T13:10:02.1Z</time>
      </trkpt>
      <trkpt lat="48.60164" lon="-2.4879">
        <ele>140</ele>
        <time>2015-03-30T13:10:04.1Z</time>
      </trkpt>
      <trkpt lat="48.60165" lon="-2.4879">
        <ele>140</ele>
        <time>2015-03-30T13:10:07.1Z</time>
      </trkpt>
      <trkpt lat="48.60165" lon="-2.48791">
        <ele>140</ele>
        <time>2015-03-30T13:10:09.1Z</time>
      </trkpt>
      <trkpt lat="48.60165" lon="-2.48791">
        <ele>139</ele>
        <time>2015-03-30T13:10:11.1Z</time>
      </trkpt>
      <trkpt lat="48.60164" lon="-2.48791">
        <ele>139</ele>
        <time>2015-03-30T13:10:14.1Z</time>
      </trkpt>
      <trkpt lat="48.60164" lon="-2.48793">
        <ele>139</ele>
        <time>2015-03-30T13:10:16.1Z</time>
      </trkpt>
      <trkpt lat="48.60163" lon="-2.48794">
        <ele>139</ele>
        <time>2015-03-30T13:10:18.1Z</time>
      </trkpt>
      <trkpt lat="48.60162" lon="-2.48794">
        <ele>139</ele>
        <time>2015-03-30T13:10:20.1Z</time>
      </trkpt>
      <trkpt lat="48.60162" lon="-2.48794">
        <ele>139</ele>
        <time>2015-03-30T13:10:22.1Z</time>
      </trkpt>
      <trkpt lat="48.60162" lon="-2.48794">
        <ele>139</ele>
        <time>2015-03-30T13:10:25.1Z</time>
      </trkpt>
      <trkpt lat="48.60163" lon="-2.48794">
        <ele>139</ele>
        <time>2015-03-30T13:10:27.1Z</time>
      </trkpt>
      <trkpt lat="48.60164" lon="-2.48793">
        <ele>139</ele>
        <time>2015-03-30T13:10:29.1Z</time>
      </trkpt>
      <trkpt lat="48.60165" lon="-2.48791">
        <ele>139</ele>
        <time>2015-03-30T13:10:32.1Z</time>
      </trkpt>
      <trkpt lat="48.60166" lon="-2.48789">
        <ele>139</ele>
        <time>2015-03-30T13:10:35.1Z</time>
      </trkpt>
      <trkpt lat="48.60167" lon="-2.48787">
        <ele>139</ele>
        <time>2015-03-30T13:10:38.1Z</time>
      </trkpt>
      <trkpt lat="48.60167" lon="-2.48786">
        <ele>139</ele>
        <time>2015-03-30T13:10:41.1Z</time>
      </trkpt>
      <trkpt lat="48.60168" lon="-2.48786">
        <ele>138</ele>
        <time>2015-03-30T13:10:43.1Z</time>
      </trkpt>
      <trkpt lat="48.60168" lon="-2.48786">
        <ele>138</ele>
        <time>2015-03-30T13:10:45.1Z</time>
      </trkpt>
      <trkpt lat="48.60168" lon="-2.48786">
        <ele>138</ele>
        <time>2015-03-30T13:10:48.1Z</time>
      </trkpt>
      <trkpt lat="48.60168" lon="-2.48786">
        <ele>138</ele>
        <time>2015-03-30T13:10:50.1Z</time>
      </trkpt>
      <trkpt lat="48.60168" lon="-2.48786">
        <ele>138</ele>
        <time>2015-03-30T13:10:56.1Z</time>
      </trkpt>
      <trkpt lat="48.60168" lon="-2.48785">
        <ele>138</ele>
        <time>2015-03-30T13:10:59.1Z</time>
      </trkpt>
      <trkpt lat="48.60169" lon="-2.48784">
        <ele>138</ele>
        <time>2015-03-30T13:11:02.1Z</time>
      </trkpt>
      <trkpt lat="48.60169" lon="-2.48784">
        <ele>138</ele>
        <time>2015-03-30T13:11:05.1Z</time>
      </trkpt>
      <trkpt lat="48.60168" lon="-2.48784">
        <ele>137</ele>
        <time>2015-03-30T13:11:09.1Z</time>
      </trkpt>
      <trkpt lat="48.60168" lon="-2.48784">
        <ele>137</ele>
        <time>2015-03-30T13:11:11.1Z</time>
      </trkpt>
      <trkpt lat="48.60168" lon="-2.48784">
        <ele>137</ele>
        <time>2015-03-30T13:11:14.1Z</time>
      </trkpt>
      <trkpt lat="48.60168" lon="-2.48784">
        <ele>137</ele>
        <time>2015-03-30T13:11:16.1Z</time>
      </trkpt>
      <trkpt lat="48.60168" lon="-2.48784">
        <ele>137</ele>
        <time>2015-03-30T13:11:21.1Z</time>
      </trkpt>
      <trkpt lat="48.60168" lon="-2.48784">
        <ele>137</ele>
        <time>2015-03-30T13:11:24.1Z</time>
      </trkpt>
      <trkpt lat="48.60167" lon="-2.48782">
        <ele>137</ele>
        <time>2015-03-30T13:11:27.1Z</time>
      </trkpt>
      <trkpt lat="48.60167" lon="-2.48782">
        <ele>137</ele>
        <time>2015-03-30T13:11:30.1Z</time>
      </trkpt>
      <trkpt lat="48.60167" lon="-2.48782">
        <ele>137</ele>
        <time>2015-03-30T13:11:32.1Z</time>
      </trkpt>
      <trkpt lat="48.60167" lon="-2.48781">
        <ele>136</ele>
        <time>2015-03-30T13:11:34.1Z</time>
      </trkpt>
      <trkpt lat="48.60168" lon="-2.48778">
        <ele>137</ele>
        <time>2015-03-30T13:11:37.1Z</time>
      </trkpt>
      <trkpt lat="48.60168" lon="-2.48775">
        <ele>136</ele>
        <time>2015-03-30T13:11:39.1Z</time>
      </trkpt>
      <trkpt lat="48.60169" lon="-2.48773">
        <ele>136</ele>
        <time>2015-03-30T13:11:41.1Z</time>
      </trkpt>
      <trkpt lat="48.6017" lon="-2.4877">
        <ele>136</ele>
        <time>2015-03-30T13:11:43.1Z</time>
      </trkpt>
      <trkpt lat="48.60172" lon="-2.48766">
        <ele>136</ele>
        <time>2015-03-30T13:11:46.1Z</time>
      </trkpt>
      <trkpt lat="48.60173" lon="-2.48764">
        <ele>136</ele>
        <time>2015-03-30T13:11:48.1Z</time>
      </trkpt>
      <trkpt lat="48.60174" lon="-2.4876">
        <ele>136</ele>
        <time>2015-03-30T13:11:51.1Z</time>
      </trkpt>
      <trkpt lat="48.60175" lon="-2.48756">
        <ele>136</ele>
        <time>2015-03-30T13:11:54.1Z</time>
      </trkpt>
      <trkpt lat="48.60176" lon="-2.48754">
        <ele>136</ele>
        <time>2015-03-30T13:11:56.1Z</time>
      </trkpt>
      <trkpt lat="48.60177" lon="-2.48751">
        <ele>136</ele>
        <time>2015-03-30T13:11:58.1Z</time>
      </trkpt>
      <trkpt lat="48.60178" lon="-2.48747">
        <ele>136</ele>
        <time>2015-03-30T13:12:01.1Z</time>
      </trkpt>
      <trkpt lat="48.6018" lon="-2.48745">
        <ele>136</ele>
        <time>2015-03-30T13:12:03.1Z</time>
      </trkpt>
      <trkpt lat="48.60181" lon="-2.48741">
        <ele>136</ele>
        <time>2015-03-30T13:12:06.1Z</time>
      </trkpt>
      <trkpt lat="48.60182" lon="-2.48738">
        <ele>136</ele>
        <time>2015-03-30T13:12:08.1Z</time>
      </trkpt>
      <trkpt lat="48.60184" lon="-2.48734">
        <ele>136</ele>
        <time>2015-03-30T13:12:11.1Z</time>
      </trkpt>
      <trkpt lat="48.60186" lon="-2.48732">
        <ele>136</ele>
        <time>2015-03-30T13:12:13.1Z</time>
      </trkpt>
      <trkpt lat="48.60187" lon="-2.4873">
        <ele>136</ele>
        <time>2015-03-30T13:12:15.1Z</time>
      </trkpt>
      <trkpt lat="48.60188" lon="-2.48728">
        <ele>136</ele>
        <time>2015-03-30T13:12:17.1Z</time>
      </trkpt>
      <trkpt lat="48.60188" lon="-2.48727">
        <ele>136</ele>
        <time>2015-03-30T13:12:19.1Z</time>
      </trkpt>
      <trkpt lat="48.6019" lon="-2.48724">
        <ele>136</ele>
        <time>2015-03-30T13:12:22.1Z</time>
      </trkpt>
      <trkpt lat="48.60191" lon="-2.48723">
        <ele>135</ele>
        <time>2015-03-30T13:12:24.1Z</time>
      </trkpt>
      <trkpt lat="48.60192" lon="-2.48722">
        <ele>136</ele>
        <time>2015-03-30T13:12:26.1Z</time>
      </trkpt>
      <trkpt lat="48.60192" lon="-2.48722">
        <ele>135</ele>
        <time>2015-03-30T13:12:29.1Z</time>
      </trkpt>
      <trkpt lat="48.60192" lon="-2.48722">
        <ele>136</ele>
        <time>2015-03-30T13:12:32.1Z</time>
      </trkpt>
      <trkpt lat="48.60192" lon="-2.48721">
        <ele>135</ele>
        <time>2015-03-30T13:12:35.1Z</time>
      </trkpt>
      <trkpt lat="48.60193" lon="-2.48721">
        <ele>135</ele>
        <time>2015-03-30T13:12:37.1Z</time>
      </trkpt>
      <trkpt lat="48.60193" lon="-2.4872">
        <ele>135</ele>
        <time>2015-03-30T13:12:39.1Z</time>
      </trkpt>
      <trkpt lat="48.60193" lon="-2.48719">
        <ele>135</ele>
        <time>2015-03-30T13:12:41.1Z</time>
      </trkpt>
      <trkpt lat="48.60194" lon="-2.48718">
        <ele>135</ele>
        <time>2015-03-30T13:12:44.1Z</time>
      </trkpt>
      <trkpt lat="48.60195" lon="-2.48716">
        <ele>135</ele>
        <time>2015-03-30T13:12:46.1Z</time>
      </trkpt>
      <trkpt lat="48.60196" lon="-2.48714">
        <ele>135</ele>
        <time>2015-03-30T13:12:48.1Z</time>
      </trkpt>
      <trkpt lat="48.60197" lon="-2.48712">
        <ele>135</ele>
        <time>2015-03-30T13:12:51.1Z</time>
      </trkpt>
      <trkpt lat="48.60199" lon="-2.48709">
        <ele>135</ele>
        <time>2015-03-30T13:12:54.1Z</time>
      </trkpt>
      <trkpt lat="48.60199" lon="-2.48707">
        <ele>135</ele>
        <time>2015-03-30T13:12:56.1Z</time>
      </trkpt>
      <trkpt lat="48.60201" lon="-2.48704">
        <ele>135</ele>
        <time>2015-03-30T13:12:59.1Z</time>
      </trkpt>
      <trkpt lat="48.60202" lon="-2.487">
        <ele>134</ele>
        <time>2015-03-30T13:13:02.1Z</time>
      </trkpt>
      <trkpt lat="48.60203" lon="-2.48697">
        <ele>135</ele>
        <time>2015-03-30T13:13:05.1Z</time>
      </trkpt>
      <trkpt lat="48.60204" lon="-2.48695">
        <ele>135</ele>
        <time>2015-03-30T13:13:07.1Z</time>
      </trkpt>
      <trkpt lat="48.60206" lon="-2.48692">
        <ele>135</ele>
        <time>2015-03-30T13:13:10.1Z</time>
      </trkpt>
      <trkpt lat="48.60208" lon="-2.48689">
        <ele>135</ele>
        <time>2015-03-30T13:13:12.1Z</time>
      </trkpt>
      <trkpt lat="48.60209" lon="-2.48687">
        <ele>135</ele>
        <time>2015-03-30T13:13:14.1Z</time>
      </trkpt>
      <trkpt lat="48.6021" lon="-2.48684">
        <ele>135</ele>
        <time>2015-03-30T13:13:16.1Z</time>
      </trkpt>
      <trkpt lat="48.60212" lon="-2.4868">
        <ele>135</ele>
        <time>2015-03-30T13:13:19.1Z</time>
      </trkpt>
      <trkpt lat="48.60213" lon="-2.48677">
        <ele>135</ele>
        <time>2015-03-30T13:13:21.1Z</time>
      </trkpt>
      <trkpt lat="48.60215" lon="-2.48674">
        <ele>135</ele>
        <time>2015-03-30T13:13:24.1Z</time>
      </trkpt>
      <trkpt lat="48.60217" lon="-2.4867">
        <ele>135</ele>
        <time>2015-03-30T13:13:27.1Z</time>
      </trkpt>
      <trkpt lat="48.60218" lon="-2.48667">
        <ele>135</ele>
        <time>2015-03-30T13:13:29.1Z</time>
      </trkpt>
      <trkpt lat="48.6022" lon="-2.48665">
        <ele>135</ele>
        <time>2015-03-30T13:13:31.1Z</time>
      </trkpt>
      <trkpt lat="48.60222" lon="-2.48661">
        <ele>134</ele>
        <time>2015-03-30T13:13:34.1Z</time>
      </trkpt>
      <trkpt lat="48.60224" lon="-2.48657">
        <ele>134</ele>
        <time>2015-03-30T13:13:37.1Z</time>
      </trkpt>
      <trkpt lat="48.60226" lon="-2.48653">
        <ele>134</ele>
        <time>2015-03-30T13:13:40.1Z</time>
      </trkpt>
      <trkpt lat="48.60228" lon="-2.48649">
        <ele>135</ele>
        <time>2015-03-30T13:13:43.1Z</time>
      </trkpt>
      <trkpt lat="48.60229" lon="-2.48646">
        <ele>135</ele>
        <time>2015-03-30T13:13:45.1Z</time>
      </trkpt>
      <trkpt lat="48.60231" lon="-2.48642">
        <ele>134</ele>
        <time>2015-03-30T13:13:48.1Z</time>
      </trkpt>
      <trkpt lat="48.60233" lon="-2.48639">
        <ele>135</ele>
        <time>2015-03-30T13:13:51.1Z</time>
      </trkpt>
      <trkpt lat="48.60234" lon="-2.48636">
        <ele>135</ele>
        <time>2015-03-30T13:13:53.1Z</time>
      </trkpt>
      <trkpt lat="48.60236" lon="-2.48633">
        <ele>135</ele>
        <time>2015-03-30T13:13:56.1Z</time>
      </trkpt>
      <trkpt lat="48.60238" lon="-2.4863">
        <ele>135</ele>
        <time>2015-03-30T13:13:58.1Z</time>
      </trkpt>
      <trkpt lat="48.60239" lon="-2.48627">
        <ele>135</ele>
        <time>2015-03-30T13:14:00.1Z</time>
      </trkpt>
      <trkpt lat="48.60241" lon="-2.48623">
        <ele>135</ele>
        <time>2015-03-30T13:14:03.1Z</time>
      </trkpt>
      <trkpt lat="48.60242" lon="-2.4862">
        <ele>135</ele>
        <time>2015-03-30T13:14:05.1Z</time>
      </trkpt>
      <trkpt lat="48.60244" lon="-2.48616">
        <ele>135</ele>
        <time>2015-03-30T13:14:08.1Z</time>
      </trkpt>
      <trkpt lat="48.60245" lon="-2.48614">
        <ele>135</ele>
        <time>2015-03-30T13:14:10.1Z</time>
      </trkpt>
      <trkpt lat="48.60246" lon="-2.48611">
        <ele>135</ele>
        <time>2015-03-30T13:14:12.1Z</time>
      </trkpt>
      <trkpt lat="48.60248" lon="-2.48607">
        <ele>135</ele>
        <time>2015-03-30T13:14:15.1Z</time>
      </trkpt>
      <trkpt lat="48.6025" lon="-2.48602">
        <ele>135</ele>
        <time>2015-03-30T13:14:18.1Z</time>
      </trkpt>
      <trkpt lat="48.60251" lon="-2.486">
        <ele>135</ele>
        <time>2015-03-30T13:14:20.1Z</time>
      </trkpt>
      <trkpt lat="48.60253" lon="-2.48595">
        <ele>135</ele>
        <time>2015-03-30T13:14:23.1Z</time>
      </trkpt>
      <trkpt lat="48.60255" lon="-2.48591">
        <ele>135</ele>
        <time>2015-03-30T13:14:26.1Z</time>
      </trkpt>
      <trkpt lat="48.60256" lon="-2.48588">
        <ele>135</ele>
        <time>2015-03-30T13:14:28.1Z</time>
      </trkpt>
      <trkpt lat="48.60258" lon="-2.48584">
        <ele>135</ele>
        <time>2015-03-30T13:14:31.1Z</time>
      </trkpt>
      <trkpt lat="48.6026" lon="-2.4858">
        <ele>135</ele>
        <time>2015-03-30T13:14:34.1Z</time>
      </trkpt>
      <trkpt lat="48.60262" lon="-2.48578">
        <ele>135</ele>
        <time>2015-03-30T13:14:36.1Z</time>
      </trkpt>
      <trkpt lat="48.60263" lon="-2.48574">
        <ele>136</ele>
        <time>2015-03-30T13:14:39.1Z</time>
      </trkpt>
      <trkpt lat="48.60265" lon="-2.48571">
        <ele>136</ele>
        <time>2015-03-30T13:14:41.1Z</time>
      </trkpt>
      <trkpt lat="48.60266" lon="-2.48569">
        <ele>136</ele>
        <time>2015-03-30T13:14:43.1Z</time>
      </trkpt>
      <trkpt lat="48.60268" lon="-2.48566">
        <ele>135</ele>
        <time>2015-03-30T13:14:45.1Z</time>
      </trkpt>
      <trkpt lat="48.6027" lon="-2.48562">
        <ele>136</ele>
        <time>2015-03-30T13:14:48.1Z</time>
      </trkpt>
      <trkpt lat="48.60272" lon="-2.48558">
        <ele>135</ele>
        <time>2015-03-30T13:14:51.1Z</time>
      </trkpt>
      <trkpt lat="48.60274" lon="-2.48554">
        <ele>136</ele>
        <time>2015-03-30T13:14:54.1Z</time>
      </trkpt>
      <trkpt lat="48.60275" lon="-2.48551">
        <ele>136</ele>
        <time>2015-03-30T13:14:56.1Z</time>
      </trkpt>
      <trkpt lat="48.60277" lon="-2.48548">
        <ele>136</ele>
        <time>2015-03-30T13:14:59.1Z</time>
      </trkpt>
      <trkpt lat="48.60278" lon="-2.48544">
        <ele>136</ele>
        <time>2015-03-30T13:15:02.1Z</time>
      </trkpt>
      <trkpt lat="48.6028" lon="-2.4854">
        <ele>136</ele>
        <time>2015-03-30T13:15:05.1Z</time>
      </trkpt>
      <trkpt lat="48.60282" lon="-2.48535">
        <ele>136</ele>
        <time>2015-03-30T13:15:08.1Z</time>
      </trkpt>
      <trkpt lat="48.60283" lon="-2.48533">
        <ele>136</ele>
        <time>2015-03-30T13:15:10.1Z</time>
      </trkpt>
      <trkpt lat="48.60285" lon="-2.4853">
        <ele>136</ele>
        <time>2015-03-30T13:15:12.1Z</time>
      </trkpt>
      <trkpt lat="48.60287" lon="-2.48526">
        <ele>137</ele>
        <time>2015-03-30T13:15:15.1Z</time>
      </trkpt>
      <trkpt lat="48.60289" lon="-2.48522">
        <ele>137</ele>
        <time>2015-03-30T13:15:18.1Z</time>
      </trkpt>
      <trkpt lat="48.6029" lon="-2.48519">
        <ele>137</ele>
        <time>2015-03-30T13:15:20.1Z</time>
      </trkpt>
      <trkpt lat="48.60292" lon="-2.48515">
        <ele>137</ele>
        <time>2015-03-30T13:15:23.1Z</time>
      </trkpt>
      <trkpt lat="48.60294" lon="-2.48511">
        <ele>136</ele>
        <time>2015-03-30T13:15:26.1Z</time>
      </trkpt>
      <trkpt lat="48.60297" lon="-2.48507">
        <ele>137</ele>
        <time>2015-03-30T13:15:29.1Z</time>
      </trkpt>
      <trkpt lat="48.60299" lon="-2.48503">
        <ele>137</ele>
        <time>2015-03-30T13:15:32.1Z</time>
      </trkpt>
      <trkpt lat="48.603" lon="-2.485">
        <ele>137</ele>
        <time>2015-03-30T13:15:34.1Z</time>
      </trkpt>
      <trkpt lat="48.60302" lon="-2.48496">
        <ele>137</ele>
        <time>2015-03-30T13:15:37.1Z</time>
      </trkpt>
      <trkpt lat="48.60303" lon="-2.48494">
        <ele>137</ele>
        <time>2015-03-30T13:15:39.1Z</time>
      </trkpt>
      <trkpt lat="48.60305" lon="-2.48489">
        <ele>137</ele>
        <time>2015-03-30T13:15:42.1Z</time>
      </trkpt>
      <trkpt lat="48.60307" lon="-2.48487">
        <ele>137</ele>
        <time>2015-03-30T13:15:44.1Z</time>
      </trkpt>
      <trkpt lat="48.60309" lon="-2.48483">
        <ele>137</ele>
        <time>2015-03-30T13:15:47.1Z</time>
      </trkpt>
      <trkpt lat="48.6031" lon="-2.4848">
        <ele>137</ele>
        <time>2015-03-30T13:15:49.1Z</time>
      </trkpt>
      <trkpt lat="48.60312" lon="-2.48478">
        <ele>137</ele>
        <time>2015-03-30T13:15:51.1Z</time>
      </trkpt>
      <trkpt lat="48.60313" lon="-2.48475">
        <ele>137</ele>
        <time>2015-03-30T13:15:53.1Z</time>
      </trkpt>
      <trkpt lat="48.60316" lon="-2.48471">
        <ele>137</ele>
        <time>2015-03-30T13:15:56.1Z</time>
      </trkpt>
      <trkpt lat="48.60318" lon="-2.48468">
        <ele>137</ele>
        <time>2015-03-30T13:15:59.1Z</time>
      </trkpt>
      <trkpt lat="48.6032" lon="-2.48465">
        <ele>137</ele>
        <time>2015-03-30T13:16:01.1Z</time>
      </trkpt>
      <trkpt lat="48.60322" lon="-2.48459">
        <ele>137</ele>
        <time>2015-03-30T13:16:04.1Z</time>
      </trkpt>
      <trkpt lat="48.60324" lon="-2.48452">
        <ele>138</ele>
        <time>2015-03-30T13:16:06.1Z</time>
      </trkpt>
      <trkpt lat="48.60324" lon="-2.48445">
        <ele>138</ele>
        <time>2015-03-30T13:16:08.1Z</time>
      </trkpt>
      <trkpt lat="48.60326" lon="-2.48438">
        <ele>138</ele>
        <time>2015-03-30T13:16:11.1Z</time>
      </trkpt>
      <trkpt lat="48.60326" lon="-2.48435">
        <ele>138</ele>
        <time>2015-03-30T13:16:13.1Z</time>
      </trkpt>
      <trkpt lat="48.60326" lon="-2.48431">
        <ele>138</ele>
        <time>2015-03-30T13:16:15.1Z</time>
      </trkpt>
      <trkpt lat="48.60328" lon="-2.48424">
        <ele>139</ele>
        <time>2015-03-30T13:16:18.1Z</time>
      </trkpt>
      <trkpt lat="48.60331" lon="-2.48419">
        <ele>139</ele>
        <time>2015-03-30T13:16:20.1Z</time>
      </trkpt>
      <trkpt lat="48.60332" lon="-2.48412">
        <ele>139</ele>
        <time>2015-03-30T13:16:23.1Z</time>
      </trkpt>
      <trkpt lat="48.60333" lon="-2.4841">
        <ele>139</ele>
        <time>2015-03-30T13:16:25.1Z</time>
      </trkpt>
      <trkpt lat="48.60332" lon="-2.4841">
        <ele>139</ele>
        <time>2015-03-30T13:16:27.1Z</time>
      </trkpt>
      <trkpt lat="48.60333" lon="-2.48409">
        <ele>139</ele>
        <time>2015-03-30T13:16:29.1Z</time>
      </trkpt>
      <trkpt lat="48.60334" lon="-2.48407">
        <ele>139</ele>
        <time>2015-03-30T13:16:32.1Z</time>
      </trkpt>
      <trkpt lat="48.60334" lon="-2.48407">
        <ele>138</ele>
        <time>2015-03-30T13:16:37.1Z</time>
      </trkpt>
      <trkpt lat="48.60334" lon="-2.48409">
        <ele>138</ele>
        <time>2015-03-30T13:16:40.1Z</time>
      </trkpt>
      <trkpt lat="48.60335" lon="-2.48409">
        <ele>138</ele>
        <time>2015-03-30T13:16:42.1Z</time>
      </trkpt>
      <trkpt lat="48.60337" lon="-2.48409">
        <ele>138</ele>
        <time>2015-03-30T13:16:45.1Z</time>
      </trkpt>
      <trkpt lat="48.60342" lon="-2.48409">
        <ele>138</ele>
        <time>2015-03-30T13:16:48.1Z</time>
      </trkpt>
      <trkpt lat="48.60345" lon="-2.48411">
        <ele>138</ele>
        <time>2015-03-30T13:16:51.1Z</time>
      </trkpt>
      <trkpt lat="48.60349" lon="-2.4841">
        <ele>138</ele>
        <time>2015-03-30T13:16:53.1Z</time>
      </trkpt>
      <trkpt lat="48.60352" lon="-2.48408">
        <ele>137</ele>
        <time>2015-03-30T13:16:55.1Z</time>
      </trkpt>
      <trkpt lat="48.60355" lon="-2.48404">
        <ele>137</ele>
        <time>2015-03-30T13:16:58.1Z</time>
      </trkpt>
      <trkpt lat="48.60357" lon="-2.48401">
        <ele>137</ele>
        <time>2015-03-30T13:17:00.1Z</time>
      </trkpt>
      <trkpt lat="48.6036" lon="-2.48396">
        <ele>137</ele>
        <time>2015-03-30T13:17:03.1Z</time>
      </trkpt>
      <trkpt lat="48.60362" lon="-2.48394">
        <ele>137</ele>
        <time>2015-03-30T13:17:06.1Z</time>
      </trkpt>
      <trkpt lat="48.60363" lon="-2.48391">
        <ele>137</ele>
        <time>2015-03-30T13:17:08.1Z</time>
      </trkpt>
      <trkpt lat="48.60365" lon="-2.48387">
        <ele>136</ele>
        <time>2015-03-30T13:17:11.1Z</time>
      </trkpt>
      <trkpt lat="48.60366" lon="-2.48384">
        <ele>136</ele>
        <time>2015-03-30T13:17:13.1Z</time>
      </trkpt>
      <trkpt lat="48.60369" lon="-2.4838">
        <ele>136</ele>
        <time>2015-03-30T13:17:16.1Z</time>
      </trkpt>
      <trkpt lat="48.60371" lon="-2.48376">
        <ele>136</ele>
        <time>2015-03-30T13:17:19.1Z</time>
      </trkpt>
      <trkpt lat="48.60372" lon="-2.48373">
        <ele>136</ele>
        <time>2015-03-30T13:17:21.1Z</time>
      </trkpt>
      <trkpt lat="48.60374" lon="-2.48369">
        <ele>136</ele>
        <time>2015-03-30T13:17:24.1Z</time>
      </trkpt>
      <trkpt lat="48.60375" lon="-2.48365">
        <ele>136</ele>
        <time>2015-03-30T13:17:26.1Z</time>
      </trkpt>
      <trkpt lat="48.60377" lon="-2.48362">
        <ele>136</ele>
        <time>2015-03-30T13:17:28.1Z</time>
      </trkpt>
      <trkpt lat="48.60379" lon="-2.48357">
        <ele>136</ele>
        <time>2015-03-30T13:17:31.1Z</time>
      </trkpt>
      <trkpt lat="48.60381" lon="-2.48354">
        <ele>136</ele>
        <time>2015-03-30T13:17:33.1Z</time>
      </trkpt>
      <trkpt lat="48.60384" lon="-2.48349">
        <ele>136</ele>
        <time>2015-03-30T13:17:36.1Z</time>
      </trkpt>
      <trkpt lat="48.60385" lon="-2.48347">
        <ele>136</ele>
        <time>2015-03-30T13:17:38.1Z</time>
      </trkpt>
      <trkpt lat="48.60387" lon="-2.48344">
        <ele>136</ele>
        <time>2015-03-30T13:17:40.1Z</time>
      </trkpt>
      <trkpt lat="48.60389" lon="-2.48339">
        <ele>136</ele>
        <time>2015-03-30T13:17:43.1Z</time>
      </trkpt>
      <trkpt lat="48.60391" lon="-2.48335">
        <ele>135</ele>
        <time>2015-03-30T13:17:45.1Z</time>
      </trkpt>
      <trkpt lat="48.60394" lon="-2.4833">
        <ele>135</ele>
        <time>2015-03-30T13:17:48.1Z</time>
      </trkpt>
      <trkpt lat="48.60396" lon="-2.48328">
        <ele>135</ele>
        <time>2015-03-30T13:17:50.1Z</time>
      </trkpt>
      <trkpt lat="48.60398" lon="-2.48325">
        <ele>135</ele>
        <time>2015-03-30T13:17:53.1Z</time>
      </trkpt>
      <trkpt lat="48.604" lon="-2.48322">
        <ele>135</ele>
        <time>2015-03-30T13:17:56.1Z</time>
      </trkpt>
      <trkpt lat="48.60403" lon="-2.48318">
        <ele>135</ele>
        <time>2015-03-30T13:17:59.1Z</time>
      </trkpt>
      <trkpt lat="48.60405" lon="-2.48315">
        <ele>135</ele>
        <time>2015-03-30T13:18:01.1Z</time>
      </trkpt>
      <trkpt lat="48.60406" lon="-2.48313">
        <ele>135</ele>
        <time>2015-03-30T13:18:03.1Z</time>
      </trkpt>
      <trkpt lat="48.60409" lon="-2.48308">
        <ele>134</ele>
        <time>2015-03-30T13:18:06.1Z</time>
      </trkpt>
      <trkpt lat="48.60411" lon="-2.48305">
        <ele>134</ele>
        <time>2015-03-30T13:18:08.1Z</time>
      </trkpt>
      <trkpt lat="48.60413" lon="-2.48301">
        <ele>134</ele>
        <time>2015-03-30T13:18:11.1Z</time>
      </trkpt>
      <trkpt lat="48.60415" lon="-2.48299">
        <ele>135</ele>
        <time>2015-03-30T13:18:13.1Z</time>
      </trkpt>
      <trkpt lat="48.60418" lon="-2.48295">
        <ele>134</ele>
        <time>2015-03-30T13:18:16.1Z</time>
      </trkpt>
      <trkpt lat="48.60418" lon="-2.48294">
        <ele>134</ele>
        <time>2015-03-30T13:18:18.1Z</time>
      </trkpt>
      <trkpt lat="48.60421" lon="-2.48293">
        <ele>134</ele>
        <time>2015-03-30T13:18:21.1Z</time>
      </trkpt>
      <trkpt lat="48.60423" lon="-2.48294">
        <ele>134</ele>
        <time>2015-03-30T13:18:23.1Z</time>
      </trkpt>
      <trkpt lat="48.60425" lon="-2.48296">
        <ele>134</ele>
        <time>2015-03-30T13:18:25.1Z</time>
      </trkpt>
      <trkpt lat="48.60426" lon="-2.48296">
        <ele>134</ele>
        <time>2015-03-30T13:18:27.1Z</time>
      </trkpt>
      <trkpt lat="48.60428" lon="-2.483">
        <ele>134</ele>
        <time>2015-03-30T13:18:30.1Z</time>
      </trkpt>
      <trkpt lat="48.6043" lon="-2.48303">
        <ele>134</ele>
        <time>2015-03-30T13:18:32.1Z</time>
      </trkpt>
      <trkpt lat="48.60432" lon="-2.48306">
        <ele>133</ele>
        <time>2015-03-30T13:18:35.1Z</time>
      </trkpt>
      <trkpt lat="48.60435" lon="-2.48308">
        <ele>133</ele>
        <time>2015-03-30T13:18:38.1Z</time>
      </trkpt>
      <trkpt lat="48.60436" lon="-2.4831">
        <ele>133</ele>
        <time>2015-03-30T13:18:40.1Z</time>
      </trkpt>
      <trkpt lat="48.6044" lon="-2.48313">
        <ele>133</ele>
        <time>2015-03-30T13:18:43.1Z</time>
      </trkpt>
      <trkpt lat="48.60441" lon="-2.48316">
        <ele>133</ele>
        <time>2015-03-30T13:18:45.1Z</time>
      </trkpt>
      <trkpt lat="48.60442" lon="-2.48319">
        <ele>133</ele>
        <time>2015-03-30T13:18:47.1Z</time>
      </trkpt>
      <trkpt lat="48.60443" lon="-2.48324">
        <ele>133</ele>
        <time>2015-03-30T13:18:50.1Z</time>
      </trkpt>
      <trkpt lat="48.60445" lon="-2.48329">
        <ele>132</ele>
        <time>2015-03-30T13:18:53.1Z</time>
      </trkpt>
      <trkpt lat="48.60447" lon="-2.48334">
        <ele>132</ele>
        <time>2015-03-30T13:18:56.1Z</time>
      </trkpt>
      <trkpt lat="48.60449" lon="-2.48338">
        <ele>131</ele>
        <time>2015-03-30T13:18:59.1Z</time>
      </trkpt>
      <trkpt lat="48.6045" lon="-2.48342">
        <ele>131</ele>
        <time>2015-03-30T13:19:02.1Z</time>
      </trkpt>
      <trkpt lat="48.60452" lon="-2.48345">
        <ele>131</ele>
        <time>2015-03-30T13:19:04.1Z</time>
      </trkpt>
      <trkpt lat="48.60453" lon="-2.48349">
        <ele>131</ele>
        <time>2015-03-30T13:19:06.1Z</time>
      </trkpt>
      <trkpt lat="48.60454" lon="-2.48352">
        <ele>132</ele>
        <time>2015-03-30T13:19:08.1Z</time>
      </trkpt>
      <trkpt lat="48.60455" lon="-2.48354">
        <ele>132</ele>
        <time>2015-03-30T13:19:10.1Z</time>
      </trkpt>
      <trkpt lat="48.60457" lon="-2.48359">
        <ele>132</ele>
        <time>2015-03-30T13:19:13.1Z</time>
      </trkpt>
      <trkpt lat="48.60458" lon="-2.48361">
        <ele>132</ele>
        <time>2015-03-30T13:19:15.1Z</time>
      </trkpt>
      <trkpt lat="48.6046" lon="-2.48366">
        <ele>132</ele>
        <time>2015-03-30T13:19:18.1Z</time>
      </trkpt>
      <trkpt lat="48.60461" lon="-2.48369">
        <ele>132</ele>
        <time>2015-03-30T13:19:20.1Z</time>
      </trkpt>
      <trkpt lat="48.60463" lon="-2.48372">
        <ele>132</ele>
        <time>2015-03-30T13:19:22.1Z</time>
      </trkpt>
      <trkpt lat="48.60464" lon="-2.48377">
        <ele>132</ele>
        <time>2015-03-30T13:19:25.1Z</time>
      </trkpt>
      <trkpt lat="48.60465" lon="-2.48382">
        <ele>132</ele>
        <time>2015-03-30T13:19:28.1Z</time>
      </trkpt>
      <trkpt lat="48.60466" lon="-2.48387">
        <ele>132</ele>
        <time>2015-03-30T13:19:31.1Z</time>
      </trkpt>
      <trkpt lat="48.60467" lon="-2.4839">
        <ele>132</ele>
        <time>2015-03-30T13:19:33.1Z</time>
      </trkpt>
      <trkpt lat="48.60468" lon="-2.48395">
        <ele>132</ele>
        <time>2015-03-30T13:19:36.1Z</time>
      </trkpt>
      <trkpt lat="48.60469" lon="-2.48399">
        <ele>132</ele>
        <time>2015-03-30T13:19:38.1Z</time>
      </trkpt>
      <trkpt lat="48.6047" lon="-2.48401">
        <ele>132</ele>
        <time>2015-03-30T13:19:41.1Z</time>
      </trkpt>
      <trkpt lat="48.6047" lon="-2.48404">
        <ele>132</ele>
        <time>2015-03-30T13:19:43.1Z</time>
      </trkpt>
      <trkpt lat="48.60471" lon="-2.48409">
        <ele>132</ele>
        <time>2015-03-30T13:19:46.1Z</time>
      </trkpt>
      <trkpt lat="48.60474" lon="-2.48414">
        <ele>132</ele>
        <time>2015-03-30T13:19:49.1Z</time>
      </trkpt>
      <trkpt lat="48.60476" lon="-2.48416">
        <ele>132</ele>
        <time>2015-03-30T13:19:51.1Z</time>
      </trkpt>
      <trkpt lat="48.60477" lon="-2.48422">
        <ele>131</ele>
        <time>2015-03-30T13:19:54.1Z</time>
      </trkpt>
      <trkpt lat="48.60479" lon="-2.48427">
        <ele>131</ele>
        <time>2015-03-30T13:19:57.1Z</time>
      </trkpt>
      <trkpt lat="48.6048" lon="-2.4843">
        <ele>130</ele>
        <time>2015-03-30T13:19:59.1Z</time>
      </trkpt>
      <trkpt lat="48.60482" lon="-2.48433">
        <ele>130</ele>
        <time>2015-03-30T13:20:01.1Z</time>
      </trkpt>
      <trkpt lat="48.60484" lon="-2.48438">
        <ele>131</ele>
        <time>2015-03-30T13:20:04.1Z</time>
      </trkpt>
      <trkpt lat="48.60485" lon="-2.4844">
        <ele>131</ele>
        <time>2015-03-30T13:20:06.1Z</time>
      </trkpt>
      <trkpt lat="48.60488" lon="-2.48444">
        <ele>131</ele>
        <time>2015-03-30T13:20:09.1Z</time>
      </trkpt>
      <trkpt lat="48.6049" lon="-2.48447">
        <ele>131</ele>
        <time>2015-03-30T13:20:11.1Z</time>
      </trkpt>
      <trkpt lat="48.60491" lon="-2.4845">
        <ele>131</ele>
        <time>2015-03-30T13:20:13.1Z</time>
      </trkpt>
      <trkpt lat="48.60493" lon="-2.48454">
        <ele>131</ele>
        <time>2015-03-30T13:20:15.1Z</time>
      </trkpt>
      <trkpt lat="48.60495" lon="-2.48458">
        <ele>130</ele>
        <time>2015-03-30T13:20:18.1Z</time>
      </trkpt>
      <trkpt lat="48.60498" lon="-2.48462">
        <ele>130</ele>
        <time>2015-03-30T13:20:21.1Z</time>
      </trkpt>
      <trkpt lat="48.605" lon="-2.48465">
        <ele>130</ele>
        <time>2015-03-30T13:20:23.1Z</time>
      </trkpt>
      <trkpt lat="48.60503" lon="-2.48469">
        <ele>130</ele>
        <time>2015-03-30T13:20:26.1Z</time>
      </trkpt>
      <trkpt lat="48.60504" lon="-2.48471">
        <ele>130</ele>
        <time>2015-03-30T13:20:28.1Z</time>
      </trkpt>
      <trkpt lat="48.60507" lon="-2.48473">
        <ele>130</ele>
        <time>2015-03-30T13:20:30.1Z</time>
      </trkpt>
      <trkpt lat="48.60509" lon="-2.48477">
        <ele>130</ele>
        <time>2015-03-30T13:20:33.1Z</time>
      </trkpt>
      <trkpt lat="48.60511" lon="-2.4848">
        <ele>130</ele>
        <time>2015-03-30T13:20:35.1Z</time>
      </trkpt>
      <trkpt lat="48.60515" lon="-2.48483">
        <ele>130</ele>
        <time>2015-03-30T13:20:38.1Z</time>
      </trkpt>
      <trkpt lat="48.60518" lon="-2.48486">
        <ele>130</ele>
        <time>2015-03-30T13:20:40.1Z</time>
      </trkpt>
      <trkpt lat="48.60519" lon="-2.48488">
        <ele>130</ele>
        <time>2015-03-30T13:20:42.1Z</time>
      </trkpt>
      <trkpt lat="48.60521" lon="-2.48493">
        <ele>130</ele>
        <time>2015-03-30T13:20:45.1Z</time>
      </trkpt>
      <trkpt lat="48.60523" lon="-2.48497">
        <ele>130</ele>
        <time>2015-03-30T13:20:47.1Z</time>
      </trkpt>
      <trkpt lat="48.60525" lon="-2.48501">
        <ele>130</ele>
        <time>2015-03-30T13:20:50.1Z</time>
      </trkpt>
      <trkpt lat="48.60527" lon="-2.48504">
        <ele>129</ele>
        <time>2015-03-30T13:20:53.1Z</time>
      </trkpt>
      <trkpt lat="48.60529" lon="-2.48508">
        <ele>129</ele>
        <time>2015-03-30T13:20:56.1Z</time>
      </trkpt>
      <trkpt lat="48.6053" lon="-2.48509">
        <ele>129</ele>
        <time>2015-03-30T13:20:58.1Z</time>
      </trkpt>
      <trkpt lat="48.60532" lon="-2.48512">
        <ele>129</ele>
        <time>2015-03-30T13:21:00.1Z</time>
      </trkpt>
      <trkpt lat="48.60532" lon="-2.48515">
        <ele>129</ele>
        <time>2015-03-30T13:21:02.1Z</time>
      </trkpt>
      <trkpt lat="48.60535" lon="-2.48519">
        <ele>129</ele>
        <time>2015-03-30T13:21:05.1Z</time>
      </trkpt>
      <trkpt lat="48.60539" lon="-2.48521">
        <ele>129</ele>
        <time>2015-03-30T13:21:08.1Z</time>
      </trkpt>
      <trkpt lat="48.6054" lon="-2.48524">
        <ele>128</ele>
        <time>2015-03-30T13:21:10.1Z</time>
      </trkpt>
      <trkpt lat="48.60542" lon="-2.48528">
        <ele>128</ele>
        <time>2015-03-30T13:21:13.1Z</time>
      </trkpt>
      <trkpt lat="48.60543" lon="-2.48531">
        <ele>128</ele>
        <time>2015-03-30T13:21:15.1Z</time>
      </trkpt>
      <trkpt lat="48.60545" lon="-2.48533">
        <ele>128</ele>
        <time>2015-03-30T13:21:17.1Z</time>
      </trkpt>
      <trkpt lat="48.60545" lon="-2.48536">
        <ele>128</ele>
        <time>2015-03-30T13:21:19.1Z</time>
      </trkpt>
      <trkpt lat="48.60548" lon="-2.4854">
        <ele>128</ele>
        <time>2015-03-30T13:21:22.1Z</time>
      </trkpt>
      <trkpt lat="48.60551" lon="-2.48544">
        <ele>128</ele>
        <time>2015-03-30T13:21:25.1Z</time>
      </trkpt>
      <trkpt lat="48.60553" lon="-2.48545">
        <ele>128</ele>
        <time>2015-03-30T13:21:27.1Z</time>
      </trkpt>
      <trkpt lat="48.60556" lon="-2.48547">
        <ele>127</ele>
        <time>2015-03-30T13:21:29.1Z</time>
      </trkpt>
      <trkpt lat="48.60558" lon="-2.48548">
        <ele>127</ele>
        <time>2015-03-30T13:21:31.1Z</time>
      </trkpt>
      <trkpt lat="48.60561" lon="-2.48549">
        <ele>127</ele>
        <time>2015-03-30T13:21:34.1Z</time>
      </trkpt>
      <trkpt lat="48.60564" lon="-2.48551">
        <ele>127</ele>
        <time>2015-03-30T13:21:37.1Z</time>
      </trkpt>
      <trkpt lat="48.60567" lon="-2.48551">
        <ele>127</ele>
        <time>2015-03-30T13:21:40.1Z</time>
      </trkpt>
      <trkpt lat="48.60569" lon="-2.48552">
        <ele>128</ele>
        <time>2015-03-30T13:21:42.1Z</time>
      </trkpt>
      <trkpt lat="48.60572" lon="-2.48552">
        <ele>128</ele>
        <time>2015-03-30T13:21:45.1Z</time>
      </trkpt>
      <trkpt lat="48.60575" lon="-2.48551">
        <ele>128</ele>
        <time>2015-03-30T13:21:48.1Z</time>
      </trkpt>
      <trkpt lat="48.60577" lon="-2.48551">
        <ele>128</ele>
        <time>2015-03-30T13:21:50.1Z</time>
      </trkpt>
      <trkpt lat="48.6058" lon="-2.48549">
        <ele>128</ele>
        <time>2015-03-30T13:21:53.1Z</time>
      </trkpt>
      <trkpt lat="48.60583" lon="-2.48547">
        <ele>128</ele>
        <time>2015-03-30T13:21:55.1Z</time>
      </trkpt>
      <trkpt lat="48.60585" lon="-2.48544">
        <ele>128</ele>
        <time>2015-03-30T13:21:58.1Z</time>
      </trkpt>
      <trkpt lat="48.60588" lon="-2.48541">
        <ele>129</ele>
        <time>2015-03-30T13:22:01.1Z</time>
      </trkpt>
      <trkpt lat="48.6059" lon="-2.48538">
        <ele>129</ele>
        <time>2015-03-30T13:22:03.1Z</time>
      </trkpt>
      <trkpt lat="48.60594" lon="-2.48534">
        <ele>129</ele>
        <time>2015-03-30T13:22:06.1Z</time>
      </trkpt>
      <trkpt lat="48.60596" lon="-2.4853">
        <ele>129</ele>
        <time>2015-03-30T13:22:09.1Z</time>
      </trkpt>
      <trkpt lat="48.60598" lon="-2.48527">
        <ele>129</ele>
        <time>2015-03-30T13:22:11.1Z</time>
      </trkpt>
      <trkpt lat="48.60601" lon="-2.48524">
        <ele>129</ele>
        <time>2015-03-30T13:22:14.1Z</time>
      </trkpt>
      <trkpt lat="48.60604" lon="-2.48521">
        <ele>130</ele>
        <time>2015-03-30T13:22:17.1Z</time>
      </trkpt>
      <trkpt lat="48.60606" lon="-2.48518">
        <ele>130</ele>
        <time>2015-03-30T13:22:20.1Z</time>
      </trkpt>
      <trkpt lat="48.60609" lon="-2.48515">
        <ele>130</ele>
        <time>2015-03-30T13:22:23.1Z</time>
      </trkpt>
      <trkpt lat="48.60611" lon="-2.48512">
        <ele>130</ele>
        <time>2015-03-30T13:22:26.1Z</time>
      </trkpt>
      <trkpt lat="48.60614" lon="-2.48509">
        <ele>130</ele>
        <time>2015-03-30T13:22:29.1Z</time>
      </trkpt>
      <trkpt lat="48.60617" lon="-2.48506">
        <ele>130</ele>
        <time>2015-03-30T13:22:32.1Z</time>
      </trkpt>
      <trkpt lat="48.60619" lon="-2.48504">
        <ele>130</ele>
        <time>2015-03-30T13:22:34.1Z</time>
      </trkpt>
      <trkpt lat="48.60622" lon="-2.48501">
        <ele>131</ele>
        <time>2015-03-30T13:22:37.1Z</time>
      </trkpt>
      <trkpt lat="48.60623" lon="-2.48498">
        <ele>131</ele>
        <time>2015-03-30T13:22:39.1Z</time>
      </trkpt>
      <trkpt lat="48.60624" lon="-2.48496">
        <ele>131</ele>
        <time>2015-03-30T13:22:41.1Z</time>
      </trkpt>
      <trkpt lat="48.60626" lon="-2.48493">
        <ele>131</ele>
        <time>2015-03-30T13:22:43.1Z</time>
      </trkpt>
      <trkpt lat="48.60628" lon="-2.4849">
        <ele>131</ele>
        <time>2015-03-30T13:22:46.1Z</time>
      </trkpt>
      <trkpt lat="48.6063" lon="-2.48487">
        <ele>132</ele>
        <time>2015-03-30T13:22:49.1Z</time>
      </trkpt>
      <trkpt lat="48.60631" lon="-2.48485">
        <ele>132</ele>
        <time>2015-03-30T13:22:51.1Z</time>
      </trkpt>
      <trkpt lat="48.60632" lon="-2.48483">
        <ele>133</ele>
        <time>2015-03-30T13:22:53.1Z</time>
      </trkpt>
      <trkpt lat="48.60634" lon="-2.4848">
        <ele>133</ele>
        <time>2015-03-30T13:22:55.1Z</time>
      </trkpt>
      <trkpt lat="48.60636" lon="-2.48478">
        <ele>133</ele>
        <time>2015-03-30T13:22:58.1Z</time>
      </trkpt>
      <trkpt lat="48.60638" lon="-2.48476">
        <ele>132</ele>
        <time>2015-03-30T13:23:00.1Z</time>
      </trkpt>
      <trkpt lat="48.6064" lon="-2.48474">
        <ele>132</ele>
        <time>2015-03-30T13:23:02.1Z</time>
      </trkpt>
      <trkpt lat="48.60642" lon="-2.48471">
        <ele>133</ele>
        <time>2015-03-30T13:23:05.1Z</time>
      </trkpt>
      <trkpt lat="48.60644" lon="-2.4847">
        <ele>133</ele>
        <time>2015-03-30T13:23:07.1Z</time>
      </trkpt>
      <trkpt lat="48.60647" lon="-2.48468">
        <ele>133</ele>
        <time>2015-03-30T13:23:10.1Z</time>
      </trkpt>
      <trkpt lat="48.60649" lon="-2.48467">
        <ele>134</ele>
        <time>2015-03-30T13:23:13.1Z</time>
      </trkpt>
      <trkpt lat="48.60652" lon="-2.48466">
        <ele>134</ele>
        <time>2015-03-30T13:23:16.1Z</time>
      </trkpt>
      <trkpt lat="48.60653" lon="-2.48466">
        <ele>134</ele>
        <time>2015-03-30T13:23:18.1Z</time>
      </trkpt>
      <trkpt lat="48.60655" lon="-2.48466">
        <ele>135</ele>
        <time>2015-03-30T13:23:20.1Z</time>
      </trkpt>
      <trkpt lat="48.60658" lon="-2.48465">
        <ele>135</ele>
        <time>2015-03-30T13:23:23.1Z</time>
      </trkpt>
      <trkpt lat="48.6066" lon="-2.48466">
        <ele>136</ele>
        <time>2015-03-30T13:23:25.1Z</time>
      </trkpt>
      <trkpt lat="48.60662" lon="-2.48466">
        <ele>136</ele>
        <time>2015-03-30T13:23:27.1Z</time>
      </trkpt>
      <trkpt lat="48.60664" lon="-2.48467">
        <ele>136</ele>
        <time>2015-03-30T13:23:29.1Z</time>
      </trkpt>
      <trkpt lat="48.60667" lon="-2.48469">
        <ele>136</ele>
        <time>2015-03-30T13:23:32.1Z</time>
      </trkpt>
      <trkpt lat="48.6067" lon="-2.4847">
        <ele>137</ele>
        <time>2015-03-30T13:23:35.1Z</time>
      </trkpt>
      <trkpt lat="48.60671" lon="-2.48472">
        <ele>137</ele>
        <time>2015-03-30T13:23:37.1Z</time>
      </trkpt>
      <trkpt lat="48.60674" lon="-2.48473">
        <ele>138</ele>
        <time>2015-03-30T13:23:40.1Z</time>
      </trkpt>
      <trkpt lat="48.60677" lon="-2.48473">
        <ele>138</ele>
        <time>2015-03-30T13:23:43.1Z</time>
      </trkpt>
      <trkpt lat="48.6068" lon="-2.48473">
        <ele>139</ele>
        <time>2015-03-30T13:23:45.1Z</time>
      </trkpt>
      <trkpt lat="48.60683" lon="-2.48473">
        <ele>139</ele>
        <time>2015-03-30T13:23:48.1Z</time>
      </trkpt>
      <trkpt lat="48.60685" lon="-2.48472">
        <ele>139</ele>
        <time>2015-03-30T13:23:50.1Z</time>
      </trkpt>
      <trkpt lat="48.60688" lon="-2.48472">
        <ele>139</ele>
        <time>2015-03-30T13:23:53.1Z</time>
      </trkpt>
      <trkpt lat="48.60691" lon="-2.48471">
        <ele>139</ele>
        <time>2015-03-30T13:23:56.1Z</time>
      </trkpt>
      <trkpt lat="48.60694" lon="-2.4847">
        <ele>139</ele>
        <time>2015-03-30T13:23:58.1Z</time>
      </trkpt>
      <trkpt lat="48.60697" lon="-2.48469">
        <ele>139</ele>
        <time>2015-03-30T13:24:01.1Z</time>
      </trkpt>
      <trkpt lat="48.60699" lon="-2.48469">
        <ele>139</ele>
        <time>2015-03-30T13:24:03.1Z</time>
      </trkpt>
      <trkpt lat="48.60701" lon="-2.48468">
        <ele>139</ele>
        <time>2015-03-30T13:24:05.1Z</time>
      </trkpt>
      <trkpt lat="48.60705" lon="-2.48466">
        <ele>140</ele>
        <time>2015-03-30T13:24:08.1Z</time>
      </trkpt>
      <trkpt lat="48.60707" lon="-2.48466">
        <ele>140</ele>
        <time>2015-03-30T13:24:10.1Z</time>
      </trkpt>
      <trkpt lat="48.60709" lon="-2.48466">
        <ele>140</ele>
        <time>2015-03-30T13:24:13.1Z</time>
      </trkpt>
      <trkpt lat="48.6071" lon="-2.48466">
        <ele>140</ele>
        <time>2015-03-30T13:24:15.1Z</time>
      </trkpt>
      <trkpt lat="48.60712" lon="-2.48465">
        <ele>140</ele>
        <time>2015-03-30T13:24:17.1Z</time>
      </trkpt>
      <trkpt lat="48.60714" lon="-2.48465">
        <ele>140</ele>
        <time>2015-03-30T13:24:20.1Z</time>
      </trkpt>
      <trkpt lat="48.60717" lon="-2.48463">
        <ele>140</ele>
        <time>2015-03-30T13:24:23.1Z</time>
      </trkpt>
      <trkpt lat="48.60719" lon="-2.48462">
        <ele>140</ele>
        <time>2015-03-30T13:24:25.1Z</time>
      </trkpt>
      <trkpt lat="48.60722" lon="-2.48461">
        <ele>140</ele>
        <time>2015-03-30T13:24:28.1Z</time>
      </trkpt>
      <trkpt lat="48.60724" lon="-2.4846">
        <ele>140</ele>
        <time>2015-03-30T13:24:30.1Z</time>
      </trkpt>
      <trkpt lat="48.60727" lon="-2.4846">
        <ele>139</ele>
        <time>2015-03-30T13:24:33.1Z</time>
      </trkpt>
      <trkpt lat="48.60729" lon="-2.48461">
        <ele>140</ele>
        <time>2015-03-30T13:24:36.1Z</time>
      </trkpt>
      <trkpt lat="48.6073" lon="-2.48461">
        <ele>140</ele>
        <time>2015-03-30T13:24:39.1Z</time>
      </trkpt>
      <trkpt lat="48.6073" lon="-2.48461">
        <ele>140</ele>
        <time>2015-03-30T13:24:42.1Z</time>
      </trkpt>
      <trkpt lat="48.6073" lon="-2.48461">
        <ele>140</ele>
        <time>2015-03-30T13:24:45.1Z</time>
      </trkpt>
      <trkpt lat="48.6073" lon="-2.48458">
        <ele>140</ele>
        <time>2015-03-30T13:24:48.1Z</time>
      </trkpt>
      <trkpt lat="48.60732" lon="-2.48456">
        <ele>140</ele>
        <time>2015-03-30T13:24:51.1Z</time>
      </trkpt>
      <trkpt lat="48.60735" lon="-2.48456">
        <ele>140</ele>
        <time>2015-03-30T13:24:53.1Z</time>
      </trkpt>
      <trkpt lat="48.60738" lon="-2.48456">
        <ele>139</ele>
        <time>2015-03-30T13:24:56.1Z</time>
      </trkpt>
      <trkpt lat="48.60741" lon="-2.48455">
        <ele>139</ele>
        <time>2015-03-30T13:24:58.1Z</time>
      </trkpt>
      <trkpt lat="48.60744" lon="-2.48454">
        <ele>139</ele>
        <time>2015-03-30T13:25:00.1Z</time>
      </trkpt>
      <trkpt lat="48.60746" lon="-2.48454">
        <ele>139</ele>
        <time>2015-03-30T13:25:02.1Z</time>
      </trkpt>
      <trkpt lat="48.6075" lon="-2.48455">
        <ele>139</ele>
        <time>2015-03-30T13:25:05.1Z</time>
      </trkpt>
      <trkpt lat="48.60752" lon="-2.48456">
        <ele>138</ele>
        <time>2015-03-30T13:25:07.1Z</time>
      </trkpt>
      <trkpt lat="48.60755" lon="-2.48456">
        <ele>138</ele>
        <time>2015-03-30T13:25:09.1Z</time>
      </trkpt>
      <trkpt lat="48.60758" lon="-2.48456">
        <ele>138</ele>
        <time>2015-03-30T13:25:12.1Z</time>
      </trkpt>
      <trkpt lat="48.60762" lon="-2.48457">
        <ele>138</ele>
        <time>2015-03-30T13:25:15.1Z</time>
      </trkpt>
      <trkpt lat="48.60765" lon="-2.48457">
        <ele>138</ele>
        <time>2015-03-30T13:25:17.1Z</time>
      </trkpt>
      <trkpt lat="48.60769" lon="-2.48458">
        <ele>138</ele>
        <time>2015-03-30T13:25:20.1Z</time>
      </trkpt>
      <trkpt lat="48.60773" lon="-2.48459">
        <ele>137</ele>
        <time>2015-03-30T13:25:23.1Z</time>
      </trkpt>
      <trkpt lat="48.60777" lon="-2.4846">
        <ele>137</ele>
        <time>2015-03-30T13:25:26.1Z</time>
      </trkpt>
      <trkpt lat="48.60782" lon="-2.4846">
        <ele>137</ele>
        <time>2015-03-30T13:25:29.1Z</time>
      </trkpt>
      <trkpt lat="48.60787" lon="-2.48461">
        <ele>137</ele>
        <time>2015-03-30T13:25:32.1Z</time>
      </trkpt>
      <trkpt lat="48.60791" lon="-2.48462">
        <ele>137</ele>
        <time>2015-03-30T13:25:35.1Z</time>
      </trkpt>
      <trkpt lat="48.60794" lon="-2.48463">
        <ele>137</ele>
        <time>2015-03-30T13:25:38.1Z</time>
      </trkpt>
      <trkpt lat="48.60797" lon="-2.48463">
        <ele>136</ele>
        <time>2015-03-30T13:25:40.1Z</time>
      </trkpt>
      <trkpt lat="48.60799" lon="-2.48465">
        <ele>136</ele>
        <time>2015-03-30T13:25:42.1Z</time>
      </trkpt>
      <trkpt lat="48.60805" lon="-2.48465">
        <ele>136</ele>
        <time>2015-03-30T13:25:45.1Z</time>
      </trkpt>
      <trkpt lat="48.60808" lon="-2.48466">
        <ele>136</ele>
        <time>2015-03-30T13:25:48.1Z</time>
      </trkpt>
      <trkpt lat="48.60812" lon="-2.48468">
        <ele>135</ele>
        <time>2015-03-30T13:25:51.1Z</time>
      </trkpt>
      <trkpt lat="48.60815" lon="-2.48468">
        <ele>136</ele>
        <time>2015-03-30T13:25:53.1Z</time>
      </trkpt>
      <trkpt lat="48.60819" lon="-2.48469">
        <ele>135</ele>
        <time>2015-03-30T13:25:56.1Z</time>
      </trkpt>
      <trkpt lat="48.60821" lon="-2.48469">
        <ele>136</ele>
        <time>2015-03-30T13:25:58.1Z</time>
      </trkpt>
      <trkpt lat="48.60824" lon="-2.48469">
        <ele>136</ele>
        <time>2015-03-30T13:26:00.1Z</time>
      </trkpt>
      <trkpt lat="48.60828" lon="-2.48469">
        <ele>136</ele>
        <time>2015-03-30T13:26:03.1Z</time>
      </trkpt>
      <trkpt lat="48.60831" lon="-2.48468">
        <ele>136</ele>
        <time>2015-03-30T13:26:05.1Z</time>
      </trkpt>
      <trkpt lat="48.60833" lon="-2.48467">
        <ele>136</ele>
        <time>2015-03-30T13:26:07.1Z</time>
      </trkpt>
      <trkpt lat="48.60836" lon="-2.48466">
        <ele>135</ele>
        <time>2015-03-30T13:26:10.1Z</time>
      </trkpt>
      <trkpt lat="48.60839" lon="-2.48465">
        <ele>135</ele>
        <time>2015-03-30T13:26:12.1Z</time>
      </trkpt>
      <trkpt lat="48.60842" lon="-2.48462">
        <ele>135</ele>
        <time>2015-03-30T13:26:15.1Z</time>
      </trkpt>
      <trkpt lat="48.60844" lon="-2.4846">
        <ele>135</ele>
        <time>2015-03-30T13:26:17.1Z</time>
      </trkpt>
      <trkpt lat="48.60846" lon="-2.48457">
        <ele>135</ele>
        <time>2015-03-30T13:26:19.1Z</time>
      </trkpt>
      <trkpt lat="48.60847" lon="-2.48453">
        <ele>135</ele>
        <time>2015-03-30T13:26:22.1Z</time>
      </trkpt>
      <trkpt lat="48.60847" lon="-2.48452">
        <ele>135</ele>
        <time>2015-03-30T13:26:24.1Z</time>
      </trkpt>
      <trkpt lat="48.60848" lon="-2.48449">
        <ele>135</ele>
        <time>2015-03-30T13:26:27.1Z</time>
      </trkpt>
      <trkpt lat="48.60849" lon="-2.48447">
        <ele>135</ele>
        <time>2015-03-30T13:26:29.1Z</time>
      </trkpt>
      <trkpt lat="48.60848" lon="-2.48447">
        <ele>135</ele>
        <time>2015-03-30T13:26:32.1Z</time>
      </trkpt>
      <trkpt lat="48.60849" lon="-2.48446">
        <ele>135</ele>
        <time>2015-03-30T13:26:34.1Z</time>
      </trkpt>
      <trkpt lat="48.60849" lon="-2.48443">
        <ele>135</ele>
        <time>2015-03-30T13:26:37.1Z</time>
      </trkpt>
      <trkpt lat="48.60849" lon="-2.48443">
        <ele>135</ele>
        <time>2015-03-30T13:26:40.1Z</time>
      </trkpt>
      <trkpt lat="48.60849" lon="-2.48442">
        <ele>135</ele>
        <time>2015-03-30T13:26:42.1Z</time>
      </trkpt>
      <trkpt lat="48.6085" lon="-2.48441">
        <ele>135</ele>
        <time>2015-03-30T13:26:44.1Z</time>
      </trkpt>
      <trkpt lat="48.60852" lon="-2.48437">
        <ele>135</ele>
        <time>2015-03-30T13:26:47.1Z</time>
      </trkpt>
      <trkpt lat="48.60853" lon="-2.48434">
        <ele>135</ele>
        <time>2015-03-30T13:26:49.1Z</time>
      </trkpt>
      <trkpt lat="48.60854" lon="-2.48431">
        <ele>135</ele>
        <time>2015-03-30T13:26:51.1Z</time>
      </trkpt>
      <trkpt lat="48.60856" lon="-2.48426">
        <ele>135</ele>
        <time>2015-03-30T13:26:54.1Z</time>
      </trkpt>
      <trkpt lat="48.60857" lon="-2.48423">
        <ele>135</ele>
        <time>2015-03-30T13:26:56.1Z</time>
      </trkpt>
      <trkpt lat="48.6086" lon="-2.48419">
        <ele>135</ele>
        <time>2015-03-30T13:26:59.1Z</time>
      </trkpt>
      <trkpt lat="48.60862" lon="-2.48415">
        <ele>135</ele>
        <time>2015-03-30T13:27:01.1Z</time>
      </trkpt>
      <trkpt lat="48.60863" lon="-2.48411">
        <ele>136</ele>
        <time>2015-03-30T13:27:04.1Z</time>
      </trkpt>
      <trkpt lat="48.60864" lon="-2.48408">
        <ele>136</ele>
        <time>2015-03-30T13:27:06.1Z</time>
      </trkpt>
      <trkpt lat="48.60865" lon="-2.48404">
        <ele>136</ele>
        <time>2015-03-30T13:27:09.1Z</time>
      </trkpt>
      <trkpt lat="48.60867" lon="-2.484">
        <ele>136</ele>
        <time>2015-03-30T13:27:12.1Z</time>
      </trkpt>
      <trkpt lat="48.60867" lon="-2.48397">
        <ele>136</ele>
        <time>2015-03-30T13:27:14.1Z</time>
      </trkpt>
      <trkpt lat="48.60869" lon="-2.48393">
        <ele>136</ele>
        <time>2015-03-30T13:27:17.1Z</time>
      </trkpt>
      <trkpt lat="48.6087" lon="-2.48391">
        <ele>136</ele>
        <time>2015-03-30T13:27:19.1Z</time>
      </trkpt>
      <trkpt lat="48.60871" lon="-2.48388">
        <ele>136</ele>
        <time>2015-03-30T13:27:21.1Z</time>
      </trkpt>
      <trkpt lat="48.60872" lon="-2.48384">
        <ele>136</ele>
        <time>2015-03-30T13:27:24.1Z</time>
      </trkpt>
      <trkpt lat="48.60873" lon="-2.48382">
        <ele>136</ele>
        <time>2015-03-30T13:27:26.1Z</time>
      </trkpt>
      <trkpt lat="48.60873" lon="-2.48381">
        <ele>136</ele>
        <time>2015-03-30T13:27:29.1Z</time>
      </trkpt>
      <trkpt lat="48.60873" lon="-2.48381">
        <ele>136</ele>
        <time>2015-03-30T13:27:31.1Z</time>
      </trkpt>
      <trkpt lat="48.60874" lon="-2.48381">
        <ele>136</ele>
        <time>2015-03-30T13:27:34.1Z</time>
      </trkpt>
      <trkpt lat="48.60874" lon="-2.48381">
        <ele>136</ele>
        <time>2015-03-30T13:27:36.1Z</time>
      </trkpt>
      <trkpt lat="48.60874" lon="-2.48382">
        <ele>136</ele>
        <time>2015-03-30T13:27:39.1Z</time>
      </trkpt>
      <trkpt lat="48.60874" lon="-2.48381">
        <ele>136</ele>
        <time>2015-03-30T13:27:42.1Z</time>
      </trkpt>
      <trkpt lat="48.60874" lon="-2.48381">
        <ele>136</ele>
        <time>2015-03-30T13:27:45.1Z</time>
      </trkpt>
      <trkpt lat="48.60875" lon="-2.48381">
        <ele>136</ele>
        <time>2015-03-30T13:27:48.1Z</time>
      </trkpt>
      <trkpt lat="48.60875" lon="-2.48381">
        <ele>136</ele>
        <time>2015-03-30T13:27:52.1Z</time>
      </trkpt>
      <trkpt lat="48.60875" lon="-2.48381">
        <ele>136</ele>
        <time>2015-03-30T13:27:54.1Z</time>
      </trkpt>
      <trkpt lat="48.60875" lon="-2.4838">
        <ele>136</ele>
        <time>2015-03-30T13:27:57.1Z</time>
      </trkpt>
      <trkpt lat="48.60874" lon="-2.48379">
        <ele>136</ele>
        <time>2015-03-30T13:27:59.1Z</time>
      </trkpt>
      <trkpt lat="48.60873" lon="-2.48376">
        <ele>136</ele>
        <time>2015-03-30T13:28:02.1Z</time>
      </trkpt>
      <trkpt lat="48.60873" lon="-2.48376">
        <ele>136</ele>
        <time>2015-03-30T13:28:05.1Z</time>
      </trkpt>
      <trkpt lat="48.60873" lon="-2.48375">
        <ele>136</ele>
        <time>2015-03-30T13:28:08.1Z</time>
      </trkpt>
      <trkpt lat="48.60873" lon="-2.48375">
        <ele>136</ele>
        <time>2015-03-30T13:28:12.1Z</time>
      </trkpt>
      <trkpt lat="48.60873" lon="-2.48375">
        <ele>136</ele>
        <time>2015-03-30T13:28:14.1Z</time>
      </trkpt>
      <trkpt lat="48.60873" lon="-2.48375">
        <ele>137</ele>
        <time>2015-03-30T13:28:17.1Z</time>
      </trkpt>
      <trkpt lat="48.60874" lon="-2.48373">
        <ele>136</ele>
        <time>2015-03-30T13:28:20.1Z</time>
      </trkpt>
      <trkpt lat="48.60875" lon="-2.48372">
        <ele>136</ele>
        <time>2015-03-30T13:28:23.1Z</time>
      </trkpt>
      <trkpt lat="48.60877" lon="-2.4837">
        <ele>136</ele>
        <time>2015-03-30T13:28:25.1Z</time>
      </trkpt>
      <trkpt lat="48.60877" lon="-2.48365">
        <ele>136</ele>
        <time>2015-03-30T13:28:28.1Z</time>
      </trkpt>
      <trkpt lat="48.60878" lon="-2.48364">
        <ele>136</ele>
        <time>2015-03-30T13:28:31.1Z</time>
      </trkpt>
      <trkpt lat="48.60878" lon="-2.48364">
        <ele>137</ele>
        <time>2015-03-30T13:28:33.1Z</time>
      </trkpt>
      <trkpt lat="48.60878" lon="-2.48364">
        <ele>137</ele>
        <time>2015-03-30T13:28:36.1Z</time>
      </trkpt>
      <trkpt lat="48.60878" lon="-2.48364">
        <ele>137</ele>
        <time>2015-03-30T13:28:38.1Z</time>
      </trkpt>
      <trkpt lat="48.60878" lon="-2.48363">
        <ele>137</ele>
        <time>2015-03-30T13:28:41.1Z</time>
      </trkpt>
      <trkpt lat="48.60879" lon="-2.48361">
        <ele>137</ele>
        <time>2015-03-30T13:28:43.1Z</time>
      </trkpt>
      <trkpt lat="48.60881" lon="-2.48358">
        <ele>137</ele>
        <time>2015-03-30T13:28:45.1Z</time>
      </trkpt>
      <trkpt lat="48.60882" lon="-2.48355">
        <ele>137</ele>
        <time>2015-03-30T13:28:48.1Z</time>
      </trkpt>
      <trkpt lat="48.60884" lon="-2.48352">
        <ele>137</ele>
        <time>2015-03-30T13:28:50.1Z</time>
      </trkpt>
      <trkpt lat="48.60885" lon="-2.48348">
        <ele>137</ele>
        <time>2015-03-30T13:28:52.1Z</time>
      </trkpt>
      <trkpt lat="48.60886" lon="-2.48346">
        <ele>137</ele>
        <time>2015-03-30T13:28:54.1Z</time>
      </trkpt>
      <trkpt lat="48.60887" lon="-2.48343">
        <ele>137</ele>
        <time>2015-03-30T13:28:56.1Z</time>
      </trkpt>
      <trkpt lat="48.60889" lon="-2.4834">
        <ele>137</ele>
        <time>2015-03-30T13:28:59.1Z</time>
      </trkpt>
      <trkpt lat="48.6089" lon="-2.48336">
        <ele>137</ele>
        <time>2015-03-30T13:29:02.1Z</time>
      </trkpt>
      <trkpt lat="48.60891" lon="-2.48334">
        <ele>137</ele>
        <time>2015-03-30T13:29:04.1Z</time>
      </trkpt>
      <trkpt lat="48.60892" lon="-2.48331">
        <ele>137</ele>
        <time>2015-03-30T13:29:06.1Z</time>
      </trkpt>
      <trkpt lat="48.60892" lon="-2.48329">
        <ele>137</ele>
        <time>2015-03-30T13:29:08.1Z</time>
      </trkpt>
      <trkpt lat="48.60894" lon="-2.48326">
        <ele>137</ele>
        <time>2015-03-30T13:29:11.1Z</time>
      </trkpt>
      <trkpt lat="48.60894" lon="-2.48323">
        <ele>137</ele>
        <time>2015-03-30T13:29:13.1Z</time>
      </trkpt>
      <trkpt lat="48.60896" lon="-2.4832">
        <ele>137</ele>
        <time>2015-03-30T13:29:16.1Z</time>
      </trkpt>
      <trkpt lat="48.60897" lon="-2.48317">
        <ele>137</ele>
        <time>2015-03-30T13:29:18.1Z</time>
      </trkpt>
      <trkpt lat="48.60898" lon="-2.48315">
        <ele>137</ele>
        <time>2015-03-30T13:29:20.1Z</time>
      </trkpt>
      <trkpt lat="48.609" lon="-2.4831">
        <ele>137</ele>
        <time>2015-03-30T13:29:23.1Z</time>
      </trkpt>
      <trkpt lat="48.60902" lon="-2.48306">
        <ele>137</ele>
        <time>2015-03-30T13:29:26.1Z</time>
      </trkpt>
      <trkpt lat="48.60903" lon="-2.48303">
        <ele>137</ele>
        <time>2015-03-30T13:29:28.1Z</time>
      </trkpt>
      <trkpt lat="48.60904" lon="-2.48299">
        <ele>138</ele>
        <time>2015-03-30T13:29:31.1Z</time>
      </trkpt>
      <trkpt lat="48.60906" lon="-2.48295">
        <ele>138</ele>
        <time>2015-03-30T13:29:34.1Z</time>
      </trkpt>
      <trkpt lat="48.60907" lon="-2.48291">
        <ele>138</ele>
        <time>2015-03-30T13:29:37.1Z</time>
      </trkpt>
      <trkpt lat="48.60908" lon="-2.48289">
        <ele>137</ele>
        <time>2015-03-30T13:29:39.1Z</time>
      </trkpt>
      <trkpt lat="48.6091" lon="-2.48286">
        <ele>137</ele>
        <time>2015-03-30T13:29:42.1Z</time>
      </trkpt>
      <trkpt lat="48.60912" lon="-2.48283">
        <ele>137</ele>
        <time>2015-03-30T13:29:44.1Z</time>
      </trkpt>
      <trkpt lat="48.60913" lon="-2.4828">
        <ele>137</ele>
        <time>2015-03-30T13:29:46.1Z</time>
      </trkpt>
      <trkpt lat="48.60915" lon="-2.48276">
        <ele>137</ele>
        <time>2015-03-30T13:29:49.1Z</time>
      </trkpt>
      <trkpt lat="48.60916" lon="-2.48272">
        <ele>138</ele>
        <time>2015-03-30T13:29:52.1Z</time>
      </trkpt>
      <trkpt lat="48.60918" lon="-2.48268">
        <ele>138</ele>
        <time>2015-03-30T13:29:55.1Z</time>
      </trkpt>
      <trkpt lat="48.60921" lon="-2.48264">
        <ele>138</ele>
        <time>2015-03-30T13:29:58.1Z</time>
      </trkpt>
      <trkpt lat="48.60923" lon="-2.48259">
        <ele>138</ele>
        <time>2015-03-30T13:30:01.1Z</time>
      </trkpt>
      <trkpt lat="48.60924" lon="-2.48255">
        <ele>137</ele>
        <time>2015-03-30T13:30:04.1Z</time>
      </trkpt>
      <trkpt lat="48.60925" lon="-2.48252">
        <ele>137</ele>
        <time>2015-03-30T13:30:06.1Z</time>
      </trkpt>
      <trkpt lat="48.60926" lon="-2.48249">
        <ele>138</ele>
        <time>2015-03-30T13:30:08.1Z</time>
      </trkpt>
      <trkpt lat="48.60928" lon="-2.48246">
        <ele>138</ele>
        <time>2015-03-30T13:30:10.1Z</time>
      </trkpt>
      <trkpt lat="48.60928" lon="-2.48243">
        <ele>138</ele>
        <time>2015-03-30T13:30:12.1Z</time>
      </trkpt>
      <trkpt lat="48.6093" lon="-2.48239">
        <ele>138</ele>
        <time>2015-03-30T13:30:15.1Z</time>
      </trkpt>
      <trkpt lat="48.60931" lon="-2.48234">
        <ele>138</ele>
        <time>2015-03-30T13:30:18.1Z</time>
      </trkpt>
      <trkpt lat="48.60932" lon="-2.48231">
        <ele>138</ele>
        <time>2015-03-30T13:30:20.1Z</time>
      </trkpt>
      <trkpt lat="48.60934" lon="-2.48226">
        <ele>138</ele>
        <time>2015-03-30T13:30:23.1Z</time>
      </trkpt>
      <trkpt lat="48.60935" lon="-2.48222">
        <ele>138</ele>
        <time>2015-03-30T13:30:26.1Z</time>
      </trkpt>
      <trkpt lat="48.60936" lon="-2.48219">
        <ele>138</ele>
        <time>2015-03-30T13:30:28.1Z</time>
      </trkpt>
      <trkpt lat="48.60938" lon="-2.48215">
        <ele>138</ele>
        <time>2015-03-30T13:30:31.1Z</time>
      </trkpt>
      <trkpt lat="48.60939" lon="-2.48212">
        <ele>138</ele>
        <time>2015-03-30T13:30:33.1Z</time>
      </trkpt>
      <trkpt lat="48.60941" lon="-2.48207">
        <ele>138</ele>
        <time>2015-03-30T13:30:36.1Z</time>
      </trkpt>
      <trkpt lat="48.60942" lon="-2.48204">
        <ele>138</ele>
        <time>2015-03-30T13:30:38.1Z</time>
      </trkpt>
      <trkpt lat="48.60943" lon="-2.482">
        <ele>138</ele>
        <time>2015-03-30T13:30:40.1Z</time>
      </trkpt>
      <trkpt lat="48.60944" lon="-2.48196">
        <ele>138</ele>
        <time>2015-03-30T13:30:43.1Z</time>
      </trkpt>
      <trkpt lat="48.60945" lon="-2.48193">
        <ele>138</ele>
        <time>2015-03-30T13:30:45.1Z</time>
      </trkpt>
      <trkpt lat="48.60946" lon="-2.48189">
        <ele>138</ele>
        <time>2015-03-30T13:30:48.1Z</time>
      </trkpt>
      <trkpt lat="48.60947" lon="-2.48186">
        <ele>138</ele>
        <time>2015-03-30T13:30:50.1Z</time>
      </trkpt>
      <trkpt lat="48.60947" lon="-2.48181">
        <ele>138</ele>
        <time>2015-03-30T13:30:53.1Z</time>
      </trkpt>
      <trkpt lat="48.60948" lon="-2.48177">
        <ele>137</ele>
        <time>2015-03-30T13:30:56.1Z</time>
      </trkpt>
      <trkpt lat="48.60949" lon="-2.48174">
        <ele>137</ele>
        <time>2015-03-30T13:30:58.1Z</time>
      </trkpt>
      <trkpt lat="48.6095" lon="-2.48169">
        <ele>137</ele>
        <time>2015-03-30T13:31:01.1Z</time>
      </trkpt>
      <trkpt lat="48.60951" lon="-2.48165">
        <ele>138</ele>
        <time>2015-03-30T13:31:04.1Z</time>
      </trkpt>
      <trkpt lat="48.60952" lon="-2.48162">
        <ele>138</ele>
        <time>2015-03-30T13:31:06.1Z</time>
      </trkpt>
      <trkpt lat="48.60953" lon="-2.48159">
        <ele>137</ele>
        <time>2015-03-30T13:31:08.1Z</time>
      </trkpt>
      <trkpt lat="48.60953" lon="-2.48156">
        <ele>137</ele>
        <time>2015-03-30T13:31:10.1Z</time>
      </trkpt>
      <trkpt lat="48.60954" lon="-2.48151">
        <ele>137</ele>
        <time>2015-03-30T13:31:13.1Z</time>
      </trkpt>
      <trkpt lat="48.60955" lon="-2.48146">
        <ele>137</ele>
        <time>2015-03-30T13:31:16.1Z</time>
      </trkpt>
      <trkpt lat="48.60956" lon="-2.48144">
        <ele>137</ele>
        <time>2015-03-30T13:31:18.1Z</time>
      </trkpt>
      <trkpt lat="48.60957" lon="-2.4814">
        <ele>137</ele>
        <time>2015-03-30T13:31:20.1Z</time>
      </trkpt>
      <trkpt lat="48.60957" lon="-2.48135">
        <ele>137</ele>
        <time>2015-03-30T13:31:23.1Z</time>
      </trkpt>
      <trkpt lat="48.60959" lon="-2.4813">
        <ele>137</ele>
        <time>2015-03-30T13:31:26.1Z</time>
      </trkpt>
      <trkpt lat="48.6096" lon="-2.48126">
        <ele>137</ele>
        <time>2015-03-30T13:31:29.1Z</time>
      </trkpt>
      <trkpt lat="48.6096" lon="-2.48122">
        <ele>137</ele>
        <time>2015-03-30T13:31:32.1Z</time>
      </trkpt>
      <trkpt lat="48.6096" lon="-2.48119">
        <ele>137</ele>
        <time>2015-03-30T13:31:34.1Z</time>
      </trkpt>
      <trkpt lat="48.6096" lon="-2.48118">
        <ele>137</ele>
        <time>2015-03-30T13:31:36.1Z</time>
      </trkpt>
      <trkpt lat="48.60961" lon="-2.48116">
        <ele>137</ele>
        <time>2015-03-30T13:31:39.1Z</time>
      </trkpt>
      <trkpt lat="48.6096" lon="-2.48115">
        <ele>137</ele>
        <time>2015-03-30T13:31:43.1Z</time>
      </trkpt>
      <trkpt lat="48.6096" lon="-2.48116">
        <ele>137</ele>
        <time>2015-03-30T13:31:45.1Z</time>
      </trkpt>
      <trkpt lat="48.6096" lon="-2.48114">
        <ele>136</ele>
        <time>2015-03-30T13:31:48.1Z</time>
      </trkpt>
      <trkpt lat="48.6096" lon="-2.48112">
        <ele>136</ele>
        <time>2015-03-30T13:31:50.1Z</time>
      </trkpt>
      <trkpt lat="48.60958" lon="-2.48112">
        <ele>136</ele>
        <time>2015-03-30T13:31:52.1Z</time>
      </trkpt>
      <trkpt lat="48.60958" lon="-2.48111">
        <ele>136</ele>
        <time>2015-03-30T13:31:55.1Z</time>
      </trkpt>
      <trkpt lat="48.60957" lon="-2.48112">
        <ele>137</ele>
        <time>2015-03-30T13:31:58.1Z</time>
      </trkpt>
      <trkpt lat="48.60959" lon="-2.48113">
        <ele>137</ele>
        <time>2015-03-30T13:32:00.1Z</time>
      </trkpt>
      <trkpt lat="48.60962" lon="-2.48114">
        <ele>136</ele>
        <time>2015-03-30T13:32:03.1Z</time>
      </trkpt>
      <trkpt lat="48.60965" lon="-2.48114">
        <ele>136</ele>
        <time>2015-03-30T13:32:06.1Z</time>
      </trkpt>
      <trkpt lat="48.60968" lon="-2.48115">
        <ele>135</ele>
        <time>2015-03-30T13:32:09.1Z</time>
      </trkpt>
      <trkpt lat="48.6097" lon="-2.48116">
        <ele>135</ele>
        <time>2015-03-30T13:32:12.1Z</time>
      </trkpt>
      <trkpt lat="48.60973" lon="-2.48117">
        <ele>135</ele>
        <time>2015-03-30T13:32:14.1Z</time>
      </trkpt>
      <trkpt lat="48.60975" lon="-2.48118">
        <ele>135</ele>
        <time>2015-03-30T13:32:17.1Z</time>
      </trkpt>
      <trkpt lat="48.60978" lon="-2.48119">
        <ele>134</ele>
        <time>2015-03-30T13:32:20.1Z</time>
      </trkpt>
      <trkpt lat="48.60981" lon="-2.48119">
        <ele>134</ele>
        <time>2015-03-30T13:32:22.1Z</time>
      </trkpt>
      <trkpt lat="48.60983" lon="-2.4812">
        <ele>133</ele>
        <time>2015-03-30T13:32:24.1Z</time>
      </trkpt>
      <trkpt lat="48.60986" lon="-2.48122">
        <ele>133</ele>
        <time>2015-03-30T13:32:27.1Z</time>
      </trkpt>
      <trkpt lat="48.60988" lon="-2.48123">
        <ele>133</ele>
        <time>2015-03-30T13:32:29.1Z</time>
      </trkpt>
      <trkpt lat="48.60991" lon="-2.48126">
        <ele>133</ele>
        <time>2015-03-30T13:32:32.1Z</time>
      </trkpt>
      <trkpt lat="48.60994" lon="-2.48128">
        <ele>133</ele>
        <time>2015-03-30T13:32:35.1Z</time>
      </trkpt>
      <trkpt lat="48.60997" lon="-2.48131">
        <ele>132</ele>
        <time>2015-03-30T13:32:38.1Z</time>
      </trkpt>
      <trkpt lat="48.60999" lon="-2.48133">
        <ele>132</ele>
        <time>2015-03-30T13:32:40.1Z</time>
      </trkpt>
      <trkpt lat="48.61" lon="-2.48135">
        <ele>132</ele>
        <time>2015-03-30T13:32:42.1Z</time>
      </trkpt>
      <trkpt lat="48.61" lon="-2.48138">
        <ele>132</ele>
        <time>2015-03-30T13:32:45.1Z</time>
      </trkpt>
      <trkpt lat="48.61001" lon="-2.48139">
        <ele>132</ele>
        <time>2015-03-30T13:32:47.1Z</time>
      </trkpt>
      <trkpt lat="48.61001" lon="-2.48139">
        <ele>132</ele>
        <time>2015-03-30T13:32:50.1Z</time>
      </trkpt>
      <trkpt lat="48.61001" lon="-2.48138">
        <ele>132</ele>
        <time>2015-03-30T13:32:53.1Z</time>
      </trkpt>
      <trkpt lat="48.61002" lon="-2.48138">
        <ele>132</ele>
        <time>2015-03-30T13:32:55.1Z</time>
      </trkpt>
      <trkpt lat="48.61002" lon="-2.48138">
        <ele>132</ele>
        <time>2015-03-30T13:32:58.1Z</time>
      </trkpt>
      <trkpt lat="48.61003" lon="-2.48138">
        <ele>132</ele>
        <time>2015-03-30T13:33:00.1Z</time>
      </trkpt>
      <trkpt lat="48.61004" lon="-2.48138">
        <ele>132</ele>
        <time>2015-03-30T13:33:02.1Z</time>
      </trkpt>
      <trkpt lat="48.61005" lon="-2.48138">
        <ele>132</ele>
        <time>2015-03-30T13:33:04.1Z</time>
      </trkpt>
      <trkpt lat="48.61007" lon="-2.48137">
        <ele>132</ele>
        <time>2015-03-30T13:33:06.1Z</time>
      </trkpt>
      <trkpt lat="48.61011" lon="-2.48138">
        <ele>131</ele>
        <time>2015-03-30T13:33:09.1Z</time>
      </trkpt>
      <trkpt lat="48.61015" lon="-2.48141">
        <ele>131</ele>
        <time>2015-03-30T13:33:12.1Z</time>
      </trkpt>
      <trkpt lat="48.61019" lon="-2.48144">
        <ele>130</ele>
        <time>2015-03-30T13:33:15.1Z</time>
      </trkpt>
      <trkpt lat="48.61022" lon="-2.48146">
        <ele>130</ele>
        <time>2015-03-30T13:33:18.1Z</time>
      </trkpt>
      <trkpt lat="48.61024" lon="-2.48149">
        <ele>129</ele>
        <time>2015-03-30T13:33:20.1Z</time>
      </trkpt>
      <trkpt lat="48.61027" lon="-2.48152">
        <ele>129</ele>
        <time>2015-03-30T13:33:23.1Z</time>
      </trkpt>
      <trkpt lat="48.61029" lon="-2.48154">
        <ele>128</ele>
        <time>2015-03-30T13:33:25.1Z</time>
      </trkpt>
      <trkpt lat="48.61031" lon="-2.48156">
        <ele>128</ele>
        <time>2015-03-30T13:33:27.1Z</time>
      </trkpt>
      <trkpt lat="48.61034" lon="-2.48159">
        <ele>128</ele>
        <time>2015-03-30T13:33:30.1Z</time>
      </trkpt>
      <trkpt lat="48.61036" lon="-2.48161">
        <ele>128</ele>
        <time>2015-03-30T13:33:32.1Z</time>
      </trkpt>
      <trkpt lat="48.61038" lon="-2.48163">
        <ele>128</ele>
        <time>2015-03-30T13:33:34.1Z</time>
      </trkpt>
      <trkpt lat="48.61041" lon="-2.48166">
        <ele>128</ele>
        <time>2015-03-30T13:33:37.1Z</time>
      </trkpt>
      <trkpt lat="48.61043" lon="-2.48168">
        <ele>128</ele>
        <time>2015-03-30T13:33:39.1Z</time>
      </trkpt>
      <trkpt lat="48.61046" lon="-2.4817">
        <ele>127</ele>
        <time>2015-03-30T13:33:42.1Z</time>
      </trkpt>
      <trkpt lat="48.61049" lon="-2.48172">
        <ele>127</ele>
        <time>2015-03-30T13:33:45.1Z</time>
      </trkpt>
      <trkpt lat="48.6105" lon="-2.48172">
        <ele>127</ele>
        <time>2015-03-30T13:33:47.1Z</time>
      </trkpt>
      <trkpt lat="48.61052" lon="-2.48173">
        <ele>127</ele>
        <time>2015-03-30T13:33:49.1Z</time>
      </trkpt>
      <trkpt lat="48.61055" lon="-2.48176">
        <ele>127</ele>
        <time>2015-03-30T13:33:52.1Z</time>
      </trkpt>
      <trkpt lat="48.61058" lon="-2.48178">
        <ele>126</ele>
        <time>2015-03-30T13:33:54.1Z</time>
      </trkpt>
      <trkpt lat="48.61061" lon="-2.4818">
        <ele>126</ele>
        <time>2015-03-30T13:33:57.1Z</time>
      </trkpt>
      <trkpt lat="48.61063" lon="-2.48181">
        <ele>126</ele>
        <time>2015-03-30T13:33:59.1Z</time>
      </trkpt>
      <trkpt lat="48.61066" lon="-2.48183">
        <ele>126</ele>
        <time>2015-03-30T13:34:02.1Z</time>
      </trkpt>
      <trkpt lat="48.6107" lon="-2.48184">
        <ele>125</ele>
        <time>2015-03-30T13:34:05.1Z</time>
      </trkpt>
      <trkpt lat="48.61072" lon="-2.48186">
        <ele>125</ele>
        <time>2015-03-30T13:34:07.1Z</time>
      </trkpt>
      <trkpt lat="48.61075" lon="-2.48188">
        <ele>125</ele>
        <time>2015-03-30T13:34:10.1Z</time>
      </trkpt>
      <trkpt lat="48.61077" lon="-2.48189">
        <ele>125</ele>
        <time>2015-03-30T13:34:12.1Z</time>
      </trkpt>
      <trkpt lat="48.61079" lon="-2.4819">
        <ele>125</ele>
        <time>2015-03-30T13:34:14.1Z</time>
      </trkpt>
      <trkpt lat="48.61082" lon="-2.48192">
        <ele>125</ele>
        <time>2015-03-30T13:34:17.1Z</time>
      </trkpt>
      <trkpt lat="48.61085" lon="-2.48194">
        <ele>124</ele>
        <time>2015-03-30T13:34:20.1Z</time>
      </trkpt>
      <trkpt lat="48.61087" lon="-2.48195">
        <ele>124</ele>
        <time>2015-03-30T13:34:22.1Z</time>
      </trkpt>
      <trkpt lat="48.6109" lon="-2.48197">
        <ele>124</ele>
        <time>2015-03-30T13:34:25.1Z</time>
      </trkpt>
      <trkpt lat="48.61092" lon="-2.48198">
        <ele>124</ele>
        <time>2015-03-30T13:34:27.1Z</time>
      </trkpt>
      <trkpt lat="48.61095" lon="-2.482">
        <ele>124</ele>
        <time>2015-03-30T13:34:30.1Z</time>
      </trkpt>
      <trkpt lat="48.61097" lon="-2.48201">
        <ele>124</ele>
        <time>2015-03-30T13:34:32.1Z</time>
      </trkpt>
      <trkpt lat="48.611" lon="-2.48203">
        <ele>123</ele>
        <time>2015-03-30T13:34:35.1Z</time>
      </trkpt>
      <trkpt lat="48.61103" lon="-2.48204">
        <ele>123</ele>
        <time>2015-03-30T13:34:37.1Z</time>
      </trkpt>
      <trkpt lat="48.61106" lon="-2.48205">
        <ele>123</ele>
        <time>2015-03-30T13:34:40.1Z</time>
      </trkpt>
      <trkpt lat="48.61108" lon="-2.48206">
        <ele>123</ele>
        <time>2015-03-30T13:34:42.1Z</time>
      </trkpt>
      <trkpt lat="48.61111" lon="-2.48208">
        <ele>123</ele>
        <time>2015-03-30T13:34:44.1Z</time>
      </trkpt>
      <trkpt lat="48.61114" lon="-2.48209">
        <ele>123</ele>
        <time>2015-03-30T13:34:47.1Z</time>
      </trkpt>
      <trkpt lat="48.61116" lon="-2.4821">
        <ele>122</ele>
        <time>2015-03-30T13:34:49.1Z</time>
      </trkpt>
      <trkpt lat="48.61119" lon="-2.48212">
        <ele>122</ele>
        <time>2015-03-30T13:34:52.1Z</time>
      </trkpt>
      <trkpt lat="48.61121" lon="-2.48212">
        <ele>122</ele>
        <time>2015-03-30T13:34:54.1Z</time>
      </trkpt>
      <trkpt lat="48.61124" lon="-2.48214">
        <ele>122</ele>
        <time>2015-03-30T13:34:57.1Z</time>
      </trkpt>
      <trkpt lat="48.61126" lon="-2.48214">
        <ele>122</ele>
        <time>2015-03-30T13:34:59.1Z</time>
      </trkpt>
      <trkpt lat="48.61129" lon="-2.48215">
        <ele>122</ele>
        <time>2015-03-30T13:35:01.1Z</time>
      </trkpt>
      <trkpt lat="48.61131" lon="-2.48216">
        <ele>122</ele>
        <time>2015-03-30T13:35:03.1Z</time>
      </trkpt>
      <trkpt lat="48.61133" lon="-2.48217">
        <ele>122</ele>
        <time>2015-03-30T13:35:05.1Z</time>
      </trkpt>
      <trkpt lat="48.61136" lon="-2.48218">
        <ele>122</ele>
        <time>2015-03-30T13:35:08.1Z</time>
      </trkpt>
      <trkpt lat="48.6114" lon="-2.4822">
        <ele>122</ele>
        <time>2015-03-30T13:35:11.1Z</time>
      </trkpt>
      <trkpt lat="48.61142" lon="-2.48221">
        <ele>122</ele>
        <time>2015-03-30T13:35:13.1Z</time>
      </trkpt>
      <trkpt lat="48.61144" lon="-2.48222">
        <ele>122</ele>
        <time>2015-03-30T13:35:15.1Z</time>
      </trkpt>
      <trkpt lat="48.61147" lon="-2.48223">
        <ele>122</ele>
        <time>2015-03-30T13:35:18.1Z</time>
      </trkpt>
      <trkpt lat="48.61149" lon="-2.48224">
        <ele>121</ele>
        <time>2015-03-30T13:35:20.1Z</time>
      </trkpt>
      <trkpt lat="48.61152" lon="-2.48226">
        <ele>121</ele>
        <time>2015-03-30T13:35:23.1Z</time>
      </trkpt>
      <trkpt lat="48.61155" lon="-2.48228">
        <ele>121</ele>
        <time>2015-03-30T13:35:26.1Z</time>
      </trkpt>
      <trkpt lat="48.61158" lon="-2.4823">
        <ele>122</ele>
        <time>2015-03-30T13:35:29.1Z</time>
      </trkpt>
      <trkpt lat="48.6116" lon="-2.48232">
        <ele>121</ele>
        <time>2015-03-30T13:35:31.1Z</time>
      </trkpt>
      <trkpt lat="48.61162" lon="-2.48233">
        <ele>122</ele>
        <time>2015-03-30T13:35:33.1Z</time>
      </trkpt>
      <trkpt lat="48.61164" lon="-2.48236">
        <ele>122</ele>
        <time>2015-03-30T13:35:36.1Z</time>
      </trkpt>
      <trkpt lat="48.61167" lon="-2.48238">
        <ele>122</ele>
        <time>2015-03-30T13:35:39.1Z</time>
      </trkpt>
      <trkpt lat="48.61169" lon="-2.4824">
        <ele>122</ele>
        <time>2015-03-30T13:35:41.1Z</time>
      </trkpt>
      <trkpt lat="48.6117" lon="-2.48242">
        <ele>121</ele>
        <time>2015-03-30T13:35:43.1Z</time>
      </trkpt>
      <trkpt lat="48.61172" lon="-2.48244">
        <ele>121</ele>
        <time>2015-03-30T13:35:45.1Z</time>
      </trkpt>
      <trkpt lat="48.61173" lon="-2.48246">
        <ele>122</ele>
        <time>2015-03-30T13:35:47.1Z</time>
      </trkpt>
      <trkpt lat="48.61176" lon="-2.48249">
        <ele>122</ele>
        <time>2015-03-30T13:35:50.1Z</time>
      </trkpt>
      <trkpt lat="48.61177" lon="-2.48251">
        <ele>122</ele>
        <time>2015-03-30T13:35:52.1Z</time>
      </trkpt>
      <trkpt lat="48.61179" lon="-2.48252">
        <ele>122</ele>
        <time>2015-03-30T13:35:54.1Z</time>
      </trkpt>
      <trkpt lat="48.61181" lon="-2.48253">
        <ele>122</ele>
        <time>2015-03-30T13:35:56.1Z</time>
      </trkpt>
      <trkpt lat="48.61183" lon="-2.48253">
        <ele>122</ele>
        <time>2015-03-30T13:35:58.1Z</time>
      </trkpt>
      <trkpt lat="48.61186" lon="-2.48251">
        <ele>122</ele>
        <time>2015-03-30T13:36:01.1Z</time>
      </trkpt>
      <trkpt lat="48.61188" lon="-2.48248">
        <ele>122</ele>
        <time>2015-03-30T13:36:04.1Z</time>
      </trkpt>
      <trkpt lat="48.6119" lon="-2.48246">
        <ele>122</ele>
        <time>2015-03-30T13:36:06.1Z</time>
      </trkpt>
      <trkpt lat="48.61192" lon="-2.48244">
        <ele>121</ele>
        <time>2015-03-30T13:36:08.1Z</time>
      </trkpt>
      <trkpt lat="48.61195" lon="-2.48241">
        <ele>121</ele>
        <time>2015-03-30T13:36:11.1Z</time>
      </trkpt>
      <trkpt lat="48.61197" lon="-2.48238">
        <ele>121</ele>
        <time>2015-03-30T13:36:13.1Z</time>
      </trkpt>
      <trkpt lat="48.612" lon="-2.48235">
        <ele>122</ele>
        <time>2015-03-30T13:36:16.1Z</time>
      </trkpt>
      <trkpt lat="48.61202" lon="-2.48231">
        <ele>122</ele>
        <time>2015-03-30T13:36:19.1Z</time>
      </trkpt>
      <trkpt lat="48.61204" lon="-2.48228">
        <ele>122</ele>
        <time>2015-03-30T13:36:21.1Z</time>
      </trkpt>
      <trkpt lat="48.61206" lon="-2.48224">
        <ele>122</ele>
        <time>2015-03-30T13:36:24.1Z</time>
      </trkpt>
      <trkpt lat="48.61207" lon="-2.48222">
        <ele>122</ele>
        <time>2015-03-30T13:36:26.1Z</time>
      </trkpt>
      <trkpt lat="48.61209" lon="-2.48218">
        <ele>121</ele>
        <time>2015-03-30T13:36:29.1Z</time>
      </trkpt>
      <trkpt lat="48.61211" lon="-2.48216">
        <ele>121</ele>
        <time>2015-03-30T13:36:31.1Z</time>
      </trkpt>
      <trkpt lat="48.61213" lon="-2.48213">
        <ele>121</ele>
        <time>2015-03-30T13:36:33.1Z</time>
      </trkpt>
      <trkpt lat="48.61216" lon="-2.4821">
        <ele>121</ele>
        <time>2015-03-30T13:36:36.1Z</time>
      </trkpt>
      <trkpt lat="48.61217" lon="-2.48208">
        <ele>121</ele>
        <time>2015-03-30T13:36:38.1Z</time>
      </trkpt>
      <trkpt lat="48.6122" lon="-2.48206">
        <ele>121</ele>
        <time>2015-03-30T13:36:41.1Z</time>
      </trkpt>
      <trkpt lat="48.61222" lon="-2.48204">
        <ele>121</ele>
        <time>2015-03-30T13:36:43.1Z</time>
      </trkpt>
      <trkpt lat="48.61225" lon="-2.48203">
        <ele>121</ele>
        <time>2015-03-30T13:36:46.1Z</time>
      </trkpt>
      <trkpt lat="48.61227" lon="-2.48202">
        <ele>121</ele>
        <time>2015-03-30T13:36:48.1Z</time>
      </trkpt>
      <trkpt lat="48.61229" lon="-2.48201">
        <ele>121</ele>
        <time>2015-03-30T13:36:50.1Z</time>
      </trkpt>
      <trkpt lat="48.61231" lon="-2.482">
        <ele>120</ele>
        <time>2015-03-30T13:36:52.1Z</time>
      </trkpt>
      <trkpt lat="48.61233" lon="-2.48199">
        <ele>120</ele>
        <time>2015-03-30T13:36:54.1Z</time>
      </trkpt>
      <trkpt lat="48.61235" lon="-2.48199">
        <ele>120</ele>
        <time>2015-03-30T13:36:56.1Z</time>
      </trkpt>
      <trkpt lat="48.61238" lon="-2.48198">
        <ele>120</ele>
        <time>2015-03-30T13:36:58.1Z</time>
      </trkpt>
      <trkpt lat="48.6124" lon="-2.48198">
        <ele>121</ele>
        <time>2015-03-30T13:37:00.1Z</time>
      </trkpt>
      <trkpt lat="48.61243" lon="-2.48197">
        <ele>120</ele>
        <time>2015-03-30T13:37:03.1Z</time>
      </trkpt>
      <trkpt lat="48.61246" lon="-2.48197">
        <ele>121</ele>
        <time>2015-03-30T13:37:05.1Z</time>
      </trkpt>
      <trkpt lat="48.61248" lon="-2.48196">
        <ele>121</ele>
        <time>2015-03-30T13:37:07.1Z</time>
      </trkpt>
      <trkpt lat="48.6125" lon="-2.48196">
        <ele>120</ele>
        <time>2015-03-30T13:37:09.1Z</time>
      </trkpt>
      <trkpt lat="48.61252" lon="-2.48196">
        <ele>120</ele>
        <time>2015-03-30T13:37:11.1Z</time>
      </trkpt>
      <trkpt lat="48.61255" lon="-2.48196">
        <ele>120</ele>
        <time>2015-03-30T13:37:13.1Z</time>
      </trkpt>
      <trkpt lat="48.61256" lon="-2.48196">
        <ele>120</ele>
        <time>2015-03-30T13:37:15.1Z</time>
      </trkpt>
      <trkpt lat="48.61259" lon="-2.48196">
        <ele>120</ele>
        <time>2015-03-30T13:37:17.1Z</time>
      </trkpt>
      <trkpt lat="48.61262" lon="-2.48196">
        <ele>120</ele>
        <time>2015-03-30T13:37:20.1Z</time>
      </trkpt>
      <trkpt lat="48.61264" lon="-2.48196">
        <ele>120</ele>
        <time>2015-03-30T13:37:22.1Z</time>
      </trkpt>
      <trkpt lat="48.61266" lon="-2.48197">
        <ele>120</ele>
        <time>2015-03-30T13:37:24.1Z</time>
      </trkpt>
      <trkpt lat="48.61269" lon="-2.48197">
        <ele>120</ele>
        <time>2015-03-30T13:37:27.1Z</time>
      </trkpt>
      <trkpt lat="48.61272" lon="-2.48197">
        <ele>120</ele>
        <time>2015-03-30T13:37:29.1Z</time>
      </trkpt>
      <trkpt lat="48.61275" lon="-2.48197">
        <ele>120</ele>
        <time>2015-03-30T13:37:32.1Z</time>
      </trkpt>
      <trkpt lat="48.61277" lon="-2.48198">
        <ele>120</ele>
        <time>2015-03-30T13:37:34.1Z</time>
      </trkpt>
      <trkpt lat="48.6128" lon="-2.48197">
        <ele>119</ele>
        <time>2015-03-30T13:37:36.1Z</time>
      </trkpt>
      <trkpt lat="48.61283" lon="-2.48197">
        <ele>119</ele>
        <time>2015-03-30T13:37:39.1Z</time>
      </trkpt>
      <trkpt lat="48.61285" lon="-2.48197">
        <ele>119</ele>
        <time>2015-03-30T13:37:41.1Z</time>
      </trkpt>
      <trkpt lat="48.61287" lon="-2.48197">
        <ele>119</ele>
        <time>2015-03-30T13:37:43.1Z</time>
      </trkpt>
      <trkpt lat="48.61289" lon="-2.48197">
        <ele>119</ele>
        <time>2015-03-30T13:37:45.1Z</time>
      </trkpt>
      <trkpt lat="48.61292" lon="-2.48196">
        <ele>119</ele>
        <time>2015-03-30T13:37:47.1Z</time>
      </trkpt>
      <trkpt lat="48.61294" lon="-2.48196">
        <ele>119</ele>
        <time>2015-03-30T13:37:49.1Z</time>
      </trkpt>
      <trkpt lat="48.61297" lon="-2.48194">
        <ele>119</ele>
        <time>2015-03-30T13:37:52.1Z</time>
      </trkpt>
      <trkpt lat="48.61299" lon="-2.48192">
        <ele>118</ele>
        <time>2015-03-30T13:37:54.1Z</time>
      </trkpt>
      <trkpt lat="48.61301" lon="-2.4819">
        <ele>118</ele>
        <time>2015-03-30T13:37:57.1Z</time>
      </trkpt>
      <trkpt lat="48.61303" lon="-2.48187">
        <ele>119</ele>
        <time>2015-03-30T13:38:00.1Z</time>
      </trkpt>
      <trkpt lat="48.61305" lon="-2.48184">
        <ele>119</ele>
        <time>2015-03-30T13:38:02.1Z</time>
      </trkpt>
      <trkpt lat="48.61306" lon="-2.4818">
        <ele>119</ele>
        <time>2015-03-30T13:38:05.1Z</time>
      </trkpt>
      <trkpt lat="48.61308" lon="-2.48178">
        <ele>119</ele>
        <time>2015-03-30T13:38:07.1Z</time>
      </trkpt>
      <trkpt lat="48.6131" lon="-2.48173">
        <ele>119</ele>
        <time>2015-03-30T13:38:10.1Z</time>
      </trkpt>
      <trkpt lat="48.61311" lon="-2.4817">
        <ele>118</ele>
        <time>2015-03-30T13:38:12.1Z</time>
      </trkpt>
      <trkpt lat="48.61312" lon="-2.48167">
        <ele>118</ele>
        <time>2015-03-30T13:38:14.1Z</time>
      </trkpt>
      <trkpt lat="48.61314" lon="-2.48163">
        <ele>119</ele>
        <time>2015-03-30T13:38:17.1Z</time>
      </trkpt>
      <trkpt lat="48.61315" lon="-2.4816">
        <ele>118</ele>
        <time>2015-03-30T13:38:19.1Z</time>
      </trkpt>
      <trkpt lat="48.61316" lon="-2.48155">
        <ele>118</ele>
        <time>2015-03-30T13:38:22.1Z</time>
      </trkpt>
      <trkpt lat="48.61317" lon="-2.48149">
        <ele>118</ele>
        <time>2015-03-30T13:38:25.1Z</time>
      </trkpt>
      <trkpt lat="48.61318" lon="-2.48146">
        <ele>118</ele>
        <time>2015-03-30T13:38:27.1Z</time>
      </trkpt>
      <trkpt lat="48.61319" lon="-2.48141">
        <ele>118</ele>
        <time>2015-03-30T13:38:30.1Z</time>
      </trkpt>
      <trkpt lat="48.6132" lon="-2.48136">
        <ele>118</ele>
        <time>2015-03-30T13:38:33.1Z</time>
      </trkpt>
      <trkpt lat="48.61321" lon="-2.48133">
        <ele>118</ele>
        <time>2015-03-30T13:38:35.1Z</time>
      </trkpt>
      <trkpt lat="48.61322" lon="-2.48128">
        <ele>117</ele>
        <time>2015-03-30T13:38:38.1Z</time>
      </trkpt>
      <trkpt lat="48.61323" lon="-2.48124">
        <ele>117</ele>
        <time>2015-03-30T13:38:41.1Z</time>
      </trkpt>
      <trkpt lat="48.61324" lon="-2.48121">
        <ele>117</ele>
        <time>2015-03-30T13:38:43.1Z</time>
      </trkpt>
      <trkpt lat="48.61325" lon="-2.48117">
        <ele>117</ele>
        <time>2015-03-30T13:38:45.1Z</time>
      </trkpt>
      <trkpt lat="48.61326" lon="-2.48114">
        <ele>116</ele>
        <time>2015-03-30T13:38:47.1Z</time>
      </trkpt>
      <trkpt lat="48.61327" lon="-2.4811">
        <ele>116</ele>
        <time>2015-03-30T13:38:50.1Z</time>
      </trkpt>
      <trkpt lat="48.61329" lon="-2.48107">
        <ele>116</ele>
        <time>2015-03-30T13:38:52.1Z</time>
      </trkpt>
      <trkpt lat="48.6133" lon="-2.48103">
        <ele>116</ele>
        <time>2015-03-30T13:38:55.1Z</time>
      </trkpt>
      <trkpt lat="48.61332" lon="-2.481">
        <ele>116</ele>
        <time>2015-03-30T13:38:57.1Z</time>
      </trkpt>
      <trkpt lat="48.61334" lon="-2.48096">
        <ele>115</ele>
        <time>2015-03-30T13:39:00.1Z</time>
      </trkpt>
      <trkpt lat="48.61335" lon="-2.48094">
        <ele>115</ele>
        <time>2015-03-30T13:39:02.1Z</time>
      </trkpt>
      <trkpt lat="48.61337" lon="-2.48092">
        <ele>115</ele>
        <time>2015-03-30T13:39:04.1Z</time>
      </trkpt>
      <trkpt lat="48.61339" lon="-2.48088">
        <ele>115</ele>
        <time>2015-03-30T13:39:07.1Z</time>
      </trkpt>
      <trkpt lat="48.61341" lon="-2.48086">
        <ele>115</ele>
        <time>2015-03-30T13:39:09.1Z</time>
      </trkpt>
      <trkpt lat="48.61343" lon="-2.48084">
        <ele>114</ele>
        <time>2015-03-30T13:39:11.1Z</time>
      </trkpt>
      <trkpt lat="48.61345" lon="-2.48081">
        <ele>114</ele>
        <time>2015-03-30T13:39:14.1Z</time>
      </trkpt>
      <trkpt lat="48.61347" lon="-2.48079">
        <ele>114</ele>
        <time>2015-03-30T13:39:16.1Z</time>
      </trkpt>
      <trkpt lat="48.6135" lon="-2.48077">
        <ele>114</ele>
        <time>2015-03-30T13:39:19.1Z</time>
      </trkpt>
      <trkpt lat="48.61352" lon="-2.48074">
        <ele>114</ele>
        <time>2015-03-30T13:39:22.1Z</time>
      </trkpt>
      <trkpt lat="48.61355" lon="-2.48071">
        <ele>113</ele>
        <time>2015-03-30T13:39:25.1Z</time>
      </trkpt>
      <trkpt lat="48.61357" lon="-2.4807">
        <ele>113</ele>
        <time>2015-03-30T13:39:27.1Z</time>
      </trkpt>
      <trkpt lat="48.61359" lon="-2.48068">
        <ele>113</ele>
        <time>2015-03-30T13:39:29.1Z</time>
      </trkpt>
      <trkpt lat="48.61361" lon="-2.48065">
        <ele>112</ele>
        <time>2015-03-30T13:39:32.1Z</time>
      </trkpt>
      <trkpt lat="48.61362" lon="-2.48063">
        <ele>112</ele>
        <time>2015-03-30T13:39:34.1Z</time>
      </trkpt>
      <trkpt lat="48.61364" lon="-2.48061">
        <ele>112</ele>
        <time>2015-03-30T13:39:37.1Z</time>
      </trkpt>
      <trkpt lat="48.61366" lon="-2.4806">
        <ele>112</ele>
        <time>2015-03-30T13:39:39.1Z</time>
      </trkpt>
      <trkpt lat="48.61368" lon="-2.48057">
        <ele>111</ele>
        <time>2015-03-30T13:39:42.1Z</time>
      </trkpt>
      <trkpt lat="48.6137" lon="-2.48055">
        <ele>111</ele>
        <time>2015-03-30T13:39:45.1Z</time>
      </trkpt>
      <trkpt lat="48.61372" lon="-2.48053">
        <ele>111</ele>
        <time>2015-03-30T13:39:47.1Z</time>
      </trkpt>
      <trkpt lat="48.61374" lon="-2.4805">
        <ele>111</ele>
        <time>2015-03-30T13:39:50.1Z</time>
      </trkpt>
      <trkpt lat="48.61375" lon="-2.48048">
        <ele>111</ele>
        <time>2015-03-30T13:39:52.1Z</time>
      </trkpt>
      <trkpt lat="48.61377" lon="-2.48046">
        <ele>110</ele>
        <time>2015-03-30T13:39:54.1Z</time>
      </trkpt>
      <trkpt lat="48.61379" lon="-2.48045">
        <ele>110</ele>
        <time>2015-03-30T13:39:56.1Z</time>
      </trkpt>
      <trkpt lat="48.61381" lon="-2.48042">
        <ele>109</ele>
        <time>2015-03-30T13:39:59.1Z</time>
      </trkpt>
      <trkpt lat="48.61383" lon="-2.4804">
        <ele>110</ele>
        <time>2015-03-30T13:40:01.1Z</time>
      </trkpt>
      <trkpt lat="48.61385" lon="-2.48037">
        <ele>109</ele>
        <time>2015-03-30T13:40:04.1Z</time>
      </trkpt>
      <trkpt lat="48.61387" lon="-2.48035">
        <ele>109</ele>
        <time>2015-03-30T13:40:06.1Z</time>
      </trkpt>
      <trkpt lat="48.6139" lon="-2.48033">
        <ele>108</ele>
        <time>2015-03-30T13:40:09.1Z</time>
      </trkpt>
      <trkpt lat="48.61392" lon="-2.48032">
        <ele>108</ele>
        <time>2015-03-30T13:40:11.1Z</time>
      </trkpt>
      <trkpt lat="48.61394" lon="-2.4803">
        <ele>108</ele>
        <time>2015-03-30T13:40:13.1Z</time>
      </trkpt>
      <trkpt lat="48.61396" lon="-2.48029">
        <ele>108</ele>
        <time>2015-03-30T13:40:15.1Z</time>
      </trkpt>
      <trkpt lat="48.61398" lon="-2.48028">
        <ele>107</ele>
        <time>2015-03-30T13:40:17.1Z</time>
      </trkpt>
      <trkpt lat="48.61401" lon="-2.48027">
        <ele>107</ele>
        <time>2015-03-30T13:40:19.1Z</time>
      </trkpt>
      <trkpt lat="48.61404" lon="-2.48027">
        <ele>106</ele>
        <time>2015-03-30T13:40:22.1Z</time>
      </trkpt>
      <trkpt lat="48.61406" lon="-2.48025">
        <ele>106</ele>
        <time>2015-03-30T13:40:25.1Z</time>
      </trkpt>
      <trkpt lat="48.6141" lon="-2.48024">
        <ele>106</ele>
        <time>2015-03-30T13:40:28.1Z</time>
      </trkpt>
      <trkpt lat="48.61413" lon="-2.48022">
        <ele>106</ele>
        <time>2015-03-30T13:40:31.1Z</time>
      </trkpt>
      <trkpt lat="48.61415" lon="-2.4802">
        <ele>105</ele>
        <time>2015-03-30T13:40:33.1Z</time>
      </trkpt>
      <trkpt lat="48.61417" lon="-2.48018">
        <ele>105</ele>
        <time>2015-03-30T13:40:35.1Z</time>
      </trkpt>
      <trkpt lat="48.6142" lon="-2.48015">
        <ele>105</ele>
        <time>2015-03-30T13:40:38.1Z</time>
      </trkpt>
      <trkpt lat="48.61422" lon="-2.48014">
        <ele>104</ele>
        <time>2015-03-30T13:40:40.1Z</time>
      </trkpt>
      <trkpt lat="48.61425" lon="-2.48012">
        <ele>104</ele>
        <time>2015-03-30T13:40:42.1Z</time>
      </trkpt>
      <trkpt lat="48.61428" lon="-2.48011">
        <ele>103</ele>
        <time>2015-03-30T13:40:45.1Z</time>
      </trkpt>
      <trkpt lat="48.6143" lon="-2.4801">
        <ele>103</ele>
        <time>2015-03-30T13:40:47.1Z</time>
      </trkpt>
      <trkpt lat="48.61432" lon="-2.48009">
        <ele>103</ele>
        <time>2015-03-30T13:40:49.1Z</time>
      </trkpt>
      <trkpt lat="48.61434" lon="-2.48008">
        <ele>103</ele>
        <time>2015-03-30T13:40:51.1Z</time>
      </trkpt>
      <trkpt lat="48.61438" lon="-2.48005">
        <ele>102</ele>
        <time>2015-03-30T13:40:54.1Z</time>
      </trkpt>
      <trkpt lat="48.6144" lon="-2.48004">
        <ele>102</ele>
        <time>2015-03-30T13:40:56.1Z</time>
      </trkpt>
      <trkpt lat="48.61443" lon="-2.48003">
        <ele>102</ele>
        <time>2015-03-30T13:40:58.1Z</time>
      </trkpt>
      <trkpt lat="48.61444" lon="-2.48002">
        <ele>102</ele>
        <time>2015-03-30T13:41:00.1Z</time>
      </trkpt>
      <trkpt lat="48.61447" lon="-2.48">
        <ele>101</ele>
        <time>2015-03-30T13:41:03.1Z</time>
      </trkpt>
      <trkpt lat="48.6145" lon="-2.47998">
        <ele>101</ele>
        <time>2015-03-30T13:41:06.1Z</time>
      </trkpt>
      <trkpt lat="48.61452" lon="-2.47998">
        <ele>101</ele>
        <time>2015-03-30T13:41:08.1Z</time>
      </trkpt>
      <trkpt lat="48.61455" lon="-2.47997">
        <ele>101</ele>
        <time>2015-03-30T13:41:10.1Z</time>
      </trkpt>
      <trkpt lat="48.61459" lon="-2.47997">
        <ele>100</ele>
        <time>2015-03-30T13:41:13.1Z</time>
      </trkpt>
      <trkpt lat="48.61462" lon="-2.47998">
        <ele>100</ele>
        <time>2015-03-30T13:41:16.1Z</time>
      </trkpt>
      <trkpt lat="48.61466" lon="-2.47997">
        <ele>99</ele>
        <time>2015-03-30T13:41:19.1Z</time>
      </trkpt>
      <trkpt lat="48.61469" lon="-2.47998">
        <ele>98</ele>
        <time>2015-03-30T13:41:22.1Z</time>
      </trkpt>
      <trkpt lat="48.61472" lon="-2.48">
        <ele>98</ele>
        <time>2015-03-30T13:41:25.1Z</time>
      </trkpt>
      <trkpt lat="48.61474" lon="-2.48003">
        <ele>98</ele>
        <time>2015-03-30T13:41:28.1Z</time>
      </trkpt>
      <trkpt lat="48.61476" lon="-2.48006">
        <ele>98</ele>
        <time>2015-03-30T13:41:30.1Z</time>
      </trkpt>
      <trkpt lat="48.61478" lon="-2.48008">
        <ele>97</ele>
        <time>2015-03-30T13:41:32.1Z</time>
      </trkpt>
      <trkpt lat="48.61481" lon="-2.48011">
        <ele>97</ele>
        <time>2015-03-30T13:41:35.1Z</time>
      </trkpt>
      <trkpt lat="48.61483" lon="-2.48013">
        <ele>97</ele>
        <time>2015-03-30T13:41:37.1Z</time>
      </trkpt>
      <trkpt lat="48.61485" lon="-2.48015">
        <ele>97</ele>
        <time>2015-03-30T13:41:39.1Z</time>
      </trkpt>
      <trkpt lat="48.61488" lon="-2.48018">
        <ele>96</ele>
        <time>2015-03-30T13:41:42.1Z</time>
      </trkpt>
      <trkpt lat="48.6149" lon="-2.48019">
        <ele>97</ele>
        <time>2015-03-30T13:41:44.1Z</time>
      </trkpt>
      <trkpt lat="48.61493" lon="-2.48019">
        <ele>96</ele>
        <time>2015-03-30T13:41:46.1Z</time>
      </trkpt>
      <trkpt lat="48.61496" lon="-2.4802">
        <ele>96</ele>
        <time>2015-03-30T13:41:49.1Z</time>
      </trkpt>
      <trkpt lat="48.61498" lon="-2.48022">
        <ele>96</ele>
        <time>2015-03-30T13:41:51.1Z</time>
      </trkpt>
      <trkpt lat="48.61501" lon="-2.48023">
        <ele>96</ele>
        <time>2015-03-30T13:41:54.1Z</time>
      </trkpt>
      <trkpt lat="48.61504" lon="-2.48023">
        <ele>95</ele>
        <time>2015-03-30T13:41:57.1Z</time>
      </trkpt>
      <trkpt lat="48.61507" lon="-2.48023">
        <ele>95</ele>
        <time>2015-03-30T13:42:00.1Z</time>
      </trkpt>
      <trkpt lat="48.61509" lon="-2.48023">
        <ele>95</ele>
        <time>2015-03-30T13:42:02.1Z</time>
      </trkpt>
      <trkpt lat="48.61513" lon="-2.48024">
        <ele>95</ele>
        <time>2015-03-30T13:42:05.1Z</time>
      </trkpt>
      <trkpt lat="48.61515" lon="-2.48024">
        <ele>94</ele>
        <time>2015-03-30T13:42:07.1Z</time>
      </trkpt>
      <trkpt lat="48.61518" lon="-2.48024">
        <ele>94</ele>
        <time>2015-03-30T13:42:10.1Z</time>
      </trkpt>
      <trkpt lat="48.61521" lon="-2.48024">
        <ele>94</ele>
        <time>2015-03-30T13:42:12.1Z</time>
      </trkpt>
      <trkpt lat="48.61523" lon="-2.48024">
        <ele>94</ele>
        <time>2015-03-30T13:42:14.1Z</time>
      </trkpt>
      <trkpt lat="48.61526" lon="-2.48025">
        <ele>94</ele>
        <time>2015-03-30T13:42:17.1Z</time>
      </trkpt>
      <trkpt lat="48.6153" lon="-2.48026">
        <ele>94</ele>
        <time>2015-03-30T13:42:20.1Z</time>
      </trkpt>
      <trkpt lat="48.61534" lon="-2.48026">
        <ele>93</ele>
        <time>2015-03-30T13:42:23.1Z</time>
      </trkpt>
      <trkpt lat="48.61536" lon="-2.48027">
        <ele>93</ele>
        <time>2015-03-30T13:42:25.1Z</time>
      </trkpt>
      <trkpt lat="48.61539" lon="-2.48028">
        <ele>93</ele>
        <time>2015-03-30T13:42:27.1Z</time>
      </trkpt>
      <trkpt lat="48.61543" lon="-2.48028">
        <ele>93</ele>
        <time>2015-03-30T13:42:30.1Z</time>
      </trkpt>
      <trkpt lat="48.61546" lon="-2.48028">
        <ele>92</ele>
        <time>2015-03-30T13:42:33.1Z</time>
      </trkpt>
      <trkpt lat="48.6155" lon="-2.48027">
        <ele>92</ele>
        <time>2015-03-30T13:42:36.1Z</time>
      </trkpt>
      <trkpt lat="48.61552" lon="-2.48028">
        <ele>92</ele>
        <time>2015-03-30T13:42:39.1Z</time>
      </trkpt>
      <trkpt lat="48.61555" lon="-2.48028">
        <ele>91</ele>
        <time>2015-03-30T13:42:41.1Z</time>
      </trkpt>
      <trkpt lat="48.61558" lon="-2.48027">
        <ele>91</ele>
        <time>2015-03-30T13:42:44.1Z</time>
      </trkpt>
      <trkpt lat="48.6156" lon="-2.48027">
        <ele>91</ele>
        <time>2015-03-30T13:42:46.1Z</time>
      </trkpt>
      <trkpt lat="48.61563" lon="-2.48027">
        <ele>91</ele>
        <time>2015-03-30T13:42:49.1Z</time>
      </trkpt>
      <trkpt lat="48.61567" lon="-2.48026">
        <ele>91</ele>
        <time>2015-03-30T13:42:52.1Z</time>
      </trkpt>
      <trkpt lat="48.6157" lon="-2.48025">
        <ele>90</ele>
        <time>2015-03-30T13:42:55.1Z</time>
      </trkpt>
      <trkpt lat="48.61574" lon="-2.48024">
        <ele>90</ele>
        <time>2015-03-30T13:42:58.1Z</time>
      </trkpt>
      <trkpt lat="48.61576" lon="-2.48022">
        <ele>90</ele>
        <time>2015-03-30T13:43:00.1Z</time>
      </trkpt>
      <trkpt lat="48.61578" lon="-2.48021">
        <ele>90</ele>
        <time>2015-03-30T13:43:02.1Z</time>
      </trkpt>
      <trkpt lat="48.61581" lon="-2.48019">
        <ele>90</ele>
        <time>2015-03-30T13:43:05.1Z</time>
      </trkpt>
      <trkpt lat="48.61583" lon="-2.48018">
        <ele>90</ele>
        <time>2015-03-30T13:43:07.1Z</time>
      </trkpt>
      <trkpt lat="48.61585" lon="-2.48017">
        <ele>90</ele>
        <time>2015-03-30T13:43:10.1Z</time>
      </trkpt>
      <trkpt lat="48.61586" lon="-2.48016">
        <ele>90</ele>
        <time>2015-03-30T13:43:12.1Z</time>
      </trkpt>
      <trkpt lat="48.61587" lon="-2.48015">
        <ele>90</ele>
        <time>2015-03-30T13:43:14.1Z</time>
      </trkpt>
      <trkpt lat="48.61587" lon="-2.48015">
        <ele>90</ele>
        <time>2015-03-30T13:43:16.1Z</time>
      </trkpt>
      <trkpt lat="48.61588" lon="-2.48015">
        <ele>90</ele>
        <time>2015-03-30T13:43:18.1Z</time>
      </trkpt>
      <trkpt lat="48.61588" lon="-2.48015">
        <ele>90</ele>
        <time>2015-03-30T13:43:21.1Z</time>
      </trkpt>
      <trkpt lat="48.61589" lon="-2.48014">
        <ele>90</ele>
        <time>2015-03-30T13:43:24.1Z</time>
      </trkpt>
      <trkpt lat="48.6159" lon="-2.48013">
        <ele>90</ele>
        <time>2015-03-30T13:43:26.1Z</time>
      </trkpt>
      <trkpt lat="48.61591" lon="-2.48011">
        <ele>90</ele>
        <time>2015-03-30T13:43:28.1Z</time>
      </trkpt>
      <trkpt lat="48.61592" lon="-2.48009">
        <ele>90</ele>
        <time>2015-03-30T13:43:31.1Z</time>
      </trkpt>
      <trkpt lat="48.61594" lon="-2.48007">
        <ele>90</ele>
        <time>2015-03-30T13:43:33.1Z</time>
      </trkpt>
      <trkpt lat="48.61596" lon="-2.48005">
        <ele>90</ele>
        <time>2015-03-30T13:43:36.1Z</time>
      </trkpt>
      <trkpt lat="48.61598" lon="-2.48001">
        <ele>90</ele>
        <time>2015-03-30T13:43:39.1Z</time>
      </trkpt>
      <trkpt lat="48.61599" lon="-2.47999">
        <ele>90</ele>
        <time>2015-03-30T13:43:41.1Z</time>
      </trkpt>
      <trkpt lat="48.61601" lon="-2.47995">
        <ele>90</ele>
        <time>2015-03-30T13:43:44.1Z</time>
      </trkpt>
      <trkpt lat="48.61602" lon="-2.47993">
        <ele>90</ele>
        <time>2015-03-30T13:43:46.1Z</time>
      </trkpt>
      <trkpt lat="48.61604" lon="-2.47991">
        <ele>90</ele>
        <time>2015-03-30T13:43:48.1Z</time>
      </trkpt>
      <trkpt lat="48.61605" lon="-2.47989">
        <ele>90</ele>
        <time>2015-03-30T13:43:50.1Z</time>
      </trkpt>
      <trkpt lat="48.61607" lon="-2.47986">
        <ele>90</ele>
        <time>2015-03-30T13:43:53.1Z</time>
      </trkpt>
      <trkpt lat="48.61609" lon="-2.47982">
        <ele>90</ele>
        <time>2015-03-30T13:43:56.1Z</time>
      </trkpt>
      <trkpt lat="48.61611" lon="-2.4798">
        <ele>90</ele>
        <time>2015-03-30T13:43:58.1Z</time>
      </trkpt>
      <trkpt lat="48.61613" lon="-2.47976">
        <ele>90</ele>
        <time>2015-03-30T13:44:01.1Z</time>
      </trkpt>
      <trkpt lat="48.61615" lon="-2.47973">
        <ele>90</ele>
        <time>2015-03-30T13:44:04.1Z</time>
      </trkpt>
      <trkpt lat="48.61616" lon="-2.47971">
        <ele>90</ele>
        <time>2015-03-30T13:44:06.1Z</time>
      </trkpt>
      <trkpt lat="48.61618" lon="-2.47967">
        <ele>91</ele>
        <time>2015-03-30T13:44:09.1Z</time>
      </trkpt>
      <trkpt lat="48.6162" lon="-2.47963">
        <ele>91</ele>
        <time>2015-03-30T13:44:12.1Z</time>
      </trkpt>
      <trkpt lat="48.61622" lon="-2.47959">
        <ele>91</ele>
        <time>2015-03-30T13:44:15.1Z</time>
      </trkpt>
      <trkpt lat="48.61623" lon="-2.47956">
        <ele>91</ele>
        <time>2015-03-30T13:44:17.1Z</time>
      </trkpt>
      <trkpt lat="48.61625" lon="-2.47954">
        <ele>91</ele>
        <time>2015-03-30T13:44:19.1Z</time>
      </trkpt>
      <trkpt lat="48.61627" lon="-2.47951">
        <ele>91</ele>
        <time>2015-03-30T13:44:21.1Z</time>
      </trkpt>
      <trkpt lat="48.61629" lon="-2.47948">
        <ele>91</ele>
        <time>2015-03-30T13:44:24.1Z</time>
      </trkpt>
      <trkpt lat="48.61632" lon="-2.47944">
        <ele>91</ele>
        <time>2015-03-30T13:44:27.1Z</time>
      </trkpt>
      <trkpt lat="48.61634" lon="-2.4794">
        <ele>90</ele>
        <time>2015-03-30T13:44:30.1Z</time>
      </trkpt>
      <trkpt lat="48.61635" lon="-2.47938">
        <ele>90</ele>
        <time>2015-03-30T13:44:32.1Z</time>
      </trkpt>
      <trkpt lat="48.61637" lon="-2.47935">
        <ele>91</ele>
        <time>2015-03-30T13:44:35.1Z</time>
      </trkpt>
      <trkpt lat="48.61639" lon="-2.47931">
        <ele>91</ele>
        <time>2015-03-30T13:44:38.1Z</time>
      </trkpt>
      <trkpt lat="48.6164" lon="-2.47929">
        <ele>90</ele>
        <time>2015-03-30T13:44:40.1Z</time>
      </trkpt>
      <trkpt lat="48.61642" lon="-2.47925">
        <ele>90</ele>
        <time>2015-03-30T13:44:43.1Z</time>
      </trkpt>
      <trkpt lat="48.61644" lon="-2.47921">
        <ele>90</ele>
        <time>2015-03-30T13:44:46.1Z</time>
      </trkpt>
      <trkpt lat="48.61645" lon="-2.47919">
        <ele>90</ele>
        <time>2015-03-30T13:44:48.1Z</time>
      </trkpt>
      <trkpt lat="48.61647" lon="-2.47917">
        <ele>90</ele>
        <time>2015-03-30T13:44:50.1Z</time>
      </trkpt>
      <trkpt lat="48.61649" lon="-2.47913">
        <ele>90</ele>
        <time>2015-03-30T13:44:53.1Z</time>
      </trkpt>
      <trkpt lat="48.61651" lon="-2.47909">
        <ele>90</ele>
        <time>2015-03-30T13:44:56.1Z</time>
      </trkpt>
      <trkpt lat="48.61652" lon="-2.47907">
        <ele>90</ele>
        <time>2015-03-30T13:44:58.1Z</time>
      </trkpt>
      <trkpt lat="48.61654" lon="-2.47903">
        <ele>89</ele>
        <time>2015-03-30T13:45:01.1Z</time>
      </trkpt>
      <trkpt lat="48.61657" lon="-2.47899">
        <ele>89</ele>
        <time>2015-03-30T13:45:04.1Z</time>
      </trkpt>
      <trkpt lat="48.61659" lon="-2.47896">
        <ele>89</ele>
        <time>2015-03-30T13:45:07.1Z</time>
      </trkpt>
      <trkpt lat="48.6166" lon="-2.47893">
        <ele>89</ele>
        <time>2015-03-30T13:45:09.1Z</time>
      </trkpt>
      <trkpt lat="48.61663" lon="-2.47889">
        <ele>89</ele>
        <time>2015-03-30T13:45:12.1Z</time>
      </trkpt>
      <trkpt lat="48.61665" lon="-2.47887">
        <ele>90</ele>
        <time>2015-03-30T13:45:14.1Z</time>
      </trkpt>
      <trkpt lat="48.61667" lon="-2.47884">
        <ele>89</ele>
        <time>2015-03-30T13:45:17.1Z</time>
      </trkpt>
      <trkpt lat="48.61669" lon="-2.4788">
        <ele>89</ele>
        <time>2015-03-30T13:45:20.1Z</time>
      </trkpt>
      <trkpt lat="48.61671" lon="-2.47878">
        <ele>89</ele>
        <time>2015-03-30T13:45:22.1Z</time>
      </trkpt>
      <trkpt lat="48.61673" lon="-2.47874">
        <ele>89</ele>
        <time>2015-03-30T13:45:25.1Z</time>
      </trkpt>
      <trkpt lat="48.61674" lon="-2.47871">
        <ele>89</ele>
        <time>2015-03-30T13:45:27.1Z</time>
      </trkpt>
      <trkpt lat="48.61676" lon="-2.47868">
        <ele>89</ele>
        <time>2015-03-30T13:45:30.1Z</time>
      </trkpt>
      <trkpt lat="48.61679" lon="-2.47864">
        <ele>89</ele>
        <time>2015-03-30T13:45:33.1Z</time>
      </trkpt>
      <trkpt lat="48.61681" lon="-2.47862">
        <ele>89</ele>
        <time>2015-03-30T13:45:35.1Z</time>
      </trkpt>
      <trkpt lat="48.61683" lon="-2.4786">
        <ele>89</ele>
        <time>2015-03-30T13:45:37.1Z</time>
      </trkpt>
      <trkpt lat="48.61686" lon="-2.47856">
        <ele>89</ele>
        <time>2015-03-30T13:45:40.1Z</time>
      </trkpt>
      <trkpt lat="48.61687" lon="-2.47853">
        <ele>89</ele>
        <time>2015-03-30T13:45:42.1Z</time>
      </trkpt>
      <trkpt lat="48.61689" lon="-2.47851">
        <ele>89</ele>
        <time>2015-03-30T13:45:44.1Z</time>
      </trkpt>
      <trkpt lat="48.61691" lon="-2.47849">
        <ele>89</ele>
        <time>2015-03-30T13:45:46.1Z</time>
      </trkpt>
      <trkpt lat="48.61693" lon="-2.47845">
        <ele>89</ele>
        <time>2015-03-30T13:45:49.1Z</time>
      </trkpt>
      <trkpt lat="48.61695" lon="-2.47842">
        <ele>89</ele>
        <time>2015-03-30T13:45:52.1Z</time>
      </trkpt>
      <trkpt lat="48.61696" lon="-2.47839">
        <ele>89</ele>
        <time>2015-03-30T13:45:54.1Z</time>
      </trkpt>
      <trkpt lat="48.61699" lon="-2.47835">
        <ele>89</ele>
        <time>2015-03-30T13:45:57.1Z</time>
      </trkpt>
      <trkpt lat="48.61701" lon="-2.47832">
        <ele>89</ele>
        <time>2015-03-30T13:46:00.1Z</time>
      </trkpt>
      <trkpt lat="48.61702" lon="-2.47829">
        <ele>89</ele>
        <time>2015-03-30T13:46:02.1Z</time>
      </trkpt>
      <trkpt lat="48.61704" lon="-2.47825">
        <ele>89</ele>
        <time>2015-03-30T13:46:05.1Z</time>
      </trkpt>
      <trkpt lat="48.61707" lon="-2.47822">
        <ele>90</ele>
        <time>2015-03-30T13:46:08.1Z</time>
      </trkpt>
      <trkpt lat="48.61708" lon="-2.47819">
        <ele>90</ele>
        <time>2015-03-30T13:46:10.1Z</time>
      </trkpt>
      <trkpt lat="48.6171" lon="-2.47815">
        <ele>90</ele>
        <time>2015-03-30T13:46:13.1Z</time>
      </trkpt>
      <trkpt lat="48.61712" lon="-2.47812">
        <ele>90</ele>
        <time>2015-03-30T13:46:16.1Z</time>
      </trkpt>
      <trkpt lat="48.61713" lon="-2.47809">
        <ele>90</ele>
        <time>2015-03-30T13:46:18.1Z</time>
      </trkpt>
      <trkpt lat="48.61715" lon="-2.47805">
        <ele>90</ele>
        <time>2015-03-30T13:46:21.1Z</time>
      </trkpt>
      <trkpt lat="48.61717" lon="-2.47803">
        <ele>90</ele>
        <time>2015-03-30T13:46:23.1Z</time>
      </trkpt>
      <trkpt lat="48.61719" lon="-2.47799">
        <ele>90</ele>
        <time>2015-03-30T13:46:26.1Z</time>
      </trkpt>
      <trkpt lat="48.61722" lon="-2.47796">
        <ele>90</ele>
        <time>2015-03-30T13:46:29.1Z</time>
      </trkpt>
      <trkpt lat="48.61723" lon="-2.47793">
        <ele>90</ele>
        <time>2015-03-30T13:46:31.1Z</time>
      </trkpt>
      <trkpt lat="48.61725" lon="-2.47789">
        <ele>90</ele>
        <time>2015-03-30T13:46:34.1Z</time>
      </trkpt>
      <trkpt lat="48.61726" lon="-2.47786">
        <ele>91</ele>
        <time>2015-03-30T13:46:36.1Z</time>
      </trkpt>
      <trkpt lat="48.61727" lon="-2.47784">
        <ele>91</ele>
        <time>2015-03-30T13:46:38.1Z</time>
      </trkpt>
      <trkpt lat="48.61729" lon="-2.47781">
        <ele>91</ele>
        <time>2015-03-30T13:46:40.1Z</time>
      </trkpt>
      <trkpt lat="48.6173" lon="-2.47779">
        <ele>91</ele>
        <time>2015-03-30T13:46:42.1Z</time>
      </trkpt>
      <trkpt lat="48.61733" lon="-2.47775">
        <ele>91</ele>
        <time>2015-03-30T13:46:45.1Z</time>
      </trkpt>
      <trkpt lat="48.61734" lon="-2.47773">
        <ele>91</ele>
        <time>2015-03-30T13:46:47.1Z</time>
      </trkpt>
      <trkpt lat="48.61736" lon="-2.47771">
        <ele>91</ele>
        <time>2015-03-30T13:46:49.1Z</time>
      </trkpt>
      <trkpt lat="48.61737" lon="-2.47768">
        <ele>92</ele>
        <time>2015-03-30T13:46:51.1Z</time>
      </trkpt>
      <trkpt lat="48.6174" lon="-2.47765">
        <ele>92</ele>
        <time>2015-03-30T13:46:54.1Z</time>
      </trkpt>
      <trkpt lat="48.61742" lon="-2.47761">
        <ele>92</ele>
        <time>2015-03-30T13:46:57.1Z</time>
      </trkpt>
      <trkpt lat="48.61743" lon="-2.47759">
        <ele>92</ele>
        <time>2015-03-30T13:46:59.1Z</time>
      </trkpt>
      <trkpt lat="48.61745" lon="-2.47755">
        <ele>92</ele>
        <time>2015-03-30T13:47:02.1Z</time>
      </trkpt>
      <trkpt lat="48.61748" lon="-2.47751">
        <ele>92</ele>
        <time>2015-03-30T13:47:05.1Z</time>
      </trkpt>
      <trkpt lat="48.6175" lon="-2.47747">
        <ele>92</ele>
        <time>2015-03-30T13:47:08.1Z</time>
      </trkpt>
      <trkpt lat="48.61753" lon="-2.47743">
        <ele>93</ele>
        <time>2015-03-30T13:47:11.1Z</time>
      </trkpt>
      <trkpt lat="48.61755" lon="-2.47741">
        <ele>93</ele>
        <time>2015-03-30T13:47:13.1Z</time>
      </trkpt>
      <trkpt lat="48.61756" lon="-2.47739">
        <ele>93</ele>
        <time>2015-03-30T13:47:15.1Z</time>
      </trkpt>
      <trkpt lat="48.61758" lon="-2.47735">
        <ele>93</ele>
        <time>2015-03-30T13:47:18.1Z</time>
      </trkpt>
      <trkpt lat="48.6176" lon="-2.47732">
        <ele>93</ele>
        <time>2015-03-30T13:47:21.1Z</time>
      </trkpt>
      <trkpt lat="48.61762" lon="-2.47728">
        <ele>93</ele>
        <time>2015-03-30T13:47:24.1Z</time>
      </trkpt>
      <trkpt lat="48.61765" lon="-2.47725">
        <ele>94</ele>
        <time>2015-03-30T13:47:27.1Z</time>
      </trkpt>
      <trkpt lat="48.61767" lon="-2.47722">
        <ele>94</ele>
        <time>2015-03-30T13:47:30.1Z</time>
      </trkpt>
      <trkpt lat="48.61768" lon="-2.4772">
        <ele>94</ele>
        <time>2015-03-30T13:47:32.1Z</time>
      </trkpt>
      <trkpt lat="48.6177" lon="-2.47716">
        <ele>94</ele>
        <time>2015-03-30T13:47:35.1Z</time>
      </trkpt>
      <trkpt lat="48.61772" lon="-2.47714">
        <ele>94</ele>
        <time>2015-03-30T13:47:37.1Z</time>
      </trkpt>
      <trkpt lat="48.61774" lon="-2.47711">
        <ele>94</ele>
        <time>2015-03-30T13:47:40.1Z</time>
      </trkpt>
      <trkpt lat="48.61777" lon="-2.47707">
        <ele>94</ele>
        <time>2015-03-30T13:47:43.1Z</time>
      </trkpt>
      <trkpt lat="48.61779" lon="-2.47705">
        <ele>94</ele>
        <time>2015-03-30T13:47:45.1Z</time>
      </trkpt>
      <trkpt lat="48.61781" lon="-2.47701">
        <ele>95</ele>
        <time>2015-03-30T13:47:48.1Z</time>
      </trkpt>
      <trkpt lat="48.61782" lon="-2.47699">
        <ele>95</ele>
        <time>2015-03-30T13:47:50.1Z</time>
      </trkpt>
      <trkpt lat="48.61783" lon="-2.47696">
        <ele>95</ele>
        <time>2015-03-30T13:47:52.1Z</time>
      </trkpt>
      <trkpt lat="48.61785" lon="-2.47692">
        <ele>94</ele>
        <time>2015-03-30T13:47:55.1Z</time>
      </trkpt>
      <trkpt lat="48.61786" lon="-2.4769">
        <ele>94</ele>
        <time>2015-03-30T13:47:57.1Z</time>
      </trkpt>
      <trkpt lat="48.61787" lon="-2.47687">
        <ele>94</ele>
        <time>2015-03-30T13:47:59.1Z</time>
      </trkpt>
      <trkpt lat="48.61789" lon="-2.47682">
        <ele>94</ele>
        <time>2015-03-30T13:48:02.1Z</time>
      </trkpt>
      <trkpt lat="48.6179" lon="-2.47678">
        <ele>94</ele>
        <time>2015-03-30T13:48:05.1Z</time>
      </trkpt>
      <trkpt lat="48.61792" lon="-2.47675">
        <ele>94</ele>
        <time>2015-03-30T13:48:07.1Z</time>
      </trkpt>
      <trkpt lat="48.61792" lon="-2.47672">
        <ele>94</ele>
        <time>2015-03-30T13:48:09.1Z</time>
      </trkpt>
      <trkpt lat="48.61794" lon="-2.47668">
        <ele>94</ele>
        <time>2015-03-30T13:48:12.1Z</time>
      </trkpt>
      <trkpt lat="48.61796" lon="-2.47663">
        <ele>94</ele>
        <time>2015-03-30T13:48:15.1Z</time>
      </trkpt>
      <trkpt lat="48.61797" lon="-2.47659">
        <ele>93</ele>
        <time>2015-03-30T13:48:18.1Z</time>
      </trkpt>
      <trkpt lat="48.61798" lon="-2.47655">
        <ele>93</ele>
        <time>2015-03-30T13:48:21.1Z</time>
      </trkpt>
      <trkpt lat="48.61799" lon="-2.47652">
        <ele>94</ele>
        <time>2015-03-30T13:48:23.1Z</time>
      </trkpt>
      <trkpt lat="48.618" lon="-2.47647">
        <ele>94</ele>
        <time>2015-03-30T13:48:26.1Z</time>
      </trkpt>
      <trkpt lat="48.61801" lon="-2.47642">
        <ele>94</ele>
        <time>2015-03-30T13:48:29.1Z</time>
      </trkpt>
      <trkpt lat="48.61802" lon="-2.47639">
        <ele>94</ele>
        <time>2015-03-30T13:48:31.1Z</time>
      </trkpt>
      <trkpt lat="48.61803" lon="-2.47635">
        <ele>94</ele>
        <time>2015-03-30T13:48:34.1Z</time>
      </trkpt>
      <trkpt lat="48.61803" lon="-2.47632">
        <ele>94</ele>
        <time>2015-03-30T13:48:36.1Z</time>
      </trkpt>
      <trkpt lat="48.61804" lon="-2.47629">
        <ele>94</ele>
        <time>2015-03-30T13:48:38.1Z</time>
      </trkpt>
      <trkpt lat="48.61805" lon="-2.47625">
        <ele>94</ele>
        <time>2015-03-30T13:48:41.1Z</time>
      </trkpt>
      <trkpt lat="48.61805" lon="-2.4762">
        <ele>94</ele>
        <time>2015-03-30T13:48:44.1Z</time>
      </trkpt>
      <trkpt lat="48.61805" lon="-2.47617">
        <ele>94</ele>
        <time>2015-03-30T13:48:46.1Z</time>
      </trkpt>
      <trkpt lat="48.61805" lon="-2.47612">
        <ele>94</ele>
        <time>2015-03-30T13:48:49.1Z</time>
      </trkpt>
      <trkpt lat="48.61807" lon="-2.47607">
        <ele>94</ele>
        <time>2015-03-30T13:48:52.1Z</time>
      </trkpt>
      <trkpt lat="48.61808" lon="-2.47603">
        <ele>94</ele>
        <time>2015-03-30T13:48:55.1Z</time>
      </trkpt>
      <trkpt lat="48.61808" lon="-2.47598">
        <ele>94</ele>
        <time>2015-03-30T13:48:58.1Z</time>
      </trkpt>
      <trkpt lat="48.61808" lon="-2.47595">
        <ele>94</ele>
        <time>2015-03-30T13:49:00.1Z</time>
      </trkpt>
      <trkpt lat="48.61808" lon="-2.4759">
        <ele>94</ele>
        <time>2015-03-30T13:49:03.1Z</time>
      </trkpt>
      <trkpt lat="48.61808" lon="-2.47587">
        <ele>94</ele>
        <time>2015-03-30T13:49:05.1Z</time>
      </trkpt>
      <trkpt lat="48.6181" lon="-2.47585">
        <ele>94</ele>
        <time>2015-03-30T13:49:08.1Z</time>
      </trkpt>
      <trkpt lat="48.6181" lon="-2.47582">
        <ele>94</ele>
        <time>2015-03-30T13:49:10.1Z</time>
      </trkpt>
      <trkpt lat="48.6181" lon="-2.47576">
        <ele>94</ele>
        <time>2015-03-30T13:49:13.1Z</time>
      </trkpt>
      <trkpt lat="48.61811" lon="-2.47571">
        <ele>95</ele>
        <time>2015-03-30T13:49:16.1Z</time>
      </trkpt>
      <trkpt lat="48.61811" lon="-2.47568">
        <ele>95</ele>
        <time>2015-03-30T13:49:18.1Z</time>
      </trkpt>
      <trkpt lat="48.61812" lon="-2.47563">
        <ele>95</ele>
        <time>2015-03-30T13:49:21.1Z</time>
      </trkpt>
      <trkpt lat="48.61813" lon="-2.47559">
        <ele>95</ele>
        <time>2015-03-30T13:49:24.1Z</time>
      </trkpt>
      <trkpt lat="48.61815" lon="-2.47554">
        <ele>95</ele>
        <time>2015-03-30T13:49:27.1Z</time>
      </trkpt>
      <trkpt lat="48.61815" lon="-2.47551">
        <ele>95</ele>
        <time>2015-03-30T13:49:29.1Z</time>
      </trkpt>
      <trkpt lat="48.61816" lon="-2.47547">
        <ele>95</ele>
        <time>2015-03-30T13:49:31.1Z</time>
      </trkpt>
      <trkpt lat="48.61816" lon="-2.47544">
        <ele>95</ele>
        <time>2015-03-30T13:49:33.1Z</time>
      </trkpt>
      <trkpt lat="48.61817" lon="-2.47539">
        <ele>95</ele>
        <time>2015-03-30T13:49:36.1Z</time>
      </trkpt>
      <trkpt lat="48.61818" lon="-2.47536">
        <ele>95</ele>
        <time>2015-03-30T13:49:38.1Z</time>
      </trkpt>
      <trkpt lat="48.61818" lon="-2.4753">
        <ele>95</ele>
        <time>2015-03-30T13:49:41.1Z</time>
      </trkpt>
      <trkpt lat="48.61818" lon="-2.47526">
        <ele>95</ele>
        <time>2015-03-30T13:49:44.1Z</time>
      </trkpt>
      <trkpt lat="48.61818" lon="-2.47522">
        <ele>95</ele>
        <time>2015-03-30T13:49:46.1Z</time>
      </trkpt>
      <trkpt lat="48.61818" lon="-2.47518">
        <ele>95</ele>
        <time>2015-03-30T13:49:49.1Z</time>
      </trkpt>
      <trkpt lat="48.61818" lon="-2.47514">
        <ele>95</ele>
        <time>2015-03-30T13:49:52.1Z</time>
      </trkpt>
      <trkpt lat="48.61818" lon="-2.47511">
        <ele>95</ele>
        <time>2015-03-30T13:49:54.1Z</time>
      </trkpt>
      <trkpt lat="48.61818" lon="-2.47507">
        <ele>95</ele>
        <time>2015-03-30T13:49:57.1Z</time>
      </trkpt>
      <trkpt lat="48.61818" lon="-2.47502">
        <ele>95</ele>
        <time>2015-03-30T13:50:00.1Z</time>
      </trkpt>
      <trkpt lat="48.61818" lon="-2.475">
        <ele>95</ele>
        <time>2015-03-30T13:50:02.1Z</time>
      </trkpt>
      <trkpt lat="48.61819" lon="-2.47496">
        <ele>95</ele>
        <time>2015-03-30T13:50:05.1Z</time>
      </trkpt>
      <trkpt lat="48.6182" lon="-2.47493">
        <ele>95</ele>
        <time>2015-03-30T13:50:07.1Z</time>
      </trkpt>
      <trkpt lat="48.61821" lon="-2.47488">
        <ele>95</ele>
        <time>2015-03-30T13:50:10.1Z</time>
      </trkpt>
      <trkpt lat="48.61821" lon="-2.47485">
        <ele>95</ele>
        <time>2015-03-30T13:50:12.1Z</time>
      </trkpt>
      <trkpt lat="48.61821" lon="-2.4748">
        <ele>94</ele>
        <time>2015-03-30T13:50:15.1Z</time>
      </trkpt>
      <trkpt lat="48.61822" lon="-2.47475">
        <ele>94</ele>
        <time>2015-03-30T13:50:18.1Z</time>
      </trkpt>
      <trkpt lat="48.61823" lon="-2.47471">
        <ele>94</ele>
        <time>2015-03-30T13:50:20.1Z</time>
      </trkpt>
      <trkpt lat="48.61823" lon="-2.47467">
        <ele>95</ele>
        <time>2015-03-30T13:50:22.1Z</time>
      </trkpt>
      <trkpt lat="48.61824" lon="-2.47463">
        <ele>95</ele>
        <time>2015-03-30T13:50:25.1Z</time>
      </trkpt>
      <trkpt lat="48.61824" lon="-2.47459">
        <ele>95</ele>
        <time>2015-03-30T13:50:27.1Z</time>
      </trkpt>
      <trkpt lat="48.61826" lon="-2.47456">
        <ele>95</ele>
        <time>2015-03-30T13:50:29.1Z</time>
      </trkpt>
      <trkpt lat="48.61827" lon="-2.47451">
        <ele>94</ele>
        <time>2015-03-30T13:50:32.1Z</time>
      </trkpt>
      <trkpt lat="48.61828" lon="-2.47447">
        <ele>94</ele>
        <time>2015-03-30T13:50:35.1Z</time>
      </trkpt>
      <trkpt lat="48.61829" lon="-2.47444">
        <ele>94</ele>
        <time>2015-03-30T13:50:37.1Z</time>
      </trkpt>
      <trkpt lat="48.6183" lon="-2.47439">
        <ele>93</ele>
        <time>2015-03-30T13:50:40.1Z</time>
      </trkpt>
      <trkpt lat="48.61832" lon="-2.47435">
        <ele>93</ele>
        <time>2015-03-30T13:50:43.1Z</time>
      </trkpt>
      <trkpt lat="48.61833" lon="-2.47433">
        <ele>93</ele>
        <time>2015-03-30T13:50:45.1Z</time>
      </trkpt>
      <trkpt lat="48.61834" lon="-2.47429">
        <ele>93</ele>
        <time>2015-03-30T13:50:48.1Z</time>
      </trkpt>
      <trkpt lat="48.61836" lon="-2.47426">
        <ele>92</ele>
        <time>2015-03-30T13:50:51.1Z</time>
      </trkpt>
      <trkpt lat="48.61838" lon="-2.47423">
        <ele>92</ele>
        <time>2015-03-30T13:50:54.1Z</time>
      </trkpt>
      <trkpt lat="48.6184" lon="-2.4742">
        <ele>92</ele>
        <time>2015-03-30T13:50:56.1Z</time>
      </trkpt>
      <trkpt lat="48.61841" lon="-2.47418">
        <ele>92</ele>
        <time>2015-03-30T13:50:58.1Z</time>
      </trkpt>
      <trkpt lat="48.61842" lon="-2.47415">
        <ele>92</ele>
        <time>2015-03-30T13:51:01.1Z</time>
      </trkpt>
      <trkpt lat="48.61844" lon="-2.47414">
        <ele>92</ele>
        <time>2015-03-30T13:51:03.1Z</time>
      </trkpt>
      <trkpt lat="48.61845" lon="-2.47412">
        <ele>91</ele>
        <time>2015-03-30T13:51:05.1Z</time>
      </trkpt>
      <trkpt lat="48.61848" lon="-2.47409">
        <ele>91</ele>
        <time>2015-03-30T13:51:08.1Z</time>
      </trkpt>
      <trkpt lat="48.6185" lon="-2.47407">
        <ele>91</ele>
        <time>2015-03-30T13:51:10.1Z</time>
      </trkpt>
      <trkpt lat="48.61852" lon="-2.47404">
        <ele>90</ele>
        <time>2015-03-30T13:51:13.1Z</time>
      </trkpt>
      <trkpt lat="48.61854" lon="-2.47401">
        <ele>90</ele>
        <time>2015-03-30T13:51:16.1Z</time>
      </trkpt>
      <trkpt lat="48.61856" lon="-2.47399">
        <ele>90</ele>
        <time>2015-03-30T13:51:18.1Z</time>
      </trkpt>
      <trkpt lat="48.61858" lon="-2.47397">
        <ele>90</ele>
        <time>2015-03-30T13:51:20.1Z</time>
      </trkpt>
      <trkpt lat="48.6186" lon="-2.47395">
        <ele>90</ele>
        <time>2015-03-30T13:51:22.1Z</time>
      </trkpt>
      <trkpt lat="48.61861" lon="-2.47393">
        <ele>90</ele>
        <time>2015-03-30T13:51:25.1Z</time>
      </trkpt>
      <trkpt lat="48.61863" lon="-2.47392">
        <ele>90</ele>
        <time>2015-03-30T13:51:27.1Z</time>
      </trkpt>
      <trkpt lat="48.61864" lon="-2.4739">
        <ele>90</ele>
        <time>2015-03-30T13:51:29.1Z</time>
      </trkpt>
      <trkpt lat="48.61867" lon="-2.47387">
        <ele>90</ele>
        <time>2015-03-30T13:51:32.1Z</time>
      </trkpt>
      <trkpt lat="48.61868" lon="-2.47385">
        <ele>90</ele>
        <time>2015-03-30T13:51:34.1Z</time>
      </trkpt>
      <trkpt lat="48.61871" lon="-2.47383">
        <ele>90</ele>
        <time>2015-03-30T13:51:37.1Z</time>
      </trkpt>
      <trkpt lat="48.61873" lon="-2.4738">
        <ele>89</ele>
        <time>2015-03-30T13:51:40.1Z</time>
      </trkpt>
      <trkpt lat="48.61875" lon="-2.47376">
        <ele>89</ele>
        <time>2015-03-30T13:51:43.1Z</time>
      </trkpt>
      <trkpt lat="48.61877" lon="-2.47372">
        <ele>89</ele>
        <time>2015-03-30T13:51:46.1Z</time>
      </trkpt>
      <trkpt lat="48.61878" lon="-2.47371">
        <ele>90</ele>
        <time>2015-03-30T13:51:48.1Z</time>
      </trkpt>
      <trkpt lat="48.61879" lon="-2.47369">
        <ele>89</ele>
        <time>2015-03-30T13:51:50.1Z</time>
      </trkpt>
      <trkpt lat="48.61881" lon="-2.47365">
        <ele>90</ele>
        <time>2015-03-30T13:51:53.1Z</time>
      </trkpt>
      <trkpt lat="48.61883" lon="-2.47362">
        <ele>89</ele>
        <time>2015-03-30T13:51:56.1Z</time>
      </trkpt>
      <trkpt lat="48.61885" lon="-2.47359">
        <ele>89</ele>
        <time>2015-03-30T13:51:58.1Z</time>
      </trkpt>
      <trkpt lat="48.61887" lon="-2.47356">
        <ele>89</ele>
        <time>2015-03-30T13:52:01.1Z</time>
      </trkpt>
      <trkpt lat="48.61889" lon="-2.47353">
        <ele>90</ele>
        <time>2015-03-30T13:52:04.1Z</time>
      </trkpt>
      <trkpt lat="48.61891" lon="-2.4735">
        <ele>90</ele>
        <time>2015-03-30T13:52:06.1Z</time>
      </trkpt>
      <trkpt lat="48.61893" lon="-2.47348">
        <ele>90</ele>
        <time>2015-03-30T13:52:08.1Z</time>
      </trkpt>
      <trkpt lat="48.61895" lon="-2.47344">
        <ele>90</ele>
        <time>2015-03-30T13:52:11.1Z</time>
      </trkpt>
      <trkpt lat="48.61897" lon="-2.47341">
        <ele>90</ele>
        <time>2015-03-30T13:52:13.1Z</time>
      </trkpt>
      <trkpt lat="48.61899" lon="-2.47338">
        <ele>90</ele>
        <time>2015-03-30T13:52:16.1Z</time>
      </trkpt>
      <trkpt lat="48.61902" lon="-2.47335">
        <ele>90</ele>
        <time>2015-03-30T13:52:19.1Z</time>
      </trkpt>
      <trkpt lat="48.61904" lon="-2.47332">
        <ele>90</ele>
        <time>2015-03-30T13:52:22.1Z</time>
      </trkpt>
      <trkpt lat="48.61906" lon="-2.47329">
        <ele>90</ele>
        <time>2015-03-30T13:52:25.1Z</time>
      </trkpt>
      <trkpt lat="48.61908" lon="-2.47327">
        <ele>90</ele>
        <time>2015-03-30T13:52:27.1Z</time>
      </trkpt>
      <trkpt lat="48.61908" lon="-2.47324">
        <ele>90</ele>
        <time>2015-03-30T13:52:30.1Z</time>
      </trkpt>
      <trkpt lat="48.61909" lon="-2.47322">
        <ele>90</ele>
        <time>2015-03-30T13:52:32.1Z</time>
      </trkpt>
      <trkpt lat="48.61912" lon="-2.47319">
        <ele>90</ele>
        <time>2015-03-30T13:52:35.1Z</time>
      </trkpt>
      <trkpt lat="48.61913" lon="-2.47316">
        <ele>91</ele>
        <time>2015-03-30T13:52:37.1Z</time>
      </trkpt>
      <trkpt lat="48.61915" lon="-2.47313">
        <ele>91</ele>
        <time>2015-03-30T13:52:39.1Z</time>
      </trkpt>
      <trkpt lat="48.61917" lon="-2.4731">
        <ele>91</ele>
        <time>2015-03-30T13:52:42.1Z</time>
      </trkpt>
      <trkpt lat="48.61919" lon="-2.47308">
        <ele>92</ele>
        <time>2015-03-30T13:52:44.1Z</time>
      </trkpt>
      <trkpt lat="48.61921" lon="-2.47305">
        <ele>91</ele>
        <time>2015-03-30T13:52:46.1Z</time>
      </trkpt>
      <trkpt lat="48.61924" lon="-2.47302">
        <ele>92</ele>
        <time>2015-03-30T13:52:49.1Z</time>
      </trkpt>
      <trkpt lat="48.61926" lon="-2.473">
        <ele>92</ele>
        <time>2015-03-30T13:52:51.1Z</time>
      </trkpt>
      <trkpt lat="48.61929" lon="-2.47296">
        <ele>92</ele>
        <time>2015-03-30T13:52:54.1Z</time>
      </trkpt>
      <trkpt lat="48.61931" lon="-2.47292">
        <ele>92</ele>
        <time>2015-03-30T13:52:57.1Z</time>
      </trkpt>
      <trkpt lat="48.61933" lon="-2.47288">
        <ele>92</ele>
        <time>2015-03-30T13:53:00.1Z</time>
      </trkpt>
      <trkpt lat="48.61933" lon="-2.47285">
        <ele>92</ele>
        <time>2015-03-30T13:53:02.1Z</time>
      </trkpt>
      <trkpt lat="48.61935" lon="-2.47281">
        <ele>93</ele>
        <time>2015-03-30T13:53:05.1Z</time>
      </trkpt>
      <trkpt lat="48.61936" lon="-2.47277">
        <ele>93</ele>
        <time>2015-03-30T13:53:08.1Z</time>
      </trkpt>
      <trkpt lat="48.61937" lon="-2.47274">
        <ele>93</ele>
        <time>2015-03-30T13:53:10.1Z</time>
      </trkpt>
      <trkpt lat="48.61937" lon="-2.47271">
        <ele>93</ele>
        <time>2015-03-30T13:53:12.1Z</time>
      </trkpt>
      <trkpt lat="48.61938" lon="-2.47268">
        <ele>93</ele>
        <time>2015-03-30T13:53:14.1Z</time>
      </trkpt>
      <trkpt lat="48.6194" lon="-2.47265">
        <ele>94</ele>
        <time>2015-03-30T13:53:17.1Z</time>
      </trkpt>
      <trkpt lat="48.61942" lon="-2.47263">
        <ele>94</ele>
        <time>2015-03-30T13:53:19.1Z</time>
      </trkpt>
      <trkpt lat="48.61943" lon="-2.4726">
        <ele>94</ele>
        <time>2015-03-30T13:53:21.1Z</time>
      </trkpt>
      <trkpt lat="48.61945" lon="-2.47257">
        <ele>94</ele>
        <time>2015-03-30T13:53:24.1Z</time>
      </trkpt>
      <trkpt lat="48.61946" lon="-2.47254">
        <ele>94</ele>
        <time>2015-03-30T13:53:26.1Z</time>
      </trkpt>
      <trkpt lat="48.61948" lon="-2.47251">
        <ele>94</ele>
        <time>2015-03-30T13:53:28.1Z</time>
      </trkpt>
      <trkpt lat="48.61949" lon="-2.47248">
        <ele>95</ele>
        <time>2015-03-30T13:53:30.1Z</time>
      </trkpt>
      <trkpt lat="48.61951" lon="-2.47244">
        <ele>95</ele>
        <time>2015-03-30T13:53:33.1Z</time>
      </trkpt>
      <trkpt lat="48.61952" lon="-2.47242">
        <ele>95</ele>
        <time>2015-03-30T13:53:35.1Z</time>
      </trkpt>
      <trkpt lat="48.61954" lon="-2.47238">
        <ele>95</ele>
        <time>2015-03-30T13:53:38.1Z</time>
      </trkpt>
      <trkpt lat="48.61955" lon="-2.47235">
        <ele>95</ele>
        <time>2015-03-30T13:53:40.1Z</time>
      </trkpt>
      <trkpt lat="48.61957" lon="-2.47232">
        <ele>94</ele>
        <time>2015-03-30T13:53:42.1Z</time>
      </trkpt>
      <trkpt lat="48.61958" lon="-2.47231">
        <ele>94</ele>
        <time>2015-03-30T13:53:44.1Z</time>
      </trkpt>
      <trkpt lat="48.61961" lon="-2.47227">
        <ele>94</ele>
        <time>2015-03-30T13:53:47.1Z</time>
      </trkpt>
      <trkpt lat="48.61962" lon="-2.47225">
        <ele>94</ele>
        <time>2015-03-30T13:53:49.1Z</time>
      </trkpt>
      <trkpt lat="48.61964" lon="-2.47222">
        <ele>94</ele>
        <time>2015-03-30T13:53:52.1Z</time>
      </trkpt>
      <trkpt lat="48.61966" lon="-2.47218">
        <ele>94</ele>
        <time>2015-03-30T13:53:55.1Z</time>
      </trkpt>
      <trkpt lat="48.61967" lon="-2.47215">
        <ele>94</ele>
        <time>2015-03-30T13:53:57.1Z</time>
      </trkpt>
      <trkpt lat="48.61969" lon="-2.47212">
        <ele>94</ele>
        <time>2015-03-30T13:54:00.1Z</time>
      </trkpt>
      <trkpt lat="48.61971" lon="-2.47207">
        <ele>93</ele>
        <time>2015-03-30T13:54:03.1Z</time>
      </trkpt>
      <trkpt lat="48.61972" lon="-2.47204">
        <ele>93</ele>
        <time>2015-03-30T13:54:06.1Z</time>
      </trkpt>
      <trkpt lat="48.61974" lon="-2.47201">
        <ele>93</ele>
        <time>2015-03-30T13:54:09.1Z</time>
      </trkpt>
      <trkpt lat="48.61975" lon="-2.47197">
        <ele>92</ele>
        <time>2015-03-30T13:54:12.1Z</time>
      </trkpt>
      <trkpt lat="48.61977" lon="-2.47194">
        <ele>93</ele>
        <time>2015-03-30T13:54:15.1Z</time>
      </trkpt>
      <trkpt lat="48.61979" lon="-2.4719">
        <ele>92</ele>
        <time>2015-03-30T13:54:18.1Z</time>
      </trkpt>
      <trkpt lat="48.6198" lon="-2.47188">
        <ele>92</ele>
        <time>2015-03-30T13:54:20.1Z</time>
      </trkpt>
      <trkpt lat="48.61982" lon="-2.47185">
        <ele>93</ele>
        <time>2015-03-30T13:54:22.1Z</time>
      </trkpt>
      <trkpt lat="48.61984" lon="-2.4718">
        <ele>93</ele>
        <time>2015-03-30T13:54:25.1Z</time>
      </trkpt>
      <trkpt lat="48.61985" lon="-2.47175">
        <ele>93</ele>
        <time>2015-03-30T13:54:27.1Z</time>
      </trkpt>
      <trkpt lat="48.61986" lon="-2.47171">
        <ele>92</ele>
        <time>2015-03-30T13:54:29.1Z</time>
      </trkpt>
      <trkpt lat="48.61988" lon="-2.47167">
        <ele>92</ele>
        <time>2015-03-30T13:54:32.1Z</time>
      </trkpt>
      <trkpt lat="48.6199" lon="-2.47164">
        <ele>92</ele>
        <time>2015-03-30T13:54:34.1Z</time>
      </trkpt>
      <trkpt lat="48.6199" lon="-2.47161">
        <ele>92</ele>
        <time>2015-03-30T13:54:36.1Z</time>
      </trkpt>
      <trkpt lat="48.61992" lon="-2.47158">
        <ele>92</ele>
        <time>2015-03-30T13:54:38.1Z</time>
      </trkpt>
      <trkpt lat="48.61995" lon="-2.47153">
        <ele>92</ele>
        <time>2015-03-30T13:54:41.1Z</time>
      </trkpt>
      <trkpt lat="48.61996" lon="-2.47151">
        <ele>92</ele>
        <time>2015-03-30T13:54:43.1Z</time>
      </trkpt>
      <trkpt lat="48.61999" lon="-2.47147">
        <ele>92</ele>
        <time>2015-03-30T13:54:46.1Z</time>
      </trkpt>
      <trkpt lat="48.62001" lon="-2.47144">
        <ele>92</ele>
        <time>2015-03-30T13:54:49.1Z</time>
      </trkpt>
      <trkpt lat="48.62003" lon="-2.4714">
        <ele>92</ele>
        <time>2015-03-30T13:54:52.1Z</time>
      </trkpt>
      <trkpt lat="48.62005" lon="-2.47136">
        <ele>92</ele>
        <time>2015-03-30T13:54:55.1Z</time>
      </trkpt>
      <trkpt lat="48.62007" lon="-2.47134">
        <ele>91</ele>
        <time>2015-03-30T13:54:57.1Z</time>
      </trkpt>
      <trkpt lat="48.62009" lon="-2.4713">
        <ele>91</ele>
        <time>2015-03-30T13:55:00.1Z</time>
      </trkpt>
      <trkpt lat="48.62011" lon="-2.47126">
        <ele>91</ele>
        <time>2015-03-30T13:55:03.1Z</time>
      </trkpt>
      <trkpt lat="48.62012" lon="-2.47123">
        <ele>91</ele>
        <time>2015-03-30T13:55:05.1Z</time>
      </trkpt>
      <trkpt lat="48.62013" lon="-2.4712">
        <ele>91</ele>
        <time>2015-03-30T13:55:07.1Z</time>
      </trkpt>
      <trkpt lat="48.62015" lon="-2.47116">
        <ele>91</ele>
        <time>2015-03-30T13:55:10.1Z</time>
      </trkpt>
      <trkpt lat="48.62016" lon="-2.47113">
        <ele>91</ele>
        <time>2015-03-30T13:55:12.1Z</time>
      </trkpt>
      <trkpt lat="48.62018" lon="-2.4711">
        <ele>91</ele>
        <time>2015-03-30T13:55:15.1Z</time>
      </trkpt>
      <trkpt lat="48.62019" lon="-2.47107">
        <ele>91</ele>
        <time>2015-03-30T13:55:17.1Z</time>
      </trkpt>
      <trkpt lat="48.62021" lon="-2.47105">
        <ele>90</ele>
        <time>2015-03-30T13:55:19.1Z</time>
      </trkpt>
      <trkpt lat="48.62024" lon="-2.471">
        <ele>90</ele>
        <time>2015-03-30T13:55:22.1Z</time>
      </trkpt>
      <trkpt lat="48.62026" lon="-2.47098">
        <ele>90</ele>
        <time>2015-03-30T13:55:24.1Z</time>
      </trkpt>
      <trkpt lat="48.62027" lon="-2.47096">
        <ele>90</ele>
        <time>2015-03-30T13:55:26.1Z</time>
      </trkpt>
      <trkpt lat="48.62031" lon="-2.47093">
        <ele>90</ele>
        <time>2015-03-30T13:55:29.1Z</time>
      </trkpt>
      <trkpt lat="48.62032" lon="-2.47091">
        <ele>91</ele>
        <time>2015-03-30T13:55:31.1Z</time>
      </trkpt>
      <trkpt lat="48.62034" lon="-2.47089">
        <ele>90</ele>
        <time>2015-03-30T13:55:33.1Z</time>
      </trkpt>
      <trkpt lat="48.62036" lon="-2.47087">
        <ele>91</ele>
        <time>2015-03-30T13:55:35.1Z</time>
      </trkpt>
      <trkpt lat="48.62038" lon="-2.47086">
        <ele>91</ele>
        <time>2015-03-30T13:55:37.1Z</time>
      </trkpt>
      <trkpt lat="48.62041" lon="-2.47083">
        <ele>91</ele>
        <time>2015-03-30T13:55:39.1Z</time>
      </trkpt>
      <trkpt lat="48.62043" lon="-2.47081">
        <ele>90</ele>
        <time>2015-03-30T13:55:42.1Z</time>
      </trkpt>
      <trkpt lat="48.62045" lon="-2.47079">
        <ele>91</ele>
        <time>2015-03-30T13:55:45.1Z</time>
      </trkpt>
      <trkpt lat="48.62049" lon="-2.47076">
        <ele>90</ele>
        <time>2015-03-30T13:55:48.1Z</time>
      </trkpt>
      <trkpt lat="48.62051" lon="-2.47075">
        <ele>91</ele>
        <time>2015-03-30T13:55:50.1Z</time>
      </trkpt>
      <trkpt lat="48.62053" lon="-2.47074">
        <ele>90</ele>
        <time>2015-03-30T13:55:52.1Z</time>
      </trkpt>
      <trkpt lat="48.62056" lon="-2.47071">
        <ele>90</ele>
        <time>2015-03-30T13:55:54.1Z</time>
      </trkpt>
      <trkpt lat="48.62057" lon="-2.47071">
        <ele>91</ele>
        <time>2015-03-30T13:55:57.1Z</time>
      </trkpt>
      <trkpt lat="48.6206" lon="-2.4707">
        <ele>91</ele>
        <time>2015-03-30T13:55:59.1Z</time>
      </trkpt>
      <trkpt lat="48.62063" lon="-2.47069">
        <ele>91</ele>
        <time>2015-03-30T13:56:02.1Z</time>
      </trkpt>
      <trkpt lat="48.62066" lon="-2.47068">
        <ele>91</ele>
        <time>2015-03-30T13:56:04.1Z</time>
      </trkpt>
      <trkpt lat="48.62068" lon="-2.47068">
        <ele>91</ele>
        <time>2015-03-30T13:56:07.1Z</time>
      </trkpt>
      <trkpt lat="48.62071" lon="-2.47068">
        <ele>91</ele>
        <time>2015-03-30T13:56:10.1Z</time>
      </trkpt>
      <trkpt lat="48.62074" lon="-2.47068">
        <ele>91</ele>
        <time>2015-03-30T13:56:13.1Z</time>
      </trkpt>
      <trkpt lat="48.62077" lon="-2.47069">
        <ele>91</ele>
        <time>2015-03-30T13:56:16.1Z</time>
      </trkpt>
      <trkpt lat="48.6208" lon="-2.47069">
        <ele>92</ele>
        <time>2015-03-30T13:56:18.1Z</time>
      </trkpt>
      <trkpt lat="48.62082" lon="-2.47069">
        <ele>91</ele>
        <time>2015-03-30T13:56:21.1Z</time>
      </trkpt>
      <trkpt lat="48.62083" lon="-2.47067">
        <ele>91</ele>
        <time>2015-03-30T13:56:23.1Z</time>
      </trkpt>
      <trkpt lat="48.62084" lon="-2.47068">
        <ele>91</ele>
        <time>2015-03-30T13:56:25.1Z</time>
      </trkpt>
      <trkpt lat="48.62084" lon="-2.47068">
        <ele>92</ele>
        <time>2015-03-30T13:56:28.1Z</time>
      </trkpt>
      <trkpt lat="48.62084" lon="-2.47068">
        <ele>91</ele>
        <time>2015-03-30T13:56:31.1Z</time>
      </trkpt>
      <trkpt lat="48.62084" lon="-2.47068">
        <ele>91</ele>
        <time>2015-03-30T13:56:33.1Z</time>
      </trkpt>
      <trkpt lat="48.62085" lon="-2.47068">
        <ele>91</ele>
        <time>2015-03-30T13:56:35.1Z</time>
      </trkpt>
      <trkpt lat="48.62085" lon="-2.47068">
        <ele>91</ele>
        <time>2015-03-30T13:56:38.1Z</time>
      </trkpt>
      <trkpt lat="48.62085" lon="-2.47067">
        <ele>91</ele>
        <time>2015-03-30T13:56:40.1Z</time>
      </trkpt>
      <trkpt lat="48.62084" lon="-2.47065">
        <ele>92</ele>
        <time>2015-03-30T13:56:43.1Z</time>
      </trkpt>
      <trkpt lat="48.62083" lon="-2.47065">
        <ele>91</ele>
        <time>2015-03-30T13:56:46.1Z</time>
      </trkpt>
      <trkpt lat="48.62083" lon="-2.47064">
        <ele>92</ele>
        <time>2015-03-30T13:56:48.1Z</time>
      </trkpt>
      <trkpt lat="48.62083" lon="-2.47064">
        <ele>92</ele>
        <time>2015-03-30T13:56:51.1Z</time>
      </trkpt>
      <trkpt lat="48.62083" lon="-2.47063">
        <ele>92</ele>
        <time>2015-03-30T13:56:53.1Z</time>
      </trkpt>
      <trkpt lat="48.62083" lon="-2.47063">
        <ele>92</ele>
        <time>2015-03-30T13:56:56.1Z</time>
      </trkpt>
      <trkpt lat="48.62083" lon="-2.47062">
        <ele>91</ele>
        <time>2015-03-30T13:56:59.1Z</time>
      </trkpt>
      <trkpt lat="48.62084" lon="-2.4706">
        <ele>91</ele>
        <time>2015-03-30T13:57:02.1Z</time>
      </trkpt>
      <trkpt lat="48.62083" lon="-2.47055">
        <ele>91</ele>
        <time>2015-03-30T13:57:05.1Z</time>
      </trkpt>
      <trkpt lat="48.62083" lon="-2.47051">
        <ele>91</ele>
        <time>2015-03-30T13:57:08.1Z</time>
      </trkpt>
      <trkpt lat="48.6208" lon="-2.47048">
        <ele>91</ele>
        <time>2015-03-30T13:57:11.1Z</time>
      </trkpt>
      <trkpt lat="48.62078" lon="-2.47047">
        <ele>91</ele>
        <time>2015-03-30T13:57:13.1Z</time>
      </trkpt>
      <trkpt lat="48.62076" lon="-2.47046">
        <ele>91</ele>
        <time>2015-03-30T13:57:15.1Z</time>
      </trkpt>
      <trkpt lat="48.62074" lon="-2.47046">
        <ele>91</ele>
        <time>2015-03-30T13:57:18.1Z</time>
      </trkpt>
      <trkpt lat="48.6207" lon="-2.47046">
        <ele>91</ele>
        <time>2015-03-30T13:57:21.1Z</time>
      </trkpt>
      <trkpt lat="48.62067" lon="-2.47046">
        <ele>91</ele>
        <time>2015-03-30T13:57:24.1Z</time>
      </trkpt>
      <trkpt lat="48.62064" lon="-2.47045">
        <ele>91</ele>
        <time>2015-03-30T13:57:27.1Z</time>
      </trkpt>
      <trkpt lat="48.62062" lon="-2.47043">
        <ele>91</ele>
        <time>2015-03-30T13:57:30.1Z</time>
      </trkpt>
      <trkpt lat="48.62061" lon="-2.47041">
        <ele>91</ele>
        <time>2015-03-30T13:57:32.1Z</time>
      </trkpt>
      <trkpt lat="48.62059" lon="-2.47037">
        <ele>91</ele>
        <time>2015-03-30T13:57:35.1Z</time>
      </trkpt>
      <trkpt lat="48.62057" lon="-2.47034">
        <ele>91</ele>
        <time>2015-03-30T13:57:38.1Z</time>
      </trkpt>
      <trkpt lat="48.62056" lon="-2.47032">
        <ele>91</ele>
        <time>2015-03-30T13:57:40.1Z</time>
      </trkpt>
      <trkpt lat="48.62054" lon="-2.4703">
        <ele>91</ele>
        <time>2015-03-30T13:57:42.1Z</time>
      </trkpt>
      <trkpt lat="48.62051" lon="-2.47028">
        <ele>90</ele>
        <time>2015-03-30T13:57:45.1Z</time>
      </trkpt>
      <trkpt lat="48.6205" lon="-2.47025">
        <ele>90</ele>
        <time>2015-03-30T13:57:48.1Z</time>
      </trkpt>
      <trkpt lat="48.62047" lon="-2.47022">
        <ele>90</ele>
        <time>2015-03-30T13:57:51.1Z</time>
      </trkpt>
      <trkpt lat="48.62043" lon="-2.4702">
        <ele>90</ele>
        <time>2015-03-30T13:57:54.1Z</time>
      </trkpt>
      <trkpt lat="48.62041" lon="-2.47019">
        <ele>90</ele>
        <time>2015-03-30T13:57:56.1Z</time>
      </trkpt>
      <trkpt lat="48.62038" lon="-2.47016">
        <ele>90</ele>
        <time>2015-03-30T13:57:59.1Z</time>
      </trkpt>
      <trkpt lat="48.62035" lon="-2.47014">
        <ele>90</ele>
        <time>2015-03-30T13:58:02.1Z</time>
      </trkpt>
      <trkpt lat="48.62032" lon="-2.47013">
        <ele>90</ele>
        <time>2015-03-30T13:58:05.1Z</time>
      </trkpt>
      <trkpt lat="48.6203" lon="-2.47012">
        <ele>90</ele>
        <time>2015-03-30T13:58:07.1Z</time>
      </trkpt>
      <trkpt lat="48.62028" lon="-2.4701">
        <ele>90</ele>
        <time>2015-03-30T13:58:09.1Z</time>
      </trkpt>
      <trkpt lat="48.62025" lon="-2.47009">
        <ele>90</ele>
        <time>2015-03-30T13:58:12.1Z</time>
      </trkpt>
      <trkpt lat="48.62023" lon="-2.47007">
        <ele>90</ele>
        <time>2015-03-30T13:58:15.1Z</time>
      </trkpt>
      <trkpt lat="48.6202" lon="-2.47004">
        <ele>89</ele>
        <time>2015-03-30T13:58:18.1Z</time>
      </trkpt>
      <trkpt lat="48.62019" lon="-2.47002">
        <ele>89</ele>
        <time>2015-03-30T13:58:20.1Z</time>
      </trkpt>
      <trkpt lat="48.62017" lon="-2.47">
        <ele>89</ele>
        <time>2015-03-30T13:58:23.1Z</time>
      </trkpt>
      <trkpt lat="48.62014" lon="-2.46996">
        <ele>89</ele>
        <time>2015-03-30T13:58:26.1Z</time>
      </trkpt>
      <trkpt lat="48.62011" lon="-2.46993">
        <ele>89</ele>
        <time>2015-03-30T13:58:29.1Z</time>
      </trkpt>
      <trkpt lat="48.62009" lon="-2.4699">
        <ele>89</ele>
        <time>2015-03-30T13:58:32.1Z</time>
      </trkpt>
      <trkpt lat="48.62005" lon="-2.46986">
        <ele>89</ele>
        <time>2015-03-30T13:58:34.1Z</time>
      </trkpt>
      <trkpt lat="48.62004" lon="-2.46984">
        <ele>89</ele>
        <time>2015-03-30T13:58:37.1Z</time>
      </trkpt>
      <trkpt lat="48.62002" lon="-2.46981">
        <ele>89</ele>
        <time>2015-03-30T13:58:39.1Z</time>
      </trkpt>
      <trkpt lat="48.62001" lon="-2.46978">
        <ele>89</ele>
        <time>2015-03-30T13:58:42.1Z</time>
      </trkpt>
      <trkpt lat="48.62" lon="-2.46977">
        <ele>89</ele>
        <time>2015-03-30T13:58:44.1Z</time>
      </trkpt>
      <trkpt lat="48.62" lon="-2.46974">
        <ele>89</ele>
        <time>2015-03-30T13:58:47.1Z</time>
      </trkpt>
      <trkpt lat="48.62001" lon="-2.46969">
        <ele>89</ele>
        <time>2015-03-30T13:58:50.1Z</time>
      </trkpt>
      <trkpt lat="48.62002" lon="-2.46965">
        <ele>88</ele>
        <time>2015-03-30T13:58:53.1Z</time>
      </trkpt>
      <trkpt lat="48.62002" lon="-2.4696">
        <ele>88</ele>
        <time>2015-03-30T13:58:56.1Z</time>
      </trkpt>
      <trkpt lat="48.62003" lon="-2.46958">
        <ele>88</ele>
        <time>2015-03-30T13:58:58.1Z</time>
      </trkpt>
      <trkpt lat="48.62004" lon="-2.46953">
        <ele>88</ele>
        <time>2015-03-30T13:59:01.1Z</time>
      </trkpt>
      <trkpt lat="48.62005" lon="-2.46948">
        <ele>88</ele>
        <time>2015-03-30T13:59:04.1Z</time>
      </trkpt>
      <trkpt lat="48.62005" lon="-2.46944">
        <ele>88</ele>
        <time>2015-03-30T13:59:06.1Z</time>
      </trkpt>
      <trkpt lat="48.62006" lon="-2.46939">
        <ele>88</ele>
        <time>2015-03-30T13:59:09.1Z</time>
      </trkpt>
      <trkpt lat="48.62005" lon="-2.46934">
        <ele>88</ele>
        <time>2015-03-30T13:59:11.1Z</time>
      </trkpt>
      <trkpt lat="48.62005" lon="-2.46931">
        <ele>88</ele>
        <time>2015-03-30T13:59:13.1Z</time>
      </trkpt>
      <trkpt lat="48.62006" lon="-2.46927">
        <ele>88</ele>
        <time>2015-03-30T13:59:15.1Z</time>
      </trkpt>
      <trkpt lat="48.62006" lon="-2.46924">
        <ele>88</ele>
        <time>2015-03-30T13:59:17.1Z</time>
      </trkpt>
      <trkpt lat="48.62007" lon="-2.46922">
        <ele>88</ele>
        <time>2015-03-30T13:59:19.1Z</time>
      </trkpt>
      <trkpt lat="48.62008" lon="-2.4692">
        <ele>88</ele>
        <time>2015-03-30T13:59:22.1Z</time>
      </trkpt>
      <trkpt lat="48.62009" lon="-2.46917">
        <ele>88</ele>
        <time>2015-03-30T13:59:25.1Z</time>
      </trkpt>
      <trkpt lat="48.62009" lon="-2.46914">
        <ele>88</ele>
        <time>2015-03-30T13:59:27.1Z</time>
      </trkpt>
      <trkpt lat="48.6201" lon="-2.46911">
        <ele>88</ele>
        <time>2015-03-30T13:59:29.1Z</time>
      </trkpt>
      <trkpt lat="48.62012" lon="-2.46908">
        <ele>89</ele>
        <time>2015-03-30T13:59:32.1Z</time>
      </trkpt>
      <trkpt lat="48.62014" lon="-2.46907">
        <ele>89</ele>
        <time>2015-03-30T13:59:34.1Z</time>
      </trkpt>
      <trkpt lat="48.62016" lon="-2.46904">
        <ele>89</ele>
        <time>2015-03-30T13:59:37.1Z</time>
      </trkpt>
      <trkpt lat="48.62017" lon="-2.46902">
        <ele>89</ele>
        <time>2015-03-30T13:59:40.1Z</time>
      </trkpt>
      <trkpt lat="48.62019" lon="-2.46899">
        <ele>89</ele>
        <time>2015-03-30T13:59:43.1Z</time>
      </trkpt>
      <trkpt lat="48.6202" lon="-2.46899">
        <ele>89</ele>
        <time>2015-03-30T13:59:45.1Z</time>
      </trkpt>
      <trkpt lat="48.62021" lon="-2.46898">
        <ele>89</ele>
        <time>2015-03-30T13:59:47.1Z</time>
      </trkpt>
      <trkpt lat="48.62023" lon="-2.46897">
        <ele>89</ele>
        <time>2015-03-30T13:59:50.1Z</time>
      </trkpt>
      <trkpt lat="48.62025" lon="-2.46896">
        <ele>90</ele>
        <time>2015-03-30T13:59:53.1Z</time>
      </trkpt>
      <trkpt lat="48.62027" lon="-2.46895">
        <ele>89</ele>
        <time>2015-03-30T13:59:55.1Z</time>
      </trkpt>
      <trkpt lat="48.62028" lon="-2.46895">
        <ele>89</ele>
        <time>2015-03-30T13:59:57.1Z</time>
      </trkpt>
      <trkpt lat="48.6203" lon="-2.46893">
        <ele>90</ele>
        <time>2015-03-30T14:00:00.1Z</time>
      </trkpt>
      <trkpt lat="48.62035" lon="-2.46888">
        <ele>90</ele>
        <time>2015-03-30T14:00:02.1Z</time>
      </trkpt>
      <trkpt lat="48.62038" lon="-2.46888">
        <ele>90</ele>
        <time>2015-03-30T14:00:04.1Z</time>
      </trkpt>
      <trkpt lat="48.62042" lon="-2.46887">
        <ele>90</ele>
        <time>2015-03-30T14:00:07.1Z</time>
      </trkpt>
      <trkpt lat="48.62047" lon="-2.46886">
        <ele>91</ele>
        <time>2015-03-30T14:00:09.1Z</time>
      </trkpt>
      <trkpt lat="48.62049" lon="-2.46885">
        <ele>91</ele>
        <time>2015-03-30T14:00:12.1Z</time>
      </trkpt>
      <trkpt lat="48.62054" lon="-2.46883">
        <ele>91</ele>
        <time>2015-03-30T14:00:15.1Z</time>
      </trkpt>
      <trkpt lat="48.62056" lon="-2.46882">
        <ele>91</ele>
        <time>2015-03-30T14:00:17.1Z</time>
      </trkpt>
      <trkpt lat="48.6206" lon="-2.46882">
        <ele>91</ele>
        <time>2015-03-30T14:00:20.1Z</time>
      </trkpt>
      <trkpt lat="48.62061" lon="-2.4688">
        <ele>92</ele>
        <time>2015-03-30T14:00:23.1Z</time>
      </trkpt>
      <trkpt lat="48.62063" lon="-2.46878">
        <ele>92</ele>
        <time>2015-03-30T14:00:26.1Z</time>
      </trkpt>
      <trkpt lat="48.62066" lon="-2.46876">
        <ele>92</ele>
        <time>2015-03-30T14:00:29.1Z</time>
      </trkpt>
      <trkpt lat="48.62067" lon="-2.46873">
        <ele>91</ele>
        <time>2015-03-30T14:00:32.1Z</time>
      </trkpt>
      <trkpt lat="48.6207" lon="-2.46871">
        <ele>91</ele>
        <time>2015-03-30T14:00:35.1Z</time>
      </trkpt>
      <trkpt lat="48.62073" lon="-2.4687">
        <ele>91</ele>
        <time>2015-03-30T14:00:38.1Z</time>
      </trkpt>
      <trkpt lat="48.62075" lon="-2.46868">
        <ele>91</ele>
        <time>2015-03-30T14:00:41.1Z</time>
      </trkpt>
      <trkpt lat="48.62077" lon="-2.46867">
        <ele>91</ele>
        <time>2015-03-30T14:00:44.1Z</time>
      </trkpt>
      <trkpt lat="48.6208" lon="-2.46867">
        <ele>91</ele>
        <time>2015-03-30T14:00:46.1Z</time>
      </trkpt>
      <trkpt lat="48.62082" lon="-2.46867">
        <ele>91</ele>
        <time>2015-03-30T14:00:48.1Z</time>
      </trkpt>
      <trkpt lat="48.62085" lon="-2.46867">
        <ele>91</ele>
        <time>2015-03-30T14:00:51.1Z</time>
      </trkpt>
      <trkpt lat="48.62087" lon="-2.46865">
        <ele>91</ele>
        <time>2015-03-30T14:00:54.1Z</time>
      </trkpt>
      <trkpt lat="48.6209" lon="-2.46863">
        <ele>91</ele>
        <time>2015-03-30T14:00:56.1Z</time>
      </trkpt>
      <trkpt lat="48.62093" lon="-2.46862">
        <ele>91</ele>
        <time>2015-03-30T14:00:58.1Z</time>
      </trkpt>
      <trkpt lat="48.62095" lon="-2.46861">
        <ele>92</ele>
        <time>2015-03-30T14:01:01.1Z</time>
      </trkpt>
      <trkpt lat="48.62097" lon="-2.46859">
        <ele>92</ele>
        <time>2015-03-30T14:01:04.1Z</time>
      </trkpt>
      <trkpt lat="48.62099" lon="-2.46857">
        <ele>92</ele>
        <time>2015-03-30T14:01:06.1Z</time>
      </trkpt>
      <trkpt lat="48.621" lon="-2.46855">
        <ele>92</ele>
        <time>2015-03-30T14:01:08.1Z</time>
      </trkpt>
      <trkpt lat="48.62101" lon="-2.46852">
        <ele>92</ele>
        <time>2015-03-30T14:01:10.1Z</time>
      </trkpt>
      <trkpt lat="48.62103" lon="-2.4685">
        <ele>92</ele>
        <time>2015-03-30T14:01:13.1Z</time>
      </trkpt>
      <trkpt lat="48.62105" lon="-2.46848">
        <ele>92</ele>
        <time>2015-03-30T14:01:15.1Z</time>
      </trkpt>
      <trkpt lat="48.62107" lon="-2.46846">
        <ele>92</ele>
        <time>2015-03-30T14:01:18.1Z</time>
      </trkpt>
      <trkpt lat="48.62109" lon="-2.46845">
        <ele>92</ele>
        <time>2015-03-30T14:01:20.1Z</time>
      </trkpt>
      <trkpt lat="48.62112" lon="-2.46844">
        <ele>92</ele>
        <time>2015-03-30T14:01:22.1Z</time>
      </trkpt>
      <trkpt lat="48.62115" lon="-2.46843">
        <ele>92</ele>
        <time>2015-03-30T14:01:24.1Z</time>
      </trkpt>
      <trkpt lat="48.62117" lon="-2.46841">
        <ele>92</ele>
        <time>2015-03-30T14:01:27.1Z</time>
      </trkpt>
      <trkpt lat="48.62119" lon="-2.46839">
        <ele>93</ele>
        <time>2015-03-30T14:01:29.1Z</time>
      </trkpt>
      <trkpt lat="48.62121" lon="-2.46837">
        <ele>93</ele>
        <time>2015-03-30T14:01:32.1Z</time>
      </trkpt>
      <trkpt lat="48.62123" lon="-2.46837">
        <ele>93</ele>
        <time>2015-03-30T14:01:34.1Z</time>
      </trkpt>
      <trkpt lat="48.62126" lon="-2.46835">
        <ele>93</ele>
        <time>2015-03-30T14:01:36.1Z</time>
      </trkpt>
      <trkpt lat="48.62128" lon="-2.46834">
        <ele>93</ele>
        <time>2015-03-30T14:01:39.1Z</time>
      </trkpt>
      <trkpt lat="48.6213" lon="-2.46832">
        <ele>93</ele>
        <time>2015-03-30T14:01:41.1Z</time>
      </trkpt>
      <trkpt lat="48.62132" lon="-2.46831">
        <ele>93</ele>
        <time>2015-03-30T14:01:43.1Z</time>
      </trkpt>
      <trkpt lat="48.62135" lon="-2.46829">
        <ele>93</ele>
        <time>2015-03-30T14:01:46.1Z</time>
      </trkpt>
      <trkpt lat="48.62139" lon="-2.46827">
        <ele>93</ele>
        <time>2015-03-30T14:01:48.1Z</time>
      </trkpt>
      <trkpt lat="48.6214" lon="-2.46825">
        <ele>94</ele>
        <time>2015-03-30T14:01:51.1Z</time>
      </trkpt>
      <trkpt lat="48.62143" lon="-2.46823">
        <ele>93</ele>
        <time>2015-03-30T14:01:54.1Z</time>
      </trkpt>
      <trkpt lat="48.62146" lon="-2.46822">
        <ele>93</ele>
        <time>2015-03-30T14:01:56.1Z</time>
      </trkpt>
      <trkpt lat="48.62148" lon="-2.46822">
        <ele>94</ele>
        <time>2015-03-30T14:01:58.1Z</time>
      </trkpt>
      <trkpt lat="48.62152" lon="-2.46821">
        <ele>94</ele>
        <time>2015-03-30T14:02:00.1Z</time>
      </trkpt>
      <trkpt lat="48.62154" lon="-2.4682">
        <ele>94</ele>
        <time>2015-03-30T14:02:03.1Z</time>
      </trkpt>
      <trkpt lat="48.62157" lon="-2.46819">
        <ele>94</ele>
        <time>2015-03-30T14:02:06.1Z</time>
      </trkpt>
      <trkpt lat="48.62159" lon="-2.46817">
        <ele>94</ele>
        <time>2015-03-30T14:02:09.1Z</time>
      </trkpt>
      <trkpt lat="48.62162" lon="-2.46816">
        <ele>94</ele>
        <time>2015-03-30T14:02:11.1Z</time>
      </trkpt>
      <trkpt lat="48.62164" lon="-2.46816">
        <ele>94</ele>
        <time>2015-03-30T14:02:13.1Z</time>
      </trkpt>
      <trkpt lat="48.62166" lon="-2.46815">
        <ele>94</ele>
        <time>2015-03-30T14:02:15.1Z</time>
      </trkpt>
      <trkpt lat="48.62169" lon="-2.46815">
        <ele>95</ele>
        <time>2015-03-30T14:02:18.1Z</time>
      </trkpt>
      <trkpt lat="48.62171" lon="-2.46814">
        <ele>95</ele>
        <time>2015-03-30T14:02:21.1Z</time>
      </trkpt>
      <trkpt lat="48.62173" lon="-2.46813">
        <ele>95</ele>
        <time>2015-03-30T14:02:23.1Z</time>
      </trkpt>
      <trkpt lat="48.62176" lon="-2.46812">
        <ele>95</ele>
        <time>2015-03-30T14:02:25.1Z</time>
      </trkpt>
      <trkpt lat="48.62178" lon="-2.46811">
        <ele>96</ele>
        <time>2015-03-30T14:02:28.1Z</time>
      </trkpt>
      <trkpt lat="48.62182" lon="-2.4681">
        <ele>96</ele>
        <time>2015-03-30T14:02:31.1Z</time>
      </trkpt>
      <trkpt lat="48.62185" lon="-2.46809">
        <ele>96</ele>
        <time>2015-03-30T14:02:34.1Z</time>
      </trkpt>
      <trkpt lat="48.62187" lon="-2.46808">
        <ele>96</ele>
        <time>2015-03-30T14:02:37.1Z</time>
      </trkpt>
      <trkpt lat="48.62189" lon="-2.46808">
        <ele>96</ele>
        <time>2015-03-30T14:02:39.1Z</time>
      </trkpt>
      <trkpt lat="48.62191" lon="-2.46808">
        <ele>96</ele>
        <time>2015-03-30T14:02:41.1Z</time>
      </trkpt>
      <trkpt lat="48.62193" lon="-2.46808">
        <ele>96</ele>
        <time>2015-03-30T14:02:43.1Z</time>
      </trkpt>
      <trkpt lat="48.62195" lon="-2.46807">
        <ele>97</ele>
        <time>2015-03-30T14:02:45.1Z</time>
      </trkpt>
      <trkpt lat="48.62199" lon="-2.46806">
        <ele>97</ele>
        <time>2015-03-30T14:02:47.1Z</time>
      </trkpt>
      <trkpt lat="48.62201" lon="-2.46806">
        <ele>97</ele>
        <time>2015-03-30T14:02:49.1Z</time>
      </trkpt>
      <trkpt lat="48.62204" lon="-2.46805">
        <ele>97</ele>
        <time>2015-03-30T14:02:51.1Z</time>
      </trkpt>
      <trkpt lat="48.62205" lon="-2.46804">
        <ele>97</ele>
        <time>2015-03-30T14:02:54.1Z</time>
      </trkpt>
      <trkpt lat="48.62209" lon="-2.46802">
        <ele>98</ele>
        <time>2015-03-30T14:02:56.1Z</time>
      </trkpt>
      <trkpt lat="48.6221" lon="-2.46801">
        <ele>98</ele>
        <time>2015-03-30T14:02:59.1Z</time>
      </trkpt>
      <trkpt lat="48.62213" lon="-2.46801">
        <ele>98</ele>
        <time>2015-03-30T14:03:01.1Z</time>
      </trkpt>
      <trkpt lat="48.62215" lon="-2.468">
        <ele>98</ele>
        <time>2015-03-30T14:03:03.1Z</time>
      </trkpt>
      <trkpt lat="48.62215" lon="-2.46799">
        <ele>98</ele>
        <time>2015-03-30T14:03:06.1Z</time>
      </trkpt>
      <trkpt lat="48.62216" lon="-2.46798">
        <ele>98</ele>
        <time>2015-03-30T14:03:08.1Z</time>
      </trkpt>
      <trkpt lat="48.62218" lon="-2.46795">
        <ele>98</ele>
        <time>2015-03-30T14:03:11.1Z</time>
      </trkpt>
      <trkpt lat="48.6222" lon="-2.46794">
        <ele>98</ele>
        <time>2015-03-30T14:03:13.1Z</time>
      </trkpt>
      <trkpt lat="48.62222" lon="-2.46792">
        <ele>98</ele>
        <time>2015-03-30T14:03:16.1Z</time>
      </trkpt>
      <trkpt lat="48.62225" lon="-2.46789">
        <ele>98</ele>
        <time>2015-03-30T14:03:18.1Z</time>
      </trkpt>
      <trkpt lat="48.62226" lon="-2.46787">
        <ele>98</ele>
        <time>2015-03-30T14:03:20.1Z</time>
      </trkpt>
      <trkpt lat="48.62228" lon="-2.46785">
        <ele>98</ele>
        <time>2015-03-30T14:03:22.1Z</time>
      </trkpt>
      <trkpt lat="48.6223" lon="-2.46783">
        <ele>98</ele>
        <time>2015-03-30T14:03:25.1Z</time>
      </trkpt>
      <trkpt lat="48.62231" lon="-2.46782">
        <ele>97</ele>
        <time>2015-03-30T14:03:27.1Z</time>
      </trkpt>
      <trkpt lat="48.62234" lon="-2.46778">
        <ele>97</ele>
        <time>2015-03-30T14:03:30.1Z</time>
      </trkpt>
      <trkpt lat="48.62236" lon="-2.46775">
        <ele>97</ele>
        <time>2015-03-30T14:03:33.1Z</time>
      </trkpt>
      <trkpt lat="48.62239" lon="-2.46772">
        <ele>97</ele>
        <time>2015-03-30T14:03:35.1Z</time>
      </trkpt>
      <trkpt lat="48.62241" lon="-2.46767">
        <ele>97</ele>
        <time>2015-03-30T14:03:38.1Z</time>
      </trkpt>
      <trkpt lat="48.62242" lon="-2.46764">
        <ele>96</ele>
        <time>2015-03-30T14:03:41.1Z</time>
      </trkpt>
      <trkpt lat="48.62245" lon="-2.46762">
        <ele>96</ele>
        <time>2015-03-30T14:03:45.1Z</time>
      </trkpt>
      <trkpt lat="48.62247" lon="-2.46758">
        <ele>96</ele>
        <time>2015-03-30T14:03:47.1Z</time>
      </trkpt>
      <trkpt lat="48.62248" lon="-2.46755">
        <ele>96</ele>
        <time>2015-03-30T14:03:50.1Z</time>
      </trkpt>
      <trkpt lat="48.6225" lon="-2.46751">
        <ele>96</ele>
        <time>2015-03-30T14:03:52.1Z</time>
      </trkpt>
      <trkpt lat="48.62252" lon="-2.46746">
        <ele>95</ele>
        <time>2015-03-30T14:03:56.1Z</time>
      </trkpt>
      <trkpt lat="48.62254" lon="-2.46742">
        <ele>95</ele>
        <time>2015-03-30T14:03:58.1Z</time>
      </trkpt>
      <trkpt lat="48.62255" lon="-2.46739">
        <ele>95</ele>
        <time>2015-03-30T14:04:02.1Z</time>
      </trkpt>
      <trkpt lat="48.62256" lon="-2.46736">
        <ele>95</ele>
        <time>2015-03-30T14:04:04.1Z</time>
      </trkpt>
      <trkpt lat="48.62257" lon="-2.46733">
        <ele>95</ele>
        <time>2015-03-30T14:04:07.1Z</time>
      </trkpt>
      <trkpt lat="48.62259" lon="-2.4673">
        <ele>94</ele>
        <time>2015-03-30T14:04:09.1Z</time>
      </trkpt>
      <trkpt lat="48.6226" lon="-2.46726">
        <ele>94</ele>
        <time>2015-03-30T14:04:11.1Z</time>
      </trkpt>
      <trkpt lat="48.6226" lon="-2.46723">
        <ele>94</ele>
        <time>2015-03-30T14:04:14.1Z</time>
      </trkpt>
      <trkpt lat="48.6226" lon="-2.46721">
        <ele>94</ele>
        <time>2015-03-30T14:04:16.1Z</time>
      </trkpt>
      <trkpt lat="48.6226" lon="-2.46717">
        <ele>94</ele>
        <time>2015-03-30T14:04:19.1Z</time>
      </trkpt>
      <trkpt lat="48.6226" lon="-2.46712">
        <ele>93</ele>
        <time>2015-03-30T14:04:22.1Z</time>
      </trkpt>
      <trkpt lat="48.6226" lon="-2.46709">
        <ele>93</ele>
        <time>2015-03-30T14:04:25.1Z</time>
      </trkpt>
      <trkpt lat="48.6226" lon="-2.46705">
        <ele>93</ele>
        <time>2015-03-30T14:04:27.1Z</time>
      </trkpt>
      <trkpt lat="48.6226" lon="-2.467">
        <ele>93</ele>
        <time>2015-03-30T14:04:30.1Z</time>
      </trkpt>
      <trkpt lat="48.62259" lon="-2.46696">
        <ele>92</ele>
        <time>2015-03-30T14:04:33.1Z</time>
      </trkpt>
      <trkpt lat="48.62258" lon="-2.46693">
        <ele>92</ele>
        <time>2015-03-30T14:04:35.1Z</time>
      </trkpt>
      <trkpt lat="48.62256" lon="-2.46687">
        <ele>92</ele>
        <time>2015-03-30T14:04:37.1Z</time>
      </trkpt>
      <trkpt lat="48.62256" lon="-2.46683">
        <ele>92</ele>
        <time>2015-03-30T14:04:40.1Z</time>
      </trkpt>
      <trkpt lat="48.62255" lon="-2.46678">
        <ele>92</ele>
        <time>2015-03-30T14:04:42.1Z</time>
      </trkpt>
      <trkpt lat="48.62254" lon="-2.46673">
        <ele>92</ele>
        <time>2015-03-30T14:04:44.1Z</time>
      </trkpt>
      <trkpt lat="48.62254" lon="-2.4667">
        <ele>92</ele>
        <time>2015-03-30T14:04:46.1Z</time>
      </trkpt>
      <trkpt lat="48.62253" lon="-2.46666">
        <ele>92</ele>
        <time>2015-03-30T14:04:49.1Z</time>
      </trkpt>
      <trkpt lat="48.62252" lon="-2.4666">
        <ele>92</ele>
        <time>2015-03-30T14:04:51.1Z</time>
      </trkpt>
      <trkpt lat="48.62252" lon="-2.46656">
        <ele>92</ele>
        <time>2015-03-30T14:04:54.1Z</time>
      </trkpt>
      <trkpt lat="48.6225" lon="-2.4665">
        <ele>93</ele>
        <time>2015-03-30T14:04:57.1Z</time>
      </trkpt>
      <trkpt lat="48.62249" lon="-2.46646">
        <ele>93</ele>
        <time>2015-03-30T14:04:59.1Z</time>
      </trkpt>
      <trkpt lat="48.62246" lon="-2.46641">
        <ele>93</ele>
        <time>2015-03-30T14:05:01.1Z</time>
      </trkpt>
      <trkpt lat="48.62244" lon="-2.46638">
        <ele>93</ele>
        <time>2015-03-30T14:05:03.1Z</time>
      </trkpt>
      <trkpt lat="48.62243" lon="-2.46633">
        <ele>93</ele>
        <time>2015-03-30T14:05:07.1Z</time>
      </trkpt>
      <trkpt lat="48.62241" lon="-2.46628">
        <ele>93</ele>
        <time>2015-03-30T14:05:09.1Z</time>
      </trkpt>
      <trkpt lat="48.62239" lon="-2.46625">
        <ele>93</ele>
        <time>2015-03-30T14:05:11.1Z</time>
      </trkpt>
      <trkpt lat="48.62238" lon="-2.46622">
        <ele>93</ele>
        <time>2015-03-30T14:05:13.1Z</time>
      </trkpt>
      <trkpt lat="48.62236" lon="-2.4662">
        <ele>94</ele>
        <time>2015-03-30T14:05:15.1Z</time>
      </trkpt>
      <trkpt lat="48.62235" lon="-2.46617">
        <ele>94</ele>
        <time>2015-03-30T14:05:17.1Z</time>
      </trkpt>
      <trkpt lat="48.62233" lon="-2.46614">
        <ele>94</ele>
        <time>2015-03-30T14:05:21.1Z</time>
      </trkpt>
      <trkpt lat="48.62232" lon="-2.4661">
        <ele>94</ele>
        <time>2015-03-30T14:05:23.1Z</time>
      </trkpt>
      <trkpt lat="48.6223" lon="-2.46608">
        <ele>94</ele>
        <time>2015-03-30T14:05:25.1Z</time>
      </trkpt>
      <trkpt lat="48.62229" lon="-2.46606">
        <ele>95</ele>
        <time>2015-03-30T14:05:27.1Z</time>
      </trkpt>
      <trkpt lat="48.62227" lon="-2.466">
        <ele>96</ele>
        <time>2015-03-30T14:05:30.1Z</time>
      </trkpt>
      <trkpt lat="48.62226" lon="-2.46598">
        <ele>96</ele>
        <time>2015-03-30T14:05:32.1Z</time>
      </trkpt>
      <trkpt lat="48.62226" lon="-2.46595">
        <ele>96</ele>
        <time>2015-03-30T14:05:34.1Z</time>
      </trkpt>
      <trkpt lat="48.62227" lon="-2.46593">
        <ele>96</ele>
        <time>2015-03-30T14:05:37.1Z</time>
      </trkpt>
      <trkpt lat="48.62228" lon="-2.46591">
        <ele>96</ele>
        <time>2015-03-30T14:05:39.1Z</time>
      </trkpt>
      <trkpt lat="48.6223" lon="-2.4659">
        <ele>97</ele>
        <time>2015-03-30T14:05:42.1Z</time>
      </trkpt>
      <trkpt lat="48.62231" lon="-2.46591">
        <ele>97</ele>
        <time>2015-03-30T14:05:44.1Z</time>
      </trkpt>
      <trkpt lat="48.62232" lon="-2.46592">
        <ele>97</ele>
        <time>2015-03-30T14:05:46.1Z</time>
      </trkpt>
      <trkpt lat="48.62234" lon="-2.46594">
        <ele>98</ele>
        <time>2015-03-30T14:05:49.1Z</time>
      </trkpt>
      <trkpt lat="48.62235" lon="-2.46596">
        <ele>98</ele>
        <time>2015-03-30T14:05:51.1Z</time>
      </trkpt>
      <trkpt lat="48.62235" lon="-2.46596">
        <ele>98</ele>
        <time>2015-03-30T14:05:54.1Z</time>
      </trkpt>
      <trkpt lat="48.62235" lon="-2.46598">
        <ele>98</ele>
        <time>2015-03-30T14:05:56.1Z</time>
      </trkpt>
      <trkpt lat="48.62236" lon="-2.46599">
        <ele>98</ele>
        <time>2015-03-30T14:05:58.1Z</time>
      </trkpt>
      <trkpt lat="48.62237" lon="-2.466">
        <ele>98</ele>
        <time>2015-03-30T14:06:00.1Z</time>
      </trkpt>
      <trkpt lat="48.62238" lon="-2.46601">
        <ele>98</ele>
        <time>2015-03-30T14:06:02.1Z</time>
      </trkpt>
      <trkpt lat="48.62239" lon="-2.46603">
        <ele>99</ele>
        <time>2015-03-30T14:06:04.1Z</time>
      </trkpt>
      <trkpt lat="48.6224" lon="-2.46605">
        <ele>99</ele>
        <time>2015-03-30T14:06:06.1Z</time>
      </trkpt>
      <trkpt lat="48.62241" lon="-2.46606">
        <ele>100</ele>
        <time>2015-03-30T14:06:09.1Z</time>
      </trkpt>
      <trkpt lat="48.62244" lon="-2.46607">
        <ele>100</ele>
        <time>2015-03-30T14:06:11.1Z</time>
      </trkpt>
      <trkpt lat="48.62245" lon="-2.46609">
        <ele>100</ele>
        <time>2015-03-30T14:06:13.1Z</time>
      </trkpt>
      <trkpt lat="48.62247" lon="-2.46611">
        <ele>100</ele>
        <time>2015-03-30T14:06:16.1Z</time>
      </trkpt>
      <trkpt lat="48.62249" lon="-2.46612">
        <ele>101</ele>
        <time>2015-03-30T14:06:18.1Z</time>
      </trkpt>
      <trkpt lat="48.62251" lon="-2.46614">
        <ele>101</ele>
        <time>2015-03-30T14:06:21.1Z</time>
      </trkpt>
      <trkpt lat="48.62253" lon="-2.46616">
        <ele>101</ele>
        <time>2015-03-30T14:06:24.1Z</time>
      </trkpt>
      <trkpt lat="48.62254" lon="-2.46618">
        <ele>102</ele>
        <time>2015-03-30T14:06:26.1Z</time>
      </trkpt>
      <trkpt lat="48.62257" lon="-2.46619">
        <ele>102</ele>
        <time>2015-03-30T14:06:29.1Z</time>
      </trkpt>
      <trkpt lat="48.62259" lon="-2.4662">
        <ele>102</ele>
        <time>2015-03-30T14:06:32.1Z</time>
      </trkpt>
      <trkpt lat="48.6226" lon="-2.46621">
        <ele>102</ele>
        <time>2015-03-30T14:06:34.1Z</time>
      </trkpt>
      <trkpt lat="48.62263" lon="-2.46622">
        <ele>102</ele>
        <time>2015-03-30T14:06:36.1Z</time>
      </trkpt>
      <trkpt lat="48.62265" lon="-2.46623">
        <ele>102</ele>
        <time>2015-03-30T14:06:39.1Z</time>
      </trkpt>
      <trkpt lat="48.62268" lon="-2.46624">
        <ele>103</ele>
        <time>2015-03-30T14:06:42.1Z</time>
      </trkpt>
      <trkpt lat="48.6227" lon="-2.46625">
        <ele>103</ele>
        <time>2015-03-30T14:06:45.1Z</time>
      </trkpt>
      <trkpt lat="48.62272" lon="-2.46627">
        <ele>103</ele>
        <time>2015-03-30T14:06:47.1Z</time>
      </trkpt>
      <trkpt lat="48.62275" lon="-2.46627">
        <ele>104</ele>
        <time>2015-03-30T14:06:50.1Z</time>
      </trkpt>
      <trkpt lat="48.62277" lon="-2.46627">
        <ele>104</ele>
        <time>2015-03-30T14:06:53.1Z</time>
      </trkpt>
      <trkpt lat="48.6228" lon="-2.46626">
        <ele>104</ele>
        <time>2015-03-30T14:06:56.1Z</time>
      </trkpt>
      <trkpt lat="48.62282" lon="-2.46625">
        <ele>105</ele>
        <time>2015-03-30T14:06:58.1Z</time>
      </trkpt>
      <trkpt lat="48.62284" lon="-2.46625">
        <ele>105</ele>
        <time>2015-03-30T14:07:01.1Z</time>
      </trkpt>
      <trkpt lat="48.62287" lon="-2.46624">
        <ele>105</ele>
        <time>2015-03-30T14:07:03.1Z</time>
      </trkpt>
      <trkpt lat="48.6229" lon="-2.46624">
        <ele>105</ele>
        <time>2015-03-30T14:07:06.1Z</time>
      </trkpt>
      <trkpt lat="48.62292" lon="-2.46623">
        <ele>106</ele>
        <time>2015-03-30T14:07:08.1Z</time>
      </trkpt>
      <trkpt lat="48.62294" lon="-2.46622">
        <ele>106</ele>
        <time>2015-03-30T14:07:11.1Z</time>
      </trkpt>
      <trkpt lat="48.62297" lon="-2.46621">
        <ele>106</ele>
        <time>2015-03-30T14:07:14.1Z</time>
      </trkpt>
      <trkpt lat="48.62298" lon="-2.4662">
        <ele>106</ele>
        <time>2015-03-30T14:07:16.1Z</time>
      </trkpt>
      <trkpt lat="48.623" lon="-2.46619">
        <ele>107</ele>
        <time>2015-03-30T14:07:19.1Z</time>
      </trkpt>
      <trkpt lat="48.62303" lon="-2.46616">
        <ele>107</ele>
        <time>2015-03-30T14:07:21.1Z</time>
      </trkpt>
      <trkpt lat="48.62305" lon="-2.46615">
        <ele>107</ele>
        <time>2015-03-30T14:07:23.1Z</time>
      </trkpt>
      <trkpt lat="48.62309" lon="-2.46613">
        <ele>107</ele>
        <time>2015-03-30T14:07:26.1Z</time>
      </trkpt>
      <trkpt lat="48.62312" lon="-2.4661">
        <ele>108</ele>
        <time>2015-03-30T14:07:29.1Z</time>
      </trkpt>
      <trkpt lat="48.62314" lon="-2.46608">
        <ele>108</ele>
        <time>2015-03-30T14:07:31.1Z</time>
      </trkpt>
      <trkpt lat="48.62316" lon="-2.46606">
        <ele>109</ele>
        <time>2015-03-30T14:07:34.1Z</time>
      </trkpt>
      <trkpt lat="48.62319" lon="-2.46604">
        <ele>109</ele>
        <time>2015-03-30T14:07:37.1Z</time>
      </trkpt>
      <trkpt lat="48.6232" lon="-2.46603">
        <ele>109</ele>
        <time>2015-03-30T14:07:39.1Z</time>
      </trkpt>
      <trkpt lat="48.62321" lon="-2.46603">
        <ele>109</ele>
        <time>2015-03-30T14:07:41.1Z</time>
      </trkpt>
      <trkpt lat="48.62324" lon="-2.466">
        <ele>110</ele>
        <time>2015-03-30T14:07:44.1Z</time>
      </trkpt>
      <trkpt lat="48.62326" lon="-2.46599">
        <ele>110</ele>
        <time>2015-03-30T14:07:46.1Z</time>
      </trkpt>
      <trkpt lat="48.62328" lon="-2.46597">
        <ele>110</ele>
        <time>2015-03-30T14:07:49.1Z</time>
      </trkpt>
      <trkpt lat="48.6233" lon="-2.46596">
        <ele>111</ele>
        <time>2015-03-30T14:07:52.1Z</time>
      </trkpt>
      <trkpt lat="48.62333" lon="-2.46594">
        <ele>111</ele>
        <time>2015-03-30T14:07:55.1Z</time>
      </trkpt>
      <trkpt lat="48.62334" lon="-2.46593">
        <ele>111</ele>
        <time>2015-03-30T14:07:57.1Z</time>
      </trkpt>
      <trkpt lat="48.62336" lon="-2.46592">
        <ele>111</ele>
        <time>2015-03-30T14:07:59.1Z</time>
      </trkpt>
      <trkpt lat="48.62338" lon="-2.46591">
        <ele>111</ele>
        <time>2015-03-30T14:08:02.1Z</time>
      </trkpt>
      <trkpt lat="48.62339" lon="-2.46591">
        <ele>112</ele>
        <time>2015-03-30T14:08:05.1Z</time>
      </trkpt>
      <trkpt lat="48.62342" lon="-2.4659">
        <ele>112</ele>
        <time>2015-03-30T14:08:07.1Z</time>
      </trkpt>
      <trkpt lat="48.62344" lon="-2.46588">
        <ele>112</ele>
        <time>2015-03-30T14:08:10.1Z</time>
      </trkpt>
      <trkpt lat="48.62346" lon="-2.46588">
        <ele>113</ele>
        <time>2015-03-30T14:08:12.1Z</time>
      </trkpt>
      <trkpt lat="48.62348" lon="-2.46587">
        <ele>113</ele>
        <time>2015-03-30T14:08:14.1Z</time>
      </trkpt>
      <trkpt lat="48.6235" lon="-2.46585">
        <ele>113</ele>
        <time>2015-03-30T14:08:17.1Z</time>
      </trkpt>
      <trkpt lat="48.62352" lon="-2.46584">
        <ele>113</ele>
        <time>2015-03-30T14:08:19.1Z</time>
      </trkpt>
      <trkpt lat="48.62355" lon="-2.46583">
        <ele>114</ele>
        <time>2015-03-30T14:08:22.1Z</time>
      </trkpt>
      <trkpt lat="48.62356" lon="-2.46582">
        <ele>114</ele>
        <time>2015-03-30T14:08:24.1Z</time>
      </trkpt>
      <trkpt lat="48.62358" lon="-2.46581">
        <ele>114</ele>
        <time>2015-03-30T14:08:26.1Z</time>
      </trkpt>
      <trkpt lat="48.6236" lon="-2.46581">
        <ele>114</ele>
        <time>2015-03-30T14:08:28.1Z</time>
      </trkpt>
      <trkpt lat="48.62363" lon="-2.46579">
        <ele>115</ele>
        <time>2015-03-30T14:08:31.1Z</time>
      </trkpt>
      <trkpt lat="48.62364" lon="-2.46578">
        <ele>115</ele>
        <time>2015-03-30T14:08:33.1Z</time>
      </trkpt>
      <trkpt lat="48.62367" lon="-2.46578">
        <ele>116</ele>
        <time>2015-03-30T14:08:36.1Z</time>
      </trkpt>
      <trkpt lat="48.62369" lon="-2.46577">
        <ele>116</ele>
        <time>2015-03-30T14:08:38.1Z</time>
      </trkpt>
      <trkpt lat="48.62371" lon="-2.46576">
        <ele>116</ele>
        <time>2015-03-30T14:08:40.1Z</time>
      </trkpt>
      <trkpt lat="48.62372" lon="-2.46576">
        <ele>116</ele>
        <time>2015-03-30T14:08:42.1Z</time>
      </trkpt>
      <trkpt lat="48.62374" lon="-2.46575">
        <ele>117</ele>
        <time>2015-03-30T14:08:44.1Z</time>
      </trkpt>
      <trkpt lat="48.62377" lon="-2.46574">
        <ele>117</ele>
        <time>2015-03-30T14:08:47.1Z</time>
      </trkpt>
      <trkpt lat="48.62378" lon="-2.46574">
        <ele>117</ele>
        <time>2015-03-30T14:08:49.1Z</time>
      </trkpt>
      <trkpt lat="48.62381" lon="-2.46572">
        <ele>118</ele>
        <time>2015-03-30T14:08:52.1Z</time>
      </trkpt>
      <trkpt lat="48.62383" lon="-2.46572">
        <ele>118</ele>
        <time>2015-03-30T14:08:54.1Z</time>
      </trkpt>
      <trkpt lat="48.62385" lon="-2.46571">
        <ele>118</ele>
        <time>2015-03-30T14:08:56.1Z</time>
      </trkpt>
      <trkpt lat="48.62387" lon="-2.46571">
        <ele>118</ele>
        <time>2015-03-30T14:08:58.1Z</time>
      </trkpt>
      <trkpt lat="48.62389" lon="-2.4657">
        <ele>118</ele>
        <time>2015-03-30T14:09:00.1Z</time>
      </trkpt>
      <trkpt lat="48.62391" lon="-2.4657">
        <ele>119</ele>
        <time>2015-03-30T14:09:02.1Z</time>
      </trkpt>
      <trkpt lat="48.62392" lon="-2.46569">
        <ele>119</ele>
        <time>2015-03-30T14:09:04.1Z</time>
      </trkpt>
      <trkpt lat="48.62394" lon="-2.46568">
        <ele>119</ele>
        <time>2015-03-30T14:09:07.1Z</time>
      </trkpt>
      <trkpt lat="48.62397" lon="-2.46568">
        <ele>119</ele>
        <time>2015-03-30T14:09:09.1Z</time>
      </trkpt>
      <trkpt lat="48.62399" lon="-2.46567">
        <ele>119</ele>
        <time>2015-03-30T14:09:11.1Z</time>
      </trkpt>
      <trkpt lat="48.62401" lon="-2.46566">
        <ele>120</ele>
        <time>2015-03-30T14:09:13.1Z</time>
      </trkpt>
      <trkpt lat="48.62404" lon="-2.46566">
        <ele>120</ele>
        <time>2015-03-30T14:09:16.1Z</time>
      </trkpt>
      <trkpt lat="48.62406" lon="-2.46566">
        <ele>120</ele>
        <time>2015-03-30T14:09:18.1Z</time>
      </trkpt>
      <trkpt lat="48.62408" lon="-2.46566">
        <ele>120</ele>
        <time>2015-03-30T14:09:20.1Z</time>
      </trkpt>
      <trkpt lat="48.62409" lon="-2.46565">
        <ele>121</ele>
        <time>2015-03-30T14:09:22.1Z</time>
      </trkpt>
      <trkpt lat="48.62411" lon="-2.46562">
        <ele>121</ele>
        <time>2015-03-30T14:09:25.1Z</time>
      </trkpt>
      <trkpt lat="48.62413" lon="-2.46562">
        <ele>121</ele>
        <time>2015-03-30T14:09:28.1Z</time>
      </trkpt>
      <trkpt lat="48.62415" lon="-2.4656">
        <ele>121</ele>
        <time>2015-03-30T14:09:31.1Z</time>
      </trkpt>
      <trkpt lat="48.62418" lon="-2.46558">
        <ele>121</ele>
        <time>2015-03-30T14:09:34.1Z</time>
      </trkpt>
      <trkpt lat="48.62419" lon="-2.46556">
        <ele>121</ele>
        <time>2015-03-30T14:09:36.1Z</time>
      </trkpt>
      <trkpt lat="48.62422" lon="-2.46554">
        <ele>121</ele>
        <time>2015-03-30T14:09:39.1Z</time>
      </trkpt>
      <trkpt lat="48.62425" lon="-2.46552">
        <ele>121</ele>
        <time>2015-03-30T14:09:42.1Z</time>
      </trkpt>
      <trkpt lat="48.62427" lon="-2.4655">
        <ele>122</ele>
        <time>2015-03-30T14:09:45.1Z</time>
      </trkpt>
      <trkpt lat="48.62429" lon="-2.46548">
        <ele>122</ele>
        <time>2015-03-30T14:09:47.1Z</time>
      </trkpt>
      <trkpt lat="48.62431" lon="-2.46547">
        <ele>122</ele>
        <time>2015-03-30T14:09:50.1Z</time>
      </trkpt>
      <trkpt lat="48.62434" lon="-2.46544">
        <ele>122</ele>
        <time>2015-03-30T14:09:52.1Z</time>
      </trkpt>
      <trkpt lat="48.62436" lon="-2.46542">
        <ele>121</ele>
        <time>2015-03-30T14:09:55.1Z</time>
      </trkpt>
      <trkpt lat="48.62439" lon="-2.46539">
        <ele>122</ele>
        <time>2015-03-30T14:09:58.1Z</time>
      </trkpt>
      <trkpt lat="48.62441" lon="-2.46538">
        <ele>122</ele>
        <time>2015-03-30T14:10:00.1Z</time>
      </trkpt>
      <trkpt lat="48.62443" lon="-2.46535">
        <ele>122</ele>
        <time>2015-03-30T14:10:03.1Z</time>
      </trkpt>
      <trkpt lat="48.62446" lon="-2.46533">
        <ele>122</ele>
        <time>2015-03-30T14:10:06.1Z</time>
      </trkpt>
      <trkpt lat="48.62449" lon="-2.46531">
        <ele>122</ele>
        <time>2015-03-30T14:10:09.1Z</time>
      </trkpt>
      <trkpt lat="48.6245" lon="-2.4653">
        <ele>122</ele>
        <time>2015-03-30T14:10:11.1Z</time>
      </trkpt>
      <trkpt lat="48.6245" lon="-2.46527">
        <ele>122</ele>
        <time>2015-03-30T14:10:14.1Z</time>
      </trkpt>
      <trkpt lat="48.6245" lon="-2.46527">
        <ele>123</ele>
        <time>2015-03-30T14:10:17.1Z</time>
      </trkpt>
      <trkpt lat="48.62452" lon="-2.46526">
        <ele>122</ele>
        <time>2015-03-30T14:10:20.1Z</time>
      </trkpt>
      <trkpt lat="48.62452" lon="-2.46526">
        <ele>122</ele>
        <time>2015-03-30T14:10:22.1Z</time>
      </trkpt>
      <trkpt lat="48.62452" lon="-2.46526">
        <ele>123</ele>
        <time>2015-03-30T14:10:25.1Z</time>
      </trkpt>
      <trkpt lat="48.62452" lon="-2.46526">
        <ele>123</ele>
        <time>2015-03-30T14:10:28.1Z</time>
      </trkpt>
      <trkpt lat="48.62454" lon="-2.46526">
        <ele>123</ele>
        <time>2015-03-30T14:10:30.1Z</time>
      </trkpt>
      <trkpt lat="48.62457" lon="-2.46523">
        <ele>123</ele>
        <time>2015-03-30T14:10:33.1Z</time>
      </trkpt>
      <trkpt lat="48.6246" lon="-2.46522">
        <ele>123</ele>
        <time>2015-03-30T14:10:36.1Z</time>
      </trkpt>
      <trkpt lat="48.62462" lon="-2.4652">
        <ele>123</ele>
        <time>2015-03-30T14:10:38.1Z</time>
      </trkpt>
      <trkpt lat="48.62465" lon="-2.46518">
        <ele>123</ele>
        <time>2015-03-30T14:10:41.1Z</time>
      </trkpt>
      <trkpt lat="48.62468" lon="-2.46517">
        <ele>123</ele>
        <time>2015-03-30T14:10:44.1Z</time>
      </trkpt>
      <trkpt lat="48.6247" lon="-2.46516">
        <ele>123</ele>
        <time>2015-03-30T14:10:46.1Z</time>
      </trkpt>
      <trkpt lat="48.62473" lon="-2.46514">
        <ele>123</ele>
        <time>2015-03-30T14:10:50.1Z</time>
      </trkpt>
      <trkpt lat="48.62476" lon="-2.46512">
        <ele>123</ele>
        <time>2015-03-30T14:10:52.1Z</time>
      </trkpt>
      <trkpt lat="48.62478" lon="-2.46511">
        <ele>124</ele>
        <time>2015-03-30T14:10:54.1Z</time>
      </trkpt>
      <trkpt lat="48.62481" lon="-2.46508">
        <ele>124</ele>
        <time>2015-03-30T14:10:57.1Z</time>
      </trkpt>
      <trkpt lat="48.62483" lon="-2.46506">
        <ele>124</ele>
        <time>2015-03-30T14:10:59.1Z</time>
      </trkpt>
      <trkpt lat="48.62486" lon="-2.46504">
        <ele>124</ele>
        <time>2015-03-30T14:11:02.1Z</time>
      </trkpt>
      <trkpt lat="48.62489" lon="-2.46501">
        <ele>124</ele>
        <time>2015-03-30T14:11:05.1Z</time>
      </trkpt>
      <trkpt lat="48.62491" lon="-2.46499">
        <ele>124</ele>
        <time>2015-03-30T14:11:07.1Z</time>
      </trkpt>
      <trkpt lat="48.62495" lon="-2.46497">
        <ele>124</ele>
        <time>2015-03-30T14:11:10.1Z</time>
      </trkpt>
      <trkpt lat="48.62498" lon="-2.46495">
        <ele>124</ele>
        <time>2015-03-30T14:11:13.1Z</time>
      </trkpt>
      <trkpt lat="48.62501" lon="-2.46493">
        <ele>124</ele>
        <time>2015-03-30T14:11:16.1Z</time>
      </trkpt>
      <trkpt lat="48.62504" lon="-2.46491">
        <ele>124</ele>
        <time>2015-03-30T14:11:19.1Z</time>
      </trkpt>
      <trkpt lat="48.62508" lon="-2.46488">
        <ele>124</ele>
        <time>2015-03-30T14:11:22.1Z</time>
      </trkpt>
      <trkpt lat="48.62509" lon="-2.46486">
        <ele>124</ele>
        <time>2015-03-30T14:11:24.1Z</time>
      </trkpt>
      <trkpt lat="48.62513" lon="-2.46484">
        <ele>125</ele>
        <time>2015-03-30T14:11:27.1Z</time>
      </trkpt>
      <trkpt lat="48.62515" lon="-2.46482">
        <ele>125</ele>
        <time>2015-03-30T14:11:29.1Z</time>
      </trkpt>
      <trkpt lat="48.62517" lon="-2.46481">
        <ele>125</ele>
        <time>2015-03-30T14:11:31.1Z</time>
      </trkpt>
      <trkpt lat="48.62519" lon="-2.46479">
        <ele>126</ele>
        <time>2015-03-30T14:11:34.1Z</time>
      </trkpt>
      <trkpt lat="48.62522" lon="-2.46476">
        <ele>126</ele>
        <time>2015-03-30T14:11:37.1Z</time>
      </trkpt>
      <trkpt lat="48.62524" lon="-2.46474">
        <ele>126</ele>
        <time>2015-03-30T14:11:39.1Z</time>
      </trkpt>
      <trkpt lat="48.62527" lon="-2.46472">
        <ele>125</ele>
        <time>2015-03-30T14:11:42.1Z</time>
      </trkpt>
      <trkpt lat="48.62529" lon="-2.4647">
        <ele>125</ele>
        <time>2015-03-30T14:11:44.1Z</time>
      </trkpt>
      <trkpt lat="48.62532" lon="-2.46467">
        <ele>125</ele>
        <time>2015-03-30T14:11:47.1Z</time>
      </trkpt>
      <trkpt lat="48.62535" lon="-2.46465">
        <ele>126</ele>
        <time>2015-03-30T14:11:50.1Z</time>
      </trkpt>
      <trkpt lat="48.62537" lon="-2.46463">
        <ele>126</ele>
        <time>2015-03-30T14:11:53.1Z</time>
      </trkpt>
      <trkpt lat="48.62539" lon="-2.46461">
        <ele>126</ele>
        <time>2015-03-30T14:11:55.1Z</time>
      </trkpt>
      <trkpt lat="48.62542" lon="-2.46458">
        <ele>126</ele>
        <time>2015-03-30T14:11:58.1Z</time>
      </trkpt>
      <trkpt lat="48.62544" lon="-2.46455">
        <ele>125</ele>
        <time>2015-03-30T14:12:01.1Z</time>
      </trkpt>
      <trkpt lat="48.62547" lon="-2.46453">
        <ele>125</ele>
        <time>2015-03-30T14:12:04.1Z</time>
      </trkpt>
      <trkpt lat="48.62548" lon="-2.46451">
        <ele>125</ele>
        <time>2015-03-30T14:12:06.1Z</time>
      </trkpt>
      <trkpt lat="48.62551" lon="-2.4645">
        <ele>125</ele>
        <time>2015-03-30T14:12:09.1Z</time>
      </trkpt>
      <trkpt lat="48.62553" lon="-2.46448">
        <ele>125</ele>
        <time>2015-03-30T14:12:12.1Z</time>
      </trkpt>
      <trkpt lat="48.62555" lon="-2.46447">
        <ele>125</ele>
        <time>2015-03-30T14:12:14.1Z</time>
      </trkpt>
      <trkpt lat="48.62556" lon="-2.46445">
        <ele>125</ele>
        <time>2015-03-30T14:12:17.1Z</time>
      </trkpt>
      <trkpt lat="48.62556" lon="-2.46444">
        <ele>125</ele>
        <time>2015-03-30T14:12:19.1Z</time>
      </trkpt>
      <trkpt lat="48.62557" lon="-2.46443">
        <ele>125</ele>
        <time>2015-03-30T14:12:21.1Z</time>
      </trkpt>
      <trkpt lat="48.62557" lon="-2.46443">
        <ele>125</ele>
        <time>2015-03-30T14:12:24.1Z</time>
      </trkpt>
      <trkpt lat="48.62558" lon="-2.46443">
        <ele>125</ele>
        <time>2015-03-30T14:12:26.1Z</time>
      </trkpt>
      <trkpt lat="48.62557" lon="-2.46443">
        <ele>125</ele>
        <time>2015-03-30T14:12:29.1Z</time>
      </trkpt>
      <trkpt lat="48.62556" lon="-2.46443">
        <ele>125</ele>
        <time>2015-03-30T14:12:32.1Z</time>
      </trkpt>
      <trkpt lat="48.62556" lon="-2.46443">
        <ele>125</ele>
        <time>2015-03-30T14:12:38.1Z</time>
      </trkpt>
      <trkpt lat="48.62557" lon="-2.46443">
        <ele>125</ele>
        <time>2015-03-30T14:12:41.1Z</time>
      </trkpt>
      <trkpt lat="48.62558" lon="-2.46443">
        <ele>125</ele>
        <time>2015-03-30T14:12:43.1Z</time>
      </trkpt>
      <trkpt lat="48.6256" lon="-2.46444">
        <ele>125</ele>
        <time>2015-03-30T14:12:45.1Z</time>
      </trkpt>
      <trkpt lat="48.62563" lon="-2.46446">
        <ele>125</ele>
        <time>2015-03-30T14:12:48.1Z</time>
      </trkpt>
      <trkpt lat="48.62565" lon="-2.46449">
        <ele>125</ele>
        <time>2015-03-30T14:12:51.1Z</time>
      </trkpt>
      <trkpt lat="48.62567" lon="-2.46451">
        <ele>124</ele>
        <time>2015-03-30T14:12:53.1Z</time>
      </trkpt>
      <trkpt lat="48.62569" lon="-2.46453">
        <ele>124</ele>
        <time>2015-03-30T14:12:55.1Z</time>
      </trkpt>
      <trkpt lat="48.62572" lon="-2.46456">
        <ele>124</ele>
        <time>2015-03-30T14:12:58.1Z</time>
      </trkpt>
      <trkpt lat="48.62574" lon="-2.46457">
        <ele>124</ele>
        <time>2015-03-30T14:13:00.1Z</time>
      </trkpt>
      <trkpt lat="48.62575" lon="-2.46455">
        <ele>124</ele>
        <time>2015-03-30T14:13:02.1Z</time>
      </trkpt>
      <trkpt lat="48.62575" lon="-2.46455">
        <ele>124</ele>
        <time>2015-03-30T14:13:05.1Z</time>
      </trkpt>
      <trkpt lat="48.62575" lon="-2.46455">
        <ele>124</ele>
        <time>2015-03-30T14:13:08.1Z</time>
      </trkpt>
      <trkpt lat="48.62575" lon="-2.46455">
        <ele>124</ele>
        <time>2015-03-30T14:13:13.1Z</time>
      </trkpt>
      <trkpt lat="48.62575" lon="-2.46455">
        <ele>124</ele>
        <time>2015-03-30T14:13:16.1Z</time>
      </trkpt>
      <trkpt lat="48.62575" lon="-2.46455">
        <ele>124</ele>
        <time>2015-03-30T14:13:18.1Z</time>
      </trkpt>
      <trkpt lat="48.62575" lon="-2.46455">
        <ele>124</ele>
        <time>2015-03-30T14:13:22.1Z</time>
      </trkpt>
      <trkpt lat="48.62574" lon="-2.46454">
        <ele>124</ele>
        <time>2015-03-30T14:13:25.1Z</time>
      </trkpt>
      <trkpt lat="48.62575" lon="-2.46454">
        <ele>124</ele>
        <time>2015-03-30T14:13:29.1Z</time>
      </trkpt>
      <trkpt lat="48.62574" lon="-2.46454">
        <ele>124</ele>
        <time>2015-03-30T14:13:34.1Z</time>
      </trkpt>
      <trkpt lat="48.62574" lon="-2.46454">
        <ele>124</ele>
        <time>2015-03-30T14:13:38.1Z</time>
      </trkpt>
      <trkpt lat="48.62574" lon="-2.46454">
        <ele>124</ele>
        <time>2015-03-30T14:13:40.1Z</time>
      </trkpt>
      <trkpt lat="48.62574" lon="-2.46454">
        <ele>124</ele>
        <time>2015-03-30T14:13:45.1Z</time>
      </trkpt>
      <trkpt lat="48.62576" lon="-2.46457">
        <ele>124</ele>
        <time>2015-03-30T14:13:47.1Z</time>
      </trkpt>
      <trkpt lat="48.62579" lon="-2.4646">
        <ele>124</ele>
        <time>2015-03-30T14:13:50.1Z</time>
      </trkpt>
      <trkpt lat="48.62582" lon="-2.46462">
        <ele>123</ele>
        <time>2015-03-30T14:13:53.1Z</time>
      </trkpt>
      <trkpt lat="48.62586" lon="-2.46465">
        <ele>123</ele>
        <time>2015-03-30T14:13:56.1Z</time>
      </trkpt>
      <trkpt lat="48.62587" lon="-2.46466">
        <ele>122</ele>
        <time>2015-03-30T14:13:58.1Z</time>
      </trkpt>
      <trkpt lat="48.62589" lon="-2.46468">
        <ele>122</ele>
        <time>2015-03-30T14:14:00.1Z</time>
      </trkpt>
      <trkpt lat="48.62593" lon="-2.4647">
        <ele>122</ele>
        <time>2015-03-30T14:14:03.1Z</time>
      </trkpt>
      <trkpt lat="48.62595" lon="-2.46471">
        <ele>121</ele>
        <time>2015-03-30T14:14:05.1Z</time>
      </trkpt>
      <trkpt lat="48.62598" lon="-2.46473">
        <ele>121</ele>
        <time>2015-03-30T14:14:08.1Z</time>
      </trkpt>
      <trkpt lat="48.62601" lon="-2.46474">
        <ele>121</ele>
        <time>2015-03-30T14:14:10.1Z</time>
      </trkpt>
      <trkpt lat="48.62603" lon="-2.46475">
        <ele>120</ele>
        <time>2015-03-30T14:14:12.1Z</time>
      </trkpt>
      <trkpt lat="48.62607" lon="-2.46477">
        <ele>119</ele>
        <time>2015-03-30T14:14:15.1Z</time>
      </trkpt>
      <trkpt lat="48.62609" lon="-2.46478">
        <ele>119</ele>
        <time>2015-03-30T14:14:17.1Z</time>
      </trkpt>
      <trkpt lat="48.62612" lon="-2.46479">
        <ele>119</ele>
        <time>2015-03-30T14:14:20.1Z</time>
      </trkpt>
      <trkpt lat="48.62614" lon="-2.4648">
        <ele>119</ele>
        <time>2015-03-30T14:14:22.1Z</time>
      </trkpt>
      <trkpt lat="48.62617" lon="-2.4648">
        <ele>118</ele>
        <time>2015-03-30T14:14:25.1Z</time>
      </trkpt>
      <trkpt lat="48.62619" lon="-2.46481">
        <ele>118</ele>
        <time>2015-03-30T14:14:27.1Z</time>
      </trkpt>
      <trkpt lat="48.62622" lon="-2.46481">
        <ele>117</ele>
        <time>2015-03-30T14:14:29.1Z</time>
      </trkpt>
      <trkpt lat="48.62624" lon="-2.46482">
        <ele>116</ele>
        <time>2015-03-30T14:14:31.1Z</time>
      </trkpt>
      <trkpt lat="48.62628" lon="-2.46483">
        <ele>116</ele>
        <time>2015-03-30T14:14:34.1Z</time>
      </trkpt>
      <trkpt lat="48.6263" lon="-2.46484">
        <ele>115</ele>
        <time>2015-03-30T14:14:36.1Z</time>
      </trkpt>
      <trkpt lat="48.62632" lon="-2.46484">
        <ele>115</ele>
        <time>2015-03-30T14:14:38.1Z</time>
      </trkpt>
      <trkpt lat="48.62635" lon="-2.46484">
        <ele>115</ele>
        <time>2015-03-30T14:14:40.1Z</time>
      </trkpt>
      <trkpt lat="48.62637" lon="-2.46484">
        <ele>115</ele>
        <time>2015-03-30T14:14:42.1Z</time>
      </trkpt>
      <trkpt lat="48.62639" lon="-2.46484">
        <ele>114</ele>
        <time>2015-03-30T14:14:44.1Z</time>
      </trkpt>
      <trkpt lat="48.62641" lon="-2.46484">
        <ele>114</ele>
        <time>2015-03-30T14:14:46.1Z</time>
      </trkpt>
      <trkpt lat="48.62643" lon="-2.46484">
        <ele>114</ele>
        <time>2015-03-30T14:14:48.1Z</time>
      </trkpt>
      <trkpt lat="48.62646" lon="-2.46485">
        <ele>113</ele>
        <time>2015-03-30T14:14:51.1Z</time>
      </trkpt>
      <trkpt lat="48.62648" lon="-2.46485">
        <ele>113</ele>
        <time>2015-03-30T14:14:53.1Z</time>
      </trkpt>
      <trkpt lat="48.62651" lon="-2.46485">
        <ele>113</ele>
        <time>2015-03-30T14:14:56.1Z</time>
      </trkpt>
      <trkpt lat="48.62653" lon="-2.46485">
        <ele>112</ele>
        <time>2015-03-30T14:14:58.1Z</time>
      </trkpt>
      <trkpt lat="48.62655" lon="-2.46485">
        <ele>112</ele>
        <time>2015-03-30T14:15:00.1Z</time>
      </trkpt>
      <trkpt lat="48.62657" lon="-2.46484">
        <ele>112</ele>
        <time>2015-03-30T14:15:02.1Z</time>
      </trkpt>
      <trkpt lat="48.6266" lon="-2.46484">
        <ele>112</ele>
        <time>2015-03-30T14:15:05.1Z</time>
      </trkpt>
      <trkpt lat="48.62662" lon="-2.46484">
        <ele>111</ele>
        <time>2015-03-30T14:15:07.1Z</time>
      </trkpt>
      <trkpt lat="48.62664" lon="-2.46485">
        <ele>111</ele>
        <time>2015-03-30T14:15:09.1Z</time>
      </trkpt>
      <trkpt lat="48.62666" lon="-2.46484">
        <ele>110</ele>
        <time>2015-03-30T14:15:11.1Z</time>
      </trkpt>
      <trkpt lat="48.62668" lon="-2.46484">
        <ele>110</ele>
        <time>2015-03-30T14:15:13.1Z</time>
      </trkpt>
      <trkpt lat="48.6267" lon="-2.46484">
        <ele>110</ele>
        <time>2015-03-30T14:15:15.1Z</time>
      </trkpt>
      <trkpt lat="48.62673" lon="-2.46484">
        <ele>109</ele>
        <time>2015-03-30T14:15:17.1Z</time>
      </trkpt>
      <trkpt lat="48.62676" lon="-2.46484">
        <ele>109</ele>
        <time>2015-03-30T14:15:20.1Z</time>
      </trkpt>
      <trkpt lat="48.62679" lon="-2.46484">
        <ele>109</ele>
        <time>2015-03-30T14:15:22.1Z</time>
      </trkpt>
      <trkpt lat="48.62682" lon="-2.46484">
        <ele>108</ele>
        <time>2015-03-30T14:15:25.1Z</time>
      </trkpt>
      <trkpt lat="48.62685" lon="-2.46484">
        <ele>108</ele>
        <time>2015-03-30T14:15:27.1Z</time>
      </trkpt>
      <trkpt lat="48.62689" lon="-2.46486">
        <ele>107</ele>
        <time>2015-03-30T14:15:30.1Z</time>
      </trkpt>
      <trkpt lat="48.62693" lon="-2.46486">
        <ele>107</ele>
        <time>2015-03-30T14:15:33.1Z</time>
      </trkpt>
      <trkpt lat="48.62696" lon="-2.46486">
        <ele>106</ele>
        <time>2015-03-30T14:15:36.1Z</time>
      </trkpt>
      <trkpt lat="48.627" lon="-2.46487">
        <ele>106</ele>
        <time>2015-03-30T14:15:39.1Z</time>
      </trkpt>
      <trkpt lat="48.62702" lon="-2.46486">
        <ele>106</ele>
        <time>2015-03-30T14:15:41.1Z</time>
      </trkpt>
      <trkpt lat="48.62706" lon="-2.46486">
        <ele>105</ele>
        <time>2015-03-30T14:15:44.1Z</time>
      </trkpt>
      <trkpt lat="48.62708" lon="-2.46486">
        <ele>105</ele>
        <time>2015-03-30T14:15:46.1Z</time>
      </trkpt>
      <trkpt lat="48.6271" lon="-2.46486">
        <ele>105</ele>
        <time>2015-03-30T14:15:48.1Z</time>
      </trkpt>
      <trkpt lat="48.62712" lon="-2.46485">
        <ele>104</ele>
        <time>2015-03-30T14:15:51.1Z</time>
      </trkpt>
      <trkpt lat="48.62714" lon="-2.46485">
        <ele>104</ele>
        <time>2015-03-30T14:15:53.1Z</time>
      </trkpt>
      <trkpt lat="48.62716" lon="-2.46485">
        <ele>104</ele>
        <time>2015-03-30T14:15:55.1Z</time>
      </trkpt>
      <trkpt lat="48.62719" lon="-2.46484">
        <ele>103</ele>
        <time>2015-03-30T14:15:58.1Z</time>
      </trkpt>
      <trkpt lat="48.6272" lon="-2.46483">
        <ele>103</ele>
        <time>2015-03-30T14:16:00.1Z</time>
      </trkpt>
      <trkpt lat="48.62722" lon="-2.46483">
        <ele>103</ele>
        <time>2015-03-30T14:16:02.1Z</time>
      </trkpt>
      <trkpt lat="48.62725" lon="-2.46483">
        <ele>102</ele>
        <time>2015-03-30T14:16:05.1Z</time>
      </trkpt>
      <trkpt lat="48.62727" lon="-2.46483">
        <ele>102</ele>
        <time>2015-03-30T14:16:07.1Z</time>
      </trkpt>
      <trkpt lat="48.62731" lon="-2.46485">
        <ele>102</ele>
        <time>2015-03-30T14:16:10.1Z</time>
      </trkpt>
      <trkpt lat="48.62733" lon="-2.46486">
        <ele>101</ele>
        <time>2015-03-30T14:16:12.1Z</time>
      </trkpt>
      <trkpt lat="48.62736" lon="-2.46486">
        <ele>101</ele>
        <time>2015-03-30T14:16:14.1Z</time>
      </trkpt>
      <trkpt lat="48.62739" lon="-2.46487">
        <ele>101</ele>
        <time>2015-03-30T14:16:17.1Z</time>
      </trkpt>
      <trkpt lat="48.62741" lon="-2.46487">
        <ele>101</ele>
        <time>2015-03-30T14:16:19.1Z</time>
      </trkpt>
      <trkpt lat="48.62744" lon="-2.46488">
        <ele>100</ele>
        <time>2015-03-30T14:16:22.1Z</time>
      </trkpt>
      <trkpt lat="48.62747" lon="-2.46487">
        <ele>100</ele>
        <time>2015-03-30T14:16:25.1Z</time>
      </trkpt>
      <trkpt lat="48.62749" lon="-2.46488">
        <ele>100</ele>
        <time>2015-03-30T14:16:27.1Z</time>
      </trkpt>
      <trkpt lat="48.62752" lon="-2.46489">
        <ele>99</ele>
        <time>2015-03-30T14:16:30.1Z</time>
      </trkpt>
      <trkpt lat="48.62755" lon="-2.4649">
        <ele>99</ele>
        <time>2015-03-30T14:16:33.1Z</time>
      </trkpt>
      <trkpt lat="48.62757" lon="-2.4649">
        <ele>99</ele>
        <time>2015-03-30T14:16:35.1Z</time>
      </trkpt>
      <trkpt lat="48.62759" lon="-2.4649">
        <ele>98</ele>
        <time>2015-03-30T14:16:37.1Z</time>
      </trkpt>
      <trkpt lat="48.62762" lon="-2.46492">
        <ele>98</ele>
        <time>2015-03-30T14:16:40.1Z</time>
      </trkpt>
      <trkpt lat="48.62764" lon="-2.46493">
        <ele>97</ele>
        <time>2015-03-30T14:16:42.1Z</time>
      </trkpt>
      <trkpt lat="48.62767" lon="-2.46494">
        <ele>97</ele>
        <time>2015-03-30T14:16:45.1Z</time>
      </trkpt>
      <trkpt lat="48.6277" lon="-2.46494">
        <ele>97</ele>
        <time>2015-03-30T14:16:47.1Z</time>
      </trkpt>
      <trkpt lat="48.62774" lon="-2.46495">
        <ele>97</ele>
        <time>2015-03-30T14:16:50.1Z</time>
      </trkpt>
      <trkpt lat="48.62777" lon="-2.46497">
        <ele>96</ele>
        <time>2015-03-30T14:16:52.1Z</time>
      </trkpt>
      <trkpt lat="48.62779" lon="-2.46498">
        <ele>96</ele>
        <time>2015-03-30T14:16:54.1Z</time>
      </trkpt>
      <trkpt lat="48.62782" lon="-2.46499">
        <ele>96</ele>
        <time>2015-03-30T14:16:56.1Z</time>
      </trkpt>
      <trkpt lat="48.62785" lon="-2.46499">
        <ele>96</ele>
        <time>2015-03-30T14:16:59.1Z</time>
      </trkpt>
      <trkpt lat="48.62788" lon="-2.465">
        <ele>95</ele>
        <time>2015-03-30T14:17:02.1Z</time>
      </trkpt>
      <trkpt lat="48.62791" lon="-2.465">
        <ele>95</ele>
        <time>2015-03-30T14:17:04.1Z</time>
      </trkpt>
      <trkpt lat="48.62792" lon="-2.46499">
        <ele>95</ele>
        <time>2015-03-30T14:17:06.1Z</time>
      </trkpt>
      <trkpt lat="48.62793" lon="-2.46498">
        <ele>95</ele>
        <time>2015-03-30T14:17:08.1Z</time>
      </trkpt>
      <trkpt lat="48.62793" lon="-2.46497">
        <ele>95</ele>
        <time>2015-03-30T14:17:10.1Z</time>
      </trkpt>
      <trkpt lat="48.62794" lon="-2.46497">
        <ele>94</ele>
        <time>2015-03-30T14:17:12.1Z</time>
      </trkpt>
      <trkpt lat="48.62795" lon="-2.46496">
        <ele>94</ele>
        <time>2015-03-30T14:17:14.1Z</time>
      </trkpt>
      <trkpt lat="48.62796" lon="-2.46495">
        <ele>94</ele>
        <time>2015-03-30T14:17:17.1Z</time>
      </trkpt>
      <trkpt lat="48.62798" lon="-2.46495">
        <ele>94</ele>
        <time>2015-03-30T14:17:19.1Z</time>
      </trkpt>
      <trkpt lat="48.62802" lon="-2.46495">
        <ele>94</ele>
        <time>2015-03-30T14:17:22.1Z</time>
      </trkpt>
      <trkpt lat="48.62807" lon="-2.46496">
        <ele>94</ele>
        <time>2015-03-30T14:17:25.1Z</time>
      </trkpt>
      <trkpt lat="48.62811" lon="-2.46497">
        <ele>93</ele>
        <time>2015-03-30T14:17:27.1Z</time>
      </trkpt>
      <trkpt lat="48.62814" lon="-2.46498">
        <ele>93</ele>
        <time>2015-03-30T14:17:30.1Z</time>
      </trkpt>
      <trkpt lat="48.62817" lon="-2.46498">
        <ele>93</ele>
        <time>2015-03-30T14:17:32.1Z</time>
      </trkpt>
      <trkpt lat="48.6282" lon="-2.46499">
        <ele>92</ele>
        <time>2015-03-30T14:17:35.1Z</time>
      </trkpt>
      <trkpt lat="48.62823" lon="-2.46501">
        <ele>92</ele>
        <time>2015-03-30T14:17:37.1Z</time>
      </trkpt>
      <trkpt lat="48.62825" lon="-2.46503">
        <ele>91</ele>
        <time>2015-03-30T14:17:39.1Z</time>
      </trkpt>
      <trkpt lat="48.62827" lon="-2.46505">
        <ele>91</ele>
        <time>2015-03-30T14:17:41.1Z</time>
      </trkpt>
      <trkpt lat="48.62829" lon="-2.46507">
        <ele>91</ele>
        <time>2015-03-30T14:17:43.1Z</time>
      </trkpt>
      <trkpt lat="48.62831" lon="-2.46511">
        <ele>90</ele>
        <time>2015-03-30T14:17:46.1Z</time>
      </trkpt>
      <trkpt lat="48.62833" lon="-2.46515">
        <ele>90</ele>
        <time>2015-03-30T14:17:49.1Z</time>
      </trkpt>
      <trkpt lat="48.62835" lon="-2.46519">
        <ele>89</ele>
        <time>2015-03-30T14:17:52.1Z</time>
      </trkpt>
      <trkpt lat="48.62837" lon="-2.46521">
        <ele>89</ele>
        <time>2015-03-30T14:17:54.1Z</time>
      </trkpt>
      <trkpt lat="48.62839" lon="-2.46525">
        <ele>89</ele>
        <time>2015-03-30T14:17:57.1Z</time>
      </trkpt>
      <trkpt lat="48.62841" lon="-2.46527">
        <ele>89</ele>
        <time>2015-03-30T14:17:59.1Z</time>
      </trkpt>
      <trkpt lat="48.62843" lon="-2.46528">
        <ele>88</ele>
        <time>2015-03-30T14:18:01.1Z</time>
      </trkpt>
      <trkpt lat="48.62846" lon="-2.46532">
        <ele>88</ele>
        <time>2015-03-30T14:18:04.1Z</time>
      </trkpt>
      <trkpt lat="48.62849" lon="-2.46533">
        <ele>87</ele>
        <time>2015-03-30T14:18:07.1Z</time>
      </trkpt>
      <trkpt lat="48.62851" lon="-2.46536">
        <ele>87</ele>
        <time>2015-03-30T14:18:09.1Z</time>
      </trkpt>
      <trkpt lat="48.62854" lon="-2.4654">
        <ele>87</ele>
        <time>2015-03-30T14:18:12.1Z</time>
      </trkpt>
      <trkpt lat="48.62857" lon="-2.46542">
        <ele>86</ele>
        <time>2015-03-30T14:18:15.1Z</time>
      </trkpt>
      <trkpt lat="48.62858" lon="-2.46544">
        <ele>86</ele>
        <time>2015-03-30T14:18:17.1Z</time>
      </trkpt>
      <trkpt lat="48.6286" lon="-2.46545">
        <ele>86</ele>
        <time>2015-03-30T14:18:19.1Z</time>
      </trkpt>
      <trkpt lat="48.62863" lon="-2.46547">
        <ele>85</ele>
        <time>2015-03-30T14:18:22.1Z</time>
      </trkpt>
      <trkpt lat="48.62867" lon="-2.46547">
        <ele>85</ele>
        <time>2015-03-30T14:18:25.1Z</time>
      </trkpt>
      <trkpt lat="48.62869" lon="-2.46548">
        <ele>85</ele>
        <time>2015-03-30T14:18:27.1Z</time>
      </trkpt>
      <trkpt lat="48.62871" lon="-2.46549">
        <ele>85</ele>
        <time>2015-03-30T14:18:29.1Z</time>
      </trkpt>
      <trkpt lat="48.62875" lon="-2.46549">
        <ele>84</ele>
        <time>2015-03-30T14:18:32.1Z</time>
      </trkpt>
      <trkpt lat="48.62877" lon="-2.4655">
        <ele>84</ele>
        <time>2015-03-30T14:18:34.1Z</time>
      </trkpt>
      <trkpt lat="48.62879" lon="-2.46551">
        <ele>84</ele>
        <time>2015-03-30T14:18:36.1Z</time>
      </trkpt>
      <trkpt lat="48.62882" lon="-2.46554">
        <ele>84</ele>
        <time>2015-03-30T14:18:39.1Z</time>
      </trkpt>
      <trkpt lat="48.62884" lon="-2.46557">
        <ele>84</ele>
        <time>2015-03-30T14:18:41.1Z</time>
      </trkpt>
      <trkpt lat="48.62886" lon="-2.46559">
        <ele>84</ele>
        <time>2015-03-30T14:18:43.1Z</time>
      </trkpt>
      <trkpt lat="48.62888" lon="-2.4656">
        <ele>84</ele>
        <time>2015-03-30T14:18:45.1Z</time>
      </trkpt>
      <trkpt lat="48.6289" lon="-2.46561">
        <ele>83</ele>
        <time>2015-03-30T14:18:47.1Z</time>
      </trkpt>
      <trkpt lat="48.62891" lon="-2.46562">
        <ele>83</ele>
        <time>2015-03-30T14:18:49.1Z</time>
      </trkpt>
      <trkpt lat="48.62893" lon="-2.46563">
        <ele>83</ele>
        <time>2015-03-30T14:18:51.1Z</time>
      </trkpt>
      <trkpt lat="48.62894" lon="-2.46563">
        <ele>83</ele>
        <time>2015-03-30T14:18:54.1Z</time>
      </trkpt>
      <trkpt lat="48.62895" lon="-2.46562">
        <ele>83</ele>
        <time>2015-03-30T14:18:57.1Z</time>
      </trkpt>
      <trkpt lat="48.62899" lon="-2.4656">
        <ele>83</ele>
        <time>2015-03-30T14:19:00.1Z</time>
      </trkpt>
      <trkpt lat="48.62901" lon="-2.4656">
        <ele>83</ele>
        <time>2015-03-30T14:19:02.1Z</time>
      </trkpt>
      <trkpt lat="48.62903" lon="-2.46559">
        <ele>83</ele>
        <time>2015-03-30T14:19:04.1Z</time>
      </trkpt>
      <trkpt lat="48.62905" lon="-2.46559">
        <ele>83</ele>
        <time>2015-03-30T14:19:06.1Z</time>
      </trkpt>
      <trkpt lat="48.62906" lon="-2.4656">
        <ele>83</ele>
        <time>2015-03-30T14:19:08.1Z</time>
      </trkpt>
      <trkpt lat="48.62907" lon="-2.46563">
        <ele>83</ele>
        <time>2015-03-30T14:19:10.1Z</time>
      </trkpt>
      <trkpt lat="48.62908" lon="-2.46566">
        <ele>83</ele>
        <time>2015-03-30T14:19:13.1Z</time>
      </trkpt>
      <trkpt lat="48.6291" lon="-2.46568">
        <ele>83</ele>
        <time>2015-03-30T14:19:15.1Z</time>
      </trkpt>
      <trkpt lat="48.62912" lon="-2.46569">
        <ele>83</ele>
        <time>2015-03-30T14:19:17.1Z</time>
      </trkpt>
      <trkpt lat="48.62915" lon="-2.4657">
        <ele>83</ele>
        <time>2015-03-30T14:19:20.1Z</time>
      </trkpt>
      <trkpt lat="48.62917" lon="-2.4657">
        <ele>83</ele>
        <time>2015-03-30T14:19:22.1Z</time>
      </trkpt>
      <trkpt lat="48.62918" lon="-2.4657">
        <ele>83</ele>
        <time>2015-03-30T14:19:24.1Z</time>
      </trkpt>
      <trkpt lat="48.6292" lon="-2.46569">
        <ele>83</ele>
        <time>2015-03-30T14:19:26.1Z</time>
      </trkpt>
      <trkpt lat="48.62923" lon="-2.4657">
        <ele>83</ele>
        <time>2015-03-30T14:19:29.1Z</time>
      </trkpt>
      <trkpt lat="48.62925" lon="-2.4657">
        <ele>83</ele>
        <time>2015-03-30T14:19:31.1Z</time>
      </trkpt>
      <trkpt lat="48.62927" lon="-2.4657">
        <ele>83</ele>
        <time>2015-03-30T14:19:34.1Z</time>
      </trkpt>
      <trkpt lat="48.62928" lon="-2.46569">
        <ele>82</ele>
        <time>2015-03-30T14:19:36.1Z</time>
      </trkpt>
      <trkpt lat="48.62929" lon="-2.46569">
        <ele>83</ele>
        <time>2015-03-30T14:19:38.1Z</time>
      </trkpt>
      <trkpt lat="48.62931" lon="-2.46568">
        <ele>83</ele>
        <time>2015-03-30T14:19:40.1Z</time>
      </trkpt>
      <trkpt lat="48.62933" lon="-2.46566">
        <ele>83</ele>
        <time>2015-03-30T14:19:43.1Z</time>
      </trkpt>
      <trkpt lat="48.62935" lon="-2.46566">
        <ele>83</ele>
        <time>2015-03-30T14:19:45.1Z</time>
      </trkpt>
      <trkpt lat="48.62937" lon="-2.46565">
        <ele>83</ele>
        <time>2015-03-30T14:19:47.1Z</time>
      </trkpt>
      <trkpt lat="48.62939" lon="-2.46564">
        <ele>83</ele>
        <time>2015-03-30T14:19:50.1Z</time>
      </trkpt>
      <trkpt lat="48.62939" lon="-2.46564">
        <ele>83</ele>
        <time>2015-03-30T14:19:52.1Z</time>
      </trkpt>
      <trkpt lat="48.62941" lon="-2.46564">
        <ele>83</ele>
        <time>2015-03-30T14:19:54.1Z</time>
      </trkpt>
      <trkpt lat="48.62942" lon="-2.46563">
        <ele>83</ele>
        <time>2015-03-30T14:19:56.1Z</time>
      </trkpt>
      <trkpt lat="48.62946" lon="-2.46564">
        <ele>83</ele>
        <time>2015-03-30T14:19:59.1Z</time>
      </trkpt>
      <trkpt lat="48.62948" lon="-2.46563">
        <ele>82</ele>
        <time>2015-03-30T14:20:01.1Z</time>
      </trkpt>
      <trkpt lat="48.62951" lon="-2.46562">
        <ele>82</ele>
        <time>2015-03-30T14:20:04.1Z</time>
      </trkpt>
      <trkpt lat="48.62952" lon="-2.4656">
        <ele>82</ele>
        <time>2015-03-30T14:20:06.1Z</time>
      </trkpt>
      <trkpt lat="48.62956" lon="-2.46558">
        <ele>82</ele>
        <time>2015-03-30T14:20:09.1Z</time>
      </trkpt>
      <trkpt lat="48.62958" lon="-2.46558">
        <ele>82</ele>
        <time>2015-03-30T14:20:11.1Z</time>
      </trkpt>
      <trkpt lat="48.62962" lon="-2.46556">
        <ele>82</ele>
        <time>2015-03-30T14:20:14.1Z</time>
      </trkpt>
      <trkpt lat="48.62964" lon="-2.46554">
        <ele>82</ele>
        <time>2015-03-30T14:20:16.1Z</time>
      </trkpt>
      <trkpt lat="48.62966" lon="-2.46552">
        <ele>83</ele>
        <time>2015-03-30T14:20:18.1Z</time>
      </trkpt>
      <trkpt lat="48.6297" lon="-2.46551">
        <ele>83</ele>
        <time>2015-03-30T14:20:21.1Z</time>
      </trkpt>
      <trkpt lat="48.62974" lon="-2.46549">
        <ele>83</ele>
        <time>2015-03-30T14:20:24.1Z</time>
      </trkpt>
      <trkpt lat="48.62978" lon="-2.46547">
        <ele>83</ele>
        <time>2015-03-30T14:20:27.1Z</time>
      </trkpt>
      <trkpt lat="48.62983" lon="-2.46545">
        <ele>83</ele>
        <time>2015-03-30T14:20:30.1Z</time>
      </trkpt>
      <trkpt lat="48.62985" lon="-2.46544">
        <ele>83</ele>
        <time>2015-03-30T14:20:32.1Z</time>
      </trkpt>
      <trkpt lat="48.62988" lon="-2.46543">
        <ele>83</ele>
        <time>2015-03-30T14:20:34.1Z</time>
      </trkpt>
      <trkpt lat="48.62989" lon="-2.46544">
        <ele>82</ele>
        <time>2015-03-30T14:20:37.1Z</time>
      </trkpt>
      <trkpt lat="48.6299" lon="-2.46546">
        <ele>83</ele>
        <time>2015-03-30T14:20:40.1Z</time>
      </trkpt>
      <trkpt lat="48.62991" lon="-2.46549">
        <ele>82</ele>
        <time>2015-03-30T14:20:42.1Z</time>
      </trkpt>
      <trkpt lat="48.62992" lon="-2.46554">
        <ele>83</ele>
        <time>2015-03-30T14:20:45.1Z</time>
      </trkpt>
      <trkpt lat="48.62992" lon="-2.46558">
        <ele>83</ele>
        <time>2015-03-30T14:20:48.1Z</time>
      </trkpt>
      <trkpt lat="48.62994" lon="-2.46563">
        <ele>83</ele>
        <time>2015-03-30T14:20:51.1Z</time>
      </trkpt>
      <trkpt lat="48.62994" lon="-2.46566">
        <ele>83</ele>
        <time>2015-03-30T14:20:53.1Z</time>
      </trkpt>
      <trkpt lat="48.62995" lon="-2.46571">
        <ele>83</ele>
        <time>2015-03-30T14:20:56.1Z</time>
      </trkpt>
      <trkpt lat="48.62996" lon="-2.46576">
        <ele>83</ele>
        <time>2015-03-30T14:20:59.1Z</time>
      </trkpt>
      <trkpt lat="48.62997" lon="-2.4658">
        <ele>83</ele>
        <time>2015-03-30T14:21:01.1Z</time>
      </trkpt>
      <trkpt lat="48.62997" lon="-2.46584">
        <ele>82</ele>
        <time>2015-03-30T14:21:03.1Z</time>
      </trkpt>
      <trkpt lat="48.62997" lon="-2.46589">
        <ele>82</ele>
        <time>2015-03-30T14:21:06.1Z</time>
      </trkpt>
      <trkpt lat="48.62998" lon="-2.46595">
        <ele>82</ele>
        <time>2015-03-30T14:21:09.1Z</time>
      </trkpt>
      <trkpt lat="48.62998" lon="-2.46599">
        <ele>82</ele>
        <time>2015-03-30T14:21:11.1Z</time>
      </trkpt>
      <trkpt lat="48.62999" lon="-2.46605">
        <ele>82</ele>
        <time>2015-03-30T14:21:14.1Z</time>
      </trkpt>
      <trkpt lat="48.62999" lon="-2.46608">
        <ele>82</ele>
        <time>2015-03-30T14:21:16.1Z</time>
      </trkpt>
      <trkpt lat="48.62999" lon="-2.46614">
        <ele>82</ele>
        <time>2015-03-30T14:21:19.1Z</time>
      </trkpt>
      <trkpt lat="48.63" lon="-2.46619">
        <ele>82</ele>
        <time>2015-03-30T14:21:22.1Z</time>
      </trkpt>
      <trkpt lat="48.63" lon="-2.46623">
        <ele>82</ele>
        <time>2015-03-30T14:21:24.1Z</time>
      </trkpt>
      <trkpt lat="48.63001" lon="-2.46627">
        <ele>82</ele>
        <time>2015-03-30T14:21:27.1Z</time>
      </trkpt>
      <trkpt lat="48.63001" lon="-2.46629">
        <ele>83</ele>
        <time>2015-03-30T14:21:29.1Z</time>
      </trkpt>
      <trkpt lat="48.63002" lon="-2.46632">
        <ele>83</ele>
        <time>2015-03-30T14:21:31.1Z</time>
      </trkpt>
      <trkpt lat="48.63004" lon="-2.46636">
        <ele>83</ele>
        <time>2015-03-30T14:21:34.1Z</time>
      </trkpt>
      <trkpt lat="48.63004" lon="-2.4664">
        <ele>83</ele>
        <time>2015-03-30T14:21:37.1Z</time>
      </trkpt>
      <trkpt lat="48.63004" lon="-2.46643">
        <ele>83</ele>
        <time>2015-03-30T14:21:39.1Z</time>
      </trkpt>
      <trkpt lat="48.63004" lon="-2.46649">
        <ele>83</ele>
        <time>2015-03-30T14:21:42.1Z</time>
      </trkpt>
      <trkpt lat="48.63005" lon="-2.46654">
        <ele>83</ele>
        <time>2015-03-30T14:21:45.1Z</time>
      </trkpt>
      <trkpt lat="48.63005" lon="-2.46659">
        <ele>83</ele>
        <time>2015-03-30T14:21:48.1Z</time>
      </trkpt>
      <trkpt lat="48.63005" lon="-2.46665">
        <ele>83</ele>
        <time>2015-03-30T14:21:51.1Z</time>
      </trkpt>
      <trkpt lat="48.63005" lon="-2.46668">
        <ele>83</ele>
        <time>2015-03-30T14:21:53.1Z</time>
      </trkpt>
      <trkpt lat="48.63006" lon="-2.46673">
        <ele>83</ele>
        <time>2015-03-30T14:21:56.1Z</time>
      </trkpt>
      <trkpt lat="48.63006" lon="-2.46676">
        <ele>84</ele>
        <time>2015-03-30T14:21:58.1Z</time>
      </trkpt>
      <trkpt lat="48.63007" lon="-2.46682">
        <ele>84</ele>
        <time>2015-03-30T14:22:01.1Z</time>
      </trkpt>
      <trkpt lat="48.63007" lon="-2.46686">
        <ele>84</ele>
        <time>2015-03-30T14:22:03.1Z</time>
      </trkpt>
      <trkpt lat="48.63007" lon="-2.4669">
        <ele>84</ele>
        <time>2015-03-30T14:22:05.1Z</time>
      </trkpt>
      <trkpt lat="48.63008" lon="-2.46695">
        <ele>84</ele>
        <time>2015-03-30T14:22:08.1Z</time>
      </trkpt>
      <trkpt lat="48.63008" lon="-2.467">
        <ele>84</ele>
        <time>2015-03-30T14:22:11.1Z</time>
      </trkpt>
      <trkpt lat="48.63009" lon="-2.46704">
        <ele>84</ele>
        <time>2015-03-30T14:22:14.1Z</time>
      </trkpt>
      <trkpt lat="48.63009" lon="-2.46706">
        <ele>85</ele>
        <time>2015-03-30T14:22:16.1Z</time>
      </trkpt>
      <trkpt lat="48.63009" lon="-2.46711">
        <ele>85</ele>
        <time>2015-03-30T14:22:19.1Z</time>
      </trkpt>
      <trkpt lat="48.6301" lon="-2.46715">
        <ele>85</ele>
        <time>2015-03-30T14:22:21.1Z</time>
      </trkpt>
      <trkpt lat="48.6301" lon="-2.4672">
        <ele>85</ele>
        <time>2015-03-30T14:22:24.1Z</time>
      </trkpt>
      <trkpt lat="48.6301" lon="-2.46725">
        <ele>85</ele>
        <time>2015-03-30T14:22:27.1Z</time>
      </trkpt>
      <trkpt lat="48.6301" lon="-2.46729">
        <ele>85</ele>
        <time>2015-03-30T14:22:30.1Z</time>
      </trkpt>
      <trkpt lat="48.6301" lon="-2.46732">
        <ele>86</ele>
        <time>2015-03-30T14:22:32.1Z</time>
      </trkpt>
      <trkpt lat="48.6301" lon="-2.46735">
        <ele>86</ele>
        <time>2015-03-30T14:22:34.1Z</time>
      </trkpt>
      <trkpt lat="48.6301" lon="-2.46739">
        <ele>86</ele>
        <time>2015-03-30T14:22:37.1Z</time>
      </trkpt>
      <trkpt lat="48.63011" lon="-2.46743">
        <ele>86</ele>
        <time>2015-03-30T14:22:39.1Z</time>
      </trkpt>
      <trkpt lat="48.63012" lon="-2.46749">
        <ele>86</ele>
        <time>2015-03-30T14:22:42.1Z</time>
      </trkpt>
      <trkpt lat="48.63012" lon="-2.46752">
        <ele>86</ele>
        <time>2015-03-30T14:22:44.1Z</time>
      </trkpt>
      <trkpt lat="48.63012" lon="-2.46756">
        <ele>86</ele>
        <time>2015-03-30T14:22:46.1Z</time>
      </trkpt>
      <trkpt lat="48.63014" lon="-2.4676">
        <ele>86</ele>
        <time>2015-03-30T14:22:49.1Z</time>
      </trkpt>
      <trkpt lat="48.63015" lon="-2.46763">
        <ele>85</ele>
        <time>2015-03-30T14:22:51.1Z</time>
      </trkpt>
      <trkpt lat="48.63017" lon="-2.46768">
        <ele>85</ele>
        <time>2015-03-30T14:22:54.1Z</time>
      </trkpt>
      <trkpt lat="48.63018" lon="-2.46771">
        <ele>85</ele>
        <time>2015-03-30T14:22:56.1Z</time>
      </trkpt>
      <trkpt lat="48.6302" lon="-2.46774">
        <ele>85</ele>
        <time>2015-03-30T14:22:58.1Z</time>
      </trkpt>
      <trkpt lat="48.63021" lon="-2.46776">
        <ele>85</ele>
        <time>2015-03-30T14:23:00.1Z</time>
      </trkpt>
      <trkpt lat="48.63023" lon="-2.4678">
        <ele>85</ele>
        <time>2015-03-30T14:23:03.1Z</time>
      </trkpt>
      <trkpt lat="48.63024" lon="-2.46782">
        <ele>85</ele>
        <time>2015-03-30T14:23:05.1Z</time>
      </trkpt>
      <trkpt lat="48.63026" lon="-2.46785">
        <ele>85</ele>
        <time>2015-03-30T14:23:08.1Z</time>
      </trkpt>
      <trkpt lat="48.63029" lon="-2.46787">
        <ele>85</ele>
        <time>2015-03-30T14:23:11.1Z</time>
      </trkpt>
      <trkpt lat="48.63032" lon="-2.46788">
        <ele>85</ele>
        <time>2015-03-30T14:23:14.1Z</time>
      </trkpt>
      <trkpt lat="48.63034" lon="-2.46789">
        <ele>85</ele>
        <time>2015-03-30T14:23:16.1Z</time>
      </trkpt>
      <trkpt lat="48.63036" lon="-2.46787">
        <ele>85</ele>
        <time>2015-03-30T14:23:19.1Z</time>
      </trkpt>
      <trkpt lat="48.63037" lon="-2.46787">
        <ele>85</ele>
        <time>2015-03-30T14:23:21.1Z</time>
      </trkpt>
      <trkpt lat="48.63038" lon="-2.46786">
        <ele>85</ele>
        <time>2015-03-30T14:23:23.1Z</time>
      </trkpt>
      <trkpt lat="48.63041" lon="-2.46783">
        <ele>86</ele>
        <time>2015-03-30T14:23:26.1Z</time>
      </trkpt>
      <trkpt lat="48.63042" lon="-2.46781">
        <ele>85</ele>
        <time>2015-03-30T14:23:28.1Z</time>
      </trkpt>
      <trkpt lat="48.63045" lon="-2.46779">
        <ele>85</ele>
        <time>2015-03-30T14:23:31.1Z</time>
      </trkpt>
      <trkpt lat="48.63048" lon="-2.46777">
        <ele>86</ele>
        <time>2015-03-30T14:23:34.1Z</time>
      </trkpt>
      <trkpt lat="48.6305" lon="-2.46775">
        <ele>86</ele>
        <time>2015-03-30T14:23:36.1Z</time>
      </trkpt>
      <trkpt lat="48.63053" lon="-2.46773">
        <ele>86</ele>
        <time>2015-03-30T14:23:39.1Z</time>
      </trkpt>
      <trkpt lat="48.63056" lon="-2.4677">
        <ele>85</ele>
        <time>2015-03-30T14:23:42.1Z</time>
      </trkpt>
      <trkpt lat="48.63058" lon="-2.46768">
        <ele>85</ele>
        <time>2015-03-30T14:23:44.1Z</time>
      </trkpt>
      <trkpt lat="48.63061" lon="-2.46765">
        <ele>85</ele>
        <time>2015-03-30T14:23:47.1Z</time>
      </trkpt>
      <trkpt lat="48.63064" lon="-2.46763">
        <ele>85</ele>
        <time>2015-03-30T14:23:50.1Z</time>
      </trkpt>
      <trkpt lat="48.63066" lon="-2.46761">
        <ele>85</ele>
        <time>2015-03-30T14:23:52.1Z</time>
      </trkpt>
      <trkpt lat="48.63068" lon="-2.46759">
        <ele>85</ele>
        <time>2015-03-30T14:23:54.1Z</time>
      </trkpt>
      <trkpt lat="48.6307" lon="-2.46757">
        <ele>85</ele>
        <time>2015-03-30T14:23:56.1Z</time>
      </trkpt>
      <trkpt lat="48.63073" lon="-2.46755">
        <ele>85</ele>
        <time>2015-03-30T14:23:59.1Z</time>
      </trkpt>
      <trkpt lat="48.63076" lon="-2.46752">
        <ele>85</ele>
        <time>2015-03-30T14:24:02.1Z</time>
      </trkpt>
      <trkpt lat="48.63078" lon="-2.46751">
        <ele>85</ele>
        <time>2015-03-30T14:24:04.1Z</time>
      </trkpt>
      <trkpt lat="48.63081" lon="-2.46749">
        <ele>85</ele>
        <time>2015-03-30T14:24:07.1Z</time>
      </trkpt>
      <trkpt lat="48.63084" lon="-2.46746">
        <ele>85</ele>
        <time>2015-03-30T14:24:10.1Z</time>
      </trkpt>
      <trkpt lat="48.63087" lon="-2.46745">
        <ele>85</ele>
        <time>2015-03-30T14:24:13.1Z</time>
      </trkpt>
      <trkpt lat="48.63091" lon="-2.46743">
        <ele>86</ele>
        <time>2015-03-30T14:24:16.1Z</time>
      </trkpt>
      <trkpt lat="48.63094" lon="-2.46742">
        <ele>85</ele>
        <time>2015-03-30T14:24:19.1Z</time>
      </trkpt>
      <trkpt lat="48.63097" lon="-2.46741">
        <ele>86</ele>
        <time>2015-03-30T14:24:21.1Z</time>
      </trkpt>
      <trkpt lat="48.63099" lon="-2.46739">
        <ele>86</ele>
        <time>2015-03-30T14:24:23.1Z</time>
      </trkpt>
      <trkpt lat="48.63102" lon="-2.46737">
        <ele>86</ele>
        <time>2015-03-30T14:24:26.1Z</time>
      </trkpt>
      <trkpt lat="48.63105" lon="-2.46735">
        <ele>86</ele>
        <time>2015-03-30T14:24:29.1Z</time>
      </trkpt>
      <trkpt lat="48.63107" lon="-2.46733">
        <ele>86</ele>
        <time>2015-03-30T14:24:32.1Z</time>
      </trkpt>
      <trkpt lat="48.63109" lon="-2.46732">
        <ele>85</ele>
        <time>2015-03-30T14:24:34.1Z</time>
      </trkpt>
      <trkpt lat="48.63113" lon="-2.4673">
        <ele>85</ele>
        <time>2015-03-30T14:24:37.1Z</time>
      </trkpt>
      <trkpt lat="48.63115" lon="-2.46728">
        <ele>86</ele>
        <time>2015-03-30T14:24:40.1Z</time>
      </trkpt>
      <trkpt lat="48.63118" lon="-2.46726">
        <ele>86</ele>
        <time>2015-03-30T14:24:43.1Z</time>
      </trkpt>
      <trkpt lat="48.63121" lon="-2.46724">
        <ele>86</ele>
        <time>2015-03-30T14:24:46.1Z</time>
      </trkpt>
      <trkpt lat="48.63123" lon="-2.46723">
        <ele>86</ele>
        <time>2015-03-30T14:24:48.1Z</time>
      </trkpt>
      <trkpt lat="48.63125" lon="-2.46722">
        <ele>86</ele>
        <time>2015-03-30T14:24:50.1Z</time>
      </trkpt>
      <trkpt lat="48.63129" lon="-2.46721">
        <ele>86</ele>
        <time>2015-03-30T14:24:53.1Z</time>
      </trkpt>
      <trkpt lat="48.63131" lon="-2.4672">
        <ele>86</ele>
        <time>2015-03-30T14:24:55.1Z</time>
      </trkpt>
      <trkpt lat="48.63134" lon="-2.46718">
        <ele>86</ele>
        <time>2015-03-30T14:24:58.1Z</time>
      </trkpt>
      <trkpt lat="48.63137" lon="-2.46716">
        <ele>86</ele>
        <time>2015-03-30T14:25:01.1Z</time>
      </trkpt>
      <trkpt lat="48.6314" lon="-2.46715">
        <ele>86</ele>
        <time>2015-03-30T14:25:04.1Z</time>
      </trkpt>
      <trkpt lat="48.63144" lon="-2.46714">
        <ele>86</ele>
        <time>2015-03-30T14:25:07.1Z</time>
      </trkpt>
      <trkpt lat="48.63147" lon="-2.46712">
        <ele>86</ele>
        <time>2015-03-30T14:25:10.1Z</time>
      </trkpt>
      <trkpt lat="48.63149" lon="-2.46712">
        <ele>86</ele>
        <time>2015-03-30T14:25:12.1Z</time>
      </trkpt>
      <trkpt lat="48.63153" lon="-2.4671">
        <ele>86</ele>
        <time>2015-03-30T14:25:15.1Z</time>
      </trkpt>
      <trkpt lat="48.63155" lon="-2.46709">
        <ele>86</ele>
        <time>2015-03-30T14:25:17.1Z</time>
      </trkpt>
      <trkpt lat="48.63157" lon="-2.46708">
        <ele>86</ele>
        <time>2015-03-30T14:25:19.1Z</time>
      </trkpt>
      <trkpt lat="48.6316" lon="-2.46707">
        <ele>86</ele>
        <time>2015-03-30T14:25:22.1Z</time>
      </trkpt>
      <trkpt lat="48.63163" lon="-2.46704">
        <ele>86</ele>
        <time>2015-03-30T14:25:25.1Z</time>
      </trkpt>
      <trkpt lat="48.63165" lon="-2.467">
        <ele>86</ele>
        <time>2015-03-30T14:25:28.1Z</time>
      </trkpt>
      <trkpt lat="48.63168" lon="-2.46698">
        <ele>86</ele>
        <time>2015-03-30T14:25:31.1Z</time>
      </trkpt>
      <trkpt lat="48.6317" lon="-2.46698">
        <ele>86</ele>
        <time>2015-03-30T14:25:33.1Z</time>
      </trkpt>
      <trkpt lat="48.63172" lon="-2.46698">
        <ele>86</ele>
        <time>2015-03-30T14:25:35.1Z</time>
      </trkpt>
      <trkpt lat="48.63174" lon="-2.46698">
        <ele>86</ele>
        <time>2015-03-30T14:25:37.1Z</time>
      </trkpt>
      <trkpt lat="48.63176" lon="-2.46698">
        <ele>86</ele>
        <time>2015-03-30T14:25:39.1Z</time>
      </trkpt>
      <trkpt lat="48.63179" lon="-2.46697">
        <ele>87</ele>
        <time>2015-03-30T14:25:42.1Z</time>
      </trkpt>
      <trkpt lat="48.63182" lon="-2.46696">
        <ele>87</ele>
        <time>2015-03-30T14:25:45.1Z</time>
      </trkpt>
      <trkpt lat="48.63186" lon="-2.46696">
        <ele>87</ele>
        <time>2015-03-30T14:25:48.1Z</time>
      </trkpt>
      <trkpt lat="48.63189" lon="-2.46695">
        <ele>87</ele>
        <time>2015-03-30T14:25:51.1Z</time>
      </trkpt>
      <trkpt lat="48.63192" lon="-2.46694">
        <ele>87</ele>
        <time>2015-03-30T14:25:54.1Z</time>
      </trkpt>
      <trkpt lat="48.63194" lon="-2.46694">
        <ele>86</ele>
        <time>2015-03-30T14:25:56.1Z</time>
      </trkpt>
      <trkpt lat="48.63197" lon="-2.46693">
        <ele>86</ele>
        <time>2015-03-30T14:25:59.1Z</time>
      </trkpt>
      <trkpt lat="48.632" lon="-2.46693">
        <ele>86</ele>
        <time>2015-03-30T14:26:01.1Z</time>
      </trkpt>
      <trkpt lat="48.63203" lon="-2.46691">
        <ele>87</ele>
        <time>2015-03-30T14:26:04.1Z</time>
      </trkpt>
      <trkpt lat="48.63205" lon="-2.4669">
        <ele>87</ele>
        <time>2015-03-30T14:26:07.1Z</time>
      </trkpt>
      <trkpt lat="48.63208" lon="-2.46689">
        <ele>87</ele>
        <time>2015-03-30T14:26:10.1Z</time>
      </trkpt>
      <trkpt lat="48.63212" lon="-2.46688">
        <ele>87</ele>
        <time>2015-03-30T14:26:13.1Z</time>
      </trkpt>
      <trkpt lat="48.63214" lon="-2.46687">
        <ele>87</ele>
        <time>2015-03-30T14:26:15.1Z</time>
      </trkpt>
      <trkpt lat="48.63217" lon="-2.46686">
        <ele>87</ele>
        <time>2015-03-30T14:26:18.1Z</time>
      </trkpt>
      <trkpt lat="48.63219" lon="-2.46685">
        <ele>87</ele>
        <time>2015-03-30T14:26:20.1Z</time>
      </trkpt>
      <trkpt lat="48.63222" lon="-2.46684">
        <ele>87</ele>
        <time>2015-03-30T14:26:22.1Z</time>
      </trkpt>
      <trkpt lat="48.63224" lon="-2.46683">
        <ele>87</ele>
        <time>2015-03-30T14:26:24.1Z</time>
      </trkpt>
      <trkpt lat="48.63227" lon="-2.46681">
        <ele>87</ele>
        <time>2015-03-30T14:26:27.1Z</time>
      </trkpt>
      <trkpt lat="48.63229" lon="-2.46681">
        <ele>87</ele>
        <time>2015-03-30T14:26:29.1Z</time>
      </trkpt>
      <trkpt lat="48.63231" lon="-2.4668">
        <ele>88</ele>
        <time>2015-03-30T14:26:31.1Z</time>
      </trkpt>
      <trkpt lat="48.63234" lon="-2.4668">
        <ele>87</ele>
        <time>2015-03-30T14:26:34.1Z</time>
      </trkpt>
      <trkpt lat="48.63237" lon="-2.46679">
        <ele>87</ele>
        <time>2015-03-30T14:26:36.1Z</time>
      </trkpt>
      <trkpt lat="48.63239" lon="-2.46679">
        <ele>87</ele>
        <time>2015-03-30T14:26:38.1Z</time>
      </trkpt>
      <trkpt lat="48.63241" lon="-2.46678">
        <ele>87</ele>
        <time>2015-03-30T14:26:40.1Z</time>
      </trkpt>
      <trkpt lat="48.63244" lon="-2.46677">
        <ele>87</ele>
        <time>2015-03-30T14:26:43.1Z</time>
      </trkpt>
      <trkpt lat="48.63247" lon="-2.46676">
        <ele>87</ele>
        <time>2015-03-30T14:26:46.1Z</time>
      </trkpt>
      <trkpt lat="48.6325" lon="-2.46675">
        <ele>87</ele>
        <time>2015-03-30T14:26:49.1Z</time>
      </trkpt>
      <trkpt lat="48.63253" lon="-2.46675">
        <ele>87</ele>
        <time>2015-03-30T14:26:51.1Z</time>
      </trkpt>
      <trkpt lat="48.63255" lon="-2.46675">
        <ele>86</ele>
        <time>2015-03-30T14:26:53.1Z</time>
      </trkpt>
      <trkpt lat="48.63258" lon="-2.46674">
        <ele>87</ele>
        <time>2015-03-30T14:26:56.1Z</time>
      </trkpt>
      <trkpt lat="48.6326" lon="-2.46674">
        <ele>87</ele>
        <time>2015-03-30T14:26:58.1Z</time>
      </trkpt>
      <trkpt lat="48.63262" lon="-2.46673">
        <ele>87</ele>
        <time>2015-03-30T14:27:00.1Z</time>
      </trkpt>
      <trkpt lat="48.63266" lon="-2.46673">
        <ele>87</ele>
        <time>2015-03-30T14:27:03.1Z</time>
      </trkpt>
      <trkpt lat="48.63269" lon="-2.46672">
        <ele>87</ele>
        <time>2015-03-30T14:27:06.1Z</time>
      </trkpt>
      <trkpt lat="48.63272" lon="-2.46672">
        <ele>87</ele>
        <time>2015-03-30T14:27:09.1Z</time>
      </trkpt>
      <trkpt lat="48.63274" lon="-2.46672">
        <ele>87</ele>
        <time>2015-03-30T14:27:11.1Z</time>
      </trkpt>
      <trkpt lat="48.63277" lon="-2.46671">
        <ele>87</ele>
        <time>2015-03-30T14:27:14.1Z</time>
      </trkpt>
      <trkpt lat="48.63279" lon="-2.46671">
        <ele>87</ele>
        <time>2015-03-30T14:27:16.1Z</time>
      </trkpt>
      <trkpt lat="48.63282" lon="-2.4667">
        <ele>87</ele>
        <time>2015-03-30T14:27:19.1Z</time>
      </trkpt>
      <trkpt lat="48.63285" lon="-2.4667">
        <ele>87</ele>
        <time>2015-03-30T14:27:21.1Z</time>
      </trkpt>
      <trkpt lat="48.63287" lon="-2.4667">
        <ele>87</ele>
        <time>2015-03-30T14:27:23.1Z</time>
      </trkpt>
      <trkpt lat="48.6329" lon="-2.4667">
        <ele>87</ele>
        <time>2015-03-30T14:27:25.1Z</time>
      </trkpt>
      <trkpt lat="48.63292" lon="-2.46669">
        <ele>87</ele>
        <time>2015-03-30T14:27:27.1Z</time>
      </trkpt>
      <trkpt lat="48.63295" lon="-2.46669">
        <ele>87</ele>
        <time>2015-03-30T14:27:29.1Z</time>
      </trkpt>
      <trkpt lat="48.63298" lon="-2.46669">
        <ele>87</ele>
        <time>2015-03-30T14:27:32.1Z</time>
      </trkpt>
      <trkpt lat="48.63301" lon="-2.46669">
        <ele>87</ele>
        <time>2015-03-30T14:27:34.1Z</time>
      </trkpt>
      <trkpt lat="48.63303" lon="-2.46669">
        <ele>87</ele>
        <time>2015-03-30T14:27:36.1Z</time>
      </trkpt>
      <trkpt lat="48.63306" lon="-2.46669">
        <ele>87</ele>
        <time>2015-03-30T14:27:38.1Z</time>
      </trkpt>
      <trkpt lat="48.63308" lon="-2.46669">
        <ele>87</ele>
        <time>2015-03-30T14:27:40.1Z</time>
      </trkpt>
      <trkpt lat="48.63312" lon="-2.46669">
        <ele>87</ele>
        <time>2015-03-30T14:27:43.1Z</time>
      </trkpt>
      <trkpt lat="48.63316" lon="-2.46669">
        <ele>87</ele>
        <time>2015-03-30T14:27:46.1Z</time>
      </trkpt>
      <trkpt lat="48.63318" lon="-2.46669">
        <ele>87</ele>
        <time>2015-03-30T14:27:48.1Z</time>
      </trkpt>
      <trkpt lat="48.6332" lon="-2.46669">
        <ele>87</ele>
        <time>2015-03-30T14:27:50.1Z</time>
      </trkpt>
      <trkpt lat="48.63322" lon="-2.46668">
        <ele>87</ele>
        <time>2015-03-30T14:27:52.1Z</time>
      </trkpt>
      <trkpt lat="48.63325" lon="-2.46668">
        <ele>87</ele>
        <time>2015-03-30T14:27:54.1Z</time>
      </trkpt>
      <trkpt lat="48.63327" lon="-2.46668">
        <ele>87</ele>
        <time>2015-03-30T14:27:56.1Z</time>
      </trkpt>
      <trkpt lat="48.6333" lon="-2.46668">
        <ele>87</ele>
        <time>2015-03-30T14:27:59.1Z</time>
      </trkpt>
      <trkpt lat="48.63333" lon="-2.46668">
        <ele>87</ele>
        <time>2015-03-30T14:28:02.1Z</time>
      </trkpt>
      <trkpt lat="48.63335" lon="-2.46668">
        <ele>87</ele>
        <time>2015-03-30T14:28:04.1Z</time>
      </trkpt>
      <trkpt lat="48.63337" lon="-2.46668">
        <ele>87</ele>
        <time>2015-03-30T14:28:06.1Z</time>
      </trkpt>
      <trkpt lat="48.6334" lon="-2.46668">
        <ele>87</ele>
        <time>2015-03-30T14:28:08.1Z</time>
      </trkpt>
      <trkpt lat="48.63342" lon="-2.46668">
        <ele>86</ele>
        <time>2015-03-30T14:28:10.1Z</time>
      </trkpt>
      <trkpt lat="48.63345" lon="-2.46668">
        <ele>87</ele>
        <time>2015-03-30T14:28:13.1Z</time>
      </trkpt>
      <trkpt lat="48.63349" lon="-2.46668">
        <ele>87</ele>
        <time>2015-03-30T14:28:16.1Z</time>
      </trkpt>
      <trkpt lat="48.63353" lon="-2.46669">
        <ele>87</ele>
        <time>2015-03-30T14:28:19.1Z</time>
      </trkpt>
      <trkpt lat="48.63356" lon="-2.46669">
        <ele>87</ele>
        <time>2015-03-30T14:28:22.1Z</time>
      </trkpt>
      <trkpt lat="48.63358" lon="-2.46669">
        <ele>87</ele>
        <time>2015-03-30T14:28:24.1Z</time>
      </trkpt>
      <trkpt lat="48.63361" lon="-2.46669">
        <ele>87</ele>
        <time>2015-03-30T14:28:26.1Z</time>
      </trkpt>
      <trkpt lat="48.63364" lon="-2.4667">
        <ele>87</ele>
        <time>2015-03-30T14:28:29.1Z</time>
      </trkpt>
      <trkpt lat="48.63367" lon="-2.4667">
        <ele>86</ele>
        <time>2015-03-30T14:28:32.1Z</time>
      </trkpt>
      <trkpt lat="48.63371" lon="-2.46671">
        <ele>87</ele>
        <time>2015-03-30T14:28:35.1Z</time>
      </trkpt>
      <trkpt lat="48.63373" lon="-2.46671">
        <ele>86</ele>
        <time>2015-03-30T14:28:37.1Z</time>
      </trkpt>
      <trkpt lat="48.63375" lon="-2.46671">
        <ele>86</ele>
        <time>2015-03-30T14:28:39.1Z</time>
      </trkpt>
      <trkpt lat="48.63379" lon="-2.46672">
        <ele>87</ele>
        <time>2015-03-30T14:28:42.1Z</time>
      </trkpt>
      <trkpt lat="48.63381" lon="-2.46673">
        <ele>86</ele>
        <time>2015-03-30T14:28:44.1Z</time>
      </trkpt>
      <trkpt lat="48.63384" lon="-2.46673">
        <ele>87</ele>
        <time>2015-03-30T14:28:47.1Z</time>
      </trkpt>
      <trkpt lat="48.63388" lon="-2.46674">
        <ele>87</ele>
        <time>2015-03-30T14:28:50.1Z</time>
      </trkpt>
      <trkpt lat="48.6339" lon="-2.46674">
        <ele>87</ele>
        <time>2015-03-30T14:28:52.1Z</time>
      </trkpt>
      <trkpt lat="48.63393" lon="-2.46674">
        <ele>87</ele>
        <time>2015-03-30T14:28:55.1Z</time>
      </trkpt>
      <trkpt lat="48.63395" lon="-2.46675">
        <ele>87</ele>
        <time>2015-03-30T14:28:57.1Z</time>
      </trkpt>
      <trkpt lat="48.63398" lon="-2.46676">
        <ele>87</ele>
        <time>2015-03-30T14:28:59.1Z</time>
      </trkpt>
      <trkpt lat="48.634" lon="-2.46677">
        <ele>87</ele>
        <time>2015-03-30T14:29:01.1Z</time>
      </trkpt>
      <trkpt lat="48.63401" lon="-2.46679">
        <ele>87</ele>
        <time>2015-03-30T14:29:03.1Z</time>
      </trkpt>
      <trkpt lat="48.63404" lon="-2.4668">
        <ele>86</ele>
        <time>2015-03-30T14:29:05.1Z</time>
      </trkpt>
      <trkpt lat="48.63406" lon="-2.46681">
        <ele>86</ele>
        <time>2015-03-30T14:29:07.1Z</time>
      </trkpt>
      <trkpt lat="48.63409" lon="-2.46682">
        <ele>86</ele>
        <time>2015-03-30T14:29:10.1Z</time>
      </trkpt>
      <trkpt lat="48.63412" lon="-2.46683">
        <ele>86</ele>
        <time>2015-03-30T14:29:13.1Z</time>
      </trkpt>
      <trkpt lat="48.63415" lon="-2.46684">
        <ele>86</ele>
        <time>2015-03-30T14:29:15.1Z</time>
      </trkpt>
      <trkpt lat="48.63417" lon="-2.46685">
        <ele>86</ele>
        <time>2015-03-30T14:29:17.1Z</time>
      </trkpt>
      <trkpt lat="48.6342" lon="-2.46686">
        <ele>86</ele>
        <time>2015-03-30T14:29:20.1Z</time>
      </trkpt>
      <trkpt lat="48.63422" lon="-2.46686">
        <ele>87</ele>
        <time>2015-03-30T14:29:22.1Z</time>
      </trkpt>
      <trkpt lat="48.63425" lon="-2.46687">
        <ele>86</ele>
        <time>2015-03-30T14:29:25.1Z</time>
      </trkpt>
      <trkpt lat="48.63428" lon="-2.46688">
        <ele>86</ele>
        <time>2015-03-30T14:29:27.1Z</time>
      </trkpt>
      <trkpt lat="48.63431" lon="-2.46689">
        <ele>86</ele>
        <time>2015-03-30T14:29:30.1Z</time>
      </trkpt>
      <trkpt lat="48.63433" lon="-2.4669">
        <ele>86</ele>
        <time>2015-03-30T14:29:32.1Z</time>
      </trkpt>
      <trkpt lat="48.63435" lon="-2.46691">
        <ele>86</ele>
        <time>2015-03-30T14:29:34.1Z</time>
      </trkpt>
      <trkpt lat="48.63438" lon="-2.46692">
        <ele>86</ele>
        <time>2015-03-30T14:29:36.1Z</time>
      </trkpt>
      <trkpt lat="48.6344" lon="-2.46692">
        <ele>86</ele>
        <time>2015-03-30T14:29:38.1Z</time>
      </trkpt>
      <trkpt lat="48.63443" lon="-2.46694">
        <ele>86</ele>
        <time>2015-03-30T14:29:41.1Z</time>
      </trkpt>
      <trkpt lat="48.63445" lon="-2.46694">
        <ele>86</ele>
        <time>2015-03-30T14:29:43.1Z</time>
      </trkpt>
      <trkpt lat="48.63447" lon="-2.46695">
        <ele>87</ele>
        <time>2015-03-30T14:29:45.1Z</time>
      </trkpt>
      <trkpt lat="48.63451" lon="-2.46696">
        <ele>86</ele>
        <time>2015-03-30T14:29:48.1Z</time>
      </trkpt>
      <trkpt lat="48.63453" lon="-2.46697">
        <ele>86</ele>
        <time>2015-03-30T14:29:50.1Z</time>
      </trkpt>
      <trkpt lat="48.63455" lon="-2.46698">
        <ele>86</ele>
        <time>2015-03-30T14:29:52.1Z</time>
      </trkpt>
      <trkpt lat="48.63457" lon="-2.46699">
        <ele>86</ele>
        <time>2015-03-30T14:29:55.1Z</time>
      </trkpt>
      <trkpt lat="48.63459" lon="-2.467">
        <ele>86</ele>
        <time>2015-03-30T14:29:57.1Z</time>
      </trkpt>
      <trkpt lat="48.63461" lon="-2.46701">
        <ele>86</ele>
        <time>2015-03-30T14:29:59.1Z</time>
      </trkpt>
      <trkpt lat="48.63464" lon="-2.46701">
        <ele>86</ele>
        <time>2015-03-30T14:30:02.1Z</time>
      </trkpt>
      <trkpt lat="48.63467" lon="-2.46702">
        <ele>86</ele>
        <time>2015-03-30T14:30:04.1Z</time>
      </trkpt>
      <trkpt lat="48.6347" lon="-2.46704">
        <ele>86</ele>
        <time>2015-03-30T14:30:07.1Z</time>
      </trkpt>
      <trkpt lat="48.63472" lon="-2.46705">
        <ele>86</ele>
        <time>2015-03-30T14:30:09.1Z</time>
      </trkpt>
      <trkpt lat="48.63475" lon="-2.46707">
        <ele>86</ele>
        <time>2015-03-30T14:30:12.1Z</time>
      </trkpt>
      <trkpt lat="48.63478" lon="-2.46708">
        <ele>86</ele>
        <time>2015-03-30T14:30:14.1Z</time>
      </trkpt>
      <trkpt lat="48.63481" lon="-2.46711">
        <ele>86</ele>
        <time>2015-03-30T14:30:17.1Z</time>
      </trkpt>
      <trkpt lat="48.63483" lon="-2.46711">
        <ele>86</ele>
        <time>2015-03-30T14:30:19.1Z</time>
      </trkpt>
      <trkpt lat="48.63486" lon="-2.46713">
        <ele>86</ele>
        <time>2015-03-30T14:30:22.1Z</time>
      </trkpt>
      <trkpt lat="48.6349" lon="-2.46714">
        <ele>86</ele>
        <time>2015-03-30T14:30:25.1Z</time>
      </trkpt>
      <trkpt lat="48.63492" lon="-2.46714">
        <ele>86</ele>
        <time>2015-03-30T14:30:27.1Z</time>
      </trkpt>
      <trkpt lat="48.63494" lon="-2.46714">
        <ele>86</ele>
        <time>2015-03-30T14:30:29.1Z</time>
      </trkpt>
      <trkpt lat="48.63498" lon="-2.46716">
        <ele>86</ele>
        <time>2015-03-30T14:30:32.1Z</time>
      </trkpt>
      <trkpt lat="48.635" lon="-2.46718">
        <ele>85</ele>
        <time>2015-03-30T14:30:34.1Z</time>
      </trkpt>
      <trkpt lat="48.63503" lon="-2.46721">
        <ele>86</ele>
        <time>2015-03-30T14:30:37.1Z</time>
      </trkpt>
      <trkpt lat="48.63505" lon="-2.46723">
        <ele>85</ele>
        <time>2015-03-30T14:30:39.1Z</time>
      </trkpt>
      <trkpt lat="48.63507" lon="-2.46725">
        <ele>85</ele>
        <time>2015-03-30T14:30:41.1Z</time>
      </trkpt>
      <trkpt lat="48.63509" lon="-2.46726">
        <ele>86</ele>
        <time>2015-03-30T14:30:43.1Z</time>
      </trkpt>
      <trkpt lat="48.63511" lon="-2.46728">
        <ele>86</ele>
        <time>2015-03-30T14:30:45.1Z</time>
      </trkpt>
      <trkpt lat="48.63514" lon="-2.46732">
        <ele>86</ele>
        <time>2015-03-30T14:30:48.1Z</time>
      </trkpt>
      <trkpt lat="48.63516" lon="-2.46733">
        <ele>86</ele>
        <time>2015-03-30T14:30:50.1Z</time>
      </trkpt>
      <trkpt lat="48.63518" lon="-2.46734">
        <ele>86</ele>
        <time>2015-03-30T14:30:52.1Z</time>
      </trkpt>
      <trkpt lat="48.63521" lon="-2.46738">
        <ele>86</ele>
        <time>2015-03-30T14:30:55.1Z</time>
      </trkpt>
      <trkpt lat="48.63523" lon="-2.4674">
        <ele>86</ele>
        <time>2015-03-30T14:30:57.1Z</time>
      </trkpt>
      <trkpt lat="48.63525" lon="-2.46743">
        <ele>86</ele>
        <time>2015-03-30T14:31:00.1Z</time>
      </trkpt>
      <trkpt lat="48.63528" lon="-2.46746">
        <ele>86</ele>
        <time>2015-03-30T14:31:03.1Z</time>
      </trkpt>
      <trkpt lat="48.6353" lon="-2.46748">
        <ele>86</ele>
        <time>2015-03-30T14:31:05.1Z</time>
      </trkpt>
      <trkpt lat="48.63532" lon="-2.4675">
        <ele>86</ele>
        <time>2015-03-30T14:31:07.1Z</time>
      </trkpt>
      <trkpt lat="48.63535" lon="-2.46754">
        <ele>86</ele>
        <time>2015-03-30T14:31:10.1Z</time>
      </trkpt>
      <trkpt lat="48.63538" lon="-2.46756">
        <ele>86</ele>
        <time>2015-03-30T14:31:13.1Z</time>
      </trkpt>
      <trkpt lat="48.63541" lon="-2.46758">
        <ele>86</ele>
        <time>2015-03-30T14:31:16.1Z</time>
      </trkpt>
      <trkpt lat="48.63543" lon="-2.46759">
        <ele>86</ele>
        <time>2015-03-30T14:31:18.1Z</time>
      </trkpt>
      <trkpt lat="48.63547" lon="-2.46761">
        <ele>86</ele>
        <time>2015-03-30T14:31:21.1Z</time>
      </trkpt>
      <trkpt lat="48.63549" lon="-2.46763">
        <ele>86</ele>
        <time>2015-03-30T14:31:23.1Z</time>
      </trkpt>
      <trkpt lat="48.63551" lon="-2.46764">
        <ele>86</ele>
        <time>2015-03-30T14:31:25.1Z</time>
      </trkpt>
      <trkpt lat="48.63553" lon="-2.46766">
        <ele>86</ele>
        <time>2015-03-30T14:31:27.1Z</time>
      </trkpt>
      <trkpt lat="48.63555" lon="-2.46768">
        <ele>86</ele>
        <time>2015-03-30T14:31:29.1Z</time>
      </trkpt>
      <trkpt lat="48.63558" lon="-2.4677">
        <ele>86</ele>
        <time>2015-03-30T14:31:32.1Z</time>
      </trkpt>
      <trkpt lat="48.6356" lon="-2.46771">
        <ele>87</ele>
        <time>2015-03-30T14:31:34.1Z</time>
      </trkpt>
      <trkpt lat="48.63562" lon="-2.46772">
        <ele>87</ele>
        <time>2015-03-30T14:31:36.1Z</time>
      </trkpt>
      <trkpt lat="48.63565" lon="-2.46773">
        <ele>87</ele>
        <time>2015-03-30T14:31:38.1Z</time>
      </trkpt>
      <trkpt lat="48.63567" lon="-2.46774">
        <ele>87</ele>
        <time>2015-03-30T14:31:40.1Z</time>
      </trkpt>
      <trkpt lat="48.6357" lon="-2.46776">
        <ele>86</ele>
        <time>2015-03-30T14:31:43.1Z</time>
      </trkpt>
      <trkpt lat="48.63572" lon="-2.46778">
        <ele>86</ele>
        <time>2015-03-30T14:31:45.1Z</time>
      </trkpt>
      <trkpt lat="48.63574" lon="-2.46781">
        <ele>86</ele>
        <time>2015-03-30T14:31:48.1Z</time>
      </trkpt>
      <trkpt lat="48.63577" lon="-2.46784">
        <ele>86</ele>
        <time>2015-03-30T14:31:51.1Z</time>
      </trkpt>
      <trkpt lat="48.6358" lon="-2.46788">
        <ele>87</ele>
        <time>2015-03-30T14:31:54.1Z</time>
      </trkpt>
      <trkpt lat="48.63581" lon="-2.4679">
        <ele>87</ele>
        <time>2015-03-30T14:31:56.1Z</time>
      </trkpt>
      <trkpt lat="48.63584" lon="-2.46793">
        <ele>86</ele>
        <time>2015-03-30T14:31:59.1Z</time>
      </trkpt>
      <trkpt lat="48.63586" lon="-2.46796">
        <ele>86</ele>
        <time>2015-03-30T14:32:01.1Z</time>
      </trkpt>
      <trkpt lat="48.63588" lon="-2.468">
        <ele>86</ele>
        <time>2015-03-30T14:32:04.1Z</time>
      </trkpt>
      <trkpt lat="48.63591" lon="-2.46804">
        <ele>86</ele>
        <time>2015-03-30T14:32:07.1Z</time>
      </trkpt>
      <trkpt lat="48.63592" lon="-2.46807">
        <ele>86</ele>
        <time>2015-03-30T14:32:09.1Z</time>
      </trkpt>
      <trkpt lat="48.63594" lon="-2.4681">
        <ele>86</ele>
        <time>2015-03-30T14:32:11.1Z</time>
      </trkpt>
      <trkpt lat="48.63596" lon="-2.46814">
        <ele>86</ele>
        <time>2015-03-30T14:32:14.1Z</time>
      </trkpt>
      <trkpt lat="48.63599" lon="-2.46817">
        <ele>87</ele>
        <time>2015-03-30T14:32:17.1Z</time>
      </trkpt>
      <trkpt lat="48.63602" lon="-2.4682">
        <ele>87</ele>
        <time>2015-03-30T14:32:20.1Z</time>
      </trkpt>
      <trkpt lat="48.63604" lon="-2.46822">
        <ele>87</ele>
        <time>2015-03-30T14:32:22.1Z</time>
      </trkpt>
      <trkpt lat="48.63605" lon="-2.46824">
        <ele>87</ele>
        <time>2015-03-30T14:32:24.1Z</time>
      </trkpt>
      <trkpt lat="48.63607" lon="-2.46829">
        <ele>87</ele>
        <time>2015-03-30T14:32:27.1Z</time>
      </trkpt>
      <trkpt lat="48.63609" lon="-2.46833">
        <ele>87</ele>
        <time>2015-03-30T14:32:30.1Z</time>
      </trkpt>
      <trkpt lat="48.6361" lon="-2.46837">
        <ele>87</ele>
        <time>2015-03-30T14:32:32.1Z</time>
      </trkpt>
      <trkpt lat="48.63611" lon="-2.4684">
        <ele>86</ele>
        <time>2015-03-30T14:32:34.1Z</time>
      </trkpt>
      <trkpt lat="48.63613" lon="-2.46844">
        <ele>87</ele>
        <time>2015-03-30T14:32:37.1Z</time>
      </trkpt>
      <trkpt lat="48.63615" lon="-2.46849">
        <ele>87</ele>
        <time>2015-03-30T14:32:40.1Z</time>
      </trkpt>
      <trkpt lat="48.63616" lon="-2.46852">
        <ele>87</ele>
        <time>2015-03-30T14:32:42.1Z</time>
      </trkpt>
      <trkpt lat="48.63617" lon="-2.46857">
        <ele>87</ele>
        <time>2015-03-30T14:32:45.1Z</time>
      </trkpt>
      <trkpt lat="48.63618" lon="-2.46862">
        <ele>86</ele>
        <time>2015-03-30T14:32:48.1Z</time>
      </trkpt>
      <trkpt lat="48.63619" lon="-2.46867">
        <ele>86</ele>
        <time>2015-03-30T14:32:51.1Z</time>
      </trkpt>
      <trkpt lat="48.6362" lon="-2.46872">
        <ele>87</ele>
        <time>2015-03-30T14:32:54.1Z</time>
      </trkpt>
      <trkpt lat="48.6362" lon="-2.46878">
        <ele>87</ele>
        <time>2015-03-30T14:32:57.1Z</time>
      </trkpt>
      <trkpt lat="48.6362" lon="-2.46881">
        <ele>87</ele>
        <time>2015-03-30T14:32:59.1Z</time>
      </trkpt>
      <trkpt lat="48.6362" lon="-2.46885">
        <ele>87</ele>
        <time>2015-03-30T14:33:01.1Z</time>
      </trkpt>
      <trkpt lat="48.63619" lon="-2.4689">
        <ele>87</ele>
        <time>2015-03-30T14:33:04.1Z</time>
      </trkpt>
      <trkpt lat="48.63619" lon="-2.46894">
        <ele>87</ele>
        <time>2015-03-30T14:33:06.1Z</time>
      </trkpt>
      <trkpt lat="48.63618" lon="-2.46898">
        <ele>87</ele>
        <time>2015-03-30T14:33:09.1Z</time>
      </trkpt>
      <trkpt lat="48.63617" lon="-2.46902">
        <ele>87</ele>
        <time>2015-03-30T14:33:12.1Z</time>
      </trkpt>
      <trkpt lat="48.63616" lon="-2.46905">
        <ele>87</ele>
        <time>2015-03-30T14:33:14.1Z</time>
      </trkpt>
      <trkpt lat="48.63614" lon="-2.46909">
        <ele>87</ele>
        <time>2015-03-30T14:33:17.1Z</time>
      </trkpt>
      <trkpt lat="48.63612" lon="-2.46914">
        <ele>87</ele>
        <time>2015-03-30T14:33:20.1Z</time>
      </trkpt>
      <trkpt lat="48.6361" lon="-2.46919">
        <ele>87</ele>
        <time>2015-03-30T14:33:23.1Z</time>
      </trkpt>
      <trkpt lat="48.63609" lon="-2.46922">
        <ele>87</ele>
        <time>2015-03-30T14:33:25.1Z</time>
      </trkpt>
      <trkpt lat="48.63608" lon="-2.46926">
        <ele>87</ele>
        <time>2015-03-30T14:33:27.1Z</time>
      </trkpt>
      <trkpt lat="48.63606" lon="-2.4693">
        <ele>87</ele>
        <time>2015-03-30T14:33:30.1Z</time>
      </trkpt>
      <trkpt lat="48.63605" lon="-2.46935">
        <ele>87</ele>
        <time>2015-03-30T14:33:33.1Z</time>
      </trkpt>
      <trkpt lat="48.63604" lon="-2.46938">
        <ele>87</ele>
        <time>2015-03-30T14:33:35.1Z</time>
      </trkpt>
      <trkpt lat="48.63602" lon="-2.46943">
        <ele>87</ele>
        <time>2015-03-30T14:33:38.1Z</time>
      </trkpt>
      <trkpt lat="48.63601" lon="-2.46947">
        <ele>87</ele>
        <time>2015-03-30T14:33:40.1Z</time>
      </trkpt>
      <trkpt lat="48.636" lon="-2.46953">
        <ele>87</ele>
        <time>2015-03-30T14:33:43.1Z</time>
      </trkpt>
      <trkpt lat="48.63599" lon="-2.46959">
        <ele>87</ele>
        <time>2015-03-30T14:33:46.1Z</time>
      </trkpt>
      <trkpt lat="48.63599" lon="-2.46962">
        <ele>87</ele>
        <time>2015-03-30T14:33:48.1Z</time>
      </trkpt>
      <trkpt lat="48.63598" lon="-2.46966">
        <ele>87</ele>
        <time>2015-03-30T14:33:50.1Z</time>
      </trkpt>
      <trkpt lat="48.63598" lon="-2.4697">
        <ele>87</ele>
        <time>2015-03-30T14:33:52.1Z</time>
      </trkpt>
      <trkpt lat="48.63597" lon="-2.46973">
        <ele>87</ele>
        <time>2015-03-30T14:33:54.1Z</time>
      </trkpt>
      <trkpt lat="48.63596" lon="-2.46978">
        <ele>87</ele>
        <time>2015-03-30T14:33:57.1Z</time>
      </trkpt>
      <trkpt lat="48.63596" lon="-2.46982">
        <ele>87</ele>
        <time>2015-03-30T14:33:59.1Z</time>
      </trkpt>
      <trkpt lat="48.63596" lon="-2.46987">
        <ele>87</ele>
        <time>2015-03-30T14:34:02.1Z</time>
      </trkpt>
      <trkpt lat="48.63595" lon="-2.4699">
        <ele>87</ele>
        <time>2015-03-30T14:34:04.1Z</time>
      </trkpt>
      <trkpt lat="48.63595" lon="-2.46994">
        <ele>87</ele>
        <time>2015-03-30T14:34:06.1Z</time>
      </trkpt>
      <trkpt lat="48.63595" lon="-2.46997">
        <ele>87</ele>
        <time>2015-03-30T14:34:08.1Z</time>
      </trkpt>
      <trkpt lat="48.63595" lon="-2.47002">
        <ele>87</ele>
        <time>2015-03-30T14:34:11.1Z</time>
      </trkpt>
      <trkpt lat="48.63595" lon="-2.47008">
        <ele>87</ele>
        <time>2015-03-30T14:34:14.1Z</time>
      </trkpt>
      <trkpt lat="48.63596" lon="-2.47011">
        <ele>88</ele>
        <time>2015-03-30T14:34:16.1Z</time>
      </trkpt>
      <trkpt lat="48.63596" lon="-2.47014">
        <ele>87</ele>
        <time>2015-03-30T14:34:18.1Z</time>
      </trkpt>
      <trkpt lat="48.63596" lon="-2.47019">
        <ele>87</ele>
        <time>2015-03-30T14:34:20.1Z</time>
      </trkpt>
      <trkpt lat="48.63596" lon="-2.47022">
        <ele>87</ele>
        <time>2015-03-30T14:34:22.1Z</time>
      </trkpt>
      <trkpt lat="48.63596" lon="-2.47028">
        <ele>87</ele>
        <time>2015-03-30T14:34:25.1Z</time>
      </trkpt>
      <trkpt lat="48.63596" lon="-2.47034">
        <ele>87</ele>
        <time>2015-03-30T14:34:28.1Z</time>
      </trkpt>
      <trkpt lat="48.63596" lon="-2.47038">
        <ele>87</ele>
        <time>2015-03-30T14:34:30.1Z</time>
      </trkpt>
      <trkpt lat="48.63596" lon="-2.47043">
        <ele>87</ele>
        <time>2015-03-30T14:34:33.1Z</time>
      </trkpt>
      <trkpt lat="48.63596" lon="-2.47047">
        <ele>87</ele>
        <time>2015-03-30T14:34:35.1Z</time>
      </trkpt>
      <trkpt lat="48.63596" lon="-2.47051">
        <ele>87</ele>
        <time>2015-03-30T14:34:37.1Z</time>
      </trkpt>
      <trkpt lat="48.63596" lon="-2.47055">
        <ele>87</ele>
        <time>2015-03-30T14:34:39.1Z</time>
      </trkpt>
      <trkpt lat="48.63596" lon="-2.47061">
        <ele>88</ele>
        <time>2015-03-30T14:34:42.1Z</time>
      </trkpt>
      <trkpt lat="48.63596" lon="-2.47065">
        <ele>87</ele>
        <time>2015-03-30T14:34:44.1Z</time>
      </trkpt>
      <trkpt lat="48.63597" lon="-2.47071">
        <ele>87</ele>
        <time>2015-03-30T14:34:47.1Z</time>
      </trkpt>
      <trkpt lat="48.63597" lon="-2.47075">
        <ele>87</ele>
        <time>2015-03-30T14:34:49.1Z</time>
      </trkpt>
      <trkpt lat="48.63597" lon="-2.47078">
        <ele>87</ele>
        <time>2015-03-30T14:34:51.1Z</time>
      </trkpt>
      <trkpt lat="48.63598" lon="-2.47082">
        <ele>87</ele>
        <time>2015-03-30T14:34:53.1Z</time>
      </trkpt>
      <trkpt lat="48.63598" lon="-2.47086">
        <ele>87</ele>
        <time>2015-03-30T14:34:55.1Z</time>
      </trkpt>
      <trkpt lat="48.63599" lon="-2.47091">
        <ele>87</ele>
        <time>2015-03-30T14:34:58.1Z</time>
      </trkpt>
      <trkpt lat="48.636" lon="-2.47094">
        <ele>87</ele>
        <time>2015-03-30T14:35:00.1Z</time>
      </trkpt>
      <trkpt lat="48.636" lon="-2.47098">
        <ele>87</ele>
        <time>2015-03-30T14:35:02.1Z</time>
      </trkpt>
      <trkpt lat="48.63601" lon="-2.47101">
        <ele>87</ele>
        <time>2015-03-30T14:35:04.1Z</time>
      </trkpt>
      <trkpt lat="48.63601" lon="-2.47105">
        <ele>87</ele>
        <time>2015-03-30T14:35:06.1Z</time>
      </trkpt>
      <trkpt lat="48.63601" lon="-2.4711">
        <ele>87</ele>
        <time>2015-03-30T14:35:09.1Z</time>
      </trkpt>
      <trkpt lat="48.63602" lon="-2.47113">
        <ele>88</ele>
        <time>2015-03-30T14:35:11.1Z</time>
      </trkpt>
      <trkpt lat="48.63602" lon="-2.47119">
        <ele>88</ele>
        <time>2015-03-30T14:35:14.1Z</time>
      </trkpt>
      <trkpt lat="48.63603" lon="-2.47124">
        <ele>87</ele>
        <time>2015-03-30T14:35:17.1Z</time>
      </trkpt>
      <trkpt lat="48.63604" lon="-2.47127">
        <ele>88</ele>
        <time>2015-03-30T14:35:19.1Z</time>
      </trkpt>
      <trkpt lat="48.63605" lon="-2.47131">
        <ele>88</ele>
        <time>2015-03-30T14:35:22.1Z</time>
      </trkpt>
      <trkpt lat="48.63605" lon="-2.47134">
        <ele>88</ele>
        <time>2015-03-30T14:35:24.1Z</time>
      </trkpt>
      <trkpt lat="48.63606" lon="-2.47138">
        <ele>88</ele>
        <time>2015-03-30T14:35:26.1Z</time>
      </trkpt>
      <trkpt lat="48.63607" lon="-2.47143">
        <ele>88</ele>
        <time>2015-03-30T14:35:29.1Z</time>
      </trkpt>
      <trkpt lat="48.63608" lon="-2.47146">
        <ele>87</ele>
        <time>2015-03-30T14:35:31.1Z</time>
      </trkpt>
      <trkpt lat="48.63608" lon="-2.47149">
        <ele>87</ele>
        <time>2015-03-30T14:35:33.1Z</time>
      </trkpt>
      <trkpt lat="48.63609" lon="-2.47153">
        <ele>87</ele>
        <time>2015-03-30T14:35:35.1Z</time>
      </trkpt>
      <trkpt lat="48.6361" lon="-2.47156">
        <ele>87</ele>
        <time>2015-03-30T14:35:37.1Z</time>
      </trkpt>
      <trkpt lat="48.6361" lon="-2.4716">
        <ele>87</ele>
        <time>2015-03-30T14:35:39.1Z</time>
      </trkpt>
      <trkpt lat="48.6361" lon="-2.47163">
        <ele>87</ele>
        <time>2015-03-30T14:35:41.1Z</time>
      </trkpt>
      <trkpt lat="48.63611" lon="-2.47168">
        <ele>87</ele>
        <time>2015-03-30T14:35:44.1Z</time>
      </trkpt>
      <trkpt lat="48.63611" lon="-2.47172">
        <ele>87</ele>
        <time>2015-03-30T14:35:46.1Z</time>
      </trkpt>
      <trkpt lat="48.63611" lon="-2.47178">
        <ele>88</ele>
        <time>2015-03-30T14:35:49.1Z</time>
      </trkpt>
      <trkpt lat="48.63612" lon="-2.47181">
        <ele>88</ele>
        <time>2015-03-30T14:35:51.1Z</time>
      </trkpt>
      <trkpt lat="48.63612" lon="-2.47184">
        <ele>88</ele>
        <time>2015-03-30T14:35:53.1Z</time>
      </trkpt>
      <trkpt lat="48.63613" lon="-2.47188">
        <ele>88</ele>
        <time>2015-03-30T14:35:55.1Z</time>
      </trkpt>
      <trkpt lat="48.63613" lon="-2.47194">
        <ele>88</ele>
        <time>2015-03-30T14:35:58.1Z</time>
      </trkpt>
      <trkpt lat="48.63614" lon="-2.47197">
        <ele>88</ele>
        <time>2015-03-30T14:36:00.1Z</time>
      </trkpt>
      <trkpt lat="48.63614" lon="-2.472">
        <ele>88</ele>
        <time>2015-03-30T14:36:02.1Z</time>
      </trkpt>
      <trkpt lat="48.63614" lon="-2.47203">
        <ele>88</ele>
        <time>2015-03-30T14:36:04.1Z</time>
      </trkpt>
      <trkpt lat="48.63615" lon="-2.47209">
        <ele>88</ele>
        <time>2015-03-30T14:36:07.1Z</time>
      </trkpt>
      <trkpt lat="48.63615" lon="-2.47213">
        <ele>88</ele>
        <time>2015-03-30T14:36:09.1Z</time>
      </trkpt>
      <trkpt lat="48.63615" lon="-2.47218">
        <ele>88</ele>
        <time>2015-03-30T14:36:12.1Z</time>
      </trkpt>
      <trkpt lat="48.63616" lon="-2.47222">
        <ele>88</ele>
        <time>2015-03-30T14:36:14.1Z</time>
      </trkpt>
      <trkpt lat="48.63616" lon="-2.47226">
        <ele>88</ele>
        <time>2015-03-30T14:36:16.1Z</time>
      </trkpt>
      <trkpt lat="48.63617" lon="-2.47232">
        <ele>88</ele>
        <time>2015-03-30T14:36:19.1Z</time>
      </trkpt>
      <trkpt lat="48.63617" lon="-2.47236">
        <ele>87</ele>
        <time>2015-03-30T14:36:21.1Z</time>
      </trkpt>
      <trkpt lat="48.63618" lon="-2.4724">
        <ele>87</ele>
        <time>2015-03-30T14:36:23.1Z</time>
      </trkpt>
      <trkpt lat="48.63618" lon="-2.47245">
        <ele>88</ele>
        <time>2015-03-30T14:36:26.1Z</time>
      </trkpt>
      <trkpt lat="48.6362" lon="-2.47251">
        <ele>88</ele>
        <time>2015-03-30T14:36:29.1Z</time>
      </trkpt>
      <trkpt lat="48.6362" lon="-2.47254">
        <ele>88</ele>
        <time>2015-03-30T14:36:31.1Z</time>
      </trkpt>
      <trkpt lat="48.6362" lon="-2.47258">
        <ele>87</ele>
        <time>2015-03-30T14:36:33.1Z</time>
      </trkpt>
      <trkpt lat="48.6362" lon="-2.47264">
        <ele>87</ele>
        <time>2015-03-30T14:36:36.1Z</time>
      </trkpt>
      <trkpt lat="48.63621" lon="-2.4727">
        <ele>87</ele>
        <time>2015-03-30T14:36:39.1Z</time>
      </trkpt>
      <trkpt lat="48.63622" lon="-2.47272">
        <ele>88</ele>
        <time>2015-03-30T14:36:41.1Z</time>
      </trkpt>
      <trkpt lat="48.63625" lon="-2.47276">
        <ele>88</ele>
        <time>2015-03-30T14:36:44.1Z</time>
      </trkpt>
      <trkpt lat="48.63627" lon="-2.47281">
        <ele>88</ele>
        <time>2015-03-30T14:36:47.1Z</time>
      </trkpt>
      <trkpt lat="48.63628" lon="-2.47285">
        <ele>87</ele>
        <time>2015-03-30T14:36:50.1Z</time>
      </trkpt>
      <trkpt lat="48.6363" lon="-2.47288">
        <ele>88</ele>
        <time>2015-03-30T14:36:52.1Z</time>
      </trkpt>
      <trkpt lat="48.63631" lon="-2.47291">
        <ele>88</ele>
        <time>2015-03-30T14:36:54.1Z</time>
      </trkpt>
      <trkpt lat="48.63631" lon="-2.47293">
        <ele>88</ele>
        <time>2015-03-30T14:36:56.1Z</time>
      </trkpt>
      <trkpt lat="48.63633" lon="-2.47296">
        <ele>88</ele>
        <time>2015-03-30T14:36:59.1Z</time>
      </trkpt>
      <trkpt lat="48.63633" lon="-2.47299">
        <ele>88</ele>
        <time>2015-03-30T14:37:01.1Z</time>
      </trkpt>
      <trkpt lat="48.63634" lon="-2.47301">
        <ele>88</ele>
        <time>2015-03-30T14:37:03.1Z</time>
      </trkpt>
      <trkpt lat="48.63636" lon="-2.47302">
        <ele>88</ele>
        <time>2015-03-30T14:37:06.1Z</time>
      </trkpt>
      <trkpt lat="48.63638" lon="-2.47297">
        <ele>89</ele>
        <time>2015-03-30T14:37:09.1Z</time>
      </trkpt>
      <trkpt lat="48.63638" lon="-2.47294">
        <ele>89</ele>
        <time>2015-03-30T14:37:12.1Z</time>
      </trkpt>
      <trkpt lat="48.63627" lon="-2.47285">
        <ele>89</ele>
        <time>2015-03-30T14:37:18.1Z</time>
      </trkpt>
      <trkpt lat="48.63626" lon="-2.4728">
        <ele>89</ele>
        <time>2015-03-30T14:37:20.1Z</time>
      </trkpt>
      <trkpt lat="48.63628" lon="-2.47273">
        <ele>88</ele>
        <time>2015-03-30T14:37:23.1Z</time>
      </trkpt>
      <trkpt lat="48.63629" lon="-2.47271">
        <ele>88</ele>
        <time>2015-03-30T14:37:25.1Z</time>
      </trkpt>
      <trkpt lat="48.63631" lon="-2.47269">
        <ele>88</ele>
        <time>2015-03-30T14:37:27.1Z</time>
      </trkpt>
      <trkpt lat="48.63632" lon="-2.47271">
        <ele>88</ele>
        <time>2015-03-30T14:37:30.1Z</time>
      </trkpt>
      <trkpt lat="48.63631" lon="-2.47277">
        <ele>89</ele>
        <time>2015-03-30T14:37:33.1Z</time>
      </trkpt>
      <trkpt lat="48.6363" lon="-2.47281">
        <ele>89</ele>
        <time>2015-03-30T14:37:35.1Z</time>
      </trkpt>
      <trkpt lat="48.63627" lon="-2.47287">
        <ele>88</ele>
        <time>2015-03-30T14:37:38.1Z</time>
      </trkpt>
      <trkpt lat="48.63625" lon="-2.47291">
        <ele>88</ele>
        <time>2015-03-30T14:37:40.1Z</time>
      </trkpt>
      <trkpt lat="48.63624" lon="-2.47295">
        <ele>88</ele>
        <time>2015-03-30T14:37:43.1Z</time>
      </trkpt>
      <trkpt lat="48.63624" lon="-2.47297">
        <ele>88</ele>
        <time>2015-03-30T14:37:46.1Z</time>
      </trkpt>
      <trkpt lat="48.63623" lon="-2.47298">
        <ele>88</ele>
        <time>2015-03-30T14:37:49.1Z</time>
      </trkpt>
      <trkpt lat="48.63621" lon="-2.47295">
        <ele>88</ele>
        <time>2015-03-30T14:37:51.1Z</time>
      </trkpt>
      <trkpt lat="48.6362" lon="-2.47296">
        <ele>88</ele>
        <time>2015-03-30T14:37:53.1Z</time>
      </trkpt>
      <trkpt lat="48.63621" lon="-2.47298">
        <ele>89</ele>
        <time>2015-03-30T14:37:55.1Z</time>
      </trkpt>
      <trkpt lat="48.63624" lon="-2.47304">
        <ele>89</ele>
        <time>2015-03-30T14:37:58.1Z</time>
      </trkpt>
      <trkpt lat="48.63625" lon="-2.47309">
        <ele>89</ele>
        <time>2015-03-30T14:38:01.1Z</time>
      </trkpt>
      <trkpt lat="48.63626" lon="-2.47316">
        <ele>89</ele>
        <time>2015-03-30T14:38:04.1Z</time>
      </trkpt>
      <trkpt lat="48.63627" lon="-2.47319">
        <ele>89</ele>
        <time>2015-03-30T14:38:06.1Z</time>
      </trkpt>
      <trkpt lat="48.63628" lon="-2.47323">
        <ele>89</ele>
        <time>2015-03-30T14:38:08.1Z</time>
      </trkpt>
      <trkpt lat="48.6363" lon="-2.47328">
        <ele>89</ele>
        <time>2015-03-30T14:38:11.1Z</time>
      </trkpt>
      <trkpt lat="48.6363" lon="-2.47331">
        <ele>89</ele>
        <time>2015-03-30T14:38:13.1Z</time>
      </trkpt>
      <trkpt lat="48.6363" lon="-2.47333">
        <ele>89</ele>
        <time>2015-03-30T14:38:15.1Z</time>
      </trkpt>
    </trkseg>
  </trk>
</gpx>